<?xml version='1.0' encoding='UTF-8'?><gpx version="1.1" creator="JPX - https://github.com/jenetics/jpx" xmlns="http://www.topografix.com/GPX/1/1"><trk><trkseg><trkpt lat="45.61590649703694" lon="9.584679386261682"><ele>180.0</ele><time>2026-03-29T07:38:10.312Z</time></trkpt><trkpt lat="45.615978490361115" lon="9.584646331405079"><ele>180.0</ele><time>2026-03-29T07:38:11.325Z</time></trkpt><trkpt lat="45.61616106877389" lon="9.584642643174936"><ele>180.0</ele><time>2026-03-29T07:38:12.319Z</time></trkpt><trkpt lat="45.616242523781104" lon="9.584763621023408"><ele>180.0</ele><time>2026-03-29T07:38:16.012Z</time></trkpt><trkpt lat="45.6160124938596" lon="9.584850932726617"><ele>180.0</ele><time>2026-03-29T07:38:27.006Z</time></trkpt><trkpt lat="45.616145930610244" lon="9.584676226282541"><ele>180.0</ele><time>2026-03-29T07:38:33.004Z</time></trkpt><trkpt lat="45.616098355967665" lon="9.584607775387529"><ele>180.0</ele><time>2026-03-29T07:39:09Z</time></trkpt><trkpt lat="45.616007367535275" lon="9.584570665253509"><ele>180.0</ele><time>2026-03-29T07:39:12Z</time></trkpt><trkpt lat="45.61592292821987" lon="9.584526638002757"><ele>180.0</ele><time>2026-03-29T07:39:14Z</time></trkpt><trkpt lat="45.61583878716609" lon="9.584492611936195"><ele>180.28571428571428</ele><time>2026-03-29T07:39:16Z</time></trkpt><trkpt lat="45.61576170131673" lon="9.584465093974254"><ele>180.57142857142858</ele><time>2026-03-29T07:39:18Z</time></trkpt><trkpt lat="45.61568546976724" lon="9.584420512134155"><ele>180.85714285714286</ele><time>2026-03-29T07:39:20Z</time></trkpt><trkpt lat="45.615616613825225" lon="9.58440732702227"><ele>181.14285714285714</ele><time>2026-03-29T07:39:22Z</time></trkpt><trkpt lat="45.615554452030295" lon="9.584366621395242"><ele>181.42857142857144</ele><time>2026-03-29T07:39:25Z</time></trkpt><trkpt lat="45.61553374514857" lon="9.584268407412772"><ele>181.71428571428572</ele><time>2026-03-29T07:39:31Z</time></trkpt><trkpt lat="45.61554869378219" lon="9.584172693999612"><ele>182.0</ele><time>2026-03-29T07:39:33Z</time></trkpt><trkpt lat="45.61555138541321" lon="9.584059632372869"><ele>182.0</ele><time>2026-03-29T07:39:35Z</time></trkpt><trkpt lat="45.61555693580463" lon="9.583940962393015"><ele>182.0</ele><time>2026-03-29T07:39:37Z</time></trkpt><trkpt lat="45.61555751154339" lon="9.583831505425378"><ele>182.0</ele><time>2026-03-29T07:39:39Z</time></trkpt><trkpt lat="45.61556811278742" lon="9.583702554419082"><ele>182.0</ele><time>2026-03-29T07:39:41Z</time></trkpt><trkpt lat="45.61558930636924" lon="9.583555531301691"><ele>182.0</ele><time>2026-03-29T07:39:43Z</time></trkpt><trkpt lat="45.6155932694912" lon="9.583416137077338"><ele>181.8</ele><time>2026-03-29T07:39:45Z</time></trkpt><trkpt lat="45.61560032813845" lon="9.583276360349938"><ele>181.6</ele><time>2026-03-29T07:39:47Z</time></trkpt><trkpt lat="45.61563590340459" lon="9.583117541938273"><ele>181.4</ele><time>2026-03-29T07:39:49Z</time></trkpt><trkpt lat="45.615670427836214" lon="9.58296227528713"><ele>181.20000000000002</ele><time>2026-03-29T07:39:51Z</time></trkpt><trkpt lat="45.61568146806427" lon="9.58281750332373"><ele>181.0</ele><time>2026-03-29T07:39:53Z</time></trkpt><trkpt lat="45.61572924612519" lon="9.582739821109037"><ele>181.0</ele><time>2026-03-29T07:39:54Z</time></trkpt><trkpt lat="45.615760219492394" lon="9.582584884296997"><ele>181.0</ele><time>2026-03-29T07:39:56Z</time></trkpt><trkpt lat="45.615781596442844" lon="9.582436329177202"><ele>181.0</ele><time>2026-03-29T07:39:58Z</time></trkpt><trkpt lat="45.61582325663965" lon="9.582292005642849"><ele>181.0</ele><time>2026-03-29T07:40:00Z</time></trkpt><trkpt lat="45.61585835715937" lon="9.582126472210396"><ele>181.0</ele><time>2026-03-29T07:40:02Z</time></trkpt><trkpt lat="45.615902120322446" lon="9.581977542768048"><ele>181.0</ele><time>2026-03-29T07:40:04Z</time></trkpt><trkpt lat="45.61593154241762" lon="9.581824049151674"><ele>181.0</ele><time>2026-03-29T07:40:06Z</time></trkpt><trkpt lat="45.61596388139274" lon="9.581682531151822"><ele>181.0</ele><time>2026-03-29T07:40:08Z</time></trkpt><trkpt lat="45.615991063231164" lon="9.581516877622667"><ele>181.0</ele><time>2026-03-29T07:40:10Z</time></trkpt><trkpt lat="45.616018870797184" lon="9.58134910506128"><ele>181.0</ele><time>2026-03-29T07:40:12Z</time></trkpt><trkpt lat="45.61605269907736" lon="9.581209188987133"><ele>181.0</ele><time>2026-03-29T07:40:14Z</time></trkpt><trkpt lat="45.616082763455154" lon="9.581057604031281"><ele>181.0</ele><time>2026-03-29T07:40:16Z</time></trkpt><trkpt lat="45.61612459686055" lon="9.580894287676378"><ele>181.0</ele><time>2026-03-29T07:40:18Z</time></trkpt><trkpt lat="45.616152872909254" lon="9.580738539699672"><ele>181.0</ele><time>2026-03-29T07:40:20Z</time></trkpt><trkpt lat="45.616184191441526" lon="9.58059084441294"><ele>181.25</ele><time>2026-03-29T07:40:22Z</time></trkpt><trkpt lat="45.616217057210335" lon="9.580442036948817"><ele>181.5</ele><time>2026-03-29T07:40:24Z</time></trkpt><trkpt lat="45.616240487769524" lon="9.580280590797514"><ele>181.75</ele><time>2026-03-29T07:40:26Z</time></trkpt><trkpt lat="45.616281419158106" lon="9.580139616310714"><ele>182.0</ele><time>2026-03-29T07:40:28Z</time></trkpt><trkpt lat="45.61635704068012" lon="9.580006906379046"><ele>182.0</ele><time>2026-03-29T07:40:30Z</time></trkpt><trkpt lat="45.616408791292216" lon="9.579862089000716"><ele>182.0</ele><time>2026-03-29T07:40:32Z</time></trkpt><trkpt lat="45.61646533508017" lon="9.57971527165863"><ele>182.0</ele><time>2026-03-29T07:40:34Z</time></trkpt><trkpt lat="45.61650425165594" lon="9.579642314921605"><ele>182.0</ele><time>2026-03-29T07:40:35Z</time></trkpt><trkpt lat="45.61656236551673" lon="9.57950372682704"><ele>182.0</ele><time>2026-03-29T07:40:37Z</time></trkpt><trkpt lat="45.61661359340743" lon="9.579359450180165"><ele>182.0</ele><time>2026-03-29T07:40:39Z</time></trkpt><trkpt lat="45.61666752842375" lon="9.57921327726501"><ele>182.0</ele><time>2026-03-29T07:40:41Z</time></trkpt><trkpt lat="45.616734496916436" lon="9.579088273201423"><ele>182.0</ele><time>2026-03-29T07:40:43Z</time></trkpt><trkpt lat="45.616790548834246" lon="9.578949915493958"><ele>182.0</ele><time>2026-03-29T07:40:45Z</time></trkpt><trkpt lat="45.61683829948772" lon="9.578816149895555"><ele>182.0</ele><time>2026-03-29T07:40:47Z</time></trkpt><trkpt lat="45.61690984282391" lon="9.5786745331946"><ele>182.0</ele><time>2026-03-29T07:40:49Z</time></trkpt><trkpt lat="45.61697855704674" lon="9.578545758046333"><ele>182.0</ele><time>2026-03-29T07:40:51Z</time></trkpt><trkpt lat="45.61706663949882" lon="9.578449352781458"><ele>182.0</ele><time>2026-03-29T07:40:53Z</time></trkpt><trkpt lat="45.61716008793715" lon="9.578362471363157"><ele>182.0</ele><time>2026-03-29T07:40:55Z</time></trkpt><trkpt lat="45.617254108067335" lon="9.57827561243899"><ele>182.0</ele><time>2026-03-29T07:40:57Z</time></trkpt><trkpt lat="45.617342391766414" lon="9.578179243367483"><ele>181.75</ele><time>2026-03-29T07:40:59Z</time></trkpt><trkpt lat="45.61741825325924" lon="9.578068297864737"><ele>181.5</ele><time>2026-03-29T07:41:01Z</time></trkpt><trkpt lat="45.61747278281785" lon="9.577919764373712"><ele>181.25</ele><time>2026-03-29T07:41:03Z</time></trkpt><trkpt lat="45.617497943769585" lon="9.577746785644814"><ele>181.0</ele><time>2026-03-29T07:41:05Z</time></trkpt><trkpt lat="45.617524482875226" lon="9.577589112500736"><ele>181.0</ele><time>2026-03-29T07:41:07Z</time></trkpt><trkpt lat="45.61754451957742" lon="9.577500478294718"><ele>181.0</ele><time>2026-03-29T07:41:08Z</time></trkpt><trkpt lat="45.61757389663773" lon="9.57732625729281"><ele>181.0</ele><time>2026-03-29T07:41:10Z</time></trkpt><trkpt lat="45.61761119994146" lon="9.577154026371463"><ele>181.0</ele><time>2026-03-29T07:41:12Z</time></trkpt><trkpt lat="45.617643067265746" lon="9.576983931440656"><ele>181.0</ele><time>2026-03-29T07:41:14Z</time></trkpt><trkpt lat="45.6176658408964" lon="9.576896722958464"><ele>181.0</ele><time>2026-03-29T07:41:15Z</time></trkpt><trkpt lat="45.61768976134539" lon="9.576811707048476"><ele>181.0</ele><time>2026-03-29T07:41:16Z</time></trkpt><trkpt lat="45.61773193986003" lon="9.576653160125682"><ele>181.0</ele><time>2026-03-29T07:41:18Z</time></trkpt><trkpt lat="45.61777663168333" lon="9.576492933403195"><ele>181.0</ele><time>2026-03-29T07:41:20Z</time></trkpt><trkpt lat="45.617801248953704" lon="9.576325534056032"><ele>181.0</ele><time>2026-03-29T07:41:22Z</time></trkpt><trkpt lat="45.617831885654745" lon="9.576163562451141"><ele>181.0</ele><time>2026-03-29T07:41:24Z</time></trkpt><trkpt lat="45.61787962984836" lon="9.576008467107862"><ele>181.0</ele><time>2026-03-29T07:41:26Z</time></trkpt><trkpt lat="45.61795345033856" lon="9.575872434664936"><ele>181.0</ele><time>2026-03-29T07:41:28Z</time></trkpt><trkpt lat="45.61801786172317" lon="9.575806034869755"><ele>181.0</ele><time>2026-03-29T07:41:29Z</time></trkpt><trkpt lat="45.6180613251034" lon="9.575663919143423"><ele>181.0</ele><time>2026-03-29T07:41:31Z</time></trkpt><trkpt lat="45.618091657182596" lon="9.57552215573737"><ele>181.0</ele><time>2026-03-29T07:41:33Z</time></trkpt><trkpt lat="45.61813540908554" lon="9.5754273399957"><ele>181.0</ele><time>2026-03-29T07:41:35Z</time></trkpt><trkpt lat="45.61821258095004" lon="9.575336992702422"><ele>181.0</ele><time>2026-03-29T07:41:37Z</time></trkpt><trkpt lat="45.618266116340806" lon="9.575213960990263"><ele>181.0</ele><time>2026-03-29T07:41:39Z</time></trkpt><trkpt lat="45.618267606106585" lon="9.57505347068914"><ele>181.0</ele><time>2026-03-29T07:41:41Z</time></trkpt><trkpt lat="45.61826747664003" lon="9.574913559200555"><ele>181.0</ele><time>2026-03-29T07:41:43Z</time></trkpt><trkpt lat="45.61828770071159" lon="9.57476719110826"><ele>181.0</ele><time>2026-03-29T07:41:45Z</time></trkpt><trkpt lat="45.61830975186707" lon="9.574624224657452"><ele>181.0</ele><time>2026-03-29T07:41:47Z</time></trkpt><trkpt lat="45.61833424515472" lon="9.57447536375278"><ele>181.0</ele><time>2026-03-29T07:41:49Z</time></trkpt><trkpt lat="45.61833461368966" lon="9.574312123609774"><ele>181.0</ele><time>2026-03-29T07:41:51Z</time></trkpt><trkpt lat="45.618369498873825" lon="9.574161844196327"><ele>181.0</ele><time>2026-03-29T07:41:53Z</time></trkpt><trkpt lat="45.61838231409678" lon="9.574020832901317"><ele>181.0</ele><time>2026-03-29T07:41:55Z</time></trkpt><trkpt lat="45.618410124557414" lon="9.573882464126129"><ele>181.0</ele><time>2026-03-29T07:41:57Z</time></trkpt><trkpt lat="45.61843853880095" lon="9.573721345427403"><ele>181.0</ele><time>2026-03-29T07:41:59Z</time></trkpt><trkpt lat="45.618460967626646" lon="9.57356367188161"><ele>181.0</ele><time>2026-03-29T07:42:01Z</time></trkpt><trkpt lat="45.61846493039376" lon="9.573409455406784"><ele>181.0</ele><time>2026-03-29T07:42:03Z</time></trkpt><trkpt lat="45.618487334257935" lon="9.573254750086337"><ele>181.0</ele><time>2026-03-29T07:42:05Z</time></trkpt><trkpt lat="45.61850175746629" lon="9.573099768198093"><ele>181.0</ele><time>2026-03-29T07:42:07Z</time></trkpt><trkpt lat="45.61854595926083" lon="9.572943940872012"><ele>181.0</ele><time>2026-03-29T07:42:09Z</time></trkpt><trkpt lat="45.618584984236726" lon="9.572867797548533"><ele>181.0</ele><time>2026-03-29T07:42:10Z</time></trkpt><trkpt lat="45.6185994094953" lon="9.57272520363121"><ele>181.0</ele><time>2026-03-29T07:42:12Z</time></trkpt><trkpt lat="45.618616468774206" lon="9.572586001938538"><ele>181.0</ele><time>2026-03-29T07:42:14Z</time></trkpt><trkpt lat="45.61863226007954" lon="9.572425616196536"><ele>181.0</ele><time>2026-03-29T07:42:16.001Z</time></trkpt><trkpt lat="45.61862919580448" lon="9.572281549613436"><ele>181.0</ele><time>2026-03-29T07:42:18.001Z</time></trkpt><trkpt lat="45.61864315438899" lon="9.572137627874547"><ele>181.0</ele><time>2026-03-29T07:42:20.001Z</time></trkpt><trkpt lat="45.61866669905127" lon="9.571985800131971"><ele>180.60000000000002</ele><time>2026-03-29T07:42:22.001Z</time></trkpt><trkpt lat="45.61871513642159" lon="9.571841117557106"><ele>180.2</ele><time>2026-03-29T07:42:24.001Z</time></trkpt><trkpt lat="45.61877194701918" lon="9.571720303903195"><ele>179.8</ele><time>2026-03-29T07:42:26.001Z</time></trkpt><trkpt lat="45.61884550540192" lon="9.571632270396082"><ele>179.39999999999998</ele><time>2026-03-29T07:42:28.001Z</time></trkpt><trkpt lat="45.61892171739087" lon="9.571569507416173"><ele>179.0</ele><time>2026-03-29T07:42:30.001Z</time></trkpt><trkpt lat="45.6190187754046" lon="9.571538402207814"><ele>179.0</ele><time>2026-03-29T07:42:32.001Z</time></trkpt><trkpt lat="45.61910296956198" lon="9.571514065566804"><ele>179.0</ele><time>2026-03-29T07:42:34Z</time></trkpt><trkpt lat="45.61919296437826" lon="9.571489367368219"><ele>179.0</ele><time>2026-03-29T07:42:36Z</time></trkpt><trkpt lat="45.61928405771549" lon="9.571455868538763"><ele>179.0</ele><time>2026-03-29T07:42:38Z</time></trkpt><trkpt lat="45.619375419629506" lon="9.571429742148124"><ele>179.0</ele><time>2026-03-29T07:42:40Z</time></trkpt><trkpt lat="45.61947216603678" lon="9.571398789317847"><ele>179.16666666666666</ele><time>2026-03-29T07:42:42Z</time></trkpt><trkpt lat="45.619575302889295" lon="9.571362524110928"><ele>179.33333333333331</ele><time>2026-03-29T07:42:44Z</time></trkpt><trkpt lat="45.619687804950246" lon="9.57133773411016"><ele>179.5</ele><time>2026-03-29T07:42:46Z</time></trkpt><trkpt lat="45.619750078782836" lon="9.571351299086922"><ele>179.66666666666666</ele><time>2026-03-29T07:42:47Z</time></trkpt><trkpt lat="45.61981649765766" lon="9.571374080327251"><ele>179.83333333333334</ele><time>2026-03-29T07:42:48Z</time></trkpt><trkpt lat="45.6198896992792" lon="9.571412981628889"><ele>180.0</ele><time>2026-03-29T07:42:49Z</time></trkpt><trkpt lat="45.61996261806311" lon="9.57146549571633"><ele>180.0</ele><time>2026-03-29T07:42:50Z</time></trkpt><trkpt lat="45.62002674004501" lon="9.571528600375188"><ele>180.0</ele><time>2026-03-29T07:42:51Z</time></trkpt><trkpt lat="45.62008659724261" lon="9.57159879658872"><ele>180.0</ele><time>2026-03-29T07:42:52Z</time></trkpt><trkpt lat="45.62015172231554" lon="9.571679926937836"><ele>180.0</ele><time>2026-03-29T07:42:53Z</time></trkpt><trkpt lat="45.62021976638943" lon="9.571759276705395"><ele>180.0</ele><time>2026-03-29T07:42:54Z</time></trkpt><trkpt lat="45.620300466362806" lon="9.571825938370601"><ele>180.0</ele><time>2026-03-29T07:42:55Z</time></trkpt><trkpt lat="45.62039066612967" lon="9.571878888921264"><ele>180.0</ele><time>2026-03-29T07:42:56Z</time></trkpt><trkpt lat="45.62047913347277" lon="9.571918736308215"><ele>180.0</ele><time>2026-03-29T07:42:57Z</time></trkpt><trkpt lat="45.62056399672104" lon="9.571963132640988"><ele>180.0</ele><time>2026-03-29T07:42:58Z</time></trkpt><trkpt lat="45.620650739526276" lon="9.572006666382979"><ele>180.0</ele><time>2026-03-29T07:42:59Z</time></trkpt><trkpt lat="45.620734048526124" lon="9.57205428455243"><ele>180.0</ele><time>2026-03-29T07:43:00Z</time></trkpt><trkpt lat="45.62080984569535" lon="9.572094727688494"><ele>180.0</ele><time>2026-03-29T07:43:01Z</time></trkpt><trkpt lat="45.62088574610985" lon="9.572135207473119"><ele>180.0</ele><time>2026-03-29T07:43:02Z</time></trkpt><trkpt lat="45.62095375264516" lon="9.572173803277922"><ele>180.0</ele><time>2026-03-29T07:43:03Z</time></trkpt><trkpt lat="45.621026272144555" lon="9.57220703183838"><ele>180.0</ele><time>2026-03-29T07:43:04Z</time></trkpt><trkpt lat="45.621101321044215" lon="9.572232684800483"><ele>180.0</ele><time>2026-03-29T07:43:05Z</time></trkpt><trkpt lat="45.621169372444854" lon="9.572259249599856"><ele>180.0</ele><time>2026-03-29T07:43:06Z</time></trkpt><trkpt lat="45.62123514787098" lon="9.572276762722359"><ele>180.0</ele><time>2026-03-29T07:43:07Z</time></trkpt><trkpt lat="45.621359778372536" lon="9.572291908046655"><ele>180.8</ele><time>2026-03-29T07:43:09Z</time></trkpt><trkpt lat="45.621425275218684" lon="9.572303822601375"><ele>181.6</ele><time>2026-03-29T07:43:10Z</time></trkpt><trkpt lat="45.62148342451835" lon="9.572350207543"><ele>182.39999999999998</ele><time>2026-03-29T07:43:11Z</time></trkpt><trkpt lat="45.6215933894096" lon="9.572425071377108"><ele>183.2</ele><time>2026-03-29T07:43:13Z</time></trkpt><trkpt lat="45.62169748376445" lon="9.57248997232166"><ele>184.0</ele><time>2026-03-29T07:43:15Z</time></trkpt><trkpt lat="45.62180443920454" lon="9.572531824854515"><ele>184.0</ele><time>2026-03-29T07:43:17Z</time></trkpt><trkpt lat="45.62190747278271" lon="9.572585762400028"><ele>184.0</ele><time>2026-03-29T07:43:19Z</time></trkpt><trkpt lat="45.622002961700126" lon="9.572652394977043"><ele>184.0</ele><time>2026-03-29T07:43:21Z</time></trkpt><trkpt lat="45.62203757601561" lon="9.572728692882709"><ele>184.0</ele><time>2026-03-29T07:43:22Z</time></trkpt><trkpt lat="45.62209420753981" lon="9.572854369233596"><ele>184.0</ele><time>2026-03-29T07:43:24Z</time></trkpt><trkpt lat="45.62211704593213" lon="9.57297945211954"><ele>184.0</ele><time>2026-03-29T07:43:26Z</time></trkpt><trkpt lat="45.622162530926815" lon="9.573130828449754"><ele>184.0</ele><time>2026-03-29T07:43:28Z</time></trkpt><trkpt lat="45.62227743307018" lon="9.573129144347655"><ele>184.0</ele><time>2026-03-29T07:43:30Z</time></trkpt><trkpt lat="45.62231821590761" lon="9.573048776801317"><ele>184.0</ele><time>2026-03-29T07:43:31Z</time></trkpt><trkpt lat="45.62233667435975" lon="9.572929727805978"><ele>184.0</ele><time>2026-03-29T07:43:32Z</time></trkpt><trkpt lat="45.622359800306576" lon="9.572831710461877"><ele>184.0</ele><time>2026-03-29T07:43:33Z</time></trkpt><trkpt lat="45.62238439346769" lon="9.57269359673006"><ele>184.0</ele><time>2026-03-29T07:43:35Z</time></trkpt><trkpt lat="45.62241659033823" lon="9.572608513049131"><ele>184.0</ele><time>2026-03-29T07:43:36Z</time></trkpt><trkpt lat="45.622467065159746" lon="9.572473950540058"><ele>184.0</ele><time>2026-03-29T07:43:38Z</time></trkpt><trkpt lat="45.62253417580878" lon="9.572415467348574"><ele>184.0</ele><time>2026-03-29T07:43:39Z</time></trkpt><trkpt lat="45.62261910019368" lon="9.572287003976138"><ele>184.0</ele><time>2026-03-29T07:43:41Z</time></trkpt><trkpt lat="45.62266514766342" lon="9.572221395620891"><ele>184.0</ele><time>2026-03-29T07:43:42Z</time></trkpt><trkpt lat="45.62275779189769" lon="9.572098077345775"><ele>184.0</ele><time>2026-03-29T07:43:44Z</time></trkpt><trkpt lat="45.622826547309316" lon="9.57196278953842"><ele>184.0</ele><time>2026-03-29T07:43:46Z</time></trkpt><trkpt lat="45.622895302746635" lon="9.5718416206529"><ele>184.0</ele><time>2026-03-29T07:43:48Z</time></trkpt><trkpt lat="45.62296655936852" lon="9.571719819350553"><ele>184.5</ele><time>2026-03-29T07:43:50Z</time></trkpt><trkpt lat="45.623040346332445" lon="9.571599168667442"><ele>185.0</ele><time>2026-03-29T07:43:52Z</time></trkpt><trkpt lat="45.623107191002916" lon="9.5714753497064"><ele>185.5</ele><time>2026-03-29T07:43:54Z</time></trkpt><trkpt lat="45.62318452509642" lon="9.571348432423186"><ele>186.0</ele><time>2026-03-29T07:43:56Z</time></trkpt><trkpt lat="45.62326091602795" lon="9.571226810202287"><ele>185.60000000000002</ele><time>2026-03-29T07:43:58Z</time></trkpt><trkpt lat="45.623338891951946" lon="9.571120627144262"><ele>185.2</ele><time>2026-03-29T07:44:00Z</time></trkpt><trkpt lat="45.62342174770676" lon="9.57100417639705"><ele>184.8</ele><time>2026-03-29T07:44:02Z</time></trkpt><trkpt lat="45.623488009540125" lon="9.57088075639797"><ele>184.39999999999998</ele><time>2026-03-29T07:44:04Z</time></trkpt><trkpt lat="45.623546078558014" lon="9.570763262172056"><ele>184.0</ele><time>2026-03-29T07:44:06Z</time></trkpt><trkpt lat="45.6236083027337" lon="9.57065300193407"><ele>184.0</ele><time>2026-03-29T07:44:08Z</time></trkpt><trkpt lat="45.62367873570454" lon="9.570512890746917"><ele>184.0</ele><time>2026-03-29T07:44:10Z</time></trkpt><trkpt lat="45.623736832132465" lon="9.570398022450174"><ele>184.0</ele><time>2026-03-29T07:44:12Z</time></trkpt><trkpt lat="45.62380789846779" lon="9.570285382028189"><ele>184.0</ele><time>2026-03-29T07:44:14Z</time></trkpt><trkpt lat="45.623897037196265" lon="9.570155684339785"><ele>183.6</ele><time>2026-03-29T07:44:16Z</time></trkpt><trkpt lat="45.62398094713245" lon="9.570041894096756"><ele>183.2</ele><time>2026-03-29T07:44:18Z</time></trkpt><trkpt lat="45.62406776133974" lon="9.569922387203098"><ele>182.79999999999998</ele><time>2026-03-29T07:44:20Z</time></trkpt><trkpt lat="45.62412537117113" lon="9.569798675865858"><ele>182.39999999999998</ele><time>2026-03-29T07:44:22Z</time></trkpt><trkpt lat="45.624203142552666" lon="9.569691689571824"><ele>182.0</ele><time>2026-03-29T07:44:24Z</time></trkpt><trkpt lat="45.62427816310325" lon="9.569569578691153"><ele>182.2</ele><time>2026-03-29T07:44:26Z</time></trkpt><trkpt lat="45.62434459329159" lon="9.5694553436384"><ele>182.39999999999998</ele><time>2026-03-29T07:44:28Z</time></trkpt><trkpt lat="45.62441183888729" lon="9.569349248117254"><ele>182.60000000000002</ele><time>2026-03-29T07:44:30Z</time></trkpt><trkpt lat="45.62446729628463" lon="9.569283108439425"><ele>182.8</ele><time>2026-03-29T07:44:31Z</time></trkpt><trkpt lat="45.624502608448935" lon="9.569208062325156"><ele>183.0</ele><time>2026-03-29T07:44:32Z</time></trkpt><trkpt lat="45.62457584463819" lon="9.569074318502015"><ele>183.2</ele><time>2026-03-29T07:44:34Z</time></trkpt><trkpt lat="45.624638254281344" lon="9.568969047663591"><ele>183.4</ele><time>2026-03-29T07:44:36Z</time></trkpt><trkpt lat="45.62469922502399" lon="9.568845924886979"><ele>183.6</ele><time>2026-03-29T07:44:38Z</time></trkpt><trkpt lat="45.62477763233696" lon="9.568728363781577"><ele>183.79999999999998</ele><time>2026-03-29T07:44:40Z</time></trkpt><trkpt lat="45.62484218688404" lon="9.56859608218602"><ele>184.0</ele><time>2026-03-29T07:44:42Z</time></trkpt><trkpt lat="45.62490628231188" lon="9.56847423800848"><ele>184.0</ele><time>2026-03-29T07:44:44Z</time></trkpt><trkpt lat="45.6249592883861" lon="9.5684131027527"><ele>184.0</ele><time>2026-03-29T07:44:45Z</time></trkpt><trkpt lat="45.62502111234152" lon="9.56827920681002"><ele>184.0</ele><time>2026-03-29T07:44:47Z</time></trkpt><trkpt lat="45.62511460953551" lon="9.568169805314653"><ele>184.0</ele><time>2026-03-29T07:44:49Z</time></trkpt><trkpt lat="45.625199188462624" lon="9.56803649982777"><ele>184.0</ele><time>2026-03-29T07:44:51Z</time></trkpt><trkpt lat="45.62526605165905" lon="9.567918769885383"><ele>184.6</ele><time>2026-03-29T07:44:53Z</time></trkpt><trkpt lat="45.62534467924473" lon="9.567799775316617"><ele>185.2</ele><time>2026-03-29T07:44:55Z</time></trkpt><trkpt lat="45.625407981253595" lon="9.567678914998544"><ele>185.79999999999998</ele><time>2026-03-29T07:44:57Z</time></trkpt><trkpt lat="45.62548639358298" lon="9.567573322210352"><ele>186.39999999999998</ele><time>2026-03-29T07:44:59Z</time></trkpt><trkpt lat="45.625552902885275" lon="9.567435090778888"><ele>187.0</ele><time>2026-03-29T07:45:01Z</time></trkpt><trkpt lat="45.6256234577175" lon="9.567319857342966"><ele>187.0</ele><time>2026-03-29T07:45:03Z</time></trkpt><trkpt lat="45.625680885663336" lon="9.567185494083706"><ele>187.0</ele><time>2026-03-29T07:45:05Z</time></trkpt><trkpt lat="45.625714009887524" lon="9.56702420539606"><ele>187.0</ele><time>2026-03-29T07:45:07Z</time></trkpt><trkpt lat="45.62575407320313" lon="9.566855238543095"><ele>187.0</ele><time>2026-03-29T07:45:09Z</time></trkpt><trkpt lat="45.62578337715731" lon="9.566686444728612"><ele>186.83333333333334</ele><time>2026-03-29T07:45:11Z</time></trkpt><trkpt lat="45.62578957446689" lon="9.566590915810513"><ele>186.66666666666669</ele><time>2026-03-29T07:45:12Z</time></trkpt><trkpt lat="45.625831769253864" lon="9.566410910413198"><ele>186.5</ele><time>2026-03-29T07:45:14Z</time></trkpt><trkpt lat="45.62586019498825" lon="9.566321648689513"><ele>186.33333333333334</ele><time>2026-03-29T07:45:15Z</time></trkpt><trkpt lat="45.62590915327035" lon="9.566219423714003"><ele>186.16666666666666</ele><time>2026-03-29T07:45:16Z</time></trkpt><trkpt lat="45.625947532607086" lon="9.566130667459198"><ele>186.0</ele><time>2026-03-29T07:45:17Z</time></trkpt><trkpt lat="45.625959026267026" lon="9.566034025536922"><ele>186.00000000000003</ele><time>2026-03-29T07:45:18Z</time></trkpt><trkpt lat="45.62596358857623" lon="9.56593705652501"><ele>186.0</ele><time>2026-03-29T07:45:19Z</time></trkpt><trkpt lat="45.62600043572536" lon="9.565834505712447"><ele>186.0</ele><time>2026-03-29T07:45:20Z</time></trkpt><trkpt lat="45.62601919316663" lon="9.565743704051718"><ele>186.0</ele><time>2026-03-29T07:45:21Z</time></trkpt><trkpt lat="45.62603961098605" lon="9.565656531073117"><ele>186.0</ele><time>2026-03-29T07:45:22Z</time></trkpt><trkpt lat="45.62607035214708" lon="9.565575751645413"><ele>186.00000000000003</ele><time>2026-03-29T07:45:23Z</time></trkpt><trkpt lat="45.626095435964565" lon="9.565476127883722"><ele>186.0</ele><time>2026-03-29T07:45:24Z</time></trkpt><trkpt lat="45.62614719693458" lon="9.565338092119218"><ele>185.5</ele><time>2026-03-29T07:45:26Z</time></trkpt><trkpt lat="45.62617473947593" lon="9.565239835663952"><ele>185.0</ele><time>2026-03-29T07:45:27Z</time></trkpt><trkpt lat="45.62619720595281" lon="9.565153529308873"><ele>184.5</ele><time>2026-03-29T07:45:28Z</time></trkpt><trkpt lat="45.62624330068407" lon="9.565009807445067"><ele>184.0</ele><time>2026-03-29T07:45:30Z</time></trkpt><trkpt lat="45.62626753404805" lon="9.564926458324413"><ele>183.5</ele><time>2026-03-29T07:45:31Z</time></trkpt><trkpt lat="45.62628871146531" lon="9.56475124532876"><ele>183.0</ele><time>2026-03-29T07:45:33Z</time></trkpt><trkpt lat="45.6263070341034" lon="9.564655019082082"><ele>182.2</ele><time>2026-03-29T07:45:34Z</time></trkpt><trkpt lat="45.62636032541784" lon="9.564506821580306"><ele>181.4</ele><time>2026-03-29T07:45:36Z</time></trkpt><trkpt lat="45.62637323785381" lon="9.5644122315304"><ele>180.6</ele><time>2026-03-29T07:45:37Z</time></trkpt><trkpt lat="45.62641960673812" lon="9.564267493443538"><ele>179.79999999999998</ele><time>2026-03-29T07:45:39Z</time></trkpt><trkpt lat="45.6264532074528" lon="9.564144520838461"><ele>179.0</ele><time>2026-03-29T07:45:41Z</time></trkpt><trkpt lat="45.62651947170851" lon="9.564141263935854"><ele>179.0</ele><time>2026-03-29T07:45:43Z</time></trkpt><trkpt lat="45.6266207964516" lon="9.564242291914146"><ele>179.0</ele><time>2026-03-29T07:45:45Z</time></trkpt><trkpt lat="45.62672133788283" lon="9.564297883533335"><ele>179.0</ele><time>2026-03-29T07:45:47Z</time></trkpt><trkpt lat="45.62682606939667" lon="9.564340610194153"><ele>179.0</ele><time>2026-03-29T07:45:49Z</time></trkpt><trkpt lat="45.626922540989035" lon="9.564419049649425"><ele>178.39999999999998</ele><time>2026-03-29T07:45:51Z</time></trkpt><trkpt lat="45.62699572435986" lon="9.564494339815061"><ele>177.8</ele><time>2026-03-29T07:45:52Z</time></trkpt><trkpt lat="45.627052363516725" lon="9.564536175594842"><ele>177.2</ele><time>2026-03-29T07:45:53Z</time></trkpt><trkpt lat="45.62713683301459" lon="9.564577075221905"><ele>176.60000000000002</ele><time>2026-03-29T07:45:55Z</time></trkpt><trkpt lat="45.62724511564033" lon="9.564617468562412"><ele>176.0</ele><time>2026-03-29T07:45:57Z</time></trkpt><trkpt lat="45.62734652430619" lon="9.56468438672561"><ele>176.60000000000002</ele><time>2026-03-29T07:45:59Z</time></trkpt><trkpt lat="45.62743182324677" lon="9.564743495664512"><ele>177.2</ele><time>2026-03-29T07:46:01Z</time></trkpt><trkpt lat="45.62753046683141" lon="9.564790823887776"><ele>177.8</ele><time>2026-03-29T07:46:03Z</time></trkpt><trkpt lat="45.62760574717276" lon="9.564840447304924"><ele>178.39999999999998</ele><time>2026-03-29T07:46:04Z</time></trkpt><trkpt lat="45.62770228436718" lon="9.564898343337937"><ele>179.0</ele><time>2026-03-29T07:46:06Z</time></trkpt><trkpt lat="45.62786617145613" lon="9.564954148724906"><ele>179.0</ele><time>2026-03-29T07:46:09Z</time></trkpt><trkpt lat="45.62801055512169" lon="9.565057363400994"><ele>179.0</ele><time>2026-03-29T07:46:12Z</time></trkpt><trkpt lat="45.628121996675354" lon="9.565068546910233"><ele>179.0</ele><time>2026-03-29T07:46:14Z</time></trkpt><trkpt lat="45.628211342000164" lon="9.564923319624706"><ele>179.0</ele><time>2026-03-29T07:46:16Z</time></trkpt><trkpt lat="45.62825618959602" lon="9.564854560501516"><ele>179.0</ele><time>2026-03-29T07:46:17Z</time></trkpt><trkpt lat="45.62834031118428" lon="9.56475016605769"><ele>179.0</ele><time>2026-03-29T07:46:19Z</time></trkpt><trkpt lat="45.62843651321555" lon="9.564685013455644"><ele>179.0</ele><time>2026-03-29T07:46:21Z</time></trkpt><trkpt lat="45.628551515914175" lon="9.564636349078016"><ele>179.0</ele><time>2026-03-29T07:46:23Z</time></trkpt><trkpt lat="45.62865161372669" lon="9.564585646860936"><ele>179.0</ele><time>2026-03-29T07:46:25Z</time></trkpt><trkpt lat="45.628757211991335" lon="9.564531840329169"><ele>178.79999999999998</ele><time>2026-03-29T07:46:27Z</time></trkpt><trkpt lat="45.628861156929595" lon="9.564477287455587"><ele>178.6</ele><time>2026-03-29T07:46:29Z</time></trkpt><trkpt lat="45.62897447374598" lon="9.56441671812004"><ele>178.4</ele><time>2026-03-29T07:46:31Z</time></trkpt><trkpt lat="45.62908294316881" lon="9.564375083903453"><ele>178.2</ele><time>2026-03-29T07:46:33Z</time></trkpt><trkpt lat="45.629187473763345" lon="9.564361263081016"><ele>178.0</ele><time>2026-03-29T07:46:35Z</time></trkpt><trkpt lat="45.62928929895104" lon="9.56431862691456"><ele>178.0</ele><time>2026-03-29T07:46:37Z</time></trkpt><trkpt lat="45.62938910889821" lon="9.564269405079203"><ele>178.0</ele><time>2026-03-29T07:46:39Z</time></trkpt><trkpt lat="45.6294928024865" lon="9.564233749855468"><ele>178.0</ele><time>2026-03-29T07:46:41Z</time></trkpt><trkpt lat="45.6296064571605" lon="9.564195592525802"><ele>178.0</ele><time>2026-03-29T07:46:43Z</time></trkpt><trkpt lat="45.629709425505396" lon="9.564137830283126"><ele>178.0</ele><time>2026-03-29T07:46:45Z</time></trkpt><trkpt lat="45.62981963603531" lon="9.56409780117594"><ele>178.5</ele><time>2026-03-29T07:46:47Z</time></trkpt><trkpt lat="45.62994030805515" lon="9.564102419420303"><ele>179.0</ele><time>2026-03-29T07:46:49Z</time></trkpt><trkpt lat="45.630060637049574" lon="9.564114101318735"><ele>179.5</ele><time>2026-03-29T07:46:51Z</time></trkpt><trkpt lat="45.63017442424188" lon="9.564082203007528"><ele>180.0</ele><time>2026-03-29T07:46:53Z</time></trkpt><trkpt lat="45.63029059624196" lon="9.564056438780982"><ele>180.6</ele><time>2026-03-29T07:46:55Z</time></trkpt><trkpt lat="45.63035707403415" lon="9.56403939566737"><ele>181.2</ele><time>2026-03-29T07:46:56Z</time></trkpt><trkpt lat="45.630476198391825" lon="9.564040518736368"><ele>181.8</ele><time>2026-03-29T07:46:58Z</time></trkpt><trkpt lat="45.63059829465057" lon="9.564026900896065"><ele>182.4</ele><time>2026-03-29T07:47:00Z</time></trkpt><trkpt lat="45.6307150438311" lon="9.564009197756329"><ele>183.0</ele><time>2026-03-29T07:47:02Z</time></trkpt><trkpt lat="45.630839421713866" lon="9.563977506759375"><ele>183.0</ele><time>2026-03-29T07:47:04Z</time></trkpt><trkpt lat="45.63090391392055" lon="9.563971374871588"><ele>183.0</ele><time>2026-03-29T07:47:05Z</time></trkpt><trkpt lat="45.63096776236987" lon="9.563952331769183"><ele>183.0</ele><time>2026-03-29T07:47:06Z</time></trkpt><trkpt lat="45.6310364379442" lon="9.563938252267379"><ele>183.0</ele><time>2026-03-29T07:47:07Z</time></trkpt><trkpt lat="45.631100105845285" lon="9.563927626328864"><ele>183.0</ele><time>2026-03-29T07:47:08Z</time></trkpt><trkpt lat="45.63121339726178" lon="9.563912425432422"><ele>183.0</ele><time>2026-03-29T07:47:10Z</time></trkpt><trkpt lat="45.631331576148575" lon="9.563893554010521"><ele>182.8</ele><time>2026-03-29T07:47:12Z</time></trkpt><trkpt lat="45.63145478528424" lon="9.563901477848422"><ele>182.60000000000002</ele><time>2026-03-29T07:47:14Z</time></trkpt><trkpt lat="45.63157498308336" lon="9.563869485892113"><ele>182.39999999999998</ele><time>2026-03-29T07:47:16Z</time></trkpt><trkpt lat="45.6316453259471" lon="9.563889856544952"><ele>182.2</ele><time>2026-03-29T07:47:17Z</time></trkpt><trkpt lat="45.63175438456195" lon="9.56387411280612"><ele>182.0</ele><time>2026-03-29T07:47:19Z</time></trkpt><trkpt lat="45.63181736162068" lon="9.563884425339515"><ele>182.0</ele><time>2026-03-29T07:47:20Z</time></trkpt><trkpt lat="45.63193934404352" lon="9.563850506433356"><ele>182.0</ele><time>2026-03-29T07:47:22Z</time></trkpt><trkpt lat="45.63206112780727" lon="9.563828383066989"><ele>182.0</ele><time>2026-03-29T07:47:24Z</time></trkpt><trkpt lat="45.63217343746731" lon="9.563830955325724"><ele>182.0</ele><time>2026-03-29T07:47:26Z</time></trkpt><trkpt lat="45.63225263171476" lon="9.56378831952029"><ele>182.0</ele><time>2026-03-29T07:47:27Z</time></trkpt><trkpt lat="45.632344133934396" lon="9.563780014972224"><ele>182.0</ele><time>2026-03-29T07:47:29Z</time></trkpt><trkpt lat="45.632424653642744" lon="9.563752729746065"><ele>182.0</ele><time>2026-03-29T07:47:31Z</time></trkpt><trkpt lat="45.63248998064272" lon="9.563740998935815"><ele>182.0</ele><time>2026-03-29T07:47:32Z</time></trkpt><trkpt lat="45.63261442778841" lon="9.563717627062358"><ele>182.0</ele><time>2026-03-29T07:47:34Z</time></trkpt><trkpt lat="45.63267893011758" lon="9.563704116210799"><ele>182.0</ele><time>2026-03-29T07:47:35Z</time></trkpt><trkpt lat="45.632790094789094" lon="9.563749004418721"><ele>182.0</ele><time>2026-03-29T07:47:37Z</time></trkpt><trkpt lat="45.63285072456748" lon="9.563793491440476"><ele>182.0</ele><time>2026-03-29T07:47:38Z</time></trkpt><trkpt lat="45.63296308142144" lon="9.563848772317376"><ele>182.0</ele><time>2026-03-29T07:47:40Z</time></trkpt><trkpt lat="45.63302568016543" lon="9.563871588367018"><ele>182.0</ele><time>2026-03-29T07:47:41Z</time></trkpt><trkpt lat="45.63313012025498" lon="9.56392487877251"><ele>182.0</ele><time>2026-03-29T07:47:43Z</time></trkpt><trkpt lat="45.63323405837368" lon="9.563997386955494"><ele>182.0</ele><time>2026-03-29T07:47:45Z</time></trkpt><trkpt lat="45.633339716527935" lon="9.564065213249746"><ele>182.0</ele><time>2026-03-29T07:47:47Z</time></trkpt><trkpt lat="45.633438424984675" lon="9.564139901030769"><ele>182.0</ele><time>2026-03-29T07:47:49Z</time></trkpt><trkpt lat="45.63354591756189" lon="9.564219107369778"><ele>182.0</ele><time>2026-03-29T07:47:51Z</time></trkpt><trkpt lat="45.63364280890435" lon="9.564294033588537"><ele>181.5</ele><time>2026-03-29T07:47:53Z</time></trkpt><trkpt lat="45.63374556719504" lon="9.564367742001917"><ele>181.0</ele><time>2026-03-29T07:47:55Z</time></trkpt><trkpt lat="45.63384339634187" lon="9.564453822380013"><ele>180.5</ele><time>2026-03-29T07:47:57Z</time></trkpt><trkpt lat="45.633956049042" lon="9.564525937397825"><ele>180.0</ele><time>2026-03-29T07:47:59Z</time></trkpt><trkpt lat="45.63407188849379" lon="9.564566310593262"><ele>180.6</ele><time>2026-03-29T07:48:01Z</time></trkpt><trkpt lat="45.6341785225183" lon="9.564624438479582"><ele>181.2</ele><time>2026-03-29T07:48:03Z</time></trkpt><trkpt lat="45.63428226059113" lon="9.564684020136934"><ele>181.8</ele><time>2026-03-29T07:48:05Z</time></trkpt><trkpt lat="45.63437501771418" lon="9.56470475291674"><ele>182.4</ele><time>2026-03-29T07:48:07Z</time></trkpt><trkpt lat="45.634488997938156" lon="9.564663048355165"><ele>183.0</ele><time>2026-03-29T07:48:09Z</time></trkpt><trkpt lat="45.63455073365196" lon="9.564632408457536"><ele>183.0</ele><time>2026-03-29T07:48:10Z</time></trkpt><trkpt lat="45.634620924588624" lon="9.564626088703536"><ele>183.0</ele><time>2026-03-29T07:48:11Z</time></trkpt><trkpt lat="45.634688274251026" lon="9.564650318281378"><ele>183.0</ele><time>2026-03-29T07:48:12Z</time></trkpt><trkpt lat="45.63476087649835" lon="9.5646999566345"><ele>183.0</ele><time>2026-03-29T07:48:13Z</time></trkpt><trkpt lat="45.634824448675175" lon="9.564734555033427"><ele>183.0</ele><time>2026-03-29T07:48:14Z</time></trkpt><trkpt lat="45.63489338602832" lon="9.564753446121376"><ele>183.0</ele><time>2026-03-29T07:48:15Z</time></trkpt><trkpt lat="45.634955391518936" lon="9.564723919140702"><ele>183.0</ele><time>2026-03-29T07:48:16Z</time></trkpt><trkpt lat="45.635010223383055" lon="9.564647655084947"><ele>183.0</ele><time>2026-03-29T07:48:17Z</time></trkpt><trkpt lat="45.63504934456273" lon="9.564573371599463"><ele>183.0</ele><time>2026-03-29T07:48:18Z</time></trkpt><trkpt lat="45.63508383869634" lon="9.564497033660489"><ele>183.0</ele><time>2026-03-29T07:48:19Z</time></trkpt><trkpt lat="45.63511697691492" lon="9.564400289943283"><ele>183.0</ele><time>2026-03-29T07:48:20Z</time></trkpt><trkpt lat="45.635143449626014" lon="9.564309059767988"><ele>183.0</ele><time>2026-03-29T07:48:21Z</time></trkpt><trkpt lat="45.63516896182948" lon="9.564224339066913"><ele>183.0</ele><time>2026-03-29T07:48:22Z</time></trkpt><trkpt lat="45.63523120296714" lon="9.56406701645992"><ele>182.60000000000002</ele><time>2026-03-29T07:48:24Z</time></trkpt><trkpt lat="45.635251142677674" lon="9.56398018368691"><ele>182.20000000000002</ele><time>2026-03-29T07:48:25Z</time></trkpt><trkpt lat="45.635285835350956" lon="9.563902446292715"><ele>181.8</ele><time>2026-03-29T07:48:26Z</time></trkpt><trkpt lat="45.635341001274284" lon="9.563758974454919"><ele>181.4</ele><time>2026-03-29T07:48:28Z</time></trkpt><trkpt lat="45.63541186305323" lon="9.563616096512137"><ele>181.0</ele><time>2026-03-29T07:48:30Z</time></trkpt><trkpt lat="45.63548801243978" lon="9.563488831373276"><ele>180.0</ele><time>2026-03-29T07:48:32Z</time></trkpt><trkpt lat="45.63557582751786" lon="9.563377458165604"><ele>179.0</ele><time>2026-03-29T07:48:34Z</time></trkpt><trkpt lat="45.63564534727002" lon="9.563273267699447"><ele>178.0</ele><time>2026-03-29T07:48:36Z</time></trkpt><trkpt lat="45.635704440523085" lon="9.563208251996011"><ele>177.0</ele><time>2026-03-29T07:48:38Z</time></trkpt><trkpt lat="45.63577634938455" lon="9.56314715819514"><ele>176.0</ele><time>2026-03-29T07:48:41Z</time></trkpt><trkpt lat="45.63583361580335" lon="9.56306967259301"><ele>176.0</ele><time>2026-03-29T07:48:43Z</time></trkpt><trkpt lat="45.63589525426362" lon="9.563011050132053"><ele>176.0</ele><time>2026-03-29T07:48:45Z</time></trkpt><trkpt lat="45.6359442690524" lon="9.56287543872567"><ele>176.0</ele><time>2026-03-29T07:48:47Z</time></trkpt><trkpt lat="45.63589714088269" lon="9.562760247217549"><ele>176.0</ele><time>2026-03-29T07:48:49Z</time></trkpt><trkpt lat="45.635803777847414" lon="9.562664678953759"><ele>176.0</ele><time>2026-03-29T07:48:51Z</time></trkpt><trkpt lat="45.63574763991977" lon="9.562612986527697"><ele>175.83333333333331</ele><time>2026-03-29T07:48:52Z</time></trkpt><trkpt lat="45.635662833451185" lon="9.562561805443627"><ele>175.66666666666666</ele><time>2026-03-29T07:48:54Z</time></trkpt><trkpt lat="45.635580098749564" lon="9.562465717630392"><ele>175.5</ele><time>2026-03-29T07:48:56Z</time></trkpt><trkpt lat="45.6355022221165" lon="9.562376947766685"><ele>175.33333333333334</ele><time>2026-03-29T07:48:58Z</time></trkpt><trkpt lat="45.63543489175087" lon="9.562317158047797"><ele>175.16666666666669</ele><time>2026-03-29T07:48:59Z</time></trkpt><trkpt lat="45.63537777728199" lon="9.562259113362979"><ele>175.0</ele><time>2026-03-29T07:49:00Z</time></trkpt><trkpt lat="45.635327137128584" lon="9.562179625611943"><ele>175.0</ele><time>2026-03-29T07:49:02Z</time></trkpt><trkpt lat="45.63523843747447" lon="9.562114366672922"><ele>175.0</ele><time>2026-03-29T07:49:04Z</time></trkpt><trkpt lat="45.63518204405234" lon="9.561965370689151"><ele>175.0</ele><time>2026-03-29T07:49:06Z</time></trkpt><trkpt lat="45.63513436690547" lon="9.561854914456006"><ele>175.0</ele><time>2026-03-29T07:49:08Z</time></trkpt><trkpt lat="45.63513123915377" lon="9.561700868828872"><ele>175.0</ele><time>2026-03-29T07:49:10Z</time></trkpt><trkpt lat="45.63511963772853" lon="9.56160384925003"><ele>175.0</ele><time>2026-03-29T07:49:11Z</time></trkpt><trkpt lat="45.63503585568218" lon="9.561493092588059"><ele>175.0</ele><time>2026-03-29T07:49:13Z</time></trkpt><trkpt lat="45.63496726460739" lon="9.561371935296657"><ele>175.0</ele><time>2026-03-29T07:49:15Z</time></trkpt><trkpt lat="45.63487464755649" lon="9.561281384588762"><ele>175.0</ele><time>2026-03-29T07:49:17Z</time></trkpt><trkpt lat="45.634788083772015" lon="9.56118676991565"><ele>175.0</ele><time>2026-03-29T07:49:19Z</time></trkpt><trkpt lat="45.634747003502575" lon="9.561112787181708"><ele>174.16666666666669</ele><time>2026-03-29T07:49:20Z</time></trkpt><trkpt lat="45.63472151862451" lon="9.56096066450881"><ele>173.33333333333334</ele><time>2026-03-29T07:49:22Z</time></trkpt><trkpt lat="45.63471346934033" lon="9.560850773882706"><ele>172.5</ele><time>2026-03-29T07:49:23Z</time></trkpt><trkpt lat="45.634711257452075" lon="9.560722461772368"><ele>171.66666666666666</ele><time>2026-03-29T07:49:24Z</time></trkpt><trkpt lat="45.634734929927646" lon="9.560605092678507"><ele>170.83333333333331</ele><time>2026-03-29T07:49:25Z</time></trkpt><trkpt lat="45.634704737119534" lon="9.560522699229592"><ele>170.0</ele><time>2026-03-29T07:49:26Z</time></trkpt><trkpt lat="45.63472277209941" lon="9.560386187623093"><ele>169.71428571428572</ele><time>2026-03-29T07:49:28Z</time></trkpt><trkpt lat="45.63474773238291" lon="9.560299767408805"><ele>169.42857142857142</ele><time>2026-03-29T07:49:31Z</time></trkpt><trkpt lat="45.63478652367016" lon="9.560214826083959"><ele>169.14285714285714</ele><time>2026-03-29T07:49:40Z</time></trkpt><trkpt lat="45.63481734176047" lon="9.56012029426136"><ele>168.85714285714286</ele><time>2026-03-29T07:49:50Z</time></trkpt><trkpt lat="45.634863876870206" lon="9.560055348215126"><ele>168.57142857142856</ele><time>2026-03-29T07:49:55Z</time></trkpt><trkpt lat="45.63488209379794" lon="9.559963316010702"><ele>168.28571428571428</ele><time>2026-03-29T07:49:59Z</time></trkpt><trkpt lat="45.63492220800128" lon="9.559874032470352"><ele>168.0</ele><time>2026-03-29T07:50:04Z</time></trkpt><trkpt lat="45.634955470684254" lon="9.559787039033804"><ele>168.0</ele><time>2026-03-29T07:50:09Z</time></trkpt><trkpt lat="45.63498709739906" lon="9.559701433263456"><ele>168.0</ele><time>2026-03-29T07:50:13Z</time></trkpt><trkpt lat="45.6350270095154" lon="9.559604873849485"><ele>168.0</ele><time>2026-03-29T07:50:18Z</time></trkpt><trkpt lat="45.63508460845829" lon="9.559543974422366"><ele>168.0</ele><time>2026-03-29T07:50:26Z</time></trkpt><trkpt lat="45.63516247618084" lon="9.559598224058176"><ele>168.0</ele><time>2026-03-29T07:50:30Z</time></trkpt><trkpt lat="45.63526523446153" lon="9.559625631299877"><ele>168.0</ele><time>2026-03-29T07:50:33Z</time></trkpt><trkpt lat="45.63534770368762" lon="9.55968488768703"><ele>168.0</ele><time>2026-03-29T07:50:35Z</time></trkpt><trkpt lat="45.6354060390541" lon="9.559753156425028"><ele>168.0</ele><time>2026-03-29T07:50:37Z</time></trkpt><trkpt lat="45.635471016038736" lon="9.559768001903603"><ele>168.0</ele><time>2026-03-29T07:50:39Z</time></trkpt><trkpt lat="45.635546709989676" lon="9.559764280722769"><ele>168.0</ele><time>2026-03-29T07:50:41Z</time></trkpt><trkpt lat="45.6356121791406" lon="9.559774695134656"><ele>168.0</ele><time>2026-03-29T07:50:43Z</time></trkpt><trkpt lat="45.63566986382577" lon="9.55981893534381"><ele>168.0</ele><time>2026-03-29T07:50:48Z</time></trkpt><trkpt lat="45.63573958385272" lon="9.559864197229757"><ele>168.0</ele><time>2026-03-29T07:50:51Z</time></trkpt><trkpt lat="45.63593933082899" lon="9.559840729695932"><ele>168.0</ele><time>2026-03-29T07:50:54Z</time></trkpt><trkpt lat="45.63612273661728" lon="9.559876902652709"><ele>168.0</ele><time>2026-03-29T07:50:57Z</time></trkpt><trkpt lat="45.63614494011802" lon="9.559986645123013"><ele>168.0</ele><time>2026-03-29T07:50:58Z</time></trkpt><trkpt lat="45.63618031111817" lon="9.560066154045478"><ele>168.0</ele><time>2026-03-29T07:50:59Z</time></trkpt><trkpt lat="45.636245299508694" lon="9.560163214908986"><ele>168.0</ele><time>2026-03-29T07:51:01Z</time></trkpt><trkpt lat="45.63634074582481" lon="9.560221494807932"><ele>168.25</ele><time>2026-03-29T07:51:03Z</time></trkpt><trkpt lat="45.63644868818431" lon="9.560219856703684"><ele>168.5</ele><time>2026-03-29T07:51:05Z</time></trkpt><trkpt lat="45.63661244825431" lon="9.560218429575016"><ele>168.75</ele><time>2026-03-29T07:51:09Z</time></trkpt><trkpt lat="45.63675629185278" lon="9.560251806671792"><ele>169.0</ele><time>2026-03-29T07:51:12Z</time></trkpt><trkpt lat="45.63684828235311" lon="9.560316078067391"><ele>169.0</ele><time>2026-03-29T07:51:14Z</time></trkpt><trkpt lat="45.63694239414256" lon="9.56036023444644"><ele>169.0</ele><time>2026-03-29T07:51:16Z</time></trkpt><trkpt lat="45.63703873766133" lon="9.560393460018496"><ele>169.0</ele><time>2026-03-29T07:51:18Z</time></trkpt><trkpt lat="45.63711883825536" lon="9.560438078610987"><ele>169.0</ele><time>2026-03-29T07:51:20Z</time></trkpt><trkpt lat="45.63720673637532" lon="9.560472527695978"><ele>169.0</ele><time>2026-03-29T07:51:22Z</time></trkpt><trkpt lat="45.63726831392772" lon="9.560491627415688"><ele>169.0</ele><time>2026-03-29T07:51:29Z</time></trkpt><trkpt lat="45.63732903548787" lon="9.560544104460531"><ele>169.16666666666669</ele><time>2026-03-29T07:51:33Z</time></trkpt><trkpt lat="45.63740884756643" lon="9.560602073462583"><ele>169.33333333333334</ele><time>2026-03-29T07:51:35Z</time></trkpt><trkpt lat="45.63749551911445" lon="9.560690906727375"><ele>169.5</ele><time>2026-03-29T07:51:37Z</time></trkpt><trkpt lat="45.63757588075363" lon="9.560740968040381"><ele>169.66666666666666</ele><time>2026-03-29T07:51:39Z</time></trkpt><trkpt lat="45.637648936174934" lon="9.560792240300206"><ele>169.83333333333331</ele><time>2026-03-29T07:51:41Z</time></trkpt><trkpt lat="45.637725685535656" lon="9.560820112912799"><ele>170.0</ele><time>2026-03-29T07:51:43Z</time></trkpt><trkpt lat="45.63781168722301" lon="9.560832599689096"><ele>170.4</ele><time>2026-03-29T07:51:45Z</time></trkpt><trkpt lat="45.63789963032488" lon="9.560849862318966"><ele>170.8</ele><time>2026-03-29T07:51:47Z</time></trkpt><trkpt lat="45.63798926827081" lon="9.560886389526228"><ele>171.2</ele><time>2026-03-29T07:51:49Z</time></trkpt><trkpt lat="45.63804802712341" lon="9.56092265421189"><ele>171.6</ele><time>2026-03-29T07:51:50Z</time></trkpt><trkpt lat="45.63814287319132" lon="9.560976194196995"><ele>172.0</ele><time>2026-03-29T07:51:52Z</time></trkpt><trkpt lat="45.63824549744525" lon="9.561017599496775"><ele>172.0</ele><time>2026-03-29T07:51:54Z</time></trkpt><trkpt lat="45.63834350551764" lon="9.561038789617593"><ele>172.0</ele><time>2026-03-29T07:51:56Z</time></trkpt><trkpt lat="45.63841250587812" lon="9.5610711888691"><ele>172.0</ele><time>2026-03-29T07:51:58Z</time></trkpt><trkpt lat="45.63848697854732" lon="9.56112906143749"><ele>172.0</ele><time>2026-03-29T07:52:02Z</time></trkpt><trkpt lat="45.63854026664044" lon="9.561201279915057"><ele>172.0</ele><time>2026-03-29T07:52:04Z</time></trkpt><trkpt lat="45.63862309445064" lon="9.561267444794467"><ele>172.0</ele><time>2026-03-29T07:52:06Z</time></trkpt><trkpt lat="45.63871135420388" lon="9.561348096333742"><ele>172.2</ele><time>2026-03-29T07:52:08Z</time></trkpt><trkpt lat="45.63877364578515" lon="9.56138562062259"><ele>172.39999999999998</ele><time>2026-03-29T07:52:10Z</time></trkpt><trkpt lat="45.63880905740034" lon="9.561513772108182"><ele>172.60000000000002</ele><time>2026-03-29T07:52:12Z</time></trkpt><trkpt lat="45.63882994974021" lon="9.561676362570882"><ele>172.8</ele><time>2026-03-29T07:52:14Z</time></trkpt><trkpt lat="45.638881626788304" lon="9.56182600388549"><ele>173.0</ele><time>2026-03-29T07:52:16Z</time></trkpt><trkpt lat="45.638949283410774" lon="9.561966533077324"><ele>172.8</ele><time>2026-03-29T07:52:18Z</time></trkpt><trkpt lat="45.63899743399352" lon="9.562111626314067"><ele>172.60000000000002</ele><time>2026-03-29T07:52:20Z</time></trkpt><trkpt lat="45.63904904037222" lon="9.56225841009211"><ele>172.39999999999998</ele><time>2026-03-29T07:52:22Z</time></trkpt><trkpt lat="45.63909743629924" lon="9.562396622301474"><ele>172.2</ele><time>2026-03-29T07:52:24Z</time></trkpt><trkpt lat="45.63913318000867" lon="9.562542571180026"><ele>172.0</ele><time>2026-03-29T07:52:26Z</time></trkpt><trkpt lat="45.63918877668627" lon="9.562674385461673"><ele>172.0</ele><time>2026-03-29T07:52:28Z</time></trkpt><trkpt lat="45.639249773262556" lon="9.562768294949995"><ele>172.0</ele><time>2026-03-29T07:52:30Z</time></trkpt><trkpt lat="45.63931527744905" lon="9.562886823400204"><ele>172.0</ele><time>2026-03-29T07:52:32Z</time></trkpt><trkpt lat="45.639386223605214" lon="9.56300122717483"><ele>172.0</ele><time>2026-03-29T07:52:34Z</time></trkpt><trkpt lat="45.63944357545848" lon="9.563116008956879"><ele>172.0</ele><time>2026-03-29T07:52:36Z</time></trkpt><trkpt lat="45.639517832384634" lon="9.563207312651063"><ele>171.8</ele><time>2026-03-29T07:52:38Z</time></trkpt><trkpt lat="45.63956013094833" lon="9.56331577426627"><ele>171.6</ele><time>2026-03-29T07:52:40Z</time></trkpt><trkpt lat="45.63966184619389" lon="9.563408607350949"><ele>171.4</ele><time>2026-03-29T07:52:42Z</time></trkpt><trkpt lat="45.63977149667156" lon="9.563475077126094"><ele>171.20000000000002</ele><time>2026-03-29T07:52:44Z</time></trkpt><trkpt lat="45.63986063123358" lon="9.563545894856183"><ele>171.0</ele><time>2026-03-29T07:52:46Z</time></trkpt><trkpt lat="45.639954773847116" lon="9.563596172544015"><ele>171.0</ele><time>2026-03-29T07:52:48Z</time></trkpt><trkpt lat="45.64004331106443" lon="9.563650841365712"><ele>171.0</ele><time>2026-03-29T07:52:50Z</time></trkpt><trkpt lat="45.6401313964183" lon="9.563722085041146"><ele>171.0</ele><time>2026-03-29T07:52:52Z</time></trkpt><trkpt lat="45.64021833622814" lon="9.563774232316286"><ele>171.0</ele><time>2026-03-29T07:52:54Z</time></trkpt><trkpt lat="45.64030393912333" lon="9.563844785303122"><ele>171.0</ele><time>2026-03-29T07:52:56Z</time></trkpt><trkpt lat="45.64038293605811" lon="9.563906575643232"><ele>171.4</ele><time>2026-03-29T07:52:58Z</time></trkpt><trkpt lat="45.64047268036141" lon="9.563968937873256"><ele>171.8</ele><time>2026-03-29T07:53:00Z</time></trkpt><trkpt lat="45.640531586274506" lon="9.564060848072243"><ele>172.20000000000002</ele><time>2026-03-29T07:53:02Z</time></trkpt><trkpt lat="45.640625929897396" lon="9.564106507503594"><ele>172.60000000000002</ele><time>2026-03-29T07:53:04Z</time></trkpt><trkpt lat="45.6407316467644" lon="9.564145951358185"><ele>173.0</ele><time>2026-03-29T07:53:06Z</time></trkpt><trkpt lat="45.640828281951435" lon="9.564179105802687"><ele>173.0</ele><time>2026-03-29T07:53:08Z</time></trkpt><trkpt lat="45.64091966064259" lon="9.564255313739697"><ele>173.0</ele><time>2026-03-29T07:53:10Z</time></trkpt><trkpt lat="45.64100689659483" lon="9.564307316111286"><ele>173.0</ele><time>2026-03-29T07:53:12Z</time></trkpt><trkpt lat="45.641094574369575" lon="9.564338127108915"><ele>173.0</ele><time>2026-03-29T07:53:14Z</time></trkpt><trkpt lat="45.64118445069325" lon="9.564362841697356"><ele>173.0</ele><time>2026-03-29T07:53:16Z</time></trkpt><trkpt lat="45.64126206587845" lon="9.564409949069262"><ele>173.16666666666666</ele><time>2026-03-29T07:53:18Z</time></trkpt><trkpt lat="45.64134351183562" lon="9.564467658925926"><ele>173.33333333333331</ele><time>2026-03-29T07:53:20Z</time></trkpt><trkpt lat="45.64142870946642" lon="9.564491326852076"><ele>173.5</ele><time>2026-03-29T07:53:22Z</time></trkpt><trkpt lat="45.641502089995015" lon="9.564539794710797"><ele>173.66666666666666</ele><time>2026-03-29T07:53:24Z</time></trkpt><trkpt lat="45.641584827166184" lon="9.56457089137289"><ele>173.83333333333334</ele><time>2026-03-29T07:53:26Z</time></trkpt><trkpt lat="45.64165473948771" lon="9.564596837130939"><ele>174.0</ele><time>2026-03-29T07:53:28Z</time></trkpt><trkpt lat="45.64174733633777" lon="9.564653538507406"><ele>174.2</ele><time>2026-03-29T07:53:32Z</time></trkpt><trkpt lat="45.64183564811219" lon="9.564691334119013"><ele>174.39999999999998</ele><time>2026-03-29T07:53:34Z</time></trkpt><trkpt lat="45.641897895117474" lon="9.564708996821587"><ele>174.6</ele><time>2026-03-29T07:53:35Z</time></trkpt><trkpt lat="45.64201727562149" lon="9.564764891886565"><ele>174.8</ele><time>2026-03-29T07:53:37Z</time></trkpt><trkpt lat="45.64207953631981" lon="9.564797856983024"><ele>175.0</ele><time>2026-03-29T07:53:38Z</time></trkpt><trkpt lat="45.64219424835953" lon="9.564861374041294"><ele>175.0</ele><time>2026-03-29T07:53:40Z</time></trkpt><trkpt lat="45.64229819068461" lon="9.564915192217477"><ele>175.0</ele><time>2026-03-29T07:53:42Z</time></trkpt><trkpt lat="45.64235851156498" lon="9.564948995015465"><ele>175.0</ele><time>2026-03-29T07:53:44Z</time></trkpt><trkpt lat="45.642368635728964" lon="9.565093129740415"><ele>175.0</ele><time>2026-03-29T07:53:47Z</time></trkpt><trkpt lat="45.6423603359495" lon="9.56518411660426"><ele>175.0</ele><time>2026-03-29T07:53:48Z</time></trkpt><trkpt lat="45.642352015883965" lon="9.56527416613075"><ele>175.0</ele><time>2026-03-29T07:53:49Z</time></trkpt><trkpt lat="45.64233231561869" lon="9.565414737689702"><ele>175.0</ele><time>2026-03-29T07:53:51Z</time></trkpt><trkpt lat="45.64229995418149" lon="9.565550353848291"><ele>175.0</ele><time>2026-03-29T07:53:53Z</time></trkpt><trkpt lat="45.642270731523" lon="9.565684671567057"><ele>175.0</ele><time>2026-03-29T07:53:55Z</time></trkpt><trkpt lat="45.64223593999364" lon="9.565832019810589"><ele>175.0</ele><time>2026-03-29T07:53:57Z</time></trkpt><trkpt lat="45.642181325707405" lon="9.56597879565734"><ele>175.0</ele><time>2026-03-29T07:53:59Z</time></trkpt><trkpt lat="45.642144600131324" lon="9.566093558326715"><ele>174.33333333333334</ele><time>2026-03-29T07:54:01Z</time></trkpt><trkpt lat="45.64213236907001" lon="9.566211745050353"><ele>173.66666666666669</ele><time>2026-03-29T07:54:03Z</time></trkpt><trkpt lat="45.6421050092666" lon="9.56632431735862"><ele>173.0</ele><time>2026-03-29T07:54:05Z</time></trkpt><trkpt lat="45.642128858662694" lon="9.566419079198582"><ele>172.33333333333334</ele><time>2026-03-29T07:54:07Z</time></trkpt><trkpt lat="45.64211218839407" lon="9.566520180917982"><ele>171.66666666666666</ele><time>2026-03-29T07:54:24Z</time></trkpt><trkpt lat="45.642074974784876" lon="9.566623490693548"><ele>171.0</ele><time>2026-03-29T07:54:31Z</time></trkpt><trkpt lat="45.64209045236179" lon="9.566729404307539"><ele>171.0</ele><time>2026-03-29T07:54:36Z</time></trkpt><trkpt lat="45.64214191320226" lon="9.566869289658264"><ele>171.0</ele><time>2026-03-29T07:54:38Z</time></trkpt><trkpt lat="45.642207697123574" lon="9.566915672370126"><ele>171.0</ele><time>2026-03-29T07:54:39Z</time></trkpt><trkpt lat="45.642298330509526" lon="9.566977173925686"><ele>171.0</ele><time>2026-03-29T07:54:41Z</time></trkpt><trkpt lat="45.642385521141094" lon="9.567039538733216"><ele>171.0</ele><time>2026-03-29T07:54:43Z</time></trkpt><trkpt lat="45.642478195318674" lon="9.56709758338554"><ele>170.8</ele><time>2026-03-29T07:54:45Z</time></trkpt><trkpt lat="45.64256893468676" lon="9.567182120857197"><ele>170.60000000000002</ele><time>2026-03-29T07:54:47Z</time></trkpt><trkpt lat="45.64265568794029" lon="9.567258917110747"><ele>170.4</ele><time>2026-03-29T07:54:49Z</time></trkpt><trkpt lat="45.642701549769455" lon="9.567338577240433"><ele>170.2</ele><time>2026-03-29T07:54:52Z</time></trkpt><trkpt lat="45.6427381508167" lon="9.567429500153516"><ele>170.0</ele><time>2026-03-29T07:54:54Z</time></trkpt><trkpt lat="45.642826864369646" lon="9.567596802344559"><ele>170.0</ele><time>2026-03-29T07:54:56Z</time></trkpt><trkpt lat="45.642880554970795" lon="9.56767720250485"><ele>170.0</ele><time>2026-03-29T07:54:57Z</time></trkpt><trkpt lat="45.64290909545238" lon="9.567762400901069"><ele>170.0</ele><time>2026-03-29T07:54:58Z</time></trkpt><trkpt lat="45.64298072658634" lon="9.567882508768875"><ele>170.0</ele><time>2026-03-29T07:55:00Z</time></trkpt><trkpt lat="45.64300759932659" lon="9.568032280067078"><ele>170.0</ele><time>2026-03-29T07:55:02Z</time></trkpt><trkpt lat="45.643036963986326" lon="9.56818361732042"><ele>169.4</ele><time>2026-03-29T07:55:04Z</time></trkpt><trkpt lat="45.643077679657104" lon="9.568321069983691"><ele>168.8</ele><time>2026-03-29T07:55:06Z</time></trkpt><trkpt lat="45.64312185314748" lon="9.568458713953389"><ele>168.2</ele><time>2026-03-29T07:55:08Z</time></trkpt><trkpt lat="45.64317934425786" lon="9.568576327922688"><ele>167.6</ele><time>2026-03-29T07:55:10Z</time></trkpt><trkpt lat="45.64327783926266" lon="9.568611725879338"><ele>167.0</ele><time>2026-03-29T07:55:12Z</time></trkpt><trkpt lat="45.64336285750516" lon="9.568659262571503"><ele>167.0</ele><time>2026-03-29T07:55:14Z</time></trkpt><trkpt lat="45.64340478916841" lon="9.568728236159808"><ele>167.0</ele><time>2026-03-29T07:55:15Z</time></trkpt><trkpt lat="45.643487689758715" lon="9.56878579940008"><ele>167.0</ele><time>2026-03-29T07:55:17Z</time></trkpt><trkpt lat="45.643561151952916" lon="9.56887321028971"><ele>167.0</ele><time>2026-03-29T07:55:19Z</time></trkpt><trkpt lat="45.64365812200953" lon="9.568936871569981"><ele>167.0</ele><time>2026-03-29T07:55:21Z</time></trkpt><trkpt lat="45.643744609087676" lon="9.569022810048006"><ele>167.6</ele><time>2026-03-29T07:55:23Z</time></trkpt><trkpt lat="45.643844737334625" lon="9.56907896095563"><ele>168.2</ele><time>2026-03-29T07:55:25Z</time></trkpt><trkpt lat="45.64394059244" lon="9.56913377615735"><ele>168.8</ele><time>2026-03-29T07:55:27Z</time></trkpt><trkpt lat="45.64404237761938" lon="9.56919696810569"><ele>169.4</ele><time>2026-03-29T07:55:29Z</time></trkpt><trkpt lat="45.64414408937632" lon="9.56924978288296"><ele>170.0</ele><time>2026-03-29T07:55:31Z</time></trkpt><trkpt lat="45.64429631669468" lon="9.569273910537756"><ele>170.0</ele><time>2026-03-29T07:55:33Z</time></trkpt><trkpt lat="45.644392495564325" lon="9.569309492481594"><ele>170.0</ele><time>2026-03-29T07:55:35Z</time></trkpt><trkpt lat="45.64449027281347" lon="9.56927901019603"><ele>170.0</ele><time>2026-03-29T07:55:37Z</time></trkpt><trkpt lat="45.64470224247572" lon="9.56934608796312"><ele>170.0</ele><time>2026-03-29T07:55:42Z</time></trkpt><trkpt lat="45.64479487030338" lon="9.569348003417753"><ele>170.0</ele><time>2026-03-29T07:55:44Z</time></trkpt><trkpt lat="45.64490944604546" lon="9.569339334938066"><ele>170.0</ele><time>2026-03-29T07:55:46Z</time></trkpt><trkpt lat="45.64503489192461" lon="9.569311947719472"><ele>170.0</ele><time>2026-03-29T07:55:48Z</time></trkpt><trkpt lat="45.64516088716112" lon="9.569291718454737"><ele>170.0</ele><time>2026-03-29T07:55:50Z</time></trkpt><trkpt lat="45.64523431673553" lon="9.569315679884893"><ele>170.0</ele><time>2026-03-29T07:55:52Z</time></trkpt><trkpt lat="45.64535002034508" lon="9.569314555538027"><ele>170.75</ele><time>2026-03-29T07:55:54Z</time></trkpt><trkpt lat="45.645470865209646" lon="9.569319028486218"><ele>171.5</ele><time>2026-03-29T07:55:56Z</time></trkpt><trkpt lat="45.64557767986167" lon="9.569307775497622"><ele>172.25</ele><time>2026-03-29T07:55:58Z</time></trkpt><trkpt lat="45.645685821287344" lon="9.569281342965597"><ele>173.0</ele><time>2026-03-29T07:56:00Z</time></trkpt><trkpt lat="45.64591067477001" lon="9.569275125121008"><ele>173.0</ele><time>2026-03-29T07:56:07Z</time></trkpt><trkpt lat="45.64598574982743" lon="9.569235474687304"><ele>173.0</ele><time>2026-03-29T07:56:09Z</time></trkpt><trkpt lat="45.6460623750281" lon="9.569152358990834"><ele>173.0</ele><time>2026-03-29T07:56:11Z</time></trkpt><trkpt lat="45.6462573553447" lon="9.569093919380451"><ele>173.0</ele><time>2026-03-29T07:56:14Z</time></trkpt><trkpt lat="45.64632589790478" lon="9.569039690583734"><ele>172.66666666666666</ele><time>2026-03-29T07:56:15Z</time></trkpt><trkpt lat="45.64639219324365" lon="9.568992792721971"><ele>172.33333333333331</ele><time>2026-03-29T07:56:16Z</time></trkpt><trkpt lat="45.64646602132436" lon="9.568948136338134"><ele>172.0</ele><time>2026-03-29T07:56:17Z</time></trkpt><trkpt lat="45.64652060232624" lon="9.568891589692083"><ele>171.66666666666666</ele><time>2026-03-29T07:56:18Z</time></trkpt><trkpt lat="45.64665686837202" lon="9.568821525695776"><ele>171.33333333333334</ele><time>2026-03-29T07:56:20Z</time></trkpt><trkpt lat="45.64672950443731" lon="9.56880611885992"><ele>171.0</ele><time>2026-03-29T07:56:21Z</time></trkpt><trkpt lat="45.646825330012014" lon="9.568714015841705"><ele>171.16666666666666</ele><time>2026-03-29T07:56:23Z</time></trkpt><trkpt lat="45.64689066584108" lon="9.568686580010292"><ele>171.33333333333334</ele><time>2026-03-29T07:56:24Z</time></trkpt><trkpt lat="45.646961418536065" lon="9.56874583969458"><ele>171.5</ele><time>2026-03-29T07:56:26Z</time></trkpt><trkpt lat="45.64702855265026" lon="9.568752857667953"><ele>171.66666666666669</ele><time>2026-03-29T07:56:28Z</time></trkpt><trkpt lat="45.64710395464921" lon="9.568738403167366"><ele>171.83333333333334</ele><time>2026-03-29T07:56:31Z</time></trkpt><trkpt lat="45.64718931293703" lon="9.568700848690433"><ele>172.0</ele><time>2026-03-29T07:56:33Z</time></trkpt><trkpt lat="45.64725706743944" lon="9.568683591348996"><ele>172.0</ele><time>2026-03-29T07:56:35Z</time></trkpt><trkpt lat="45.647369102220246" lon="9.568631167588212"><ele>172.0</ele><time>2026-03-29T07:56:38Z</time></trkpt><trkpt lat="45.647463751795065" lon="9.56862911377602"><ele>172.0</ele><time>2026-03-29T07:56:39Z</time></trkpt><trkpt lat="45.647542782994414" lon="9.568592215723315"><ele>172.0</ele><time>2026-03-29T07:56:40Z</time></trkpt><trkpt lat="45.64761917447259" lon="9.568604252579245"><ele>172.0</ele><time>2026-03-29T07:56:41Z</time></trkpt><trkpt lat="45.6476915007536" lon="9.568615427271682"><ele>172.0</ele><time>2026-03-29T07:56:42Z</time></trkpt><trkpt lat="45.64776404354738" lon="9.568606612581533"><ele>171.75</ele><time>2026-03-29T07:56:43Z</time></trkpt><trkpt lat="45.64789636538029" lon="9.568616516661525"><ele>171.5</ele><time>2026-03-29T07:56:45Z</time></trkpt><trkpt lat="45.647989456734656" lon="9.568614826048702"><ele>171.25</ele><time>2026-03-29T07:56:48Z</time></trkpt><trkpt lat="45.648056599712056" lon="9.568629498685661"><ele>171.0</ele><time>2026-03-29T07:56:50Z</time></trkpt><trkpt lat="45.64824632390748" lon="9.56863654216891"><ele>171.0</ele><time>2026-03-29T07:56:56Z</time></trkpt><trkpt lat="45.64832177620997" lon="9.568658213254771"><ele>171.0</ele><time>2026-03-29T07:56:58Z</time></trkpt><trkpt lat="45.64850571269535" lon="9.568660145844113"><ele>171.0</ele><time>2026-03-29T07:57:04Z</time></trkpt><trkpt lat="45.64865642153008" lon="9.56864748533681"><ele>171.0</ele><time>2026-03-29T07:57:10Z</time></trkpt><trkpt lat="45.64871345425414" lon="9.568745878484858"><ele>171.16666666666666</ele><time>2026-03-29T07:57:11Z</time></trkpt><trkpt lat="45.6488128864225" lon="9.568757199351127"><ele>171.33333333333334</ele><time>2026-03-29T07:57:15Z</time></trkpt><trkpt lat="45.64890712076026" lon="9.568825536572922"><ele>171.5</ele><time>2026-03-29T07:57:17Z</time></trkpt><trkpt lat="45.64895237049137" lon="9.568934391109732"><ele>171.66666666666669</ele><time>2026-03-29T07:57:20Z</time></trkpt><trkpt lat="45.64899631406808" lon="9.568999859814175"><ele>171.83333333333334</ele><time>2026-03-29T07:57:22Z</time></trkpt><trkpt lat="45.64907705164442" lon="9.568991753990224"><ele>172.0</ele><time>2026-03-29T07:57:25Z</time></trkpt><trkpt lat="45.65025418446452" lon="9.568788962359607"><ele>172.39999999999998</ele><time>2026-03-29T07:57:26Z</time></trkpt><trkpt lat="45.650306461451606" lon="9.568726029494234"><ele>172.79999999999998</ele><time>2026-03-29T07:57:27Z</time></trkpt><trkpt lat="45.65039095785898" lon="9.568622429013226"><ele>173.2</ele><time>2026-03-29T07:57:29Z</time></trkpt><trkpt lat="45.65047778026637" lon="9.568559271366654"><ele>173.6</ele><time>2026-03-29T07:57:31Z</time></trkpt><trkpt lat="45.650568446981765" lon="9.568476391974803"><ele>174.0</ele><time>2026-03-29T07:57:33Z</time></trkpt><trkpt lat="45.65065535836882" lon="9.568402200374212"><ele>174.0</ele><time>2026-03-29T07:57:35Z</time></trkpt><trkpt lat="45.650748623742004" lon="9.568329504695887"><ele>174.0</ele><time>2026-03-29T07:57:37Z</time></trkpt><trkpt lat="45.650162909956606" lon="9.568297890710728"><ele>174.0</ele><time>2026-03-29T07:57:39Z</time></trkpt><trkpt lat="45.65026224773773" lon="9.568282862855419"><ele>174.0</ele><time>2026-03-29T07:57:40Z</time></trkpt><trkpt lat="45.650358041358324" lon="9.56825739849171"><ele>174.0</ele><time>2026-03-29T07:57:41Z</time></trkpt><trkpt lat="45.650561900913644" lon="9.568245599401749"><ele>174.0</ele><time>2026-03-29T07:57:43Z</time></trkpt><trkpt lat="45.65068098120209" lon="9.568226613164667"><ele>174.25</ele><time>2026-03-29T07:57:44Z</time></trkpt><trkpt lat="45.6507883242048" lon="9.568249844180782"><ele>174.5</ele><time>2026-03-29T07:57:45Z</time></trkpt><trkpt lat="45.65091084110759" lon="9.568290142043635"><ele>174.75</ele><time>2026-03-29T07:57:46Z</time></trkpt><trkpt lat="45.65102024649977" lon="9.568304168220331"><ele>175.0</ele><time>2026-03-29T07:57:47Z</time></trkpt><trkpt lat="45.65112918660673" lon="9.568318841908633"><ele>175.0</ele><time>2026-03-29T07:57:48Z</time></trkpt><trkpt lat="45.65102675078842" lon="9.568522588415563"><ele>175.0</ele><time>2026-03-29T07:57:51Z</time></trkpt><trkpt lat="45.65111067546662" lon="9.568626311579616"><ele>175.0</ele><time>2026-03-29T07:57:52Z</time></trkpt><trkpt lat="45.65123625709895" lon="9.568633768022801"><ele>175.0</ele><time>2026-03-29T07:57:53Z</time></trkpt><trkpt lat="45.651341005723985" lon="9.568640880054195"><ele>175.33333333333334</ele><time>2026-03-29T07:57:54Z</time></trkpt><trkpt lat="45.65141832572577" lon="9.568653914303713"><ele>175.66666666666669</ele><time>2026-03-29T07:57:55Z</time></trkpt><trkpt lat="45.65148505673656" lon="9.568688144893459"><ele>176.0</ele><time>2026-03-29T07:57:56Z</time></trkpt><trkpt lat="45.65161161197743" lon="9.568737390335372"><ele>176.33333333333334</ele><time>2026-03-29T07:57:58Z</time></trkpt><trkpt lat="45.65168524406161" lon="9.568738563640121"><ele>176.66666666666666</ele><time>2026-03-29T07:57:59Z</time></trkpt><trkpt lat="45.65176677583342" lon="9.56872665343921"><ele>177.0</ele><time>2026-03-29T07:58:00Z</time></trkpt><trkpt lat="45.65183023765902" lon="9.568687728040816"><ele>177.0</ele><time>2026-03-29T07:58:01Z</time></trkpt><trkpt lat="45.65193588417014" lon="9.568655587411804"><ele>177.0</ele><time>2026-03-29T07:58:03Z</time></trkpt><trkpt lat="45.65205596913393" lon="9.568686769532754"><ele>177.0</ele><time>2026-03-29T07:58:05Z</time></trkpt><trkpt lat="45.6521710092318" lon="9.568698670922917"><ele>177.0</ele><time>2026-03-29T07:58:07Z</time></trkpt><trkpt lat="45.65227706954567" lon="9.56862378801895"><ele>177.2</ele><time>2026-03-29T07:58:09Z</time></trkpt><trkpt lat="45.652360147423536" lon="9.568529296269618"><ele>177.39999999999998</ele><time>2026-03-29T07:58:11Z</time></trkpt><trkpt lat="45.652461194825605" lon="9.568470015932602"><ele>177.60000000000002</ele><time>2026-03-29T07:58:13Z</time></trkpt><trkpt lat="45.652603469350346" lon="9.568515122533467"><ele>177.8</ele><time>2026-03-29T07:58:18Z</time></trkpt><trkpt lat="45.65266117956423" lon="9.568595976896168"><ele>178.0</ele><time>2026-03-29T07:58:20Z</time></trkpt><trkpt lat="45.65274549700687" lon="9.568628859687038"><ele>178.2</ele><time>2026-03-29T07:58:21Z</time></trkpt><trkpt lat="45.65280573597066" lon="9.568672352333156"><ele>178.4</ele><time>2026-03-29T07:58:22Z</time></trkpt><trkpt lat="45.65288485272213" lon="9.568756425962475"><ele>178.6</ele><time>2026-03-29T07:58:24Z</time></trkpt><trkpt lat="45.652980096929475" lon="9.56884810127337"><ele>178.79999999999998</ele><time>2026-03-29T07:58:26Z</time></trkpt><trkpt lat="45.65309522613689" lon="9.56889641041339"><ele>179.0</ele><time>2026-03-29T07:58:28Z</time></trkpt><trkpt lat="45.65319925662419" lon="9.568930447195696"><ele>178.66666666666666</ele><time>2026-03-29T07:58:30Z</time></trkpt><trkpt lat="45.65326378831265" lon="9.568939249164611"><ele>178.33333333333331</ele><time>2026-03-29T07:58:31Z</time></trkpt><trkpt lat="45.65333222900694" lon="9.56898007518592"><ele>178.0</ele><time>2026-03-29T07:58:32Z</time></trkpt><trkpt lat="45.65338422708899" lon="9.569060181367778"><ele>177.66666666666666</ele><time>2026-03-29T07:58:33Z</time></trkpt><trkpt lat="45.65348998624657" lon="9.569124573810482"><ele>177.33333333333334</ele><time>2026-03-29T07:58:35Z</time></trkpt><trkpt lat="45.65355664595677" lon="9.56917647170239"><ele>177.0</ele><time>2026-03-29T07:58:36Z</time></trkpt><trkpt lat="45.65366499079699" lon="9.569223002640493"><ele>177.0</ele><time>2026-03-29T07:58:38Z</time></trkpt><trkpt lat="45.65378255970496" lon="9.569242365546064"><ele>177.0</ele><time>2026-03-29T07:58:40Z</time></trkpt><trkpt lat="45.653890022341464" lon="9.569298271935523"><ele>177.0</ele><time>2026-03-29T07:58:42Z</time></trkpt><trkpt lat="45.65395466521307" lon="9.569298204685147"><ele>177.0</ele><time>2026-03-29T07:58:43Z</time></trkpt><trkpt lat="45.65405713349833" lon="9.569312608001493"><ele>177.0</ele><time>2026-03-29T07:58:45Z</time></trkpt><trkpt lat="45.65419522365207" lon="9.569371281683754"><ele>177.0</ele><time>2026-03-29T07:58:48Z</time></trkpt><trkpt lat="45.65429111245173" lon="9.569401318987747"><ele>177.0</ele><time>2026-03-29T07:58:50Z</time></trkpt><trkpt lat="45.65439055690851" lon="9.569424948868187"><ele>177.0</ele><time>2026-03-29T07:58:52Z</time></trkpt><trkpt lat="45.654488324359434" lon="9.569429232831972"><ele>177.0</ele><time>2026-03-29T07:58:54Z</time></trkpt><trkpt lat="45.654593360877236" lon="9.569446813087296"><ele>177.0</ele><time>2026-03-29T07:58:56Z</time></trkpt><trkpt lat="45.65465976397682" lon="9.56957817353781"><ele>177.0</ele><time>2026-03-29T07:58:58Z</time></trkpt><trkpt lat="45.65474901825392" lon="9.569675286205014"><ele>177.0</ele><time>2026-03-29T07:59:00Z</time></trkpt><trkpt lat="45.65485714450413" lon="9.569688015533647"><ele>177.0</ele><time>2026-03-29T07:59:02Z</time></trkpt><trkpt lat="45.654964378010966" lon="9.569708432144116"><ele>177.0</ele><time>2026-03-29T07:59:04Z</time></trkpt><trkpt lat="45.65506410698295" lon="9.569744158957567"><ele>177.0</ele><time>2026-03-29T07:59:06Z</time></trkpt><trkpt lat="45.6551308777021" lon="9.56981167346379"><ele>177.0</ele><time>2026-03-29T07:59:09Z</time></trkpt><trkpt lat="45.65520118459285" lon="9.569794727963599"><ele>177.0</ele><time>2026-03-29T07:59:11Z</time></trkpt><trkpt lat="45.65528624130331" lon="9.569823243285592"><ele>177.0</ele><time>2026-03-29T07:59:14Z</time></trkpt><trkpt lat="45.65535249999279" lon="9.569867520261429"><ele>177.0</ele><time>2026-03-29T07:59:16Z</time></trkpt><trkpt lat="45.6554105251614" lon="9.569912474286161"><ele>177.0</ele><time>2026-03-29T07:59:18Z</time></trkpt><trkpt lat="45.65547764813596" lon="9.569930102735539"><ele>177.0</ele><time>2026-03-29T07:59:20Z</time></trkpt><trkpt lat="45.65555581411503" lon="9.569912115475994"><ele>177.0</ele><time>2026-03-29T07:59:23Z</time></trkpt><trkpt lat="45.65562504785155" lon="9.569969522289115"><ele>177.33333333333334</ele><time>2026-03-29T07:59:25Z</time></trkpt><trkpt lat="45.65570650827648" lon="9.569999019718674"><ele>177.66666666666666</ele><time>2026-03-29T07:59:27Z</time></trkpt><trkpt lat="45.655781169618194" lon="9.570018395827516"><ele>178.0</ele><time>2026-03-29T07:59:29Z</time></trkpt><trkpt lat="45.65585143963729" lon="9.570055934379601"><ele>178.33333333333331</ele><time>2026-03-29T07:59:31Z</time></trkpt><trkpt lat="45.655878688053" lon="9.570138720696104"><ele>178.66666666666666</ele><time>2026-03-29T07:59:33Z</time></trkpt><trkpt lat="45.65594934713135" lon="9.57021914474171"><ele>179.0</ele><time>2026-03-29T07:59:36Z</time></trkpt><trkpt lat="45.65598428262622" lon="9.57029423501046"><ele>179.2</ele><time>2026-03-29T07:59:37Z</time></trkpt><trkpt lat="45.656079275297465" lon="9.570367547305745"><ele>179.39999999999998</ele><time>2026-03-29T07:59:39Z</time></trkpt><trkpt lat="45.65613842614143" lon="9.570553355219747"><ele>179.6</ele><time>2026-03-29T07:59:41Z</time></trkpt><trkpt lat="45.65617793102874" lon="9.57065164976838"><ele>179.8</ele><time>2026-03-29T07:59:43Z</time></trkpt><trkpt lat="45.65624413918277" lon="9.570726784476928"><ele>180.0</ele><time>2026-03-29T07:59:45Z</time></trkpt><trkpt lat="45.65632811025543" lon="9.570766108272618"><ele>180.0</ele><time>2026-03-29T07:59:47Z</time></trkpt><trkpt lat="45.65677912106118" lon="9.571203629998307"><ele>180.0</ele><time>2026-03-29T07:59:49Z</time></trkpt><trkpt lat="45.65687079057139" lon="9.571264366964218"><ele>180.0</ele><time>2026-03-29T07:59:51Z</time></trkpt><trkpt lat="45.656938917241185" lon="9.571366812916294"><ele>180.0</ele><time>2026-03-29T07:59:53Z</time></trkpt><trkpt lat="45.657012939739694" lon="9.571466622582046"><ele>180.0</ele><time>2026-03-29T07:59:55Z</time></trkpt><trkpt lat="45.65711632704831" lon="9.571534066362334"><ele>180.0</ele><time>2026-03-29T07:59:57Z</time></trkpt><trkpt lat="45.65719179197952" lon="9.571620152808496"><ele>179.8</ele><time>2026-03-29T07:59:59Z</time></trkpt><trkpt lat="45.65725677153172" lon="9.57173487818255"><ele>179.6</ele><time>2026-03-29T08:00:01Z</time></trkpt><trkpt lat="45.65734163219826" lon="9.571823585389645"><ele>179.39999999999998</ele><time>2026-03-29T08:00:03Z</time></trkpt><trkpt lat="45.65741192713479" lon="9.57191451271739"><ele>179.2</ele><time>2026-03-29T08:00:05Z</time></trkpt><trkpt lat="45.657449714759224" lon="9.572022127931225"><ele>179.0</ele><time>2026-03-29T08:00:07Z</time></trkpt><trkpt lat="45.65746999338151" lon="9.572136874942553"><ele>179.0</ele><time>2026-03-29T08:00:09Z</time></trkpt><trkpt lat="45.65757034147786" lon="9.572130146971078"><ele>179.0</ele><time>2026-03-29T08:00:10Z</time></trkpt><trkpt lat="45.65764373964237" lon="9.572237335711074"><ele>179.0</ele><time>2026-03-29T08:00:16Z</time></trkpt><trkpt lat="45.657694417836396" lon="9.572325315026031"><ele>179.0</ele><time>2026-03-29T08:00:18Z</time></trkpt><trkpt lat="45.657726813091486" lon="9.572412909675402"><ele>179.0</ele><time>2026-03-29T08:00:19Z</time></trkpt><trkpt lat="45.657780660017735" lon="9.572508061572577"><ele>179.0</ele><time>2026-03-29T08:00:20Z</time></trkpt><trkpt lat="45.65780832496085" lon="9.572594319243906"><ele>179.39999999999998</ele><time>2026-03-29T08:00:21Z</time></trkpt><trkpt lat="45.65788016493741" lon="9.572726130852686"><ele>179.8</ele><time>2026-03-29T08:00:23Z</time></trkpt><trkpt lat="45.657919609740475" lon="9.572801568444012"><ele>180.2</ele><time>2026-03-29T08:00:24Z</time></trkpt><trkpt lat="45.65797439437581" lon="9.572922172377135"><ele>180.60000000000002</ele><time>2026-03-29T08:00:26Z</time></trkpt><trkpt lat="45.658055046833375" lon="9.573020136017629"><ele>181.0</ele><time>2026-03-29T08:00:28Z</time></trkpt><trkpt lat="45.658124731467375" lon="9.573093531553338"><ele>181.0</ele><time>2026-03-29T08:00:30Z</time></trkpt><trkpt lat="45.65819246483772" lon="9.573125356760887"><ele>181.0</ele><time>2026-03-29T08:00:34Z</time></trkpt><trkpt lat="45.65826297326413" lon="9.573165452135834"><ele>181.0</ele><time>2026-03-29T08:00:37Z</time></trkpt><trkpt lat="45.6583335173526" lon="9.573208955997393"><ele>181.0</ele><time>2026-03-29T08:00:39Z</time></trkpt><trkpt lat="45.65841898835014" lon="9.573244300974142"><ele>181.0</ele><time>2026-03-29T08:00:41Z</time></trkpt><trkpt lat="45.658475305555235" lon="9.573302182872578"><ele>181.0</ele><time>2026-03-29T08:00:42Z</time></trkpt><trkpt lat="45.65857493893117" lon="9.573338498120188"><ele>180.83333333333334</ele><time>2026-03-29T08:00:44Z</time></trkpt><trkpt lat="45.65867755013757" lon="9.573464015059889"><ele>180.66666666666669</ele><time>2026-03-29T08:00:46Z</time></trkpt><trkpt lat="45.65875112189842" lon="9.57353647534146"><ele>180.5</ele><time>2026-03-29T08:00:47Z</time></trkpt><trkpt lat="45.65881432730843" lon="9.573588921274697"><ele>180.33333333333334</ele><time>2026-03-29T08:00:48Z</time></trkpt><trkpt lat="45.6588767171657" lon="9.573621176530349"><ele>180.16666666666666</ele><time>2026-03-29T08:00:49Z</time></trkpt><trkpt lat="45.65892768623967" lon="9.573678208665298"><ele>180.0</ele><time>2026-03-29T08:00:50Z</time></trkpt><trkpt lat="45.65897926695318" lon="9.573746591522047"><ele>179.4</ele><time>2026-03-29T08:00:51Z</time></trkpt><trkpt lat="45.65903689655496" lon="9.573803544934309"><ele>178.8</ele><time>2026-03-29T08:00:52Z</time></trkpt><trkpt lat="45.65908600316749" lon="9.573867854297982"><ele>178.2</ele><time>2026-03-29T08:00:53Z</time></trkpt><trkpt lat="45.65916925297601" lon="9.573997196848856"><ele>177.6</ele><time>2026-03-29T08:00:55Z</time></trkpt><trkpt lat="45.65925378280557" lon="9.574098164928019"><ele>177.0</ele><time>2026-03-29T08:00:57Z</time></trkpt><trkpt lat="45.65935549509331" lon="9.574134818261829"><ele>178.25</ele><time>2026-03-29T08:00:59Z</time></trkpt><trkpt lat="45.659452304437245" lon="9.574183524198508"><ele>179.5</ele><time>2026-03-29T08:01:01Z</time></trkpt><trkpt lat="45.659558191793536" lon="9.574253022262297"><ele>180.75</ele><time>2026-03-29T08:01:03Z</time></trkpt><trkpt lat="45.65967419538915" lon="9.574300433876203"><ele>182.0</ele><time>2026-03-29T08:01:06Z</time></trkpt><trkpt lat="45.659772826427684" lon="9.574383000407133"><ele>182.0</ele><time>2026-03-29T08:01:08Z</time></trkpt><trkpt lat="45.659863684865755" lon="9.574458487590617"><ele>182.0</ele><time>2026-03-29T08:01:10Z</time></trkpt><trkpt lat="45.65994274550605" lon="9.574543413217755"><ele>182.0</ele><time>2026-03-29T08:01:12Z</time></trkpt><trkpt lat="45.660023314395524" lon="9.574612149360552"><ele>182.0</ele><time>2026-03-29T08:01:14Z</time></trkpt><trkpt lat="45.660121747833635" lon="9.574671080064688"><ele>182.0</ele><time>2026-03-29T08:01:16Z</time></trkpt><trkpt lat="45.66021868948059" lon="9.574733549771596"><ele>182.2</ele><time>2026-03-29T08:01:18Z</time></trkpt><trkpt lat="45.660320994650014" lon="9.574778546385765"><ele>182.39999999999998</ele><time>2026-03-29T08:01:20Z</time></trkpt><trkpt lat="45.66041340473753" lon="9.574865368829823"><ele>182.60000000000002</ele><time>2026-03-29T08:01:22Z</time></trkpt><trkpt lat="45.66049236183259" lon="9.574919714837296"><ele>182.8</ele><time>2026-03-29T08:01:24Z</time></trkpt><trkpt lat="45.660579909351725" lon="9.574993508258041"><ele>183.0</ele><time>2026-03-29T08:01:26Z</time></trkpt><trkpt lat="45.66067626685248" lon="9.575067027566282"><ele>183.0</ele><time>2026-03-29T08:01:28Z</time></trkpt><trkpt lat="45.66075575740746" lon="9.575146091351343"><ele>183.0</ele><time>2026-03-29T08:01:33Z</time></trkpt><trkpt lat="45.66085412101677" lon="9.575259897386902"><ele>183.0</ele><time>2026-03-29T08:01:35Z</time></trkpt><trkpt lat="45.66092917485828" lon="9.57532482597017"><ele>183.0</ele><time>2026-03-29T08:01:37Z</time></trkpt><trkpt lat="45.66095913827915" lon="9.575418290787931"><ele>183.0</ele><time>2026-03-29T08:01:39Z</time></trkpt><trkpt lat="45.66102761691175" lon="9.575406018723179"><ele>183.0</ele><time>2026-03-29T08:01:41Z</time></trkpt><trkpt lat="45.661144529669045" lon="9.57547299563061"><ele>183.0</ele><time>2026-03-29T08:01:44Z</time></trkpt><trkpt lat="45.661250284128876" lon="9.575548554408904"><ele>183.0</ele><time>2026-03-29T08:01:47Z</time></trkpt><trkpt lat="45.66132111391171" lon="9.575648243994022"><ele>183.0</ele><time>2026-03-29T08:01:49Z</time></trkpt><trkpt lat="45.66138770420049" lon="9.575684341639102"><ele>183.0</ele><time>2026-03-29T08:01:51Z</time></trkpt><trkpt lat="45.66141851848063" lon="9.575787156873732"><ele>183.0</ele><time>2026-03-29T08:01:53Z</time></trkpt><trkpt lat="45.661452043065154" lon="9.575875738031016"><ele>183.0</ele><time>2026-03-29T08:01:55Z</time></trkpt><trkpt lat="45.66150047645623" lon="9.57594500335622"><ele>183.0</ele><time>2026-03-29T08:01:57Z</time></trkpt><trkpt lat="45.6615390406856" lon="9.576017538356203"><ele>183.0</ele><time>2026-03-29T08:01:59Z</time></trkpt><trkpt lat="45.6616088885002" lon="9.576022562570685"><ele>183.0</ele><time>2026-03-29T08:02:01Z</time></trkpt><trkpt lat="45.661710465089804" lon="9.576088461613642"><ele>183.0</ele><time>2026-03-29T08:02:04Z</time></trkpt><trkpt lat="45.661781359663486" lon="9.576143684841519"><ele>183.0</ele><time>2026-03-29T08:02:05Z</time></trkpt><trkpt lat="45.661850955661784" lon="9.576222492931608"><ele>183.0</ele><time>2026-03-29T08:02:06Z</time></trkpt><trkpt lat="45.661975843758555" lon="9.576267809608266"><ele>183.0</ele><time>2026-03-29T08:02:08Z</time></trkpt><trkpt lat="45.66208010451115" lon="9.57622362905001"><ele>183.0</ele><time>2026-03-29T08:02:10Z</time></trkpt><trkpt lat="45.662169128667465" lon="9.57621664407423"><ele>183.0</ele><time>2026-03-29T08:02:12Z</time></trkpt><trkpt lat="45.66224048704347" lon="9.576126723400249"><ele>183.4</ele><time>2026-03-29T08:02:14Z</time></trkpt><trkpt lat="45.66230363983796" lon="9.576082782704763"><ele>183.8</ele><time>2026-03-29T08:02:16Z</time></trkpt><trkpt lat="45.66239522188632" lon="9.576030997984036"><ele>184.2</ele><time>2026-03-29T08:02:18Z</time></trkpt><trkpt lat="45.6624790378417" lon="9.576018994929871"><ele>184.6</ele><time>2026-03-29T08:02:20Z</time></trkpt><trkpt lat="45.662595898245996" lon="9.57609749632767"><ele>185.0</ele><time>2026-03-29T08:02:22Z</time></trkpt><trkpt lat="45.66268424518077" lon="9.576156308375497"><ele>185.0</ele><time>2026-03-29T08:02:24Z</time></trkpt><trkpt lat="45.66287720827242" lon="9.576155220469408"><ele>185.0</ele><time>2026-03-29T08:02:30Z</time></trkpt><trkpt lat="45.66306306240269" lon="9.576209951494246"><ele>185.0</ele><time>2026-03-29T08:02:40Z</time></trkpt><trkpt lat="45.6633265922579" lon="9.57614564822355"><ele>185.0</ele><time>2026-03-29T08:02:48Z</time></trkpt><trkpt lat="45.66341241173274" lon="9.576130561266446"><ele>185.0</ele><time>2026-03-29T08:02:50Z</time></trkpt><trkpt lat="45.66352375663209" lon="9.576153670352584"><ele>185.0</ele><time>2026-03-29T08:02:52Z</time></trkpt><trkpt lat="45.663596279174946" lon="9.576181777200762"><ele>185.0</ele><time>2026-03-29T08:02:54Z</time></trkpt><trkpt lat="45.66366253474583" lon="9.576140650354548"><ele>185.0</ele><time>2026-03-29T08:02:57Z</time></trkpt><trkpt lat="45.663741113907854" lon="9.576151706626533"><ele>185.0</ele><time>2026-03-29T08:03:00Z</time></trkpt><trkpt lat="45.66382152719527" lon="9.576157002618558"><ele>185.16666666666666</ele><time>2026-03-29T08:03:01Z</time></trkpt><trkpt lat="45.66386209338847" lon="9.576065776735309"><ele>185.33333333333331</ele><time>2026-03-29T08:03:03Z</time></trkpt><trkpt lat="45.66394908042122" lon="9.576084435442388"><ele>185.5</ele><time>2026-03-29T08:03:06Z</time></trkpt><trkpt lat="45.664007845023576" lon="9.576128176903158"><ele>185.66666666666666</ele><time>2026-03-29T08:03:07Z</time></trkpt><trkpt lat="45.664132179345245" lon="9.576179160021967"><ele>185.83333333333334</ele><time>2026-03-29T08:03:09Z</time></trkpt><trkpt lat="45.66419535140747" lon="9.576188545620631"><ele>186.0</ele><time>2026-03-29T08:03:10Z</time></trkpt><trkpt lat="45.66427609865492" lon="9.576214283247163"><ele>186.0</ele><time>2026-03-29T08:03:11Z</time></trkpt><trkpt lat="45.66436210373517" lon="9.576245841862315"><ele>186.0</ele><time>2026-03-29T08:03:13Z</time></trkpt><trkpt lat="45.66442543524979" lon="9.576312702355075"><ele>186.0</ele><time>2026-03-29T08:03:15Z</time></trkpt><trkpt lat="45.66448969900788" lon="9.576346637383558"><ele>186.0</ele><time>2026-03-29T08:03:17Z</time></trkpt><trkpt lat="45.66455509358699" lon="9.576351514637402"><ele>186.0</ele><time>2026-03-29T08:03:19Z</time></trkpt><trkpt lat="45.66472892304728" lon="9.576356127221539"><ele>186.0</ele><time>2026-03-29T08:03:25Z</time></trkpt><trkpt lat="45.66478790485768" lon="9.576401407078528"><ele>186.0</ele><time>2026-03-29T08:03:27Z</time></trkpt><trkpt lat="45.66490436488779" lon="9.576390436874563"><ele>186.0</ele><time>2026-03-29T08:03:30Z</time></trkpt><trkpt lat="45.66496066949569" lon="9.576465017261079"><ele>186.0</ele><time>2026-03-29T08:03:33Z</time></trkpt><trkpt lat="45.66501789310424" lon="9.576530182632641"><ele>186.0</ele><time>2026-03-29T08:03:36Z</time></trkpt><trkpt lat="45.665020415674086" lon="9.576634693276661"><ele>186.0</ele><time>2026-03-29T08:03:38Z</time></trkpt><trkpt lat="45.66507437233222" lon="9.576690491788492"><ele>186.0</ele><time>2026-03-29T08:03:40Z</time></trkpt><trkpt lat="45.665164441629784" lon="9.576757883098146"><ele>186.0</ele><time>2026-03-29T08:03:42Z</time></trkpt><trkpt lat="45.66522235950611" lon="9.57683585416198"><ele>186.0</ele><time>2026-03-29T08:03:44Z</time></trkpt><trkpt lat="45.66522654573231" lon="9.576927536318976"><ele>186.0</ele><time>2026-03-29T08:03:45Z</time></trkpt><trkpt lat="45.665293848701445" lon="9.577032133838374"><ele>186.0</ele><time>2026-03-29T08:03:47Z</time></trkpt><trkpt lat="45.66538256261784" lon="9.577057150553086"><ele>186.0</ele><time>2026-03-29T08:03:49Z</time></trkpt><trkpt lat="45.665443093314735" lon="9.57709234941327"><ele>186.16666666666666</ele><time>2026-03-29T08:03:51Z</time></trkpt><trkpt lat="45.665437781983286" lon="9.577206361887056"><ele>186.33333333333334</ele><time>2026-03-29T08:03:53Z</time></trkpt><trkpt lat="45.66545471235384" lon="9.577308369753974"><ele>186.5</ele><time>2026-03-29T08:03:55Z</time></trkpt><trkpt lat="45.6654379588274" lon="9.577424557971174"><ele>186.66666666666669</ele><time>2026-03-29T08:03:57Z</time></trkpt><trkpt lat="45.6655243455972" lon="9.57746874960386"><ele>186.83333333333334</ele><time>2026-03-29T08:03:59Z</time></trkpt><trkpt lat="45.6655867423705" lon="9.577558295442508"><ele>187.0</ele><time>2026-03-29T08:04:01Z</time></trkpt><trkpt lat="45.6656226309" lon="9.577675860293652"><ele>187.0</ele><time>2026-03-29T08:04:03Z</time></trkpt><trkpt lat="45.66567013801438" lon="9.577768199988324"><ele>187.0</ele><time>2026-03-29T08:04:05Z</time></trkpt><trkpt lat="45.66567169093566" lon="9.577917483425239"><ele>187.0</ele><time>2026-03-29T08:04:07Z</time></trkpt><trkpt lat="45.66571585099041" lon="9.57803582621535"><ele>187.0</ele><time>2026-03-29T08:04:09Z</time></trkpt><trkpt lat="45.66577905738934" lon="9.57814887601227"><ele>187.0</ele><time>2026-03-29T08:04:11Z</time></trkpt><trkpt lat="45.66582682202498" lon="9.578214251606537"><ele>187.0</ele><time>2026-03-29T08:04:13Z</time></trkpt><trkpt lat="45.66588061230605" lon="9.578282614553604"><ele>187.0</ele><time>2026-03-29T08:04:15Z</time></trkpt><trkpt lat="45.6659480323741" lon="9.578358437209518"><ele>187.0</ele><time>2026-03-29T08:04:17Z</time></trkpt><trkpt lat="45.666034567328666" lon="9.578441694032547"><ele>187.0</ele><time>2026-03-29T08:04:19Z</time></trkpt><trkpt lat="45.66610438043387" lon="9.578515848160626"><ele>187.0</ele><time>2026-03-29T08:04:22Z</time></trkpt><trkpt lat="45.66618372194085" lon="9.578571944355359"><ele>187.0</ele><time>2026-03-29T08:04:25Z</time></trkpt><trkpt lat="45.666210591241416" lon="9.578702501373067"><ele>186.66666666666669</ele><time>2026-03-29T08:04:27Z</time></trkpt><trkpt lat="45.666242119615866" lon="9.578803859520473"><ele>186.33333333333334</ele><time>2026-03-29T08:04:30Z</time></trkpt><trkpt lat="45.666286955310724" lon="9.578877524943199"><ele>186.0</ele><time>2026-03-29T08:04:32Z</time></trkpt><trkpt lat="45.666346877457634" lon="9.578981473948712"><ele>185.66666666666666</ele><time>2026-03-29T08:04:35Z</time></trkpt><trkpt lat="45.66645669937258" lon="9.579003702043956"><ele>185.33333333333331</ele><time>2026-03-29T08:04:38Z</time></trkpt><trkpt lat="45.66651335282494" lon="9.579046738386188"><ele>185.0</ele><time>2026-03-29T08:04:40Z</time></trkpt><trkpt lat="45.66655491437357" lon="9.579136807527483"><ele>185.0</ele><time>2026-03-29T08:04:42Z</time></trkpt><trkpt lat="45.666601434220816" lon="9.579219483098017"><ele>185.0</ele><time>2026-03-29T08:04:44Z</time></trkpt><trkpt lat="45.666636921926774" lon="9.579308805512701"><ele>185.0</ele><time>2026-03-29T08:04:46Z</time></trkpt><trkpt lat="45.66670022160612" lon="9.579375361185335"><ele>185.0</ele><time>2026-03-29T08:04:48Z</time></trkpt><trkpt lat="45.666776974608794" lon="9.579435946825377"><ele>185.0</ele><time>2026-03-29T08:04:51Z</time></trkpt><trkpt lat="45.666886344892134" lon="9.579515643298654"><ele>185.0</ele><time>2026-03-29T08:04:53Z</time></trkpt><trkpt lat="45.666929249434915" lon="9.579603392952977"><ele>185.14285714285714</ele><time>2026-03-29T08:04:54Z</time></trkpt><trkpt lat="45.66697859129957" lon="9.579669307603872"><ele>185.28571428571428</ele><time>2026-03-29T08:04:55Z</time></trkpt><trkpt lat="45.66702430411408" lon="9.57973871518583"><ele>185.42857142857144</ele><time>2026-03-29T08:04:56Z</time></trkpt><trkpt lat="45.667053829548884" lon="9.5798801732298"><ele>185.57142857142856</ele><time>2026-03-29T08:04:57Z</time></trkpt><trkpt lat="45.66709371756006" lon="9.579956717593083"><ele>185.71428571428572</ele><time>2026-03-29T08:04:58Z</time></trkpt><trkpt lat="45.667140576056354" lon="9.580040606939196"><ele>185.85714285714286</ele><time>2026-03-29T08:04:59Z</time></trkpt><trkpt lat="45.667174153554505" lon="9.580121364779654"><ele>186.0</ele><time>2026-03-29T08:05:00Z</time></trkpt><trkpt lat="45.6671901107116" lon="9.580287764954996"><ele>185.8</ele><time>2026-03-29T08:05:01Z</time></trkpt><trkpt lat="45.66723266906694" lon="9.580386832801329"><ele>185.60000000000002</ele><time>2026-03-29T08:05:02Z</time></trkpt><trkpt lat="45.66733450648172" lon="9.580457774045334"><ele>185.4</ele><time>2026-03-29T08:05:04Z</time></trkpt><trkpt lat="45.6674277958277" lon="9.580534277870283"><ele>185.2</ele><time>2026-03-29T08:05:06Z</time></trkpt><trkpt lat="45.66750613814698" lon="9.580635866293655"><ele>185.0</ele><time>2026-03-29T08:05:08Z</time></trkpt><trkpt lat="45.667568489797254" lon="9.58076612967607"><ele>185.0</ele><time>2026-03-29T08:05:10Z</time></trkpt><trkpt lat="45.667663122162175" lon="9.580816801684616"><ele>185.0</ele><time>2026-03-29T08:05:12Z</time></trkpt><trkpt lat="45.66773950319589" lon="9.58089471716429"><ele>185.0</ele><time>2026-03-29T08:05:14Z</time></trkpt><trkpt lat="45.667812244502166" lon="9.580996630686139"><ele>185.0</ele><time>2026-03-29T08:05:16Z</time></trkpt><trkpt lat="45.66786449401982" lon="9.581121744406907"><ele>185.0</ele><time>2026-03-29T08:05:18Z</time></trkpt><trkpt lat="45.66793286041824" lon="9.581195606797568"><ele>185.2</ele><time>2026-03-29T08:05:20Z</time></trkpt><trkpt lat="45.668006253418184" lon="9.581270473055481"><ele>185.4</ele><time>2026-03-29T08:05:22Z</time></trkpt><trkpt lat="45.66806870215935" lon="9.581389462396317"><ele>185.60000000000002</ele><time>2026-03-29T08:05:24Z</time></trkpt><trkpt lat="45.66812547908721" lon="9.581503297138225"><ele>185.8</ele><time>2026-03-29T08:05:26Z</time></trkpt><trkpt lat="45.668177381365396" lon="9.581625095690233"><ele>186.0</ele><time>2026-03-29T08:05:28Z</time></trkpt><trkpt lat="45.66825529639234" lon="9.581735897599659"><ele>186.0</ele><time>2026-03-29T08:05:30Z</time></trkpt><trkpt lat="45.668330666411585" lon="9.581836171531576"><ele>186.0</ele><time>2026-03-29T08:05:32Z</time></trkpt><trkpt lat="45.668392908194846" lon="9.581960169639972"><ele>186.0</ele><time>2026-03-29T08:05:34Z</time></trkpt><trkpt lat="45.6684487818027" lon="9.582060867076404"><ele>186.0</ele><time>2026-03-29T08:05:36Z</time></trkpt><trkpt lat="45.6685085619226" lon="9.582146866263184"><ele>186.0</ele><time>2026-03-29T08:05:38Z</time></trkpt><trkpt lat="45.668570926225804" lon="9.582274039026688"><ele>186.8</ele><time>2026-03-29T08:05:40Z</time></trkpt><trkpt lat="45.66864192413989" lon="9.582403473053752"><ele>187.60000000000002</ele><time>2026-03-29T08:05:42Z</time></trkpt><trkpt lat="45.66870525167167" lon="9.582506485245313"><ele>188.4</ele><time>2026-03-29T08:05:44Z</time></trkpt><trkpt lat="45.668796666590346" lon="9.58252913950121"><ele>189.2</ele><time>2026-03-29T08:05:46Z</time></trkpt><trkpt lat="45.668895355066134" lon="9.58254175404645"><ele>190.0</ele><time>2026-03-29T08:05:48Z</time></trkpt><trkpt lat="45.66898044307712" lon="9.582636669523609"><ele>190.0</ele><time>2026-03-29T08:05:50Z</time></trkpt><trkpt lat="45.669057059858304" lon="9.582694280208573"><ele>190.0</ele><time>2026-03-29T08:05:52Z</time></trkpt><trkpt lat="45.66917124898553" lon="9.58275183898668"><ele>190.0</ele><time>2026-03-29T08:05:54Z</time></trkpt><trkpt lat="45.66927242731347" lon="9.582805120707201"><ele>190.0</ele><time>2026-03-29T08:05:56Z</time></trkpt><trkpt lat="45.66935495515461" lon="9.582912598928434"><ele>190.0</ele><time>2026-03-29T08:05:58Z</time></trkpt><trkpt lat="45.6694467762085" lon="9.582988049120662"><ele>189.5</ele><time>2026-03-29T08:06:00Z</time></trkpt><trkpt lat="45.66953261048809" lon="9.583066530170361"><ele>189.0</ele><time>2026-03-29T08:06:02Z</time></trkpt><trkpt lat="45.669622190066384" lon="9.583121895929304"><ele>188.5</ele><time>2026-03-29T08:06:04Z</time></trkpt><trkpt lat="45.66969690819537" lon="9.583170128205241"><ele>188.0</ele><time>2026-03-29T08:06:07Z</time></trkpt><trkpt lat="45.66978529398197" lon="9.583193348398959"><ele>187.5</ele><time>2026-03-29T08:06:10Z</time></trkpt><trkpt lat="45.66986136640513" lon="9.58319579623852"><ele>187.0</ele><time>2026-03-29T08:06:13Z</time></trkpt><trkpt lat="45.669952706630006" lon="9.583239034919995"><ele>187.0</ele><time>2026-03-29T08:06:16Z</time></trkpt><trkpt lat="45.67002972423582" lon="9.583244817340924"><ele>187.0</ele><time>2026-03-29T08:06:18Z</time></trkpt><trkpt lat="45.67012344080311" lon="9.583256954206878"><ele>187.0</ele><time>2026-03-29T08:06:20Z</time></trkpt><trkpt lat="45.67022641211587" lon="9.583298442992584"><ele>187.0</ele><time>2026-03-29T08:06:22Z</time></trkpt><trkpt lat="45.67032693551796" lon="9.583361349772446"><ele>187.0</ele><time>2026-03-29T08:06:24Z</time></trkpt><trkpt lat="45.67042972872822" lon="9.583384841054622"><ele>187.2</ele><time>2026-03-29T08:06:26Z</time></trkpt><trkpt lat="45.67053106422966" lon="9.58339056466016"><ele>187.39999999999998</ele><time>2026-03-29T08:06:28Z</time></trkpt><trkpt lat="45.6706255570499" lon="9.583444557032726"><ele>187.60000000000002</ele><time>2026-03-29T08:06:30Z</time></trkpt><trkpt lat="45.67068633045509" lon="9.583485981735054"><ele>187.8</ele><time>2026-03-29T08:06:33Z</time></trkpt><trkpt lat="45.67076610603779" lon="9.583390331442683"><ele>188.0</ele><time>2026-03-29T08:06:34Z</time></trkpt><trkpt lat="45.670824857678724" lon="9.583492286435982"><ele>188.0</ele><time>2026-03-29T08:06:36Z</time></trkpt><trkpt lat="45.67091613693004" lon="9.583419967766988"><ele>188.0</ele><time>2026-03-29T08:06:38Z</time></trkpt><trkpt lat="45.67102370101541" lon="9.583435862944825"><ele>188.0</ele><time>2026-03-29T08:06:40Z</time></trkpt><trkpt lat="45.671119968039854" lon="9.58341837712102"><ele>188.0</ele><time>2026-03-29T08:06:42Z</time></trkpt><trkpt lat="45.671200939075995" lon="9.583398156946869"><ele>188.0</ele><time>2026-03-29T08:06:44Z</time></trkpt><trkpt lat="45.67129088223858" lon="9.583292772578034"><ele>188.5</ele><time>2026-03-29T08:06:46Z</time></trkpt><trkpt lat="45.671376625213725" lon="9.58328147338416"><ele>189.0</ele><time>2026-03-29T08:06:49Z</time></trkpt><trkpt lat="45.67143179324523" lon="9.583208030553564"><ele>189.5</ele><time>2026-03-29T08:06:51Z</time></trkpt><trkpt lat="45.67149160106087" lon="9.583174517732528"><ele>190.0</ele><time>2026-03-29T08:06:53Z</time></trkpt><trkpt lat="45.671564874704075" lon="9.58320062886122"><ele>190.5</ele><time>2026-03-29T08:06:55Z</time></trkpt><trkpt lat="45.67167428984032" lon="9.583199460683474"><ele>191.0</ele><time>2026-03-29T08:06:57Z</time></trkpt><trkpt lat="45.67177599200657" lon="9.583201846085345"><ele>191.0</ele><time>2026-03-29T08:06:58Z</time></trkpt><trkpt lat="45.67188969458863" lon="9.583159492962006"><ele>191.0</ele><time>2026-03-29T08:07:00Z</time></trkpt><trkpt lat="45.67199323854435" lon="9.583104970243744"><ele>191.0</ele><time>2026-03-29T08:07:02Z</time></trkpt><trkpt lat="45.6721048032201" lon="9.583058458419732"><ele>191.0</ele><time>2026-03-29T08:07:04Z</time></trkpt><trkpt lat="45.67220945622724" lon="9.583000481430712"><ele>191.0</ele><time>2026-03-29T08:07:06Z</time></trkpt><trkpt lat="45.67230292716843" lon="9.58294450741372"><ele>191.0</ele><time>2026-03-29T08:07:08Z</time></trkpt><trkpt lat="45.67240506641661" lon="9.58293005633294"><ele>191.0</ele><time>2026-03-29T08:07:10Z</time></trkpt><trkpt lat="45.672478582614715" lon="9.582877827883177"><ele>191.0</ele><time>2026-03-29T08:07:12Z</time></trkpt><trkpt lat="45.672572324747904" lon="9.582799017528885"><ele>191.0</ele><time>2026-03-29T08:07:14Z</time></trkpt><trkpt lat="45.672628916674455" lon="9.58274985336506"><ele>191.0</ele><time>2026-03-29T08:07:15Z</time></trkpt><trkpt lat="45.67271120192591" lon="9.582644116906721"><ele>191.0</ele><time>2026-03-29T08:07:17Z</time></trkpt><trkpt lat="45.672800303777954" lon="9.582579731978615"><ele>191.0</ele><time>2026-03-29T08:07:19Z</time></trkpt><trkpt lat="45.67291192662323" lon="9.582534248872802"><ele>191.0</ele><time>2026-03-29T08:07:21Z</time></trkpt><trkpt lat="45.67301922846014" lon="9.58251396859143"><ele>191.0</ele><time>2026-03-29T08:07:23Z</time></trkpt><trkpt lat="45.67310444156082" lon="9.582514123910537"><ele>191.16666666666666</ele><time>2026-03-29T08:07:25Z</time></trkpt><trkpt lat="45.673170204164485" lon="9.582583112815792"><ele>191.33333333333331</ele><time>2026-03-29T08:07:27Z</time></trkpt><trkpt lat="45.6732263448604" lon="9.582717151402086"><ele>191.5</ele><time>2026-03-29T08:07:31Z</time></trkpt><trkpt lat="45.6732943588512" lon="9.582781332132056"><ele>191.66666666666666</ele><time>2026-03-29T08:07:34Z</time></trkpt><trkpt lat="45.67335727962901" lon="9.582793562740278"><ele>191.83333333333334</ele><time>2026-03-29T08:07:36Z</time></trkpt><trkpt lat="45.67342259664608" lon="9.582797623954301"><ele>192.0</ele><time>2026-03-29T08:07:38Z</time></trkpt><trkpt lat="45.673476946626984" lon="9.582887915749861"><ele>192.0</ele><time>2026-03-29T08:07:40Z</time></trkpt><trkpt lat="45.67351355503574" lon="9.582984489095981"><ele>192.0</ele><time>2026-03-29T08:07:42Z</time></trkpt><trkpt lat="45.67356473169538" lon="9.58307010233307"><ele>192.0</ele><time>2026-03-29T08:07:44Z</time></trkpt><trkpt lat="45.673625792504225" lon="9.583114732463116"><ele>192.0</ele><time>2026-03-29T08:07:46Z</time></trkpt><trkpt lat="45.67370221874886" lon="9.583111335491026"><ele>192.0</ele><time>2026-03-29T08:07:48Z</time></trkpt><trkpt lat="45.67376775152589" lon="9.583197119103447"><ele>192.0</ele><time>2026-03-29T08:07:51Z</time></trkpt><trkpt lat="45.673792013612115" lon="9.583288069297275"><ele>192.0</ele><time>2026-03-29T08:07:55Z</time></trkpt><trkpt lat="45.673830899341496" lon="9.58337822260323"><ele>192.0</ele><time>2026-03-29T08:07:59Z</time></trkpt><trkpt lat="45.67387124951154" lon="9.58346433332664"><ele>192.0</ele><time>2026-03-29T08:08:01Z</time></trkpt><trkpt lat="45.67389278683205" lon="9.583594735606784"><ele>192.0</ele><time>2026-03-29T08:08:03Z</time></trkpt><trkpt lat="45.673912742446234" lon="9.583687464231481"><ele>192.0</ele><time>2026-03-29T08:08:05Z</time></trkpt><trkpt lat="45.67397347617449" lon="9.583838746454086"><ele>192.0</ele><time>2026-03-29T08:08:07Z</time></trkpt><trkpt lat="45.674020268506496" lon="9.583971524439972"><ele>192.0</ele><time>2026-03-29T08:08:09Z</time></trkpt><trkpt lat="45.674081166306905" lon="9.584117929779858"><ele>192.0</ele><time>2026-03-29T08:08:11Z</time></trkpt><trkpt lat="45.67412047157398" lon="9.584264614280434"><ele>192.0</ele><time>2026-03-29T08:08:13Z</time></trkpt><trkpt lat="45.67416632149647" lon="9.58442404853072"><ele>192.0</ele><time>2026-03-29T08:08:15Z</time></trkpt><trkpt lat="45.67425364703124" lon="9.58463453178433"><ele>192.0</ele><time>2026-03-29T08:08:16Z</time></trkpt><trkpt lat="45.674322247047485" lon="9.58463727300491"><ele>192.0</ele><time>2026-03-29T08:08:17Z</time></trkpt><trkpt lat="45.67435582731302" lon="9.584775617344"><ele>192.0</ele><time>2026-03-29T08:08:19Z</time></trkpt><trkpt lat="45.67436823422411" lon="9.58486430243135"><ele>192.0</ele><time>2026-03-29T08:08:20Z</time></trkpt><trkpt lat="45.67437739224241" lon="9.584959147830887"><ele>192.0</ele><time>2026-03-29T08:08:21Z</time></trkpt><trkpt lat="45.674432769143" lon="9.585083528489433"><ele>192.0</ele><time>2026-03-29T08:08:23Z</time></trkpt><trkpt lat="45.674458065277605" lon="9.585167317690996"><ele>192.0</ele><time>2026-03-29T08:08:24Z</time></trkpt><trkpt lat="45.67455086965418" lon="9.585277860216488"><ele>192.0</ele><time>2026-03-29T08:08:26Z</time></trkpt><trkpt lat="45.674630665027" lon="9.585317999094865"><ele>192.0</ele><time>2026-03-29T08:08:27Z</time></trkpt><trkpt lat="45.67469715100197" lon="9.585351114519282"><ele>192.0</ele><time>2026-03-29T08:08:28Z</time></trkpt><trkpt lat="45.67476986854045" lon="9.58545277846602"><ele>192.0</ele><time>2026-03-29T08:08:30Z</time></trkpt><trkpt lat="45.67481361406469" lon="9.585536516498408"><ele>192.0</ele><time>2026-03-29T08:08:32Z</time></trkpt><trkpt lat="45.674888672286116" lon="9.585606296055388"><ele>192.0</ele><time>2026-03-29T08:08:34Z</time></trkpt><trkpt lat="45.6750314727024" lon="9.585601501049272"><ele>192.0</ele><time>2026-03-29T08:08:36Z</time></trkpt><trkpt lat="45.67511843005305" lon="9.585574056817293"><ele>192.0</ele><time>2026-03-29T08:08:37Z</time></trkpt><trkpt lat="45.67516426995111" lon="9.585656085149372"><ele>192.0</ele><time>2026-03-29T08:08:38Z</time></trkpt><trkpt lat="45.67527671878063" lon="9.585712206681116"><ele>192.2</ele><time>2026-03-29T08:08:40Z</time></trkpt><trkpt lat="45.67540061913896" lon="9.585734437735818"><ele>192.39999999999998</ele><time>2026-03-29T08:08:42Z</time></trkpt><trkpt lat="45.675511980153814" lon="9.585776483230532"><ele>192.60000000000002</ele><time>2026-03-29T08:08:44Z</time></trkpt><trkpt lat="45.67558213633579" lon="9.585862801830624"><ele>192.8</ele><time>2026-03-29T08:08:46Z</time></trkpt><trkpt lat="45.67567989729533" lon="9.585868765090797"><ele>193.0</ele><time>2026-03-29T08:08:48Z</time></trkpt><trkpt lat="45.675776318793275" lon="9.58585165145589"><ele>193.0</ele><time>2026-03-29T08:08:50Z</time></trkpt><trkpt lat="45.675896798621665" lon="9.585833604824332"><ele>193.0</ele><time>2026-03-29T08:08:52Z</time></trkpt><trkpt lat="45.676004567315985" lon="9.585827036726323"><ele>193.0</ele><time>2026-03-29T08:08:54Z</time></trkpt><trkpt lat="45.67606797260257" lon="9.585834669396823"><ele>193.0</ele><time>2026-03-29T08:08:55Z</time></trkpt><trkpt lat="45.67617711763379" lon="9.58582015605987"><ele>193.0</ele><time>2026-03-29T08:08:57Z</time></trkpt><trkpt lat="45.676274071307304" lon="9.585808489019142"><ele>193.0</ele><time>2026-03-29T08:08:59Z</time></trkpt><trkpt lat="45.676550747574694" lon="9.585753201437061"><ele>193.0</ele><time>2026-03-29T08:09:06Z</time></trkpt><trkpt lat="45.676650935931576" lon="9.585718801517721"><ele>193.0</ele><time>2026-03-29T08:09:08Z</time></trkpt><trkpt lat="45.67673663927574" lon="9.585709075445378"><ele>192.99999999999997</ele><time>2026-03-29T08:09:09Z</time></trkpt><trkpt lat="45.67684760126873" lon="9.585710186234337"><ele>193.0</ele><time>2026-03-29T08:09:11Z</time></trkpt><trkpt lat="45.67691077311663" lon="9.585700873396432"><ele>193.0</ele><time>2026-03-29T08:09:12Z</time></trkpt><trkpt lat="45.67698329266204" lon="9.585674287819343"><ele>193.0</ele><time>2026-03-29T08:09:15Z</time></trkpt><trkpt lat="45.67705447292292" lon="9.585643554598326"><ele>192.99999999999997</ele><time>2026-03-29T08:09:17Z</time></trkpt><trkpt lat="45.67712080075668" lon="9.585640078485797"><ele>193.0</ele><time>2026-03-29T08:09:19Z</time></trkpt><trkpt lat="45.67719470362149" lon="9.585623590482035"><ele>192.66666666666666</ele><time>2026-03-29T08:09:21Z</time></trkpt><trkpt lat="45.67727628377315" lon="9.585617690658"><ele>192.33333333333331</ele><time>2026-03-29T08:09:23Z</time></trkpt><trkpt lat="45.67736331750841" lon="9.58558730702228"><ele>192.0</ele><time>2026-03-29T08:09:24Z</time></trkpt><trkpt lat="45.6774539038822" lon="9.585540889831739"><ele>191.66666666666666</ele><time>2026-03-29T08:09:26Z</time></trkpt><trkpt lat="45.677518879216414" lon="9.58551332112623"><ele>191.33333333333331</ele><time>2026-03-29T08:09:29Z</time></trkpt><trkpt lat="45.67762000855383" lon="9.585532484641508"><ele>191.0</ele><time>2026-03-29T08:09:32Z</time></trkpt><trkpt lat="45.67769178577753" lon="9.58561572793037"><ele>191.0</ele><time>2026-03-29T08:09:35Z</time></trkpt><trkpt lat="45.67774224894868" lon="9.585704547254227"><ele>191.0</ele><time>2026-03-29T08:09:36Z</time></trkpt><trkpt lat="45.67792190955383" lon="9.585727405036192"><ele>191.0</ele><time>2026-03-29T08:09:42Z</time></trkpt><trkpt lat="45.6780255385306" lon="9.585688491590687"><ele>191.0</ele><time>2026-03-29T08:09:45Z</time></trkpt><trkpt lat="45.67811306207157" lon="9.58567613286884"><ele>190.25</ele><time>2026-03-29T08:09:47Z</time></trkpt><trkpt lat="45.67834325532269" lon="9.585652985743316"><ele>189.5</ele><time>2026-03-29T08:09:54Z</time></trkpt><trkpt lat="45.678445131322974" lon="9.585639878796936"><ele>188.75</ele><time>2026-03-29T08:09:57Z</time></trkpt><trkpt lat="45.67850522791393" lon="9.585712656532909"><ele>188.0</ele><time>2026-03-29T08:09:59Z</time></trkpt><trkpt lat="45.67855413188385" lon="9.585818996459382"><ele>188.4</ele><time>2026-03-29T08:10:01Z</time></trkpt><trkpt lat="45.678620946808785" lon="9.5858699117806"><ele>188.8</ele><time>2026-03-29T08:10:03Z</time></trkpt><trkpt lat="45.678752512568344" lon="9.585829953866277"><ele>189.2</ele><time>2026-03-29T08:10:06Z</time></trkpt><trkpt lat="45.67885622147419" lon="9.585821220392237"><ele>189.6</ele><time>2026-03-29T08:10:09Z</time></trkpt><trkpt lat="45.67894126097545" lon="9.585827586204415"><ele>190.0</ele><time>2026-03-29T08:10:10Z</time></trkpt><trkpt lat="45.67901392819029" lon="9.585881529478623"><ele>190.0</ele><time>2026-03-29T08:10:12Z</time></trkpt><trkpt lat="45.679100354439214" lon="9.585933081943528"><ele>190.0</ele><time>2026-03-29T08:10:14Z</time></trkpt><trkpt lat="45.67919162359112" lon="9.585925818473733"><ele>190.0</ele><time>2026-03-29T08:10:16Z</time></trkpt><trkpt lat="45.67930622222708" lon="9.585886576790005"><ele>190.0</ele><time>2026-03-29T08:10:18Z</time></trkpt><trkpt lat="45.6794007697687" lon="9.58576788789605"><ele>190.0</ele><time>2026-03-29T08:10:20Z</time></trkpt><trkpt lat="45.67962098076516" lon="9.58577196748704"><ele>190.66666666666669</ele><time>2026-03-29T08:10:24Z</time></trkpt><trkpt lat="45.67994693019414" lon="9.585782698072036"><ele>191.33333333333334</ele><time>2026-03-29T08:10:29Z</time></trkpt><trkpt lat="45.68000646020684" lon="9.585828719591293"><ele>192.0</ele><time>2026-03-29T08:10:32Z</time></trkpt><trkpt lat="45.68007483074489" lon="9.585903352971963"><ele>192.0</ele><time>2026-03-29T08:10:35Z</time></trkpt><trkpt lat="45.68013184565561" lon="9.585966149860065"><ele>192.0</ele><time>2026-03-29T08:10:38Z</time></trkpt><trkpt lat="45.68014136072054" lon="9.58606359426073"><ele>192.0</ele><time>2026-03-29T08:10:42Z</time></trkpt><trkpt lat="45.68022766243983" lon="9.586084219503688"><ele>192.0</ele><time>2026-03-29T08:10:45Z</time></trkpt><trkpt lat="45.68030212999364" lon="9.586156219474091"><ele>192.0</ele><time>2026-03-29T08:10:48Z</time></trkpt><trkpt lat="45.680360239297606" lon="9.586205124032302"><ele>192.0</ele><time>2026-03-29T08:10:50Z</time></trkpt><trkpt lat="45.68055193321545" lon="9.586332364167513"><ele>192.0</ele><time>2026-03-29T08:10:57Z</time></trkpt><trkpt lat="45.68063194901006" lon="9.586346844271983"><ele>192.0</ele><time>2026-03-29T08:10:58Z</time></trkpt><trkpt lat="45.680694519341486" lon="9.58637526846356"><ele>192.0</ele><time>2026-03-29T08:10:59Z</time></trkpt><trkpt lat="45.680798743640146" lon="9.58641311423885"><ele>192.0</ele><time>2026-03-29T08:11:01Z</time></trkpt><trkpt lat="45.68088767037752" lon="9.586453895990372"><ele>192.0</ele><time>2026-03-29T08:11:03Z</time></trkpt><trkpt lat="45.6809849512776" lon="9.586533655429681"><ele>192.0</ele><time>2026-03-29T08:11:05Z</time></trkpt><trkpt lat="45.68107183230822" lon="9.586562857940734"><ele>192.0</ele><time>2026-03-29T08:11:07Z</time></trkpt><trkpt lat="45.68116125989565" lon="9.586614023275859"><ele>192.0</ele><time>2026-03-29T08:11:09Z</time></trkpt><trkpt lat="45.68123027202713" lon="9.58662226554647"><ele>192.0</ele><time>2026-03-29T08:11:12Z</time></trkpt><trkpt lat="45.68128996578297" lon="9.58668063695654"><ele>192.0</ele><time>2026-03-29T08:11:14Z</time></trkpt><trkpt lat="45.681344402794444" lon="9.586758323593257"><ele>192.0</ele><time>2026-03-29T08:11:16Z</time></trkpt><trkpt lat="45.68140733290354" lon="9.586799606518053"><ele>192.2</ele><time>2026-03-29T08:11:18Z</time></trkpt><trkpt lat="45.681565326274246" lon="9.586836790035052"><ele>192.39999999999998</ele><time>2026-03-29T08:11:23Z</time></trkpt><trkpt lat="45.6816430759743" lon="9.586887658074424"><ele>192.60000000000002</ele><time>2026-03-29T08:11:25Z</time></trkpt><trkpt lat="45.6817294146525" lon="9.586895045728717"><ele>192.8</ele><time>2026-03-29T08:11:26Z</time></trkpt><trkpt lat="45.68180473760895" lon="9.586871176901232"><ele>193.0</ele><time>2026-03-29T08:11:28Z</time></trkpt><trkpt lat="45.68187432167471" lon="9.586889694730095"><ele>193.60000000000002</ele><time>2026-03-29T08:11:30Z</time></trkpt><trkpt lat="45.68193862159166" lon="9.586892873009123"><ele>194.20000000000002</ele><time>2026-03-29T08:11:31Z</time></trkpt><trkpt lat="45.68206916154284" lon="9.586931991847067"><ele>194.8</ele><time>2026-03-29T08:11:34Z</time></trkpt><trkpt lat="45.682138761031304" lon="9.586980530591228"><ele>195.4</ele><time>2026-03-29T08:11:35Z</time></trkpt><trkpt lat="45.682244023594244" lon="9.587036089937605"><ele>196.0</ele><time>2026-03-29T08:11:37Z</time></trkpt><trkpt lat="45.68234645713236" lon="9.587074861177687"><ele>196.0</ele><time>2026-03-29T08:11:39Z</time></trkpt><trkpt lat="45.68245893853359" lon="9.587109843924605"><ele>196.0</ele><time>2026-03-29T08:11:41Z</time></trkpt><trkpt lat="45.682561552136114" lon="9.587165037504105"><ele>196.0</ele><time>2026-03-29T08:11:43Z</time></trkpt><trkpt lat="45.6826577675996" lon="9.587253992023463"><ele>196.0</ele><time>2026-03-29T08:11:45Z</time></trkpt><trkpt lat="45.68276830121417" lon="9.587295519867702"><ele>196.83333333333331</ele><time>2026-03-29T08:11:47Z</time></trkpt><trkpt lat="45.68283387147733" lon="9.587310672910975"><ele>197.66666666666666</ele><time>2026-03-29T08:11:48Z</time></trkpt><trkpt lat="45.68290694485343" lon="9.587301537111259"><ele>198.5</ele><time>2026-03-29T08:11:49Z</time></trkpt><trkpt lat="45.68297334147834" lon="9.587313649967912"><ele>199.33333333333331</ele><time>2026-03-29T08:11:50Z</time></trkpt><trkpt lat="45.683091723174684" lon="9.587334276641933"><ele>200.16666666666666</ele><time>2026-03-29T08:11:52Z</time></trkpt><trkpt lat="45.6832120214684" lon="9.587351278262995"><ele>201.0</ele><time>2026-03-29T08:11:54Z</time></trkpt><trkpt lat="45.68327960447836" lon="9.5873736334625"><ele>201.0</ele><time>2026-03-29T08:11:55Z</time></trkpt><trkpt lat="45.683345906536196" lon="9.5873886589425"><ele>201.0</ele><time>2026-03-29T08:11:56Z</time></trkpt><trkpt lat="45.68345084308017" lon="9.58743601816391"><ele>201.0</ele><time>2026-03-29T08:11:58Z</time></trkpt><trkpt lat="45.68356491983844" lon="9.587446174895007"><ele>201.0</ele><time>2026-03-29T08:12:00Z</time></trkpt><trkpt lat="45.68367119657173" lon="9.587480855660457"><ele>201.0</ele><time>2026-03-29T08:12:02Z</time></trkpt><trkpt lat="45.683779053903" lon="9.587495848715166"><ele>201.20000000000002</ele><time>2026-03-29T08:12:04Z</time></trkpt><trkpt lat="45.683875313631255" lon="9.587537210479104"><ele>201.4</ele><time>2026-03-29T08:12:06Z</time></trkpt><trkpt lat="45.68396723033666" lon="9.587505258340368"><ele>201.6</ele><time>2026-03-29T08:12:08Z</time></trkpt><trkpt lat="45.68405140499043" lon="9.587524907556851"><ele>201.8</ele><time>2026-03-29T08:12:11Z</time></trkpt><trkpt lat="45.68416224211123" lon="9.587580842132171"><ele>202.0</ele><time>2026-03-29T08:12:13Z</time></trkpt><trkpt lat="45.684270991601124" lon="9.587601411272162"><ele>201.99999999999997</ele><time>2026-03-29T08:12:15Z</time></trkpt><trkpt lat="45.68433473607186" lon="9.587601419042"><ele>202.0</ele><time>2026-03-29T08:12:16Z</time></trkpt><trkpt lat="45.68440042951795" lon="9.587585337630642"><ele>202.0</ele><time>2026-03-29T08:12:19Z</time></trkpt><trkpt lat="45.68446712555927" lon="9.587604123468646"><ele>202.0</ele><time>2026-03-29T08:12:21Z</time></trkpt><trkpt lat="45.68455319199776" lon="9.587607329128241"><ele>201.99999999999997</ele><time>2026-03-29T08:12:23Z</time></trkpt><trkpt lat="45.68465271786579" lon="9.587610021769043"><ele>202.0</ele><time>2026-03-29T08:12:25Z</time></trkpt><trkpt lat="45.68474226187868" lon="9.5876065939535"><ele>201.2</ele><time>2026-03-29T08:12:27Z</time></trkpt><trkpt lat="45.6848531161168" lon="9.587619101013459"><ele>200.39999999999998</ele><time>2026-03-29T08:12:29Z</time></trkpt><trkpt lat="45.68494858449849" lon="9.58762407550696"><ele>199.60000000000002</ele><time>2026-03-29T08:12:31Z</time></trkpt><trkpt lat="45.6850685336491" lon="9.587614961744634"><ele>198.8</ele><time>2026-03-29T08:12:33Z</time></trkpt><trkpt lat="45.68514939813158" lon="9.587602870164257"><ele>198.0</ele><time>2026-03-29T08:12:35Z</time></trkpt><trkpt lat="45.68523545192063" lon="9.58762059215421"><ele>198.0</ele><time>2026-03-29T08:12:37Z</time></trkpt><trkpt lat="45.68537631800791" lon="9.587590556360155"><ele>198.0</ele><time>2026-03-29T08:12:39Z</time></trkpt><trkpt lat="45.68549270511304" lon="9.587570190349266"><ele>198.0</ele><time>2026-03-29T08:12:41Z</time></trkpt><trkpt lat="45.68557117390587" lon="9.587549664031577"><ele>198.0</ele><time>2026-03-29T08:12:43Z</time></trkpt><trkpt lat="45.685650997772456" lon="9.587562609226717"><ele>198.0</ele><time>2026-03-29T08:12:45Z</time></trkpt><trkpt lat="45.68575287896066" lon="9.587562282287298"><ele>198.0</ele><time>2026-03-29T08:12:48Z</time></trkpt><trkpt lat="45.6858277066589" lon="9.587540100651081"><ele>198.0</ele><time>2026-03-29T08:12:50Z</time></trkpt><trkpt lat="45.68590646117135" lon="9.587567075744667"><ele>198.0</ele><time>2026-03-29T08:12:52Z</time></trkpt><trkpt lat="45.68615150359327" lon="9.587515391991138"><ele>198.0</ele><time>2026-03-29T08:12:57Z</time></trkpt><trkpt lat="45.686281013037785" lon="9.587481590556704"><ele>198.0</ele><time>2026-03-29T08:12:59Z</time></trkpt><trkpt lat="45.6863528873001" lon="9.587462978304648"><ele>198.0</ele><time>2026-03-29T08:13:00Z</time></trkpt><trkpt lat="45.68645875296196" lon="9.587526849399701"><ele>198.0</ele><time>2026-03-29T08:13:02Z</time></trkpt><trkpt lat="45.68672938813104" lon="9.587466460295447"><ele>198.0</ele><time>2026-03-29T08:13:06Z</time></trkpt><trkpt lat="45.68679348336778" lon="9.587460973405287"><ele>198.0</ele><time>2026-03-29T08:13:07Z</time></trkpt><trkpt lat="45.68689934502081" lon="9.587455732611676"><ele>198.0</ele><time>2026-03-29T08:13:09Z</time></trkpt><trkpt lat="45.6871092999804" lon="9.587435021680236"><ele>198.0</ele><time>2026-03-29T08:13:16Z</time></trkpt><trkpt lat="45.68721098992135" lon="9.58740995774116"><ele>198.0</ele><time>2026-03-29T08:13:19Z</time></trkpt><trkpt lat="45.68730885612027" lon="9.587396043301128"><ele>198.0</ele><time>2026-03-29T08:13:23Z</time></trkpt><trkpt lat="45.68741531333275" lon="9.587343551724802"><ele>198.0</ele><time>2026-03-29T08:13:25Z</time></trkpt><trkpt lat="45.687618135020706" lon="9.587330971736082"><ele>198.0</ele><time>2026-03-29T08:13:30Z</time></trkpt><trkpt lat="45.68769881816257" lon="9.58728933368573"><ele>198.0</ele><time>2026-03-29T08:13:32Z</time></trkpt><trkpt lat="45.687788626288864" lon="9.587268401486815"><ele>198.0</ele><time>2026-03-29T08:13:34Z</time></trkpt><trkpt lat="45.68785354432876" lon="9.587299707201252"><ele>198.0</ele><time>2026-03-29T08:13:35Z</time></trkpt><trkpt lat="45.68794307686492" lon="9.587269761251445"><ele>198.0</ele><time>2026-03-29T08:13:37Z</time></trkpt><trkpt lat="45.688037805198036" lon="9.58726352237057"><ele>198.0</ele><time>2026-03-29T08:13:39Z</time></trkpt><trkpt lat="45.6881072079806" lon="9.587246970376695"><ele>198.0</ele><time>2026-03-29T08:13:42Z</time></trkpt><trkpt lat="45.68818737034986" lon="9.587212587529908"><ele>198.0</ele><time>2026-03-29T08:13:44Z</time></trkpt><trkpt lat="45.688259618232536" lon="9.587222441524844"><ele>198.0</ele><time>2026-03-29T08:13:46Z</time></trkpt><trkpt lat="45.68838020244012" lon="9.587235903597128"><ele>198.0</ele><time>2026-03-29T08:13:49Z</time></trkpt><trkpt lat="45.68845115098659" lon="9.587290165315169"><ele>198.0</ele><time>2026-03-29T08:13:51Z</time></trkpt><trkpt lat="45.6885752666513" lon="9.58733267346153"><ele>198.0</ele><time>2026-03-29T08:13:54Z</time></trkpt><trkpt lat="45.68868833829704" lon="9.587317596982148"><ele>198.16666666666666</ele><time>2026-03-29T08:13:56Z</time></trkpt><trkpt lat="45.68876459810599" lon="9.587251463548554"><ele>198.33333333333331</ele><time>2026-03-29T08:13:58Z</time></trkpt><trkpt lat="45.68880932553505" lon="9.587165840594706"><ele>198.5</ele><time>2026-03-29T08:14:00Z</time></trkpt><trkpt lat="45.68889204814284" lon="9.587065400252095"><ele>198.66666666666666</ele><time>2026-03-29T08:14:04Z</time></trkpt><trkpt lat="45.688890696134756" lon="9.586961363052927"><ele>198.83333333333331</ele><time>2026-03-29T08:14:07Z</time></trkpt><trkpt lat="45.688921027603165" lon="9.586845381475097"><ele>199.0</ele><time>2026-03-29T08:14:09Z</time></trkpt><trkpt lat="45.68894691142106" lon="9.586761046459564"><ele>199.7142857142857</ele><time>2026-03-29T08:14:11Z</time></trkpt><trkpt lat="45.68896466966536" lon="9.586670128732049"><ele>200.42857142857142</ele><time>2026-03-29T08:14:13Z</time></trkpt><trkpt lat="45.688972993314266" lon="9.586570609554663"><ele>201.14285714285714</ele><time>2026-03-29T08:14:15Z</time></trkpt><trkpt lat="45.68897340281657" lon="9.58647216146365"><ele>201.85714285714283</ele><time>2026-03-29T08:14:17Z</time></trkpt><trkpt lat="45.6890076625632" lon="9.586394820327548"><ele>202.57142857142858</ele><time>2026-03-29T08:14:19Z</time></trkpt><trkpt lat="45.689036816141055" lon="9.58629377900701"><ele>203.28571428571428</ele><time>2026-03-29T08:14:21Z</time></trkpt><trkpt lat="45.68906063243002" lon="9.586207499986076"><ele>204.0</ele><time>2026-03-29T08:14:23Z</time></trkpt><trkpt lat="45.68907824583065" lon="9.586120698583215"><ele>204.33333333333334</ele><time>2026-03-29T08:14:25Z</time></trkpt><trkpt lat="45.68910157330738" lon="9.586018752637914"><ele>204.66666666666669</ele><time>2026-03-29T08:14:27Z</time></trkpt><trkpt lat="45.68914280357608" lon="9.585916838288163"><ele>205.0</ele><time>2026-03-29T08:14:29Z</time></trkpt><trkpt lat="45.68916262765315" lon="9.585809896231554"><ele>205.33333333333334</ele><time>2026-03-29T08:14:31Z</time></trkpt><trkpt lat="45.68919961527535" lon="9.58569554374379"><ele>205.66666666666669</ele><time>2026-03-29T08:14:33Z</time></trkpt><trkpt lat="45.68923627247061" lon="9.585583493400081"><ele>206.0</ele><time>2026-03-29T08:14:35Z</time></trkpt><trkpt lat="45.68925545385264" lon="9.585465600276486"><ele>206.00000000000003</ele><time>2026-03-29T08:14:37Z</time></trkpt><trkpt lat="45.68925584153216" lon="9.585346689569056"><ele>206.0</ele><time>2026-03-29T08:14:39Z</time></trkpt><trkpt lat="45.68925017549551" lon="9.5852284886327"><ele>206.0</ele><time>2026-03-29T08:14:41Z</time></trkpt><trkpt lat="45.68927315339633" lon="9.58512123552664"><ele>206.0</ele><time>2026-03-29T08:14:43Z</time></trkpt><trkpt lat="45.6893343268974" lon="9.585077983145622"><ele>206.00000000000003</ele><time>2026-03-29T08:14:45Z</time></trkpt><trkpt lat="45.68946230499909" lon="9.585099722744584"><ele>206.0</ele><time>2026-03-29T08:14:48Z</time></trkpt><trkpt lat="45.68955948079934" lon="9.585130440173305"><ele>206.66666666666669</ele><time>2026-03-29T08:14:50Z</time></trkpt><trkpt lat="45.689627050773346" lon="9.585006889522639"><ele>207.33333333333334</ele><time>2026-03-29T08:14:52Z</time></trkpt><trkpt lat="45.689681404001064" lon="9.58493102267533"><ele>208.0</ele><time>2026-03-29T08:14:54Z</time></trkpt><trkpt lat="45.68976352324995" lon="9.584942673608795"><ele>208.66666666666669</ele><time>2026-03-29T08:14:56Z</time></trkpt><trkpt lat="45.689845822382495" lon="9.585027356333244"><ele>209.33333333333334</ele><time>2026-03-29T08:14:58Z</time></trkpt><trkpt lat="45.68992000430136" lon="9.585056313064422"><ele>210.0</ele><time>2026-03-29T08:15:00Z</time></trkpt><trkpt lat="45.690002926294746" lon="9.585122078286188"><ele>210.0</ele><time>2026-03-29T08:15:02Z</time></trkpt><trkpt lat="45.69007213133436" lon="9.585158163375626"><ele>210.0</ele><time>2026-03-29T08:15:04Z</time></trkpt><trkpt lat="45.69014436060485" lon="9.585219342011767"><ele>210.0</ele><time>2026-03-29T08:15:06Z</time></trkpt><trkpt lat="45.69021897358455" lon="9.585270454926125"><ele>210.0</ele><time>2026-03-29T08:15:08Z</time></trkpt><trkpt lat="45.690292146901974" lon="9.585304583818255"><ele>210.0</ele><time>2026-03-29T08:15:10Z</time></trkpt><trkpt lat="45.69037135248506" lon="9.585277397195924"><ele>210.0</ele><time>2026-03-29T08:15:12Z</time></trkpt><trkpt lat="45.69045065091933" lon="9.58525415707535"><ele>209.5</ele><time>2026-03-29T08:15:14Z</time></trkpt><trkpt lat="45.69061904591728" lon="9.58531106102456"><ele>209.0</ele><time>2026-03-29T08:15:18Z</time></trkpt><trkpt lat="45.69070311232387" lon="9.58535583785225"><ele>208.5</ele><time>2026-03-29T08:15:20Z</time></trkpt><trkpt lat="45.690790630265674" lon="9.585409793152444"><ele>208.0</ele><time>2026-03-29T08:15:22Z</time></trkpt><trkpt lat="45.69087546646144" lon="9.585462926148983"><ele>208.0</ele><time>2026-03-29T08:15:24Z</time></trkpt><trkpt lat="45.69096283804041" lon="9.58551135321261"><ele>208.0</ele><time>2026-03-29T08:15:26Z</time></trkpt><trkpt lat="45.6910485612743" lon="9.585561803787922"><ele>208.0</ele><time>2026-03-29T08:15:28Z</time></trkpt><trkpt lat="45.69113960054707" lon="9.585604186318726"><ele>208.0</ele><time>2026-03-29T08:15:30Z</time></trkpt><trkpt lat="45.69122211743241" lon="9.585647158558984"><ele>208.0</ele><time>2026-03-29T08:15:32Z</time></trkpt><trkpt lat="45.69130460816539" lon="9.585691879424104"><ele>209.0</ele><time>2026-03-29T08:15:34Z</time></trkpt><trkpt lat="45.69139473358035" lon="9.585749642830942"><ele>210.0</ele><time>2026-03-29T08:15:36Z</time></trkpt><trkpt lat="45.6914870543434" lon="9.58578871226969"><ele>211.0</ele><time>2026-03-29T08:15:38Z</time></trkpt><trkpt lat="45.69156786954143" lon="9.5858497363059"><ele>212.0</ele><time>2026-03-29T08:15:40Z</time></trkpt><trkpt lat="45.691655924719214" lon="9.58592279404553"><ele>213.0</ele><time>2026-03-29T08:15:42Z</time></trkpt><trkpt lat="45.691733951639456" lon="9.585976560256391"><ele>213.0</ele><time>2026-03-29T08:15:44Z</time></trkpt><trkpt lat="45.691810539412884" lon="9.586052283950492"><ele>213.0</ele><time>2026-03-29T08:15:46Z</time></trkpt><trkpt lat="45.691900060175705" lon="9.586091160688143"><ele>213.0</ele><time>2026-03-29T08:15:48Z</time></trkpt><trkpt lat="45.6920181656731" lon="9.586173959536954"><ele>213.0</ele><time>2026-03-29T08:15:51Z</time></trkpt><trkpt lat="45.6920528922309" lon="9.586259655380708"><ele>213.0</ele><time>2026-03-29T08:15:55Z</time></trkpt><trkpt lat="45.69210043724394" lon="9.586323616160536"><ele>213.8</ele><time>2026-03-29T08:15:57Z</time></trkpt><trkpt lat="45.69219423854899" lon="9.586342362586839"><ele>214.60000000000002</ele><time>2026-03-29T08:16:01Z</time></trkpt><trkpt lat="45.69227761033302" lon="9.586431657444203"><ele>215.39999999999998</ele><time>2026-03-29T08:16:04Z</time></trkpt><trkpt lat="45.69234224454081" lon="9.58650986748419"><ele>216.2</ele><time>2026-03-29T08:16:05Z</time></trkpt><trkpt lat="45.692419065072116" lon="9.586597900092029"><ele>217.0</ele><time>2026-03-29T08:16:07Z</time></trkpt><trkpt lat="45.692500922415206" lon="9.58663983217484"><ele>217.0</ele><time>2026-03-29T08:16:09Z</time></trkpt><trkpt lat="45.69258852226131" lon="9.58668019925361"><ele>217.0</ele><time>2026-03-29T08:16:11Z</time></trkpt><trkpt lat="45.69267188259905" lon="9.58673678414713"><ele>217.0</ele><time>2026-03-29T08:16:13Z</time></trkpt><trkpt lat="45.692774282876655" lon="9.586766967980436"><ele>217.0</ele><time>2026-03-29T08:16:15Z</time></trkpt><trkpt lat="45.69287819899701" lon="9.586803774258494"><ele>217.0</ele><time>2026-03-29T08:16:17Z</time></trkpt><trkpt lat="45.692971398009426" lon="9.586850404964608"><ele>217.6</ele><time>2026-03-29T08:16:19Z</time></trkpt><trkpt lat="45.69304562735483" lon="9.58689366015793"><ele>218.2</ele><time>2026-03-29T08:16:21Z</time></trkpt><trkpt lat="45.693188355763446" lon="9.586924809922433"><ele>218.8</ele><time>2026-03-29T08:16:24Z</time></trkpt><trkpt lat="45.693278269688584" lon="9.5869514521621"><ele>219.4</ele><time>2026-03-29T08:16:26Z</time></trkpt><trkpt lat="45.69335995206599" lon="9.58700725253572"><ele>220.0</ele><time>2026-03-29T08:16:28Z</time></trkpt><trkpt lat="45.693521930919" lon="9.587068780091993"><ele>218.8</ele><time>2026-03-29T08:20:51Z</time></trkpt><trkpt lat="45.69365399272279" lon="9.58711687209251"><ele>217.6</ele><time>2026-03-29T08:20:54Z</time></trkpt><trkpt lat="45.693738689077435" lon="9.587160539137585"><ele>216.39999999999998</ele><time>2026-03-29T08:20:56Z</time></trkpt><trkpt lat="45.693825207119474" lon="9.587175372425593"><ele>215.2</ele><time>2026-03-29T08:20:58Z</time></trkpt><trkpt lat="45.69391332710391" lon="9.5871957453131"><ele>214.0</ele><time>2026-03-29T08:21:00Z</time></trkpt><trkpt lat="45.693998909392754" lon="9.587222996629313"><ele>214.0</ele><time>2026-03-29T08:21:02Z</time></trkpt><trkpt lat="45.69408403953084" lon="9.587245250087758"><ele>213.99999999999997</ele><time>2026-03-29T08:21:04Z</time></trkpt><trkpt lat="45.694167493906996" lon="9.587305139231253"><ele>213.99999999999997</ele><time>2026-03-29T08:21:06Z</time></trkpt><trkpt lat="45.69425173315463" lon="9.587381304242466"><ele>214.0</ele><time>2026-03-29T08:21:08Z</time></trkpt><trkpt lat="45.69434582171326" lon="9.587432068349095"><ele>214.0</ele><time>2026-03-29T08:21:10Z</time></trkpt><trkpt lat="45.694432120743265" lon="9.587526921421201"><ele>214.39999999999998</ele><time>2026-03-29T08:21:12Z</time></trkpt><trkpt lat="45.69452187929793" lon="9.587588276549853"><ele>214.79999999999998</ele><time>2026-03-29T08:21:14Z</time></trkpt><trkpt lat="45.69460618647935" lon="9.587649860253833"><ele>215.20000000000002</ele><time>2026-03-29T08:21:16Z</time></trkpt><trkpt lat="45.694683817403046" lon="9.587733113695673"><ele>215.60000000000002</ele><time>2026-03-29T08:21:18Z</time></trkpt><trkpt lat="45.69475739870646" lon="9.587829252104186"><ele>216.0</ele><time>2026-03-29T08:21:20Z</time></trkpt><trkpt lat="45.694842409338534" lon="9.587883894598116"><ele>216.0</ele><time>2026-03-29T08:21:22Z</time></trkpt><trkpt lat="45.69492156231991" lon="9.587955232331883"><ele>216.00000000000003</ele><time>2026-03-29T08:21:24Z</time></trkpt><trkpt lat="45.695005386086365" lon="9.588017761278914"><ele>216.00000000000003</ele><time>2026-03-29T08:21:26Z</time></trkpt><trkpt lat="45.695084668855465" lon="9.588103880010095"><ele>216.0</ele><time>2026-03-29T08:21:28Z</time></trkpt><trkpt lat="45.695168140583675" lon="9.588180239233568"><ele>216.0</ele><time>2026-03-29T08:21:30Z</time></trkpt><trkpt lat="45.695266729913435" lon="9.588230316071904"><ele>217.5</ele><time>2026-03-29T08:21:32Z</time></trkpt><trkpt lat="45.6953763957617" lon="9.588212067540349"><ele>219.0</ele><time>2026-03-29T08:21:34Z</time></trkpt><trkpt lat="45.6955694607874" lon="9.588135654388823"><ele>220.5</ele><time>2026-03-29T08:21:41Z</time></trkpt><trkpt lat="45.69567893388143" lon="9.588094202922916"><ele>222.0</ele><time>2026-03-29T08:21:43Z</time></trkpt><trkpt lat="45.69577455453941" lon="9.588068337186511"><ele>222.0</ele><time>2026-03-29T08:21:45Z</time></trkpt><trkpt lat="45.695864309033674" lon="9.588030938052759"><ele>222.0</ele><time>2026-03-29T08:21:47Z</time></trkpt><trkpt lat="45.69593729359933" lon="9.588026901466574"><ele>222.0</ele><time>2026-03-29T08:21:49Z</time></trkpt><trkpt lat="45.69601160355172" lon="9.588002899216066"><ele>222.0</ele><time>2026-03-29T08:21:51Z</time></trkpt><trkpt lat="45.696090392681434" lon="9.587947212839486"><ele>222.0</ele><time>2026-03-29T08:21:53Z</time></trkpt><trkpt lat="45.696256040083405" lon="9.587920999539493"><ele>222.8</ele><time>2026-03-29T08:22:12Z</time></trkpt><trkpt lat="45.696449274259116" lon="9.587828604546788"><ele>223.6</ele><time>2026-03-29T08:22:52Z</time></trkpt><trkpt lat="45.69653681497418" lon="9.587813789938954"><ele>224.40000000000003</ele><time>2026-03-29T08:22:54Z</time></trkpt><trkpt lat="45.696605042735854" lon="9.587757545978764"><ele>225.20000000000002</ele><time>2026-03-29T08:22:55Z</time></trkpt><trkpt lat="45.696665905736204" lon="9.587729704950496"><ele>226.0</ele><time>2026-03-29T08:22:56Z</time></trkpt><trkpt lat="45.69676650041955" lon="9.587653465627131"><ele>226.0</ele><time>2026-03-29T08:22:58Z</time></trkpt><trkpt lat="45.696864907931094" lon="9.5876129923364"><ele>226.00000000000003</ele><time>2026-03-29T08:23:00Z</time></trkpt><trkpt lat="45.6969657135615" lon="9.587582645259705"><ele>226.00000000000003</ele><time>2026-03-29T08:23:02Z</time></trkpt><trkpt lat="45.69707824868054" lon="9.587598906716117"><ele>226.0</ele><time>2026-03-29T08:23:04Z</time></trkpt><trkpt lat="45.69716432354815" lon="9.587535016883917"><ele>226.0</ele><time>2026-03-29T08:23:06Z</time></trkpt><trkpt lat="45.69726961356767" lon="9.58749465655153"><ele>226.0</ele><time>2026-03-29T08:23:08Z</time></trkpt><trkpt lat="45.697367247825575" lon="9.587450373756791"><ele>226.00000000000003</ele><time>2026-03-29T08:23:10Z</time></trkpt><trkpt lat="45.69746816405609" lon="9.587408361577996"><ele>226.00000000000003</ele><time>2026-03-29T08:23:12Z</time></trkpt><trkpt lat="45.69757067124504" lon="9.587393311919294"><ele>226.0</ele><time>2026-03-29T08:23:14Z</time></trkpt><trkpt lat="45.697698763518616" lon="9.587356374222706"><ele>226.0</ele><time>2026-03-29T08:23:16Z</time></trkpt><trkpt lat="45.69778477476134" lon="9.587301070638825"><ele>225.99999999999997</ele><time>2026-03-29T08:23:20Z</time></trkpt><trkpt lat="45.697848002912785" lon="9.5872730927303"><ele>226.0</ele><time>2026-03-29T08:23:23Z</time></trkpt><trkpt lat="45.69791211670145" lon="9.587215195604607"><ele>226.0</ele><time>2026-03-29T08:23:27Z</time></trkpt><trkpt lat="45.69797879247858" lon="9.587113131025337"><ele>226.0</ele><time>2026-03-29T08:23:31Z</time></trkpt><trkpt lat="45.698070403216434" lon="9.587173986426329"><ele>225.99999999999997</ele><time>2026-03-29T08:23:34Z</time></trkpt><trkpt lat="45.69813763170847" lon="9.587193961192432"><ele>226.0</ele><time>2026-03-29T08:23:36Z</time></trkpt><trkpt lat="45.69819298579466" lon="9.587270995696423"><ele>226.0</ele><time>2026-03-29T08:23:37Z</time></trkpt><trkpt lat="45.69827329782907" lon="9.587194467396326"><ele>226.00000000000003</ele><time>2026-03-29T08:23:40Z</time></trkpt><trkpt lat="45.698404410284624" lon="9.587180366559199"><ele>226.00000000000003</ele><time>2026-03-29T08:23:44Z</time></trkpt><trkpt lat="45.69848943334925" lon="9.587102122596393"><ele>226.0</ele><time>2026-03-29T08:23:47Z</time></trkpt><trkpt lat="45.69859360029185" lon="9.58708859765888"><ele>226.0</ele><time>2026-03-29T08:23:50Z</time></trkpt><trkpt lat="45.69864713378722" lon="9.587010309880137"><ele>227.49999999999997</ele><time>2026-03-29T08:23:52Z</time></trkpt><trkpt lat="45.69873067344078" lon="9.58696283031672"><ele>229.0</ele><time>2026-03-29T08:23:54Z</time></trkpt><trkpt lat="45.69876237011141" lon="9.586882550571225"><ele>230.5</ele><time>2026-03-29T08:23:55Z</time></trkpt><trkpt lat="45.698802136850375" lon="9.586782419948511"><ele>232.0</ele><time>2026-03-29T08:23:56Z</time></trkpt><trkpt lat="45.69882510634068" lon="9.586679803201532"><ele>233.49999999999997</ele><time>2026-03-29T08:23:57Z</time></trkpt><trkpt lat="45.69891364588731" lon="9.586545099053216"><ele>235.0</ele><time>2026-03-29T08:23:59Z</time></trkpt><trkpt lat="45.699029276804914" lon="9.58649698763354"><ele>234.99999999999997</ele><time>2026-03-29T08:24:00Z</time></trkpt><trkpt lat="45.69905730327449" lon="9.58637310711939"><ele>235.0</ele><time>2026-03-29T08:24:01Z</time></trkpt><trkpt lat="45.699122864832134" lon="9.586298410916909"><ele>235.0</ele><time>2026-03-29T08:24:02Z</time></trkpt><trkpt lat="45.69914892977839" lon="9.586198191200996"><ele>235.0</ele><time>2026-03-29T08:24:03Z</time></trkpt><trkpt lat="45.699172231219286" lon="9.586110505727245"><ele>234.99999999999997</ele><time>2026-03-29T08:24:04Z</time></trkpt><trkpt lat="45.69919353622335" lon="9.585970052603255"><ele>235.0</ele><time>2026-03-29T08:24:06Z</time></trkpt><trkpt lat="45.699237306547786" lon="9.585823949926132"><ele>235.8</ele><time>2026-03-29T08:24:08.001Z</time></trkpt><trkpt lat="45.6992094932898" lon="9.58572682023741"><ele>236.6</ele><time>2026-03-29T08:24:10.001Z</time></trkpt><trkpt lat="45.69919878946105" lon="9.585563719140628"><ele>237.39999999999998</ele><time>2026-03-29T08:24:12.001Z</time></trkpt><trkpt lat="45.69919249471714" lon="9.58543246602454"><ele>238.2</ele><time>2026-03-29T08:24:14.001Z</time></trkpt><trkpt lat="45.69917528877405" lon="9.585302743618426"><ele>239.0</ele><time>2026-03-29T08:24:16.001Z</time></trkpt><trkpt lat="45.699131544254676" lon="9.585188760231926"><ele>239.00000000000003</ele><time>2026-03-29T08:24:18.001Z</time></trkpt><trkpt lat="45.69912900804551" lon="9.58505605788691"><ele>239.0</ele><time>2026-03-29T08:24:20Z</time></trkpt><trkpt lat="45.69910224404895" lon="9.584955520516349"><ele>239.0</ele><time>2026-03-29T08:24:22Z</time></trkpt><trkpt lat="45.69907182394506" lon="9.584825428481203"><ele>239.0</ele><time>2026-03-29T08:24:24Z</time></trkpt><trkpt lat="45.69904174868747" lon="9.584703429261436"><ele>239.00000000000003</ele><time>2026-03-29T08:24:26Z</time></trkpt><trkpt lat="45.69899874806525" lon="9.584592339542295"><ele>239.0</ele><time>2026-03-29T08:24:28Z</time></trkpt><trkpt lat="45.69895690486588" lon="9.584465950034533"><ele>238.79999999999998</ele><time>2026-03-29T08:24:30Z</time></trkpt><trkpt lat="45.69888958251278" lon="9.584366350904666"><ele>238.59999999999997</ele><time>2026-03-29T08:24:32Z</time></trkpt><trkpt lat="45.69882466739592" lon="9.58426464513374"><ele>238.4</ele><time>2026-03-29T08:24:34Z</time></trkpt><trkpt lat="45.698793809618486" lon="9.584106703508201"><ele>238.2</ele><time>2026-03-29T08:24:36Z</time></trkpt><trkpt lat="45.69877578672919" lon="9.583947892129586"><ele>238.0</ele><time>2026-03-29T08:24:38Z</time></trkpt><trkpt lat="45.698761564661346" lon="9.58378817768323"><ele>238.0</ele><time>2026-03-29T08:24:40Z</time></trkpt><trkpt lat="45.698740585909135" lon="9.583630442238887"><ele>238.0</ele><time>2026-03-29T08:24:42Z</time></trkpt><trkpt lat="45.69872836237345" lon="9.583487564631426"><ele>238.0</ele><time>2026-03-29T08:24:44Z</time></trkpt><trkpt lat="45.698709211186326" lon="9.583333875052473"><ele>238.0</ele><time>2026-03-29T08:24:46Z</time></trkpt><trkpt lat="45.69872491776976" lon="9.583171697037484"><ele>238.0</ele><time>2026-03-29T08:24:48Z</time></trkpt><trkpt lat="45.698711119297776" lon="9.583005708326603"><ele>238.0</ele><time>2026-03-29T08:24:50Z</time></trkpt><trkpt lat="45.69874474893764" lon="9.5828448581067"><ele>238.0</ele><time>2026-03-29T08:24:52Z</time></trkpt><trkpt lat="45.698755256397284" lon="9.582686719193838"><ele>238.0</ele><time>2026-03-29T08:24:54Z</time></trkpt><trkpt lat="45.698761733312104" lon="9.582526093187285"><ele>238.0</ele><time>2026-03-29T08:24:56Z</time></trkpt><trkpt lat="45.6987569422234" lon="9.58236809648024"><ele>237.99999999999997</ele><time>2026-03-29T08:24:58Z</time></trkpt><trkpt lat="45.698755908828296" lon="9.582214412470298"><ele>238.0</ele><time>2026-03-29T08:25:00Z</time></trkpt><trkpt lat="45.69874424531645" lon="9.582113608643226"><ele>238.0</ele><time>2026-03-29T08:25:02Z</time></trkpt><trkpt lat="45.69875730879673" lon="9.582022076514036"><ele>238.0</ele><time>2026-03-29T08:25:04Z</time></trkpt><trkpt lat="45.69878420459832" lon="9.581894638018065"><ele>237.99999999999997</ele><time>2026-03-29T08:25:07Z</time></trkpt><trkpt lat="45.69874892217363" lon="9.581775706136126"><ele>238.0</ele><time>2026-03-29T08:25:09Z</time></trkpt><trkpt lat="45.698733207368505" lon="9.581682342465655"><ele>238.0</ele><time>2026-03-29T08:25:11Z</time></trkpt><trkpt lat="45.69873354026768" lon="9.581576498400658"><ele>238.0</ele><time>2026-03-29T08:25:13Z</time></trkpt><trkpt lat="45.69875355046169" lon="9.580974861906727"><ele>238.2</ele><time>2026-03-29T08:25:16Z</time></trkpt><trkpt lat="45.6987684139806" lon="9.58087349569418"><ele>238.4</ele><time>2026-03-29T08:25:17Z</time></trkpt><trkpt lat="45.69874543571635" lon="9.581018123122737"><ele>238.59999999999997</ele><time>2026-03-29T08:25:19Z</time></trkpt><trkpt lat="45.698769396380726" lon="9.580814162699715"><ele>238.79999999999998</ele><time>2026-03-29T08:25:21Z</time></trkpt><trkpt lat="45.69878328756156" lon="9.580714320956348"><ele>239.0</ele><time>2026-03-29T08:25:22Z</time></trkpt><trkpt lat="45.6987810151004" lon="9.580403396764973"><ele>239.0</ele><time>2026-03-29T08:25:23.001Z</time></trkpt><trkpt lat="45.698812483838644" lon="9.580231297374723"><ele>238.99999999999997</ele><time>2026-03-29T08:25:25.001Z</time></trkpt><trkpt lat="45.698829074839395" lon="9.580070970499301"><ele>238.99999999999997</ele><time>2026-03-29T08:25:27.001Z</time></trkpt><trkpt lat="45.69883771707643" lon="9.579925397695094"><ele>239.0</ele><time>2026-03-29T08:25:29.001Z</time></trkpt><trkpt lat="45.698862198659945" lon="9.579781874690413"><ele>239.0</ele><time>2026-03-29T08:25:31.001Z</time></trkpt><trkpt lat="45.698869875090466" lon="9.579629778851357"><ele>239.00000000000003</ele><time>2026-03-29T08:25:33.001Z</time></trkpt><trkpt lat="45.69889641637652" lon="9.579492415174101"><ele>239.0</ele><time>2026-03-29T08:25:35.001Z</time></trkpt><trkpt lat="45.69889875408576" lon="9.579337502278856"><ele>239.0</ele><time>2026-03-29T08:25:37.001Z</time></trkpt><trkpt lat="45.698914544505975" lon="9.579237137512225"><ele>239.0</ele><time>2026-03-29T08:25:39.001Z</time></trkpt><trkpt lat="45.69893552352198" lon="9.579119430456402"><ele>239.00000000000003</ele><time>2026-03-29T08:25:41.001Z</time></trkpt><trkpt lat="45.6989411463567" lon="9.579027209416692"><ele>239.0</ele><time>2026-03-29T08:25:42.001Z</time></trkpt><trkpt lat="45.698956815605285" lon="9.578866367723577"><ele>239.0</ele><time>2026-03-29T08:25:44.001Z</time></trkpt><trkpt lat="45.69900133883613" lon="9.57873764976996"><ele>238.99999999999997</ele><time>2026-03-29T08:25:46.001Z</time></trkpt><trkpt lat="45.69906494896232" lon="9.578591610604173"><ele>238.99999999999997</ele><time>2026-03-29T08:25:48.001Z</time></trkpt><trkpt lat="45.69910896012159" lon="9.578449297508628"><ele>239.0</ele><time>2026-03-29T08:25:50.001Z</time></trkpt><trkpt lat="45.69916033539713" lon="9.578312321385704"><ele>239.0</ele><time>2026-03-29T08:25:52.001Z</time></trkpt><trkpt lat="45.69920188008636" lon="9.578162645353396"><ele>239.6</ele><time>2026-03-29T08:25:54.001Z</time></trkpt><trkpt lat="45.69923564127619" lon="9.578020920396957"><ele>240.2</ele><time>2026-03-29T08:25:56.001Z</time></trkpt><trkpt lat="45.69930330089446" lon="9.577888370388688"><ele>240.79999999999998</ele><time>2026-03-29T08:25:58.001Z</time></trkpt><trkpt lat="45.69937116829926" lon="9.577756505430907"><ele>241.39999999999998</ele><time>2026-03-29T08:26:00.001Z</time></trkpt><trkpt lat="45.69940939960032" lon="9.577601992586203"><ele>242.0</ele><time>2026-03-29T08:26:02.001Z</time></trkpt><trkpt lat="45.69944904354341" lon="9.57744860603062"><ele>242.0</ele><time>2026-03-29T08:26:04.001Z</time></trkpt><trkpt lat="45.69949471936573" lon="9.57729989879759"><ele>242.0</ele><time>2026-03-29T08:26:06.001Z</time></trkpt><trkpt lat="45.69954258412392" lon="9.577153065168813"><ele>242.0</ele><time>2026-03-29T08:26:08.001Z</time></trkpt><trkpt lat="45.69959610747782" lon="9.577016850035063"><ele>242.0</ele><time>2026-03-29T08:26:10.001Z</time></trkpt><trkpt lat="45.69967361722072" lon="9.576902487051981"><ele>242.0</ele><time>2026-03-29T08:26:12.001Z</time></trkpt><trkpt lat="45.699747955560696" lon="9.576807751118203"><ele>242.2</ele><time>2026-03-29T08:26:14.001Z</time></trkpt><trkpt lat="45.699838850349686" lon="9.576739082697175"><ele>242.39999999999998</ele><time>2026-03-29T08:26:16.001Z</time></trkpt><trkpt lat="45.69993113528994" lon="9.576648418896825"><ele>242.60000000000002</ele><time>2026-03-29T08:26:18.001Z</time></trkpt><trkpt lat="45.700017206723714" lon="9.576550081242347"><ele>242.8</ele><time>2026-03-29T08:26:20.001Z</time></trkpt><trkpt lat="45.70009068979215" lon="9.576432534097751"><ele>243.0</ele><time>2026-03-29T08:26:22.001Z</time></trkpt><trkpt lat="45.70017822872866" lon="9.576341803393886"><ele>243.16666666666666</ele><time>2026-03-29T08:26:24.001Z</time></trkpt><trkpt lat="45.70025381244006" lon="9.576216668970716"><ele>243.33333333333331</ele><time>2026-03-29T08:26:26.001Z</time></trkpt><trkpt lat="45.70031866679096" lon="9.576095095134761"><ele>243.5</ele><time>2026-03-29T08:26:28.001Z</time></trkpt><trkpt lat="45.70036501033136" lon="9.576019868651237"><ele>243.66666666666666</ele><time>2026-03-29T08:26:31.001Z</time></trkpt><trkpt lat="45.70042201278575" lon="9.575953901300833"><ele>243.83333333333331</ele><time>2026-03-29T08:26:34.001Z</time></trkpt><trkpt lat="45.70047132425958" lon="9.57589397110247"><ele>244.0</ele><time>2026-03-29T08:26:36.001Z</time></trkpt><trkpt lat="45.70052002857435" lon="9.575805095004531"><ele>244.0</ele><time>2026-03-29T08:26:37.001Z</time></trkpt><trkpt lat="45.70058144862999" lon="9.575696019557727"><ele>243.99999999999997</ele><time>2026-03-29T08:26:38.001Z</time></trkpt><trkpt lat="45.70063136138242" lon="9.575554737487996"><ele>243.99999999999997</ele><time>2026-03-29T08:26:39.001Z</time></trkpt><trkpt lat="45.70067802246528" lon="9.5754243685425"><ele>244.0</ele><time>2026-03-29T08:26:40.001Z</time></trkpt><trkpt lat="45.70072147889021" lon="9.575281991368419"><ele>244.0</ele><time>2026-03-29T08:26:41Z</time></trkpt><trkpt lat="45.70076649150255" lon="9.575092486620784"><ele>243.99999999999997</ele><time>2026-03-29T08:26:42Z</time></trkpt><trkpt lat="45.700810686964196" lon="9.574977878878435"><ele>244.0</ele><time>2026-03-29T08:26:43Z</time></trkpt><trkpt lat="45.700847790847455" lon="9.574880849069817"><ele>244.0</ele><time>2026-03-29T08:26:44Z</time></trkpt><trkpt lat="45.70090138208415" lon="9.57476625761312"><ele>244.0</ele><time>2026-03-29T08:26:45Z</time></trkpt><trkpt lat="45.70094967698036" lon="9.574671578969301"><ele>243.99999999999997</ele><time>2026-03-29T08:26:46Z</time></trkpt><trkpt lat="45.70100693110765" lon="9.574565026321839"><ele>244.0</ele><time>2026-03-29T08:26:47Z</time></trkpt><trkpt lat="45.701073637306784" lon="9.574466354005253"><ele>243.83333333333331</ele><time>2026-03-29T08:26:48Z</time></trkpt><trkpt lat="45.70112733529068" lon="9.574377158100505"><ele>243.66666666666666</ele><time>2026-03-29T08:26:49Z</time></trkpt><trkpt lat="45.70117472370405" lon="9.574302562106585"><ele>243.5</ele><time>2026-03-29T08:26:50Z</time></trkpt><trkpt lat="45.70123287532447" lon="9.574250053020311"><ele>243.33333333333331</ele><time>2026-03-29T08:26:51Z</time></trkpt><trkpt lat="45.701294013226665" lon="9.57420939122639"><ele>243.16666666666666</ele><time>2026-03-29T08:26:52Z</time></trkpt><trkpt lat="45.70135270240827" lon="9.574174190052883"><ele>243.0</ele><time>2026-03-29T08:26:53Z</time></trkpt><trkpt lat="45.70146918925541" lon="9.574116202528934"><ele>243.0</ele><time>2026-03-29T08:26:55Z</time></trkpt><trkpt lat="45.70153146555635" lon="9.574090549799994"><ele>243.0</ele><time>2026-03-29T08:26:56Z</time></trkpt><trkpt lat="45.70162858278657" lon="9.574045157372776"><ele>243.0</ele><time>2026-03-29T08:26:58Z</time></trkpt><trkpt lat="45.70174507873426" lon="9.574015229188028"><ele>243.0</ele><time>2026-03-29T08:27:00Z</time></trkpt><trkpt lat="45.70180066850314" lon="9.573963284082126"><ele>243.0</ele><time>2026-03-29T08:27:01Z</time></trkpt><trkpt lat="45.70185739208444" lon="9.573905280867596"><ele>243.0</ele><time>2026-03-29T08:27:02Z</time></trkpt><trkpt lat="45.701893582792756" lon="9.573829177552893"><ele>243.2</ele><time>2026-03-29T08:27:03Z</time></trkpt><trkpt lat="45.70192135574838" lon="9.573748228204089"><ele>243.4</ele><time>2026-03-29T08:27:04Z</time></trkpt><trkpt lat="45.70194614087159" lon="9.573663528985438"><ele>243.59999999999997</ele><time>2026-03-29T08:27:05Z</time></trkpt><trkpt lat="45.70200083540412" lon="9.573507668702465"><ele>243.79999999999998</ele><time>2026-03-29T08:27:07Z</time></trkpt><trkpt lat="45.70203933899154" lon="9.573346686641136"><ele>244.0</ele><time>2026-03-29T08:27:09Z</time></trkpt><trkpt lat="45.70208047006226" lon="9.573178339101403"><ele>244.0</ele><time>2026-03-29T08:27:11Z</time></trkpt><trkpt lat="45.70209365551579" lon="9.573072601322268"><ele>243.99999999999997</ele><time>2026-03-29T08:27:13Z</time></trkpt><trkpt lat="45.70214307367931" lon="9.572966547960622"><ele>243.99999999999997</ele><time>2026-03-29T08:27:14Z</time></trkpt><trkpt lat="45.702155435487775" lon="9.572848800385218"><ele>244.0</ele><time>2026-03-29T08:27:17Z</time></trkpt><trkpt lat="45.702167179249614" lon="9.572755264322659"><ele>244.0</ele><time>2026-03-29T08:27:19Z</time></trkpt><trkpt lat="45.70218109450417" lon="9.572534205055417"><ele>244.0</ele><time>2026-03-29T08:27:21Z</time></trkpt><trkpt lat="45.702205594881896" lon="9.57242026361624"><ele>243.99999999999997</ele><time>2026-03-29T08:27:22Z</time></trkpt><trkpt lat="45.70223253742651" lon="9.57226914685647"><ele>243.99999999999997</ele><time>2026-03-29T08:27:24.001Z</time></trkpt><trkpt lat="45.70224103872364" lon="9.572089198998695"><ele>244.0</ele><time>2026-03-29T08:27:26.001Z</time></trkpt><trkpt lat="45.702263949188264" lon="9.571916715805324"><ele>244.0</ele><time>2026-03-29T08:27:28.001Z</time></trkpt><trkpt lat="45.702283575012245" lon="9.571821372150406"><ele>243.66666666666666</ele><time>2026-03-29T08:27:29.001Z</time></trkpt><trkpt lat="45.702302096707776" lon="9.571733189476479"><ele>243.33333333333331</ele><time>2026-03-29T08:27:30.001Z</time></trkpt><trkpt lat="45.70232021011744" lon="9.571646659827158"><ele>243.0</ele><time>2026-03-29T08:27:31.001Z</time></trkpt><trkpt lat="45.70232902834991" lon="9.571484204447046"><ele>242.66666666666669</ele><time>2026-03-29T08:27:33.001Z</time></trkpt><trkpt lat="45.70235283700802" lon="9.571328896363326"><ele>242.33333333333334</ele><time>2026-03-29T08:27:35.001Z</time></trkpt><trkpt lat="45.702405140026585" lon="9.571261784909204"><ele>242.0</ele><time>2026-03-29T08:27:36.001Z</time></trkpt><trkpt lat="45.702466564095445" lon="9.571224123176247"><ele>242.2</ele><time>2026-03-29T08:27:37.001Z</time></trkpt><trkpt lat="45.702505719238715" lon="9.571073531611006"><ele>242.39999999999998</ele><time>2026-03-29T08:27:39.001Z</time></trkpt><trkpt lat="45.70249695055238" lon="9.570973440703614"><ele>242.60000000000002</ele><time>2026-03-29T08:27:40.001Z</time></trkpt><trkpt lat="45.702430487742355" lon="9.570826379749258"><ele>242.8</ele><time>2026-03-29T08:27:42.001Z</time></trkpt><trkpt lat="45.7023675163718" lon="9.57077034943669"><ele>243.0</ele><time>2026-03-29T08:27:43.001Z</time></trkpt><trkpt lat="45.70233474784713" lon="9.570613808306321"><ele>243.0</ele><time>2026-03-29T08:27:45.001Z</time></trkpt><trkpt lat="45.70235755336078" lon="9.57052284434873"><ele>243.0</ele><time>2026-03-29T08:27:46.001Z</time></trkpt><trkpt lat="45.70237792216116" lon="9.570429739808807"><ele>243.0</ele><time>2026-03-29T08:27:47.001Z</time></trkpt><trkpt lat="45.702383954746466" lon="9.57025060937558"><ele>243.0</ele><time>2026-03-29T08:27:49.001Z</time></trkpt><trkpt lat="45.7023893285254" lon="9.570078685183814"><ele>243.0</ele><time>2026-03-29T08:27:51.001Z</time></trkpt><trkpt lat="45.702407611332305" lon="9.569909281995045"><ele>243.0</ele><time>2026-03-29T08:27:53.001Z</time></trkpt><trkpt lat="45.702407006498376" lon="9.569742621172741"><ele>243.0</ele><time>2026-03-29T08:27:55.001Z</time></trkpt><trkpt lat="45.70239495066647" lon="9.569587698808778"><ele>243.0</ele><time>2026-03-29T08:27:57.001Z</time></trkpt><trkpt lat="45.7023956917601" lon="9.569437022385756"><ele>243.0</ele><time>2026-03-29T08:27:59.001Z</time></trkpt><trkpt lat="45.702409505321086" lon="9.569344421393389"><ele>243.0</ele><time>2026-03-29T08:28:00.001Z</time></trkpt><trkpt lat="45.70240256787367" lon="9.569181259898802"><ele>242.83333333333334</ele><time>2026-03-29T08:28:02.001Z</time></trkpt><trkpt lat="45.7023958926173" lon="9.569046540840594"><ele>242.66666666666669</ele><time>2026-03-29T08:28:05.001Z</time></trkpt><trkpt lat="45.70239532254121" lon="9.56894886734766"><ele>242.5</ele><time>2026-03-29T08:28:07.001Z</time></trkpt><trkpt lat="45.70239420920751" lon="9.568853432274961"><ele>242.33333333333334</ele><time>2026-03-29T08:28:09.001Z</time></trkpt><trkpt lat="45.70242507994466" lon="9.568768366975752"><ele>242.16666666666669</ele><time>2026-03-29T08:28:11.001Z</time></trkpt><trkpt lat="45.70240652662329" lon="9.568591896327664"><ele>242.0</ele><time>2026-03-29T08:28:13.001Z</time></trkpt><trkpt lat="45.70239058458023" lon="9.568492683770481"><ele>242.00000000000003</ele><time>2026-03-29T08:28:14.001Z</time></trkpt><trkpt lat="45.70237714374626" lon="9.568387466873128"><ele>242.0</ele><time>2026-03-29T08:28:15.001Z</time></trkpt><trkpt lat="45.70236831086813" lon="9.568290779059323"><ele>242.0</ele><time>2026-03-29T08:28:16.001Z</time></trkpt><trkpt lat="45.70237501955261" lon="9.56819348232019"><ele>242.0</ele><time>2026-03-29T08:28:17.001Z</time></trkpt><trkpt lat="45.70235943632434" lon="9.568100534451233"><ele>242.00000000000003</ele><time>2026-03-29T08:28:18.001Z</time></trkpt><trkpt lat="45.70234253525504" lon="9.567958044180926"><ele>242.0</ele><time>2026-03-29T08:28:20.001Z</time></trkpt><trkpt lat="45.70231873500181" lon="9.567786239799752"><ele>242.0</ele><time>2026-03-29T08:28:22.001Z</time></trkpt><trkpt lat="45.702277391689684" lon="9.567591065956341"><ele>242.0</ele><time>2026-03-29T08:28:24.001Z</time></trkpt><trkpt lat="45.702254349875346" lon="9.56748136401474"><ele>242.0</ele><time>2026-03-29T08:28:25.001Z</time></trkpt><trkpt lat="45.702198553250675" lon="9.56732690455249"><ele>242.0</ele><time>2026-03-29T08:28:27.001Z</time></trkpt><trkpt lat="45.702143732321076" lon="9.567168072913013"><ele>242.0</ele><time>2026-03-29T08:28:29.001Z</time></trkpt><trkpt lat="45.70211968745929" lon="9.567079837998259"><ele>242.0</ele><time>2026-03-29T08:28:30.001Z</time></trkpt><trkpt lat="45.702082736575186" lon="9.566941401985888"><ele>242.0</ele><time>2026-03-29T08:28:32.001Z</time></trkpt><trkpt lat="45.702064497462686" lon="9.566796498561631"><ele>242.0</ele><time>2026-03-29T08:28:34.001Z</time></trkpt><trkpt lat="45.702028939170575" lon="9.566669271266216"><ele>242.0</ele><time>2026-03-29T08:28:36.001Z</time></trkpt><trkpt lat="45.701908300420996" lon="9.566625384583661"><ele>242.39999999999998</ele><time>2026-03-29T08:28:38.001Z</time></trkpt><trkpt lat="45.701831788280515" lon="9.566659417644352"><ele>242.79999999999998</ele><time>2026-03-29T08:28:39.001Z</time></trkpt><trkpt lat="45.70175567621256" lon="9.566655965243195"><ele>243.2</ele><time>2026-03-29T08:28:40.001Z</time></trkpt><trkpt lat="45.70163454726079" lon="9.566658201468151"><ele>243.6</ele><time>2026-03-29T08:28:42.001Z</time></trkpt><trkpt lat="45.701524129426645" lon="9.566690027267189"><ele>244.0</ele><time>2026-03-29T08:28:44.001Z</time></trkpt><trkpt lat="45.70141015813963" lon="9.566686491698665"><ele>244.0</ele><time>2026-03-29T08:28:46Z</time></trkpt><trkpt lat="45.70131202217323" lon="9.566698755216375"><ele>243.99999999999997</ele><time>2026-03-29T08:28:48Z</time></trkpt><trkpt lat="45.701205562459606" lon="9.566685898781513"><ele>243.99999999999997</ele><time>2026-03-29T08:28:50Z</time></trkpt><trkpt lat="45.70111546355467" lon="9.566688051959362"><ele>244.0</ele><time>2026-03-29T08:28:52Z</time></trkpt><trkpt lat="45.70101041643399" lon="9.566693867770873"><ele>244.0</ele><time>2026-03-29T08:28:54Z</time></trkpt><trkpt lat="45.700905532433964" lon="9.566698407773996"><ele>243.79999999999998</ele><time>2026-03-29T08:28:56Z</time></trkpt><trkpt lat="45.70080562373712" lon="9.566731084234716"><ele>243.59999999999997</ele><time>2026-03-29T08:28:58Z</time></trkpt><trkpt lat="45.70070172827375" lon="9.566797236472274"><ele>243.4</ele><time>2026-03-29T08:29:00Z</time></trkpt><trkpt lat="45.700611792675346" lon="9.56689187197201"><ele>243.2</ele><time>2026-03-29T08:29:02Z</time></trkpt><trkpt lat="45.70051866324851" lon="9.566995565673189"><ele>243.0</ele><time>2026-03-29T08:29:04Z</time></trkpt><trkpt lat="45.70042192775634" lon="9.567080638015764"><ele>242.8</ele><time>2026-03-29T08:29:06Z</time></trkpt><trkpt lat="45.70037983227998" lon="9.567152615848675"><ele>242.60000000000002</ele><time>2026-03-29T08:29:07Z</time></trkpt><trkpt lat="45.70029331268023" lon="9.567208924589984"><ele>242.39999999999998</ele><time>2026-03-29T08:29:09Z</time></trkpt><trkpt lat="45.70016760667986" lon="9.567194842243493"><ele>242.2</ele><time>2026-03-29T08:29:11Z</time></trkpt><trkpt lat="45.70006473054048" lon="9.567203661549485"><ele>242.0</ele><time>2026-03-29T08:29:13Z</time></trkpt><trkpt lat="45.69999890355167" lon="9.56721343798089"><ele>241.75</ele><time>2026-03-29T08:29:14Z</time></trkpt><trkpt lat="45.69988486556145" lon="9.567227642725504"><ele>241.5</ele><time>2026-03-29T08:29:16Z</time></trkpt><trkpt lat="45.69977274094305" lon="9.567224882790901"><ele>241.25</ele><time>2026-03-29T08:29:18Z</time></trkpt><trkpt lat="45.69966338846931" lon="9.567226878182183"><ele>241.0</ele><time>2026-03-29T08:29:20Z</time></trkpt><trkpt lat="45.69954646842286" lon="9.567224400280269"><ele>241.0</ele><time>2026-03-29T08:29:22Z</time></trkpt><trkpt lat="45.699434864823694" lon="9.567234173012876"><ele>241.00000000000003</ele><time>2026-03-29T08:29:24Z</time></trkpt><trkpt lat="45.69932966873575" lon="9.567222074847495"><ele>241.00000000000003</ele><time>2026-03-29T08:29:26Z</time></trkpt><trkpt lat="45.69926076087808" lon="9.567211560987213"><ele>241.0</ele><time>2026-03-29T08:29:29Z</time></trkpt><trkpt lat="45.69917314438578" lon="9.567186350460569"><ele>241.0</ele><time>2026-03-29T08:29:32Z</time></trkpt><trkpt lat="45.69909686713583" lon="9.567151163973273"><ele>240.99999999999997</ele><time>2026-03-29T08:29:34Z</time></trkpt><trkpt lat="45.69902096719076" lon="9.567118498201904"><ele>241.0</ele><time>2026-03-29T08:29:35Z</time></trkpt><trkpt lat="45.69891742625741" lon="9.567068247885398"><ele>241.0</ele><time>2026-03-29T08:29:36Z</time></trkpt><trkpt lat="45.698839027882855" lon="9.567046184394881"><ele>241.0</ele><time>2026-03-29T08:29:37Z</time></trkpt><trkpt lat="45.69877683421509" lon="9.567026444502426"><ele>240.99999999999997</ele><time>2026-03-29T08:29:38Z</time></trkpt><trkpt lat="45.69871273154392" lon="9.567013045892116"><ele>241.0</ele><time>2026-03-29T08:29:39Z</time></trkpt><trkpt lat="45.698642089196255" lon="9.566990352186146"><ele>241.0</ele><time>2026-03-29T08:29:40Z</time></trkpt><trkpt lat="45.69857834468654" lon="9.56697940330566"><ele>241.00000000000003</ele><time>2026-03-29T08:29:41Z</time></trkpt><trkpt lat="45.69845889036185" lon="9.566993417543312"><ele>241.00000000000003</ele><time>2026-03-29T08:29:43Z</time></trkpt><trkpt lat="45.69834995021853" lon="9.566956290705965"><ele>241.0</ele><time>2026-03-29T08:29:45Z</time></trkpt><trkpt lat="45.698284061204" lon="9.566942062859956"><ele>241.0</ele><time>2026-03-29T08:29:46.001Z</time></trkpt><trkpt lat="45.698168785562814" lon="9.56692916353359"><ele>241.0</ele><time>2026-03-29T08:29:48.001Z</time></trkpt><trkpt lat="45.6980652811358" lon="9.566920576620612"><ele>241.00000000000003</ele><time>2026-03-29T08:29:50.001Z</time></trkpt><trkpt lat="45.69797145123529" lon="9.56693174555443"><ele>241.00000000000003</ele><time>2026-03-29T08:29:52.001Z</time></trkpt><trkpt lat="45.69788722705115" lon="9.566861457269704"><ele>241.0</ele><time>2026-03-29T08:29:54.001Z</time></trkpt><trkpt lat="45.6978317326797" lon="9.566751842746314"><ele>241.0</ele><time>2026-03-29T08:29:55.001Z</time></trkpt><trkpt lat="45.697803741361824" lon="9.566601991609147"><ele>241.0</ele><time>2026-03-29T08:29:57.001Z</time></trkpt><trkpt lat="45.69775717484096" lon="9.566466342423393"><ele>241.00000000000003</ele><time>2026-03-29T08:29:59.001Z</time></trkpt><trkpt lat="45.6977105944485" lon="9.566334188227144"><ele>241.00000000000003</ele><time>2026-03-29T08:30:01.001Z</time></trkpt><trkpt lat="45.69767289740142" lon="9.56618052190592"><ele>241.0</ele><time>2026-03-29T08:30:03.001Z</time></trkpt><trkpt lat="45.697621302366144" lon="9.566040250144287"><ele>241.0</ele><time>2026-03-29T08:30:05.001Z</time></trkpt><trkpt lat="45.69757798687208" lon="9.565895627066485"><ele>240.8</ele><time>2026-03-29T08:30:07.001Z</time></trkpt><trkpt lat="45.6975258075003" lon="9.565759260587892"><ele>240.60000000000002</ele><time>2026-03-29T08:30:09.001Z</time></trkpt><trkpt lat="45.69749444629418" lon="9.565619999132279"><ele>240.4</ele><time>2026-03-29T08:30:11.001Z</time></trkpt><trkpt lat="45.697438853604865" lon="9.56548790309856"><ele>240.2</ele><time>2026-03-29T08:30:13.001Z</time></trkpt><trkpt lat="45.69738096430871" lon="9.565352446038005"><ele>240.0</ele><time>2026-03-29T08:30:15.001Z</time></trkpt><trkpt lat="45.69734282311038" lon="9.565218767656473"><ele>239.8</ele><time>2026-03-29T08:30:17.001Z</time></trkpt><trkpt lat="45.697301072296675" lon="9.56511416691437"><ele>239.6</ele><time>2026-03-29T08:30:20.001Z</time></trkpt><trkpt lat="45.69727373221655" lon="9.565008468511444"><ele>239.39999999999998</ele><time>2026-03-29T08:30:23.001Z</time></trkpt><trkpt lat="45.697242759166286" lon="9.564914192611022"><ele>239.2</ele><time>2026-03-29T08:30:24.001Z</time></trkpt><trkpt lat="45.697211106939186" lon="9.564773191905301"><ele>239.0</ele><time>2026-03-29T08:30:26.001Z</time></trkpt><trkpt lat="45.69719942651544" lon="9.564544975912247"><ele>239.33333333333334</ele><time>2026-03-29T08:30:28.001Z</time></trkpt><trkpt lat="45.69714589300284" lon="9.564176144773189"><ele>239.66666666666669</ele><time>2026-03-29T08:30:31.001Z</time></trkpt><trkpt lat="45.69714655250362" lon="9.564016697850944"><ele>240.0</ele><time>2026-03-29T08:30:33.001Z</time></trkpt><trkpt lat="45.69714186147314" lon="9.563870968285077"><ele>240.0</ele><time>2026-03-29T08:30:35.001Z</time></trkpt><trkpt lat="45.69714390289602" lon="9.563725613307716"><ele>240.0</ele><time>2026-03-29T08:30:37.001Z</time></trkpt><trkpt lat="45.697152860442216" lon="9.563576585856568"><ele>240.0</ele><time>2026-03-29T08:30:39.001Z</time></trkpt><trkpt lat="45.697147521325036" lon="9.563437829111823"><ele>240.0</ele><time>2026-03-29T08:30:41.001Z</time></trkpt><trkpt lat="45.697147009539925" lon="9.56328688335184"><ele>240.0</ele><time>2026-03-29T08:30:43.001Z</time></trkpt><trkpt lat="45.69715073453534" lon="9.563150090784939"><ele>239.8</ele><time>2026-03-29T08:30:45Z</time></trkpt><trkpt lat="45.69714025787236" lon="9.563013130356643"><ele>239.6</ele><time>2026-03-29T08:30:47Z</time></trkpt><trkpt lat="45.6971547863895" lon="9.562833057184813"><ele>239.39999999999998</ele><time>2026-03-29T08:30:50Z</time></trkpt><trkpt lat="45.69713183102163" lon="9.562700982466518"><ele>239.2</ele><time>2026-03-29T08:30:52Z</time></trkpt><trkpt lat="45.69712141001916" lon="9.562522868125182"><ele>239.0</ele><time>2026-03-29T08:30:56Z</time></trkpt><trkpt lat="45.69715356146966" lon="9.562405178362356"><ele>239.5</ele><time>2026-03-29T08:30:59Z</time></trkpt><trkpt lat="45.697135895084855" lon="9.562313197509638"><ele>240.0</ele><time>2026-03-29T08:31:01Z</time></trkpt><trkpt lat="45.69712189086032" lon="9.562160095568546"><ele>240.5</ele><time>2026-03-29T08:31:03Z</time></trkpt><trkpt lat="45.69724718300459" lon="9.561996913888315"><ele>241.0</ele><time>2026-03-29T08:31:05Z</time></trkpt><trkpt lat="45.697131204253104" lon="9.56192424524563"><ele>241.20000000000002</ele><time>2026-03-29T08:31:07Z</time></trkpt><trkpt lat="45.69712330348885" lon="9.561829957167484"><ele>241.40000000000003</ele><time>2026-03-29T08:31:08Z</time></trkpt><trkpt lat="45.69711072061329" lon="9.56170227419552"><ele>241.6</ele><time>2026-03-29T08:31:09Z</time></trkpt><trkpt lat="45.69708796465574" lon="9.56155726518639"><ele>241.8</ele><time>2026-03-29T08:31:11Z</time></trkpt><trkpt lat="45.69707018514354" lon="9.561399760134789"><ele>242.0</ele><time>2026-03-29T08:31:13Z</time></trkpt><trkpt lat="45.69703167432083" lon="9.561241443287958"><ele>241.8</ele><time>2026-03-29T08:31:15Z</time></trkpt><trkpt lat="45.69700557574695" lon="9.56108748125365"><ele>241.6</ele><time>2026-03-29T08:31:17Z</time></trkpt><trkpt lat="45.69699329286337" lon="9.560940863404335"><ele>241.40000000000003</ele><time>2026-03-29T08:31:19Z</time></trkpt><trkpt lat="45.696981436514676" lon="9.560792901749858"><ele>241.20000000000002</ele><time>2026-03-29T08:31:21Z</time></trkpt><trkpt lat="45.69696538240794" lon="9.560643982837176"><ele>241.0</ele><time>2026-03-29T08:31:23Z</time></trkpt><trkpt lat="45.69693473257954" lon="9.560490150801146"><ele>241.0</ele><time>2026-03-29T08:31:25Z</time></trkpt><trkpt lat="45.69692611564212" lon="9.560339746520834"><ele>241.00000000000003</ele><time>2026-03-29T08:31:27Z</time></trkpt><trkpt lat="45.696906855971626" lon="9.560190795268511"><ele>241.00000000000003</ele><time>2026-03-29T08:31:29Z</time></trkpt><trkpt lat="45.696892066360945" lon="9.56004864497415"><ele>241.0</ele><time>2026-03-29T08:31:31Z</time></trkpt><trkpt lat="45.69686929779704" lon="9.559902481729578"><ele>241.0</ele><time>2026-03-29T08:31:33Z</time></trkpt><trkpt lat="45.696851183174125" lon="9.559752758418952"><ele>241.20000000000002</ele><time>2026-03-29T08:31:35Z</time></trkpt><trkpt lat="45.69683506094587" lon="9.559611951775983"><ele>241.40000000000003</ele><time>2026-03-29T08:31:37Z</time></trkpt><trkpt lat="45.696812485472805" lon="9.55947229043518"><ele>241.6</ele><time>2026-03-29T08:31:39Z</time></trkpt><trkpt lat="45.696798832658196" lon="9.55933290898864"><ele>241.8</ele><time>2026-03-29T08:31:41Z</time></trkpt><trkpt lat="45.696771358938584" lon="9.559206609231193"><ele>242.0</ele><time>2026-03-29T08:31:43Z</time></trkpt><trkpt lat="45.69672509281133" lon="9.559086795092472"><ele>242.0</ele><time>2026-03-29T08:31:45Z</time></trkpt><trkpt lat="45.69666480014315" lon="9.558986862290586"><ele>242.0</ele><time>2026-03-29T08:31:47Z</time></trkpt><trkpt lat="45.69659996213398" lon="9.558891834103331"><ele>242.0</ele><time>2026-03-29T08:31:49Z</time></trkpt><trkpt lat="45.696517147679224" lon="9.558820421599059"><ele>242.0</ele><time>2026-03-29T08:31:51Z</time></trkpt><trkpt lat="45.696450871114074" lon="9.558734154948908"><ele>242.0</ele><time>2026-03-29T08:31:53Z</time></trkpt><trkpt lat="45.69638389848784" lon="9.558643327453641"><ele>241.8</ele><time>2026-03-29T08:31:55Z</time></trkpt><trkpt lat="45.6963058809139" lon="9.558545635680188"><ele>241.6</ele><time>2026-03-29T08:31:57Z</time></trkpt><trkpt lat="45.69623852211612" lon="9.558446844149975"><ele>241.40000000000003</ele><time>2026-03-29T08:31:59Z</time></trkpt><trkpt lat="45.696175662552115" lon="9.558347734317707"><ele>241.20000000000002</ele><time>2026-03-29T08:32:01Z</time></trkpt><trkpt lat="45.69610235684864" lon="9.558274755412906"><ele>241.0</ele><time>2026-03-29T08:32:03Z</time></trkpt><trkpt lat="45.696027849256794" lon="9.558185998458185"><ele>240.8</ele><time>2026-03-29T08:32:05Z</time></trkpt><trkpt lat="45.69596221244505" lon="9.558094325459287"><ele>240.60000000000002</ele><time>2026-03-29T08:32:07Z</time></trkpt><trkpt lat="45.69589627028536" lon="9.557988422665693"><ele>240.4</ele><time>2026-03-29T08:32:09Z</time></trkpt><trkpt lat="45.69581548647204" lon="9.557895349725928"><ele>240.2</ele><time>2026-03-29T08:32:11Z</time></trkpt><trkpt lat="45.69574330122256" lon="9.557804035813502"><ele>240.0</ele><time>2026-03-29T08:32:13Z</time></trkpt><trkpt lat="45.69565575635758" lon="9.557726091710585"><ele>240.0</ele><time>2026-03-29T08:32:15Z</time></trkpt><trkpt lat="45.695564469805454" lon="9.55763384878876"><ele>240.0</ele><time>2026-03-29T08:32:17Z</time></trkpt><trkpt lat="45.69548027534382" lon="9.557545296804594"><ele>240.0</ele><time>2026-03-29T08:32:19Z</time></trkpt><trkpt lat="45.69540063046246" lon="9.557443817680332"><ele>240.0</ele><time>2026-03-29T08:32:21Z</time></trkpt><trkpt lat="45.6953173729783" lon="9.557349882814199"><ele>240.0</ele><time>2026-03-29T08:32:23Z</time></trkpt><trkpt lat="45.69523811852995" lon="9.557269969778039"><ele>239.8</ele><time>2026-03-29T08:32:25Z</time></trkpt><trkpt lat="45.69516485176491" lon="9.557177196853523"><ele>239.6</ele><time>2026-03-29T08:32:27Z</time></trkpt><trkpt lat="45.69510665679179" lon="9.557052119823846"><ele>239.39999999999998</ele><time>2026-03-29T08:32:29Z</time></trkpt><trkpt lat="45.69507948150103" lon="9.55691451774294"><ele>239.2</ele><time>2026-03-29T08:32:31Z</time></trkpt><trkpt lat="45.69507637106518" lon="9.556768149724213"><ele>239.0</ele><time>2026-03-29T08:32:33Z</time></trkpt><trkpt lat="45.69506379779427" lon="9.556624788006195"><ele>239.0</ele><time>2026-03-29T08:32:35Z</time></trkpt><trkpt lat="45.695047042243914" lon="9.556478137102966"><ele>238.99999999999997</ele><time>2026-03-29T08:32:37Z</time></trkpt><trkpt lat="45.69503106138474" lon="9.556334337160846"><ele>238.99999999999997</ele><time>2026-03-29T08:32:39Z</time></trkpt><trkpt lat="45.69500830867371" lon="9.556187035890732"><ele>239.0</ele><time>2026-03-29T08:32:41Z</time></trkpt><trkpt lat="45.694995607279196" lon="9.556025395724431"><ele>239.0</ele><time>2026-03-29T08:32:43Z</time></trkpt><trkpt lat="45.69498036840414" lon="9.555878807192423"><ele>239.0</ele><time>2026-03-29T08:32:45Z</time></trkpt><trkpt lat="45.69496649237846" lon="9.555722606767226"><ele>238.99999999999997</ele><time>2026-03-29T08:32:47Z</time></trkpt><trkpt lat="45.69495624459736" lon="9.555584373655435"><ele>238.99999999999997</ele><time>2026-03-29T08:32:49Z</time></trkpt><trkpt lat="45.6949376862432" lon="9.55543451250556"><ele>239.0</ele><time>2026-03-29T08:32:51Z</time></trkpt><trkpt lat="45.69492920766127" lon="9.555289822157214"><ele>239.0</ele><time>2026-03-29T08:32:53Z</time></trkpt><trkpt lat="45.694895666383424" lon="9.55515388737727"><ele>239.39999999999998</ele><time>2026-03-29T08:32:55Z</time></trkpt><trkpt lat="45.69488279386966" lon="9.555022324643742"><ele>239.79999999999998</ele><time>2026-03-29T08:32:57Z</time></trkpt><trkpt lat="45.69485981476006" lon="9.554876842591316"><ele>240.20000000000002</ele><time>2026-03-29T08:32:59Z</time></trkpt><trkpt lat="45.69483934971075" lon="9.554737118584118"><ele>240.60000000000002</ele><time>2026-03-29T08:33:01Z</time></trkpt><trkpt lat="45.69482162388051" lon="9.554600324053657"><ele>241.0</ele><time>2026-03-29T08:33:03Z</time></trkpt><trkpt lat="45.694809142414854" lon="9.554482916362037"><ele>241.33333333333331</ele><time>2026-03-29T08:33:05Z</time></trkpt><trkpt lat="45.694806935433576" lon="9.554370152360605"><ele>241.66666666666666</ele><time>2026-03-29T08:33:07Z</time></trkpt><trkpt lat="45.6948514454015" lon="9.554304281449596"><ele>242.0</ele><time>2026-03-29T08:33:21Z</time></trkpt><trkpt lat="45.694921868316314" lon="9.554250623380424"><ele>242.33333333333331</ele><time>2026-03-29T08:33:24Z</time></trkpt><trkpt lat="45.694985331654046" lon="9.554211094312606"><ele>242.66666666666666</ele><time>2026-03-29T08:33:26Z</time></trkpt><trkpt lat="45.6950685318144" lon="9.554189162229758"><ele>243.0</ele><time>2026-03-29T08:33:28Z</time></trkpt><trkpt lat="45.69514980409374" lon="9.554167882118215"><ele>243.0</ele><time>2026-03-29T08:33:30Z</time></trkpt><trkpt lat="45.695233944397486" lon="9.55413533085656"><ele>243.0</ele><time>2026-03-29T08:33:32Z</time></trkpt><trkpt lat="45.695326170797884" lon="9.554099635175657"><ele>243.0</ele><time>2026-03-29T08:33:34Z</time></trkpt><trkpt lat="45.69543152232827" lon="9.554047931056381"><ele>243.0</ele><time>2026-03-29T08:33:36Z</time></trkpt><trkpt lat="45.69550763646571" lon="9.553999877837828"><ele>243.0</ele><time>2026-03-29T08:33:38Z</time></trkpt><trkpt lat="45.69560008777232" lon="9.553976891982751"><ele>243.0</ele><time>2026-03-29T08:33:40Z</time></trkpt><trkpt lat="45.695668858932805" lon="9.5539464285422"><ele>243.0</ele><time>2026-03-29T08:33:41Z</time></trkpt><trkpt lat="45.69573026433251" lon="9.55397308550585"><ele>243.0</ele><time>2026-03-29T08:33:42Z</time></trkpt><trkpt lat="45.69582119543137" lon="9.553929144249564"><ele>243.0</ele><time>2026-03-29T08:33:44Z</time></trkpt><trkpt lat="45.695932491513055" lon="9.553880732882568"><ele>243.0</ele><time>2026-03-29T08:33:46Z</time></trkpt><trkpt lat="45.69603655798287" lon="9.553838669836944"><ele>243.0</ele><time>2026-03-29T08:33:48Z</time></trkpt><trkpt lat="45.69615163287332" lon="9.553815461375999"><ele>243.0</ele><time>2026-03-29T08:33:50Z</time></trkpt><trkpt lat="45.696251373568735" lon="9.553781861865872"><ele>243.0</ele><time>2026-03-29T08:33:52Z</time></trkpt><trkpt lat="45.69636494446964" lon="9.553752907665162"><ele>243.0</ele><time>2026-03-29T08:33:54Z</time></trkpt><trkpt lat="45.696469604591286" lon="9.553710718570208"><ele>243.0</ele><time>2026-03-29T08:33:56Z</time></trkpt><trkpt lat="45.69657870412694" lon="9.55367284752251"><ele>242.8</ele><time>2026-03-29T08:33:58Z</time></trkpt><trkpt lat="45.696682299325815" lon="9.553628544287696"><ele>242.60000000000002</ele><time>2026-03-29T08:34:00Z</time></trkpt><trkpt lat="45.696782801188505" lon="9.553558768712941"><ele>242.39999999999998</ele><time>2026-03-29T08:34:02Z</time></trkpt><trkpt lat="45.696878476645516" lon="9.553464075231012"><ele>242.2</ele><time>2026-03-29T08:34:04Z</time></trkpt><trkpt lat="45.69697952036183" lon="9.553413028277099"><ele>242.0</ele><time>2026-03-29T08:34:06Z</time></trkpt><trkpt lat="45.6970805801298" lon="9.553368464753824"><ele>242.0</ele><time>2026-03-29T08:34:08Z</time></trkpt><trkpt lat="45.69718213945344" lon="9.55332665285228"><ele>242.0</ele><time>2026-03-29T08:34:10Z</time></trkpt><trkpt lat="45.69728157013836" lon="9.553281345462318"><ele>242.0</ele><time>2026-03-29T08:34:12Z</time></trkpt><trkpt lat="45.69737762854397" lon="9.553236037295713"><ele>242.0</ele><time>2026-03-29T08:34:14Z</time></trkpt><trkpt lat="45.69747926947281" lon="9.553193477741647"><ele>242.0</ele><time>2026-03-29T08:34:16Z</time></trkpt><trkpt lat="45.69758456569753" lon="9.553182709282636"><ele>242.0</ele><time>2026-03-29T08:34:18Z</time></trkpt><trkpt lat="45.6976844042726" lon="9.553165334652265"><ele>242.0</ele><time>2026-03-29T08:34:20Z</time></trkpt><trkpt lat="45.697782941232504" lon="9.553143533079213"><ele>242.0</ele><time>2026-03-29T08:34:22Z</time></trkpt><trkpt lat="45.697886251148496" lon="9.55313534311354"><ele>242.0</ele><time>2026-03-29T08:34:24Z</time></trkpt><trkpt lat="45.6979943344959" lon="9.553125841990443"><ele>242.0</ele><time>2026-03-29T08:34:26Z</time></trkpt><trkpt lat="45.69810074670666" lon="9.553106255529949"><ele>242.2</ele><time>2026-03-29T08:34:28Z</time></trkpt><trkpt lat="45.69820997772065" lon="9.553096441615859"><ele>242.39999999999998</ele><time>2026-03-29T08:34:30Z</time></trkpt><trkpt lat="45.69834470628665" lon="9.55309002003435"><ele>242.60000000000002</ele><time>2026-03-29T08:34:32Z</time></trkpt><trkpt lat="45.698439377774925" lon="9.553069252382576"><ele>242.8</ele><time>2026-03-29T08:34:34Z</time></trkpt><trkpt lat="45.69854834992156" lon="9.553058666427543"><ele>243.0</ele><time>2026-03-29T08:34:36Z</time></trkpt><trkpt lat="45.69865636523228" lon="9.553038068157678"><ele>243.0</ele><time>2026-03-29T08:34:38Z</time></trkpt><trkpt lat="45.69876524942948" lon="9.553028199921664"><ele>243.0</ele><time>2026-03-29T08:34:40Z</time></trkpt><trkpt lat="45.69886929321049" lon="9.5530100827696"><ele>243.0</ele><time>2026-03-29T08:34:42Z</time></trkpt><trkpt lat="45.6989699841252" lon="9.55298781571915"><ele>243.0</ele><time>2026-03-29T08:34:44Z</time></trkpt><trkpt lat="45.6990723360713" lon="9.552977841483159"><ele>243.0</ele><time>2026-03-29T08:34:46Z</time></trkpt><trkpt lat="45.69917074595416" lon="9.552969348687869"><ele>243.0</ele><time>2026-03-29T08:34:48Z</time></trkpt><trkpt lat="45.69926852252915" lon="9.552967876971026"><ele>243.0</ele><time>2026-03-29T08:34:50Z</time></trkpt><trkpt lat="45.69936779908402" lon="9.552961383272308"><ele>243.0</ele><time>2026-03-29T08:34:52Z</time></trkpt><trkpt lat="45.69946889163601" lon="9.552969690164781"><ele>243.0</ele><time>2026-03-29T08:34:54Z</time></trkpt><trkpt lat="45.69957114049814" lon="9.552966142228284"><ele>243.0</ele><time>2026-03-29T08:34:56Z</time></trkpt><trkpt lat="45.69967436782798" lon="9.552955701937453"><ele>243.2</ele><time>2026-03-29T08:34:58Z</time></trkpt><trkpt lat="45.69977863337406" lon="9.552940421702262"><ele>243.4</ele><time>2026-03-29T08:35:00Z</time></trkpt><trkpt lat="45.699884712353764" lon="9.552948614357142"><ele>243.59999999999997</ele><time>2026-03-29T08:35:02Z</time></trkpt><trkpt lat="45.699989669988774" lon="9.55294175131566"><ele>243.79999999999998</ele><time>2026-03-29T08:35:04Z</time></trkpt><trkpt lat="45.700093006112354" lon="9.552949968391127"><ele>244.0</ele><time>2026-03-29T08:35:06Z</time></trkpt><trkpt lat="45.70020291919244" lon="9.552953940202169"><ele>244.2</ele><time>2026-03-29T08:35:08Z</time></trkpt><trkpt lat="45.700310569905824" lon="9.552950427763871"><ele>244.39999999999998</ele><time>2026-03-29T08:35:10Z</time></trkpt><trkpt lat="45.70042101035221" lon="9.552961695471884"><ele>244.6</ele><time>2026-03-29T08:35:12Z</time></trkpt><trkpt lat="45.70053097990776" lon="9.55297189233012"><ele>244.8</ele><time>2026-03-29T08:35:14Z</time></trkpt><trkpt lat="45.700637888736274" lon="9.552977031087849"><ele>245.0</ele><time>2026-03-29T08:35:16Z</time></trkpt><trkpt lat="45.70074496168258" lon="9.552980712405654"><ele>245.0</ele><time>2026-03-29T08:35:18Z</time></trkpt><trkpt lat="45.70085121897622" lon="9.552982657763163"><ele>245.0</ele><time>2026-03-29T08:35:20Z</time></trkpt><trkpt lat="45.700959380816975" lon="9.552984033466027"><ele>245.0</ele><time>2026-03-29T08:35:22Z</time></trkpt><trkpt lat="45.701060482207346" lon="9.552991136397871"><ele>245.0</ele><time>2026-03-29T08:35:24Z</time></trkpt><trkpt lat="45.70116398821929" lon="9.553001193253778"><ele>245.0</ele><time>2026-03-29T08:35:26Z</time></trkpt><trkpt lat="45.701265970041916" lon="9.553008584793819"><ele>245.0</ele><time>2026-03-29T08:35:28Z</time></trkpt><trkpt lat="45.70137120140492" lon="9.553016695490642"><ele>245.0</ele><time>2026-03-29T08:35:30Z</time></trkpt><trkpt lat="45.70148109708774" lon="9.553043456761785"><ele>245.0</ele><time>2026-03-29T08:35:32Z</time></trkpt><trkpt lat="45.70159581740505" lon="9.553082431951301"><ele>245.0</ele><time>2026-03-29T08:35:34Z</time></trkpt><trkpt lat="45.701706259078854" lon="9.553155569595964"><ele>245.0</ele><time>2026-03-29T08:35:36Z</time></trkpt><trkpt lat="45.70176476728727" lon="9.553193969597437"><ele>245.0</ele><time>2026-03-29T08:35:37Z</time></trkpt><trkpt lat="45.70187521033016" lon="9.55325527855315"><ele>245.0</ele><time>2026-03-29T08:35:39Z</time></trkpt><trkpt lat="45.701977474188595" lon="9.553351280837957"><ele>245.0</ele><time>2026-03-29T08:35:41Z</time></trkpt><trkpt lat="45.70206791065905" lon="9.553457106457387"><ele>245.0</ele><time>2026-03-29T08:35:43Z</time></trkpt><trkpt lat="45.70215470809385" lon="9.55355372065868"><ele>244.8</ele><time>2026-03-29T08:35:45Z</time></trkpt><trkpt lat="45.702251288817976" lon="9.553641684516963"><ele>244.6</ele><time>2026-03-29T08:35:47Z</time></trkpt><trkpt lat="45.70232764677416" lon="9.553749351940787"><ele>244.39999999999998</ele><time>2026-03-29T08:35:49Z</time></trkpt><trkpt lat="45.70240429050003" lon="9.553848753943118"><ele>244.2</ele><time>2026-03-29T08:35:51Z</time></trkpt><trkpt lat="45.70248231229918" lon="9.553928193086461"><ele>244.0</ele><time>2026-03-29T08:35:53Z</time></trkpt><trkpt lat="45.70255099883545" lon="9.554009247605704"><ele>244.25</ele><time>2026-03-29T08:35:56Z</time></trkpt><trkpt lat="45.70263171631956" lon="9.554091963109348"><ele>244.5</ele><time>2026-03-29T08:35:58Z</time></trkpt><trkpt lat="45.70276425824892" lon="9.553909588404407"><ele>244.75</ele><time>2026-03-29T08:36:01Z</time></trkpt><trkpt lat="45.70277918774311" lon="9.553736739858062"><ele>245.0</ele><time>2026-03-29T08:36:03Z</time></trkpt><trkpt lat="45.70275935472645" lon="9.553585681211006"><ele>244.8</ele><time>2026-03-29T08:36:05Z</time></trkpt><trkpt lat="45.70274087770201" lon="9.553439973607865"><ele>244.6</ele><time>2026-03-29T08:36:07Z</time></trkpt><trkpt lat="45.70268191969374" lon="9.55330401801106"><ele>244.39999999999998</ele><time>2026-03-29T08:36:09Z</time></trkpt><trkpt lat="45.70260700825284" lon="9.553180393205068"><ele>244.2</ele><time>2026-03-29T08:36:11Z</time></trkpt><trkpt lat="45.702610046066816" lon="9.5530354272082"><ele>244.0</ele><time>2026-03-29T08:36:13Z</time></trkpt><trkpt lat="45.702692732837434" lon="9.55296655685069"><ele>244.2</ele><time>2026-03-29T08:36:14Z</time></trkpt><trkpt lat="45.70277128396826" lon="9.552898328192608"><ele>244.39999999999998</ele><time>2026-03-29T08:36:16Z</time></trkpt><trkpt lat="45.702847061241066" lon="9.552822713412152"><ele>244.6</ele><time>2026-03-29T08:36:18Z</time></trkpt><trkpt lat="45.70298409827047" lon="9.552903127067434"><ele>244.8</ele><time>2026-03-29T08:36:20Z</time></trkpt><trkpt lat="45.70307366098722" lon="9.552906976811245"><ele>245.0</ele><time>2026-03-29T08:36:23Z</time></trkpt><trkpt lat="45.70314320339354" lon="9.552926163067294"><ele>245.0</ele><time>2026-03-29T08:36:25Z</time></trkpt><trkpt lat="45.70327857297929" lon="9.552877698370558"><ele>245.0</ele><time>2026-03-29T08:36:27Z</time></trkpt><trkpt lat="45.70339658704697" lon="9.552888352806237"><ele>245.0</ele><time>2026-03-29T08:36:29Z</time></trkpt><trkpt lat="45.7034705404281" lon="9.55287660978634"><ele>245.0</ele><time>2026-03-29T08:36:30Z</time></trkpt><trkpt lat="45.703588405036946" lon="9.552863149354062"><ele>245.0</ele><time>2026-03-29T08:36:32Z</time></trkpt><trkpt lat="45.70369804173421" lon="9.552833383915017"><ele>245.0</ele><time>2026-03-29T08:36:34Z</time></trkpt><trkpt lat="45.70378969846253" lon="9.552790870668458"><ele>245.0</ele><time>2026-03-29T08:36:37Z</time></trkpt><trkpt lat="45.70385162225642" lon="9.552737318211772"><ele>245.0</ele><time>2026-03-29T08:36:40Z</time></trkpt><trkpt lat="45.70395655159729" lon="9.55280283089977"><ele>245.0</ele><time>2026-03-29T08:36:42Z</time></trkpt><trkpt lat="45.70406869679708" lon="9.552773002610806"><ele>245.0</ele><time>2026-03-29T08:36:44Z</time></trkpt><trkpt lat="45.704183143594335" lon="9.552729428248787"><ele>245.0</ele><time>2026-03-29T08:36:47Z</time></trkpt><trkpt lat="45.704248813264776" lon="9.552753225356"><ele>245.0</ele><time>2026-03-29T08:36:49Z</time></trkpt><trkpt lat="45.70432664346747" lon="9.552710650158623"><ele>245.0</ele><time>2026-03-29T08:36:51Z</time></trkpt><trkpt lat="45.70443102549806" lon="9.552691995394566"><ele>245.0</ele><time>2026-03-29T08:36:54Z</time></trkpt><trkpt lat="45.70450408592748" lon="9.552641959332849"><ele>245.6</ele><time>2026-03-29T08:36:57Z</time></trkpt><trkpt lat="45.70459268974041" lon="9.552641298017004"><ele>246.2</ele><time>2026-03-29T08:37:00Z</time></trkpt><trkpt lat="45.70466329775973" lon="9.552569734140997"><ele>246.8</ele><time>2026-03-29T08:37:03Z</time></trkpt><trkpt lat="45.704738940873554" lon="9.55251023876792"><ele>247.4</ele><time>2026-03-29T08:37:06Z</time></trkpt><trkpt lat="45.70475053435415" lon="9.55242088016868"><ele>248.0</ele><time>2026-03-29T08:37:07Z</time></trkpt><trkpt lat="45.70489776993964" lon="9.552339415611753"><ele>248.00000000000003</ele><time>2026-03-29T08:37:13Z</time></trkpt><trkpt lat="45.70496580268819" lon="9.552283507894659"><ele>248.0</ele><time>2026-03-29T08:37:16Z</time></trkpt><trkpt lat="45.70500417720724" lon="9.55219140365248"><ele>248.0</ele><time>2026-03-29T08:37:19Z</time></trkpt><trkpt lat="45.70495786215373" lon="9.55207375241263"><ele>248.0</ele><time>2026-03-29T08:37:20Z</time></trkpt><trkpt lat="45.70499941144983" lon="9.552003973899504"><ele>248.00000000000003</ele><time>2026-03-29T08:37:23Z</time></trkpt><trkpt lat="45.70501258881865" lon="9.551879856351297"><ele>248.0</ele><time>2026-03-29T08:37:27Z</time></trkpt><trkpt lat="45.70505772785831" lon="9.551730199334132"><ele>247.83333333333334</ele><time>2026-03-29T08:37:29Z</time></trkpt><trkpt lat="45.705112492623144" lon="9.551632587376831"><ele>247.66666666666669</ele><time>2026-03-29T08:37:30Z</time></trkpt><trkpt lat="45.70518897405255" lon="9.551552822790224"><ele>247.5</ele><time>2026-03-29T08:37:31Z</time></trkpt><trkpt lat="45.70524197322774" lon="9.55144726495695"><ele>247.33333333333331</ele><time>2026-03-29T08:37:32Z</time></trkpt><trkpt lat="45.7052772122387" lon="9.551353566399047"><ele>247.16666666666666</ele><time>2026-03-29T08:37:33Z</time></trkpt><trkpt lat="45.70529660651177" lon="9.551265760096163"><ele>247.0</ele><time>2026-03-29T08:37:34Z</time></trkpt><trkpt lat="45.70536166372483" lon="9.551147137351874"><ele>247.0</ele><time>2026-03-29T08:37:35Z</time></trkpt><trkpt lat="45.705460599324525" lon="9.550891669752927"><ele>247.0</ele><time>2026-03-29T08:37:37Z</time></trkpt><trkpt lat="45.70550101515605" lon="9.550787080311133"><ele>247.0</ele><time>2026-03-29T08:37:38Z</time></trkpt><trkpt lat="45.70555744448983" lon="9.550690090069953"><ele>247.0</ele><time>2026-03-29T08:37:39Z</time></trkpt><trkpt lat="45.705630207944054" lon="9.550580944688212"><ele>246.99999999999997</ele><time>2026-03-29T08:37:40Z</time></trkpt><trkpt lat="45.705652414196365" lon="9.55049009078763"><ele>247.0</ele><time>2026-03-29T08:37:41Z</time></trkpt><trkpt lat="45.705660801100215" lon="9.550399705787413"><ele>247.0</ele><time>2026-03-29T08:37:42Z</time></trkpt><trkpt lat="45.70564870522582" lon="9.550243223544788"><ele>247.0</ele><time>2026-03-29T08:37:44Z</time></trkpt><trkpt lat="45.70561555296202" lon="9.55009867742578"><ele>246.99999999999997</ele><time>2026-03-29T08:37:46Z</time></trkpt><trkpt lat="45.705585262257905" lon="9.54996718124989"><ele>247.0</ele><time>2026-03-29T08:37:48Z</time></trkpt><trkpt lat="45.705555541358194" lon="9.54984027808571"><ele>247.33333333333331</ele><time>2026-03-29T08:37:50Z</time></trkpt><trkpt lat="45.705530006092516" lon="9.549703805119073"><ele>247.66666666666666</ele><time>2026-03-29T08:37:52Z</time></trkpt><trkpt lat="45.70551597557633" lon="9.549587570198682"><ele>248.0</ele><time>2026-03-29T08:37:54Z</time></trkpt><trkpt lat="45.705485056749474" lon="9.54947014124778"><ele>248.33333333333331</ele><time>2026-03-29T08:37:56Z</time></trkpt><trkpt lat="45.70555033702683" lon="9.549451891227072"><ele>248.66666666666666</ele><time>2026-03-29T08:37:58Z</time></trkpt><trkpt lat="45.70565480431035" lon="9.549480122097048"><ele>249.0</ele><time>2026-03-29T08:38:00Z</time></trkpt><trkpt lat="45.705761040321605" lon="9.549467057944657"><ele>249.2</ele><time>2026-03-29T08:38:02Z</time></trkpt><trkpt lat="45.705863499070205" lon="9.549430894922398"><ele>249.39999999999998</ele><time>2026-03-29T08:38:04Z</time></trkpt><trkpt lat="45.705968149844026" lon="9.549404725397682"><ele>249.6</ele><time>2026-03-29T08:38:06Z</time></trkpt><trkpt lat="45.70607316645671" lon="9.549369553202562"><ele>249.8</ele><time>2026-03-29T08:38:08Z</time></trkpt><trkpt lat="45.706166520600405" lon="9.549323106504204"><ele>250.0</ele><time>2026-03-29T08:38:10Z</time></trkpt><trkpt lat="45.706264916663166" lon="9.54930154056722"><ele>250.2</ele><time>2026-03-29T08:38:12Z</time></trkpt><trkpt lat="45.70636439947537" lon="9.549255488618622"><ele>250.4</ele><time>2026-03-29T08:38:14Z</time></trkpt><trkpt lat="45.70645906305051" lon="9.549226807109369"><ele>250.60000000000002</ele><time>2026-03-29T08:38:16Z</time></trkpt><trkpt lat="45.706548797612264" lon="9.549162575893108"><ele>250.8</ele><time>2026-03-29T08:38:18Z</time></trkpt><trkpt lat="45.70664323376797" lon="9.549125035560104"><ele>251.0</ele><time>2026-03-29T08:38:20Z</time></trkpt><trkpt lat="45.70673489458493" lon="9.549058588202838"><ele>251.0</ele><time>2026-03-29T08:38:22Z</time></trkpt><trkpt lat="45.70682623962721" lon="9.549017615312072"><ele>251.00000000000003</ele><time>2026-03-29T08:38:24Z</time></trkpt><trkpt lat="45.70690249381261" lon="9.548968245032535"><ele>251.00000000000003</ele><time>2026-03-29T08:38:26Z</time></trkpt><trkpt lat="45.706995536018596" lon="9.548907988942918"><ele>251.0</ele><time>2026-03-29T08:38:28Z</time></trkpt><trkpt lat="45.707095067014706" lon="9.548852507071322"><ele>251.0</ele><time>2026-03-29T08:38:30Z</time></trkpt><trkpt lat="45.70718437389938" lon="9.548778820864957"><ele>251.20000000000002</ele><time>2026-03-29T08:38:32Z</time></trkpt><trkpt lat="45.707278930481124" lon="9.548717944789713"><ele>251.40000000000003</ele><time>2026-03-29T08:38:34Z</time></trkpt><trkpt lat="45.70737027188558" lon="9.548661045645993"><ele>251.6</ele><time>2026-03-29T08:38:36Z</time></trkpt><trkpt lat="45.70745378952463" lon="9.548589903277394"><ele>251.8</ele><time>2026-03-29T08:38:38Z</time></trkpt><trkpt lat="45.7075551058099" lon="9.5485458336049"><ele>252.0</ele><time>2026-03-29T08:38:40Z</time></trkpt><trkpt lat="45.70763857225071" lon="9.548468409850095"><ele>252.0</ele><time>2026-03-29T08:38:42Z</time></trkpt><trkpt lat="45.707725575485924" lon="9.548407542285954"><ele>252.0</ele><time>2026-03-29T08:38:44Z</time></trkpt><trkpt lat="45.70781474333733" lon="9.548352732827306"><ele>252.0</ele><time>2026-03-29T08:38:46Z</time></trkpt><trkpt lat="45.70791288723764" lon="9.54829665604695"><ele>252.0</ele><time>2026-03-29T08:38:48Z</time></trkpt><trkpt lat="45.70800125709796" lon="9.548310227866637"><ele>252.0</ele><time>2026-03-29T08:38:50Z</time></trkpt><trkpt lat="45.70809485653629" lon="9.548269251773613"><ele>252.6</ele><time>2026-03-29T08:38:52Z</time></trkpt><trkpt lat="45.708195156245175" lon="9.548229617836574"><ele>253.2</ele><time>2026-03-29T08:38:54Z</time></trkpt><trkpt lat="45.70829306867081" lon="9.548155863115541"><ele>253.8</ele><time>2026-03-29T08:38:56Z</time></trkpt><trkpt lat="45.70838982453076" lon="9.548106648884978"><ele>254.4</ele><time>2026-03-29T08:38:58Z</time></trkpt><trkpt lat="45.70845715763084" lon="9.54805984092185"><ele>255.0</ele><time>2026-03-29T08:39:00Z</time></trkpt><trkpt lat="45.70852265795623" lon="9.548080161536985"><ele>255.6</ele><time>2026-03-29T08:39:02Z</time></trkpt><trkpt lat="45.708580413504066" lon="9.54816332235055"><ele>256.2</ele><time>2026-03-29T08:39:10Z</time></trkpt><trkpt lat="45.708635603680904" lon="9.548273146524021"><ele>256.8</ele><time>2026-03-29T08:39:13Z</time></trkpt><trkpt lat="45.70865862205289" lon="9.54843904529384"><ele>257.4</ele><time>2026-03-29T08:39:14Z</time></trkpt><trkpt lat="45.70869451196026" lon="9.548593581580091"><ele>258.0</ele><time>2026-03-29T08:39:16Z</time></trkpt><trkpt lat="45.708753950037625" lon="9.548666237852263"><ele>257.6</ele><time>2026-03-29T08:39:17Z</time></trkpt><trkpt lat="45.7088344430012" lon="9.548792632111851"><ele>257.20000000000005</ele><time>2026-03-29T08:39:19Z</time></trkpt><trkpt lat="45.70886591132697" lon="9.54892852519157"><ele>256.8</ele><time>2026-03-29T08:39:21Z</time></trkpt><trkpt lat="45.70893952289495" lon="9.549038494252056"><ele>256.40000000000003</ele><time>2026-03-29T08:39:23Z</time></trkpt><trkpt lat="45.70890369127128" lon="9.549202116839378"><ele>256.0</ele><time>2026-03-29T08:39:25Z</time></trkpt><trkpt lat="45.708944027450606" lon="9.549280840988589"><ele>256.0</ele><time>2026-03-29T08:39:30Z</time></trkpt><trkpt lat="45.70903426684098" lon="9.549264920064108"><ele>256.0</ele><time>2026-03-29T08:39:32Z</time></trkpt><trkpt lat="45.70913940324634" lon="9.549253559857384"><ele>256.0</ele><time>2026-03-29T08:39:34Z</time></trkpt><trkpt lat="45.709112827262615" lon="9.549156732383027"><ele>256.0</ele><time>2026-03-29T08:39:35Z</time></trkpt><trkpt lat="45.70920686401704" lon="9.549146292743867"><ele>256.0</ele><time>2026-03-29T08:39:36Z</time></trkpt><trkpt lat="45.7092905790167" lon="9.549110322828666"><ele>255.99999999999997</ele><time>2026-03-29T08:39:37Z</time></trkpt><trkpt lat="45.70936023435481" lon="9.54908564484973"><ele>256.0</ele><time>2026-03-29T08:39:38Z</time></trkpt><trkpt lat="45.70946025479005" lon="9.549064880788963"><ele>256.0</ele><time>2026-03-29T08:39:40Z</time></trkpt><trkpt lat="45.70956563244123" lon="9.54905100687037"><ele>256.0</ele><time>2026-03-29T08:39:42Z</time></trkpt><trkpt lat="45.70962540141106" lon="9.548950472997324"><ele>255.99999999999997</ele><time>2026-03-29T08:39:43Z</time></trkpt><trkpt lat="45.70969178101737" lon="9.548904518524003"><ele>256.0</ele><time>2026-03-29T08:39:45Z</time></trkpt><trkpt lat="45.7097588604981" lon="9.54886402867932"><ele>255.60000000000002</ele><time>2026-03-29T08:39:48Z</time></trkpt><trkpt lat="45.709930621775506" lon="9.548867100920734"><ele>255.20000000000002</ele><time>2026-03-29T08:39:52Z</time></trkpt><trkpt lat="45.71000362542032" lon="9.548818140156381"><ele>254.79999999999998</ele><time>2026-03-29T08:39:54Z</time></trkpt><trkpt lat="45.710093615085405" lon="9.548765691869491"><ele>254.39999999999998</ele><time>2026-03-29T08:39:56.025Z</time></trkpt><trkpt lat="45.710175826583914" lon="9.548715964045096"><ele>254.0</ele><time>2026-03-29T08:39:58Z</time></trkpt><trkpt lat="45.71025427624695" lon="9.548636813620341"><ele>253.75</ele><time>2026-03-29T08:40:00Z</time></trkpt><trkpt lat="45.71041490376166" lon="9.548772938439143"><ele>253.5</ele><time>2026-03-29T08:40:06Z</time></trkpt><trkpt lat="45.71048665319376" lon="9.54894109514627"><ele>253.25</ele><time>2026-03-29T08:40:08Z</time></trkpt><trkpt lat="45.71055199493768" lon="9.548966141709318"><ele>253.0</ele><time>2026-03-29T08:40:09Z</time></trkpt><trkpt lat="45.71065836782113" lon="9.549043486562308"><ele>253.0</ele><time>2026-03-29T08:40:11Z</time></trkpt><trkpt lat="45.71077832711209" lon="9.54903589225434"><ele>253.0</ele><time>2026-03-29T08:40:13Z</time></trkpt><trkpt lat="45.7108442894722" lon="9.548990144082671"><ele>253.0</ele><time>2026-03-29T08:40:14Z</time></trkpt><trkpt lat="45.71089779505341" lon="9.548940711784569"><ele>253.0</ele><time>2026-03-29T08:40:15Z</time></trkpt><trkpt lat="45.711007969062756" lon="9.548849543315976"><ele>253.0</ele><time>2026-03-29T08:40:17Z</time></trkpt><trkpt lat="45.71107014770485" lon="9.548775914943384"><ele>253.16666666666666</ele><time>2026-03-29T08:40:19Z</time></trkpt><trkpt lat="45.711124412682835" lon="9.548729305624708"><ele>253.33333333333331</ele><time>2026-03-29T08:40:20Z</time></trkpt><trkpt lat="45.711185276542494" lon="9.54869107207657"><ele>253.5</ele><time>2026-03-29T08:40:21Z</time></trkpt><trkpt lat="45.71129829077616" lon="9.548610581172095"><ele>253.66666666666669</ele><time>2026-03-29T08:40:23Z</time></trkpt><trkpt lat="45.71137067678521" lon="9.548588606030169"><ele>253.83333333333334</ele><time>2026-03-29T08:40:24Z</time></trkpt><trkpt lat="45.71142632738078" lon="9.548502548201743"><ele>254.0</ele><time>2026-03-29T08:40:29Z</time></trkpt><trkpt lat="45.711695786829054" lon="9.548490951175689"><ele>253.75</ele><time>2026-03-29T08:40:34Z</time></trkpt><trkpt lat="45.71177022419125" lon="9.548375475636607"><ele>253.5</ele><time>2026-03-29T08:40:36Z</time></trkpt><trkpt lat="45.71181641381984" lon="9.548275025280095"><ele>253.25</ele><time>2026-03-29T08:40:37Z</time></trkpt><trkpt lat="45.71189002109228" lon="9.548259030880162"><ele>253.0</ele><time>2026-03-29T08:40:39Z</time></trkpt><trkpt lat="45.712045463926664" lon="9.548119791289896"><ele>252.99999999999997</ele><time>2026-03-29T08:40:40Z</time></trkpt><trkpt lat="45.71210769896187" lon="9.548068654526181"><ele>253.0</ele><time>2026-03-29T08:40:41Z</time></trkpt><trkpt lat="45.71216894465582" lon="9.547994342872588"><ele>253.0</ele><time>2026-03-29T08:40:42Z</time></trkpt><trkpt lat="45.71222764478732" lon="9.547944115041311"><ele>253.0</ele><time>2026-03-29T08:40:43Z</time></trkpt><trkpt lat="45.712339828225" lon="9.547896209967583"><ele>252.99999999999997</ele><time>2026-03-29T08:40:45Z</time></trkpt><trkpt lat="45.71240392662392" lon="9.547893193557218"><ele>253.0</ele><time>2026-03-29T08:40:46Z</time></trkpt><trkpt lat="45.71252677156431" lon="9.547851927377389"><ele>253.83333333333331</ele><time>2026-03-29T08:40:48Z</time></trkpt><trkpt lat="45.712614625488754" lon="9.547815442264309"><ele>254.66666666666666</ele><time>2026-03-29T08:40:50Z</time></trkpt><trkpt lat="45.712685824125664" lon="9.54778762225003"><ele>255.5</ele><time>2026-03-29T08:40:51Z</time></trkpt><trkpt lat="45.71274808252276" lon="9.547772618823064"><ele>256.3333333333333</ele><time>2026-03-29T08:40:52Z</time></trkpt><trkpt lat="45.712811506083995" lon="9.547822225607874"><ele>257.1666666666667</ele><time>2026-03-29T08:40:53Z</time></trkpt><trkpt lat="45.71287539861216" lon="9.547841998909291"><ele>258.0</ele><time>2026-03-29T08:40:54Z</time></trkpt><trkpt lat="45.71298649827489" lon="9.547872995691655"><ele>257.2</ele><time>2026-03-29T08:40:56Z</time></trkpt><trkpt lat="45.71309019331669" lon="9.547930718815074"><ele>256.4</ele><time>2026-03-29T08:40:58Z</time></trkpt><trkpt lat="45.713215251384334" lon="9.547966565257699"><ele>255.59999999999997</ele><time>2026-03-29T08:41:00Z</time></trkpt><trkpt lat="45.71325161581616" lon="9.54804119298669"><ele>254.79999999999998</ele><time>2026-03-29T08:41:01Z</time></trkpt><trkpt lat="45.71333513734639" lon="9.54811666136539"><ele>254.0</ele><time>2026-03-29T08:41:03Z</time></trkpt><trkpt lat="45.713438465530636" lon="9.548166810836344"><ele>254.00000000000003</ele><time>2026-03-29T08:41:05Z</time></trkpt><trkpt lat="45.713517601728846" lon="9.548105396924868"><ele>254.0</ele><time>2026-03-29T08:41:06Z</time></trkpt><trkpt lat="45.713612803372456" lon="9.548102119240655"><ele>254.0</ele><time>2026-03-29T08:41:11Z</time></trkpt><trkpt lat="45.71370042255949" lon="9.548152666872532"><ele>254.0</ele><time>2026-03-29T08:41:13Z</time></trkpt><trkpt lat="45.713778222276844" lon="9.548179159178757"><ele>254.00000000000003</ele><time>2026-03-29T08:41:15Z</time></trkpt><trkpt lat="45.71386001714368" lon="9.548204422711759"><ele>254.0</ele><time>2026-03-29T08:41:18Z</time></trkpt><trkpt lat="45.71402531742022" lon="9.548212003627166"><ele>254.14285714285717</ele><time>2026-03-29T08:41:21Z</time></trkpt><trkpt lat="45.71409238280888" lon="9.548241278161585"><ele>254.28571428571428</ele><time>2026-03-29T08:41:22Z</time></trkpt><trkpt lat="45.714156705355684" lon="9.548245020125464"><ele>254.42857142857144</ele><time>2026-03-29T08:41:23Z</time></trkpt><trkpt lat="45.71422442605912" lon="9.548260912776001"><ele>254.57142857142858</ele><time>2026-03-29T08:41:24Z</time></trkpt><trkpt lat="45.71428424631771" lon="9.548299494367178"><ele>254.71428571428572</ele><time>2026-03-29T08:41:25Z</time></trkpt><trkpt lat="45.71435313503837" lon="9.54831835489703"><ele>254.85714285714286</ele><time>2026-03-29T08:41:26Z</time></trkpt><trkpt lat="45.71442935219792" lon="9.548359775264094"><ele>255.0</ele><time>2026-03-29T08:41:27Z</time></trkpt><trkpt lat="45.71469855501722" lon="9.548361742844456"><ele>255.75</ele><time>2026-03-29T08:41:31Z</time></trkpt><trkpt lat="45.71482309869676" lon="9.54834481404213"><ele>256.5</ele><time>2026-03-29T08:41:33Z</time></trkpt><trkpt lat="45.71494624994549" lon="9.548366610300453"><ele>257.25</ele><time>2026-03-29T08:41:35Z</time></trkpt><trkpt lat="45.715054362119986" lon="9.54839359614802"><ele>258.0</ele><time>2026-03-29T08:41:37Z</time></trkpt><trkpt lat="45.7151640754271" lon="9.548419919322436"><ele>258.2</ele><time>2026-03-29T08:41:39Z</time></trkpt><trkpt lat="45.71527396900312" lon="9.548432969823939"><ele>258.4</ele><time>2026-03-29T08:41:41Z</time></trkpt><trkpt lat="45.715378310658515" lon="9.548375993168182"><ele>258.59999999999997</ele><time>2026-03-29T08:41:43Z</time></trkpt><trkpt lat="45.715474555353204" lon="9.54829746317097"><ele>258.8</ele><time>2026-03-29T08:41:45Z</time></trkpt><trkpt lat="45.715576631712935" lon="9.548273371885967"><ele>259.0</ele><time>2026-03-29T08:41:47Z</time></trkpt><trkpt lat="45.71567432991859" lon="9.548256219942951"><ele>259.0</ele><time>2026-03-29T08:41:49Z</time></trkpt><trkpt lat="45.715786898413086" lon="9.548250377768904"><ele>259.0</ele><time>2026-03-29T08:41:51Z</time></trkpt><trkpt lat="45.71588211452922" lon="9.548211810048926"><ele>259.0</ele><time>2026-03-29T08:41:53Z</time></trkpt><trkpt lat="45.71598307198059" lon="9.548183916006609"><ele>259.0</ele><time>2026-03-29T08:41:55Z</time></trkpt><trkpt lat="45.716083144953465" lon="9.548167200665617"><ele>259.0</ele><time>2026-03-29T08:41:57Z</time></trkpt><trkpt lat="45.71618990566167" lon="9.548137230877279"><ele>259.75</ele><time>2026-03-29T08:41:59Z</time></trkpt><trkpt lat="45.71628796451445" lon="9.548109518779116"><ele>260.5</ele><time>2026-03-29T08:42:01Z</time></trkpt><trkpt lat="45.71638400882575" lon="9.548083965553372"><ele>261.25</ele><time>2026-03-29T08:42:03Z</time></trkpt><trkpt lat="45.71648965862931" lon="9.548087153532421"><ele>262.0</ele><time>2026-03-29T08:42:05Z</time></trkpt><trkpt lat="45.71663605163041" lon="9.548067522893788"><ele>262.0</ele><time>2026-03-29T08:42:08Z</time></trkpt><trkpt lat="45.716738847535716" lon="9.54804531354532"><ele>262.0</ele><time>2026-03-29T08:42:10Z</time></trkpt><trkpt lat="45.71684186871821" lon="9.54801562799525"><ele>262.0</ele><time>2026-03-29T08:42:12Z</time></trkpt><trkpt lat="45.71694175427181" lon="9.547981982201609"><ele>262.0</ele><time>2026-03-29T08:42:14Z</time></trkpt><trkpt lat="45.71703534663534" lon="9.547950823884362"><ele>262.0</ele><time>2026-03-29T08:42:16Z</time></trkpt><trkpt lat="45.717129571818745" lon="9.547956229541585"><ele>262.5</ele><time>2026-03-29T08:42:18Z</time></trkpt><trkpt lat="45.71720642119499" lon="9.547954355309878"><ele>263.0</ele><time>2026-03-29T08:42:20Z</time></trkpt><trkpt lat="45.717309103568496" lon="9.547872470537605"><ele>263.5</ele><time>2026-03-29T08:42:23Z</time></trkpt><trkpt lat="45.717345502950366" lon="9.547761071049582"><ele>264.0</ele><time>2026-03-29T08:42:25Z</time></trkpt><trkpt lat="45.717402916425726" lon="9.547702675409191"><ele>264.5</ele><time>2026-03-29T08:42:27Z</time></trkpt><trkpt lat="45.71745997571556" lon="9.547643622650712"><ele>265.0</ele><time>2026-03-29T08:42:29Z</time></trkpt><trkpt lat="45.717513548824215" lon="9.547581759519653"><ele>265.0</ele><time>2026-03-29T08:42:31Z</time></trkpt><trkpt lat="45.717615743534544" lon="9.547507339346435"><ele>265.0</ele><time>2026-03-29T08:42:32Z</time></trkpt><trkpt lat="45.71793449355514" lon="9.547521345300334"><ele>265.0</ele><time>2026-03-29T08:42:36Z</time></trkpt><trkpt lat="45.71800831698839" lon="9.547459153262368"><ele>264.8</ele><time>2026-03-29T08:42:37Z</time></trkpt><trkpt lat="45.71807882245467" lon="9.547411309713851"><ele>264.6</ele><time>2026-03-29T08:42:39Z</time></trkpt><trkpt lat="45.718186973509184" lon="9.54734422470728"><ele>264.4</ele><time>2026-03-29T08:42:41Z</time></trkpt><trkpt lat="45.71827535365182" lon="9.54732730474869"><ele>264.2</ele><time>2026-03-29T08:42:43Z</time></trkpt><trkpt lat="45.71839223284476" lon="9.54733617892223"><ele>264.0</ele><time>2026-03-29T08:42:49Z</time></trkpt><trkpt lat="45.718483789918544" lon="9.547287571662663"><ele>264.0</ele><time>2026-03-29T08:42:51Z</time></trkpt><trkpt lat="45.71857201763493" lon="9.547248880981108"><ele>264.0</ele><time>2026-03-29T08:42:53Z</time></trkpt><trkpt lat="45.718631875209965" lon="9.547213822078362"><ele>264.0</ele><time>2026-03-29T08:42:54Z</time></trkpt><trkpt lat="45.71872567599973" lon="9.547174160024603"><ele>264.0</ele><time>2026-03-29T08:42:56Z</time></trkpt><trkpt lat="45.7188203161883" lon="9.547143490237843"><ele>264.0</ele><time>2026-03-29T08:42:58Z</time></trkpt><trkpt lat="45.71896486519297" lon="9.547158200626287"><ele>264.0</ele><time>2026-03-29T08:43:01Z</time></trkpt><trkpt lat="45.7190557413008" lon="9.547074275655296"><ele>264.0</ele><time>2026-03-29T08:43:03Z</time></trkpt><trkpt lat="45.71919067279766" lon="9.546978309621188"><ele>264.0</ele><time>2026-03-29T08:43:06Z</time></trkpt><trkpt lat="45.71928104646821" lon="9.546911191523236"><ele>264.0</ele><time>2026-03-29T08:43:08Z</time></trkpt><trkpt lat="45.71939276704807" lon="9.546897134986235"><ele>264.3333333333333</ele><time>2026-03-29T08:43:11Z</time></trkpt><trkpt lat="45.719465254683215" lon="9.546810278354183"><ele>264.6666666666667</ele><time>2026-03-29T08:43:13Z</time></trkpt><trkpt lat="45.71956998557289" lon="9.546758409446404"><ele>265.0</ele><time>2026-03-29T08:43:15Z</time></trkpt><trkpt lat="45.71961092974397" lon="9.546684022177768"><ele>265.33333333333337</ele><time>2026-03-29T08:43:17Z</time></trkpt><trkpt lat="45.71968771818973" lon="9.546620643115386"><ele>265.6666666666667</ele><time>2026-03-29T08:43:19Z</time></trkpt><trkpt lat="45.71974965544749" lon="9.54652941512603"><ele>266.0</ele><time>2026-03-29T08:43:21Z</time></trkpt><trkpt lat="45.71983832370238" lon="9.546416101374987"><ele>266.0</ele><time>2026-03-29T08:43:23Z</time></trkpt><trkpt lat="45.719905760827515" lon="9.546331084574112"><ele>266.0</ele><time>2026-03-29T08:43:25Z</time></trkpt><trkpt lat="45.720018285431074" lon="9.546269557303887"><ele>266.0</ele><time>2026-03-29T08:43:27Z</time></trkpt><trkpt lat="45.72010895534769" lon="9.546245505306414"><ele>266.0</ele><time>2026-03-29T08:43:29Z</time></trkpt><trkpt lat="45.720224511934255" lon="9.546248218511739"><ele>266.0</ele><time>2026-03-29T08:43:30Z</time></trkpt><trkpt lat="45.72028247649963" lon="9.546207244485501"><ele>266.8</ele><time>2026-03-29T08:43:32Z</time></trkpt><trkpt lat="45.720367916678946" lon="9.546181112451189"><ele>267.6</ele><time>2026-03-29T08:43:34Z</time></trkpt><trkpt lat="45.72046786850344" lon="9.546147103625902"><ele>268.4</ele><time>2026-03-29T08:43:36Z</time></trkpt><trkpt lat="45.72057161441876" lon="9.546108760199182"><ele>269.2</ele><time>2026-03-29T08:43:38Z</time></trkpt><trkpt lat="45.72066562050083" lon="9.546025240724395"><ele>270.0</ele><time>2026-03-29T08:43:40Z</time></trkpt><trkpt lat="45.72075889711422" lon="9.545984990118265"><ele>270.0</ele><time>2026-03-29T08:43:42Z</time></trkpt><trkpt lat="45.720848778747154" lon="9.545939104885502"><ele>270.0</ele><time>2026-03-29T08:43:44Z</time></trkpt><trkpt lat="45.720933314974516" lon="9.545882245435207"><ele>270.0</ele><time>2026-03-29T08:43:46Z</time></trkpt><trkpt lat="45.721022098965314" lon="9.545826665216174"><ele>270.0</ele><time>2026-03-29T08:43:48Z</time></trkpt><trkpt lat="45.72112356080437" lon="9.54580578536209"><ele>270.0</ele><time>2026-03-29T08:43:50Z</time></trkpt><trkpt lat="45.72121365746002" lon="9.545740374391839"><ele>270.0</ele><time>2026-03-29T08:43:52Z</time></trkpt><trkpt lat="45.72130978317837" lon="9.545695489967704"><ele>270.0</ele><time>2026-03-29T08:43:54Z</time></trkpt><trkpt lat="45.72140349923253" lon="9.545662899922805"><ele>270.0</ele><time>2026-03-29T08:43:56Z</time></trkpt><trkpt lat="45.72149975867144" lon="9.545636863247589"><ele>270.0</ele><time>2026-03-29T08:43:58Z</time></trkpt><trkpt lat="45.72159631059421" lon="9.545614230554968"><ele>270.0</ele><time>2026-03-29T08:44:00Z</time></trkpt><trkpt lat="45.72168310682552" lon="9.545603715572321"><ele>270.0</ele><time>2026-03-29T08:44:02Z</time></trkpt><trkpt lat="45.721780162464164" lon="9.545554490543369"><ele>270.0</ele><time>2026-03-29T08:44:04Z</time></trkpt><trkpt lat="45.72188051451471" lon="9.545535601514349"><ele>270.0</ele><time>2026-03-29T08:44:06Z</time></trkpt><trkpt lat="45.72197506594272" lon="9.545500884266275"><ele>270.0</ele><time>2026-03-29T08:44:08Z</time></trkpt><trkpt lat="45.72206574576626" lon="9.545481631846673"><ele>270.0</ele><time>2026-03-29T08:44:10Z</time></trkpt><trkpt lat="45.7221720752697" lon="9.545452534222205"><ele>269.8</ele><time>2026-03-29T08:44:12Z</time></trkpt><trkpt lat="45.722266943418624" lon="9.545433760496303"><ele>269.6</ele><time>2026-03-29T08:44:14Z</time></trkpt><trkpt lat="45.72236240840926" lon="9.545411534746611"><ele>269.4</ele><time>2026-03-29T08:44:16Z</time></trkpt><trkpt lat="45.72246049038123" lon="9.545384115265087"><ele>269.2</ele><time>2026-03-29T08:44:18Z</time></trkpt><trkpt lat="45.72255981143465" lon="9.545360602638059"><ele>269.0</ele><time>2026-03-29T08:44:20Z</time></trkpt><trkpt lat="45.72265776152592" lon="9.545345813225902"><ele>270.0</ele><time>2026-03-29T08:44:22Z</time></trkpt><trkpt lat="45.72275741453611" lon="9.545308042833737"><ele>271.0</ele><time>2026-03-29T08:44:24Z</time></trkpt><trkpt lat="45.72284512693989" lon="9.545261989964656"><ele>272.0</ele><time>2026-03-29T08:44:26Z</time></trkpt><trkpt lat="45.722932088408605" lon="9.545193680385948"><ele>273.0</ele><time>2026-03-29T08:44:28Z</time></trkpt><trkpt lat="45.72302221507309" lon="9.545134459133333"><ele>274.0</ele><time>2026-03-29T08:44:30Z</time></trkpt><trkpt lat="45.72310900801562" lon="9.545074725317079"><ele>274.0</ele><time>2026-03-29T08:44:32Z</time></trkpt><trkpt lat="45.72318469285425" lon="9.544994677534785"><ele>274.0</ele><time>2026-03-29T08:44:34Z</time></trkpt><trkpt lat="45.72327424495337" lon="9.544955027856423"><ele>274.0</ele><time>2026-03-29T08:44:36Z</time></trkpt><trkpt lat="45.72335429059228" lon="9.544881976391007"><ele>274.0</ele><time>2026-03-29T08:44:38Z</time></trkpt><trkpt lat="45.72343973827257" lon="9.544792495507265"><ele>274.0</ele><time>2026-03-29T08:44:40Z</time></trkpt><trkpt lat="45.72353037599085" lon="9.544725172766734"><ele>273.59999999999997</ele><time>2026-03-29T08:44:42Z</time></trkpt><trkpt lat="45.72361641796445" lon="9.544618126568272"><ele>273.2</ele><time>2026-03-29T08:44:44Z</time></trkpt><trkpt lat="45.72369578622568" lon="9.54451271399647"><ele>272.79999999999995</ele><time>2026-03-29T08:44:46Z</time></trkpt><trkpt lat="45.72377447359656" lon="9.544424875181448"><ele>272.4</ele><time>2026-03-29T08:44:48Z</time></trkpt><trkpt lat="45.723852259817754" lon="9.544314586059793"><ele>272.0</ele><time>2026-03-29T08:44:50Z</time></trkpt><trkpt lat="45.723911986159116" lon="9.54421317874297"><ele>271.8</ele><time>2026-03-29T08:44:52Z</time></trkpt><trkpt lat="45.723985862602206" lon="9.544124111485619"><ele>271.6</ele><time>2026-03-29T08:44:54Z</time></trkpt><trkpt lat="45.72405247537726" lon="9.544023427133913"><ele>271.40000000000003</ele><time>2026-03-29T08:44:56Z</time></trkpt><trkpt lat="45.72411789863342" lon="9.543914687435372"><ele>271.2</ele><time>2026-03-29T08:44:58Z</time></trkpt><trkpt lat="45.724183775305804" lon="9.543798787464773"><ele>271.0</ele><time>2026-03-29T08:45:00Z</time></trkpt><trkpt lat="45.72424703602823" lon="9.543687394396622"><ele>271.0</ele><time>2026-03-29T08:45:02Z</time></trkpt><trkpt lat="45.72432333460566" lon="9.543592744332804"><ele>271.0</ele><time>2026-03-29T08:45:04Z</time></trkpt><trkpt lat="45.72438736065678" lon="9.543475151592714"><ele>271.0</ele><time>2026-03-29T08:45:06Z</time></trkpt><trkpt lat="45.724440747713075" lon="9.543361637175328"><ele>271.0</ele><time>2026-03-29T08:45:08Z</time></trkpt><trkpt lat="45.724501570130194" lon="9.543250718953926"><ele>271.0</ele><time>2026-03-29T08:45:10Z</time></trkpt><trkpt lat="45.724547762399276" lon="9.543134946199919"><ele>271.0</ele><time>2026-03-29T08:45:12Z</time></trkpt><trkpt lat="45.7245888547348" lon="9.542992769629944"><ele>271.0</ele><time>2026-03-29T08:45:14Z</time></trkpt><trkpt lat="45.724621511024004" lon="9.542853555902783"><ele>271.0</ele><time>2026-03-29T08:45:16Z</time></trkpt><trkpt lat="45.72466071796516" lon="9.542714298136692"><ele>271.0</ele><time>2026-03-29T08:45:18Z</time></trkpt><trkpt lat="45.72469752996108" lon="9.542589266634067"><ele>271.0</ele><time>2026-03-29T08:45:20Z</time></trkpt><trkpt lat="45.724740749539826" lon="9.542462530216893"><ele>271.0</ele><time>2026-03-29T08:45:22Z</time></trkpt><trkpt lat="45.72479239460119" lon="9.54233640079282"><ele>271.0</ele><time>2026-03-29T08:45:24Z</time></trkpt><trkpt lat="45.724855520498735" lon="9.542207199470424"><ele>271.0</ele><time>2026-03-29T08:45:26Z</time></trkpt><trkpt lat="45.72492525185976" lon="9.542092862379674"><ele>271.0</ele><time>2026-03-29T08:45:28Z</time></trkpt><trkpt lat="45.72498817279632" lon="9.541970535805932"><ele>271.0</ele><time>2026-03-29T08:45:30Z</time></trkpt><trkpt lat="45.725052983333754" lon="9.541862107326242"><ele>271.6</ele><time>2026-03-29T08:45:32Z</time></trkpt><trkpt lat="45.725118723739" lon="9.541758889591334"><ele>272.20000000000005</ele><time>2026-03-29T08:45:34Z</time></trkpt><trkpt lat="45.72517837276723" lon="9.541650393710295"><ele>272.79999999999995</ele><time>2026-03-29T08:45:36Z</time></trkpt><trkpt lat="45.72524400692782" lon="9.54152874961132"><ele>273.4</ele><time>2026-03-29T08:45:38Z</time></trkpt><trkpt lat="45.72530812905612" lon="9.541425177307376"><ele>274.0</ele><time>2026-03-29T08:45:40Z</time></trkpt><trkpt lat="45.725375280307205" lon="9.541314125754289"><ele>274.2</ele><time>2026-03-29T08:45:42Z</time></trkpt><trkpt lat="45.72544021362937" lon="9.54119835814329"><ele>274.4</ele><time>2026-03-29T08:45:44Z</time></trkpt><trkpt lat="45.72551540341688" lon="9.541094772060879"><ele>274.6</ele><time>2026-03-29T08:45:46Z</time></trkpt><trkpt lat="45.72556477269775" lon="9.541000668395966"><ele>274.8</ele><time>2026-03-29T08:45:48Z</time></trkpt><trkpt lat="45.725604378777064" lon="9.540911216681925"><ele>275.0</ele><time>2026-03-29T08:45:50Z</time></trkpt><trkpt lat="45.7256440323405" lon="9.54079371900269"><ele>275.0</ele><time>2026-03-29T08:45:52Z</time></trkpt><trkpt lat="45.725660763971355" lon="9.540673057554741"><ele>275.0</ele><time>2026-03-29T08:45:54Z</time></trkpt><trkpt lat="45.7256748072487" lon="9.540541651837161"><ele>275.0</ele><time>2026-03-29T08:45:56Z</time></trkpt><trkpt lat="45.72568541352231" lon="9.540415215620177"><ele>275.0</ele><time>2026-03-29T08:45:58Z</time></trkpt><trkpt lat="45.72569975136965" lon="9.540288681225928"><ele>275.0</ele><time>2026-03-29T08:46:00Z</time></trkpt><trkpt lat="45.72571687174001" lon="9.540168894679061"><ele>275.0</ele><time>2026-03-29T08:46:02Z</time></trkpt><trkpt lat="45.72572532905493" lon="9.54005482576697"><ele>274.83333333333337</ele><time>2026-03-29T08:46:04Z</time></trkpt><trkpt lat="45.725732515318484" lon="9.539945454019323"><ele>274.6666666666667</ele><time>2026-03-29T08:46:06Z</time></trkpt><trkpt lat="45.72567622667845" lon="9.539853827188132"><ele>274.5</ele><time>2026-03-29T08:46:09Z</time></trkpt><trkpt lat="45.725604157945746" lon="9.539842280670424"><ele>274.3333333333333</ele><time>2026-03-29T08:46:11Z</time></trkpt><trkpt lat="45.725574472560304" lon="9.539752225529645"><ele>274.16666666666663</ele><time>2026-03-29T08:46:13Z</time></trkpt><trkpt lat="45.72560357903856" lon="9.539600133415398"><ele>274.0</ele><time>2026-03-29T08:46:15Z</time></trkpt><trkpt lat="45.725612965760234" lon="9.539456669847901"><ele>274.0</ele><time>2026-03-29T08:46:17Z</time></trkpt><trkpt lat="45.72560145123986" lon="9.539321228391724"><ele>274.0</ele><time>2026-03-29T08:46:19Z</time></trkpt><trkpt lat="45.72556323080844" lon="9.539185857371697"><ele>274.0</ele><time>2026-03-29T08:46:21Z</time></trkpt><trkpt lat="45.72553035990639" lon="9.539050703470942"><ele>274.0</ele><time>2026-03-29T08:46:23Z</time></trkpt><trkpt lat="45.72549464117385" lon="9.538925409391766"><ele>274.0</ele><time>2026-03-29T08:46:25Z</time></trkpt><trkpt lat="45.72544812786118" lon="9.53880149010444"><ele>273.8</ele><time>2026-03-29T08:46:27Z</time></trkpt><trkpt lat="45.72540016456223" lon="9.538688141074093"><ele>273.59999999999997</ele><time>2026-03-29T08:46:29Z</time></trkpt><trkpt lat="45.72534697918906" lon="9.538577791979087"><ele>273.4</ele><time>2026-03-29T08:46:31Z</time></trkpt><trkpt lat="45.725304704321886" lon="9.538454688074914"><ele>273.2</ele><time>2026-03-29T08:46:33Z</time></trkpt><trkpt lat="45.72530463340767" lon="9.538317389777825"><ele>273.0</ele><time>2026-03-29T08:46:35Z</time></trkpt><trkpt lat="45.72528724469001" lon="9.538189918426497"><ele>273.0</ele><time>2026-03-29T08:46:37Z</time></trkpt><trkpt lat="45.72525504472797" lon="9.538065174760847"><ele>273.0</ele><time>2026-03-29T08:46:39Z</time></trkpt><trkpt lat="45.725192602745736" lon="9.537946063220376"><ele>273.0</ele><time>2026-03-29T08:46:41Z</time></trkpt><trkpt lat="45.72512632013129" lon="9.537843083751733"><ele>273.0</ele><time>2026-03-29T08:46:43Z</time></trkpt><trkpt lat="45.7250468578332" lon="9.537757441873252"><ele>273.0</ele><time>2026-03-29T08:46:45Z</time></trkpt><trkpt lat="45.724985901747935" lon="9.537656853027851"><ele>273.4</ele><time>2026-03-29T08:46:47Z</time></trkpt><trkpt lat="45.72490300178138" lon="9.53756817513948"><ele>273.8</ele><time>2026-03-29T08:46:49Z</time></trkpt><trkpt lat="45.724835503919216" lon="9.537466432123516"><ele>274.2</ele><time>2026-03-29T08:46:51Z</time></trkpt><trkpt lat="45.72477272981983" lon="9.537336121949778"><ele>274.6</ele><time>2026-03-29T08:46:53Z</time></trkpt><trkpt lat="45.724756003053784" lon="9.537187251949584"><ele>275.0</ele><time>2026-03-29T08:46:55Z</time></trkpt><trkpt lat="45.72474858925005" lon="9.537041682887198"><ele>275.0</ele><time>2026-03-29T08:46:57Z</time></trkpt><trkpt lat="45.72473597976112" lon="9.536899793066878"><ele>275.0</ele><time>2026-03-29T08:46:59Z</time></trkpt><trkpt lat="45.724736885126084" lon="9.536760881381324"><ele>275.0</ele><time>2026-03-29T08:47:01Z</time></trkpt><trkpt lat="45.724759648524355" lon="9.536612287775228"><ele>275.0</ele><time>2026-03-29T08:47:03Z</time></trkpt><trkpt lat="45.724767447567615" lon="9.53646651151675"><ele>275.0</ele><time>2026-03-29T08:47:05Z</time></trkpt><trkpt lat="45.724766930975356" lon="9.536352235389046"><ele>275.0</ele><time>2026-03-29T08:47:07Z</time></trkpt><trkpt lat="45.72478658928932" lon="9.536220155225562"><ele>275.0</ele><time>2026-03-29T08:47:09Z</time></trkpt><trkpt lat="45.72479152493164" lon="9.5360997602119"><ele>275.0</ele><time>2026-03-29T08:47:11Z</time></trkpt><trkpt lat="45.72479554099876" lon="9.535996346498056"><ele>275.0</ele><time>2026-03-29T08:47:13Z</time></trkpt><trkpt lat="45.724756657847315" lon="9.535888319901414"><ele>275.0</ele><time>2026-03-29T08:47:16Z</time></trkpt><trkpt lat="45.72468126236519" lon="9.535896873585374"><ele>275.0</ele><time>2026-03-29T08:47:18Z</time></trkpt><trkpt lat="45.72459259228007" lon="9.53589196764405"><ele>275.2</ele><time>2026-03-29T08:47:21Z</time></trkpt><trkpt lat="45.72457787153797" lon="9.535759438953809"><ele>275.4</ele><time>2026-03-29T08:47:23Z</time></trkpt><trkpt lat="45.724614679116385" lon="9.535679003535018"><ele>275.6</ele><time>2026-03-29T08:47:24Z</time></trkpt><trkpt lat="45.724671742926354" lon="9.535556424556102"><ele>275.8</ele><time>2026-03-29T08:47:26Z</time></trkpt><trkpt lat="45.72472887102029" lon="9.535422074165524"><ele>276.0</ele><time>2026-03-29T08:47:28Z</time></trkpt><trkpt lat="45.72477721181461" lon="9.53527907482308"><ele>276.40000000000003</ele><time>2026-03-29T08:47:30Z</time></trkpt><trkpt lat="45.7247957810381" lon="9.535138617348444"><ele>276.8</ele><time>2026-03-29T08:47:32Z</time></trkpt><trkpt lat="45.724817308148545" lon="9.535006914466685"><ele>277.20000000000005</ele><time>2026-03-29T08:47:34Z</time></trkpt><trkpt lat="45.72485072850993" lon="9.534862914384046"><ele>277.6</ele><time>2026-03-29T08:47:36Z</time></trkpt><trkpt lat="45.724874260585956" lon="9.53471424076381"><ele>278.0</ele><time>2026-03-29T08:47:38Z</time></trkpt><trkpt lat="45.724908449951585" lon="9.534562038337553"><ele>278.4</ele><time>2026-03-29T08:47:40Z</time></trkpt><trkpt lat="45.72492290499121" lon="9.53440929726203"><ele>278.8</ele><time>2026-03-29T08:47:42Z</time></trkpt><trkpt lat="45.72493944586474" lon="9.534258184462804"><ele>279.2</ele><time>2026-03-29T08:47:44Z</time></trkpt><trkpt lat="45.72496480484992" lon="9.534111801643842"><ele>279.6</ele><time>2026-03-29T08:47:46Z</time></trkpt><trkpt lat="45.72497796453543" lon="9.533960335252775"><ele>280.0</ele><time>2026-03-29T08:47:48Z</time></trkpt><trkpt lat="45.725009005701615" lon="9.533809921157655"><ele>280.66666666666663</ele><time>2026-03-29T08:47:50Z</time></trkpt><trkpt lat="45.725037189567416" lon="9.533656351902339"><ele>281.3333333333333</ele><time>2026-03-29T08:47:52Z</time></trkpt><trkpt lat="45.72505482998422" lon="9.533528542820548"><ele>282.0</ele><time>2026-03-29T08:47:55Z</time></trkpt><trkpt lat="45.72507630965569" lon="9.533411549969053"><ele>282.6666666666667</ele><time>2026-03-29T08:47:57Z</time></trkpt><trkpt lat="45.725078605741224" lon="9.533310705488333"><ele>283.33333333333337</ele><time>2026-03-29T08:47:59Z</time></trkpt><trkpt lat="45.72507725514432" lon="9.533190954081242"><ele>284.0</ele><time>2026-03-29T08:48:02Z</time></trkpt><trkpt lat="45.72509354847581" lon="9.533064359488895"><ele>284.0</ele><time>2026-03-29T08:48:05Z</time></trkpt><trkpt lat="45.725150728081886" lon="9.532953490731218"><ele>284.0</ele><time>2026-03-29T08:48:07Z</time></trkpt><trkpt lat="45.72523304019621" lon="9.532956037945429"><ele>284.0</ele><time>2026-03-29T08:48:09Z</time></trkpt><trkpt lat="45.72529547658427" lon="9.532967731979577"><ele>284.0</ele><time>2026-03-29T08:48:10Z</time></trkpt><trkpt lat="45.72539484672914" lon="9.532983035472736"><ele>284.0</ele><time>2026-03-29T08:48:12Z</time></trkpt><trkpt lat="45.72549937881603" lon="9.533022583906629"><ele>282.8</ele><time>2026-03-29T08:48:14Z</time></trkpt><trkpt lat="45.72558215971573" lon="9.533029314814092"><ele>281.59999999999997</ele><time>2026-03-29T08:48:16Z</time></trkpt><trkpt lat="45.72567247651696" lon="9.533025611073723"><ele>280.4</ele><time>2026-03-29T08:48:18Z</time></trkpt><trkpt lat="45.72575721998307" lon="9.532958175361827"><ele>279.2</ele><time>2026-03-29T08:48:20Z</time></trkpt><trkpt lat="45.72581038411193" lon="9.532833820521327"><ele>278.0</ele><time>2026-03-29T08:48:22Z</time></trkpt><trkpt lat="45.72584000327512" lon="9.532670204011119"><ele>278.0</ele><time>2026-03-29T08:48:24Z</time></trkpt><trkpt lat="45.72587146653461" lon="9.532524121593056"><ele>278.0</ele><time>2026-03-29T08:48:26Z</time></trkpt><trkpt lat="45.72590610979098" lon="9.532394777274826"><ele>278.0</ele><time>2026-03-29T08:48:28Z</time></trkpt><trkpt lat="45.72591870300488" lon="9.532261225696525"><ele>278.0</ele><time>2026-03-29T08:48:30Z</time></trkpt><trkpt lat="45.725920486839954" lon="9.532142277390685"><ele>278.0</ele><time>2026-03-29T08:48:32Z</time></trkpt><trkpt lat="45.72597371401473" lon="9.532055925211237"><ele>278.1666666666667</ele><time>2026-03-29T08:48:34Z</time></trkpt><trkpt lat="45.726013766340614" lon="9.531958724253093"><ele>278.33333333333337</ele><time>2026-03-29T08:48:38Z</time></trkpt><trkpt lat="45.726001849033466" lon="9.5318360719661"><ele>278.5</ele><time>2026-03-29T08:48:40Z</time></trkpt><trkpt lat="45.725992049165356" lon="9.531716741236485"><ele>278.6666666666667</ele><time>2026-03-29T08:48:42Z</time></trkpt><trkpt lat="45.72597584039901" lon="9.53160156364824"><ele>278.8333333333333</ele><time>2026-03-29T08:48:44Z</time></trkpt><trkpt lat="45.725962538412666" lon="9.531491120939656"><ele>279.0</ele><time>2026-03-29T08:48:46Z</time></trkpt><trkpt lat="45.72595725519097" lon="9.531381245795751"><ele>279.0</ele><time>2026-03-29T08:48:48Z</time></trkpt><trkpt lat="45.72595193657397" lon="9.531274674284415"><ele>279.0</ele><time>2026-03-29T08:48:50Z</time></trkpt><trkpt lat="45.72593358635088" lon="9.531159611042858"><ele>279.0</ele><time>2026-03-29T08:48:52Z</time></trkpt><trkpt lat="45.72591581782153" lon="9.531043180884206"><ele>279.0</ele><time>2026-03-29T08:48:54Z</time></trkpt><trkpt lat="45.725894788923355" lon="9.53092375658425"><ele>279.0</ele><time>2026-03-29T08:48:56Z</time></trkpt><trkpt lat="45.72586038002188" lon="9.53080607252566"><ele>279.0</ele><time>2026-03-29T08:48:58Z</time></trkpt><trkpt lat="45.72582499196407" lon="9.530686382875782"><ele>279.1666666666667</ele><time>2026-03-29T08:49:00Z</time></trkpt><trkpt lat="45.72579291533537" lon="9.530569130798689"><ele>279.3333333333333</ele><time>2026-03-29T08:49:02Z</time></trkpt><trkpt lat="45.7257649519284" lon="9.53044356361292"><ele>279.5</ele><time>2026-03-29T08:49:04Z</time></trkpt><trkpt lat="45.725729634908426" lon="9.530321590994792"><ele>279.66666666666663</ele><time>2026-03-29T08:49:06Z</time></trkpt><trkpt lat="45.72569419749045" lon="9.530206840491898"><ele>279.8333333333333</ele><time>2026-03-29T08:49:08Z</time></trkpt><trkpt lat="45.72566160802846" lon="9.53008706373124"><ele>280.0</ele><time>2026-03-29T08:49:10Z</time></trkpt><trkpt lat="45.725636659980644" lon="9.529968468874033"><ele>280.66666666666663</ele><time>2026-03-29T08:49:12Z</time></trkpt><trkpt lat="45.725635072518166" lon="9.529846080556954"><ele>281.3333333333333</ele><time>2026-03-29T08:49:14Z</time></trkpt><trkpt lat="45.72563644522774" lon="9.529718044556105"><ele>282.0</ele><time>2026-03-29T08:49:16Z</time></trkpt><trkpt lat="45.72565768822022" lon="9.5295876504738"><ele>282.6666666666667</ele><time>2026-03-29T08:49:18Z</time></trkpt><trkpt lat="45.725667089967466" lon="9.529458805881776"><ele>283.33333333333337</ele><time>2026-03-29T08:49:20Z</time></trkpt><trkpt lat="45.72566885327459" lon="9.529334612141053"><ele>284.0</ele><time>2026-03-29T08:49:22Z</time></trkpt><trkpt lat="45.72567825104008" lon="9.52923906017346"><ele>284.5</ele><time>2026-03-29T08:49:24Z</time></trkpt><trkpt lat="45.725691013952456" lon="9.52914570779096"><ele>285.0</ele><time>2026-03-29T08:49:28Z</time></trkpt><trkpt lat="45.725662312574016" lon="9.529046137351832"><ele>285.5</ele><time>2026-03-29T08:49:32Z</time></trkpt><trkpt lat="45.72563362143239" lon="9.528904157902899"><ele>286.0</ele><time>2026-03-29T08:49:36Z</time></trkpt><trkpt lat="45.72561404541305" lon="9.528781150406537"><ele>286.5</ele><time>2026-03-29T08:49:38Z</time></trkpt><trkpt lat="45.72559736697903" lon="9.528661105581508"><ele>287.0</ele><time>2026-03-29T08:49:41Z</time></trkpt><trkpt lat="45.725580982694886" lon="9.52854442040662"><ele>287.1666666666667</ele><time>2026-03-29T08:49:44Z</time></trkpt><trkpt lat="45.725567308832176" lon="9.528433418599159"><ele>287.33333333333337</ele><time>2026-03-29T08:49:46Z</time></trkpt><trkpt lat="45.725632841022275" lon="9.528389809139295"><ele>287.5</ele><time>2026-03-29T08:49:48Z</time></trkpt><trkpt lat="45.72571791529103" lon="9.52832535562329"><ele>287.6666666666667</ele><time>2026-03-29T08:49:53Z</time></trkpt><trkpt lat="45.725805037957855" lon="9.528299111777033"><ele>287.8333333333333</ele><time>2026-03-29T08:49:55Z</time></trkpt><trkpt lat="45.72591377322378" lon="9.528285348982603"><ele>288.0</ele><time>2026-03-29T08:49:57Z</time></trkpt><trkpt lat="45.72597644441503" lon="9.528257667295687"><ele>288.0</ele><time>2026-03-29T08:49:59Z</time></trkpt><trkpt lat="45.72600724086469" lon="9.52809764689322"><ele>288.0</ele><time>2026-03-29T08:50:01Z</time></trkpt><trkpt lat="45.72603279047943" lon="9.52795311742365"><ele>288.0</ele><time>2026-03-29T08:50:03Z</time></trkpt><trkpt lat="45.72603286899392" lon="9.527837385792594"><ele>288.0</ele><time>2026-03-29T08:50:05Z</time></trkpt><trkpt lat="45.72606428733385" lon="9.527702968302668"><ele>288.0</ele><time>2026-03-29T08:50:07Z</time></trkpt><trkpt lat="45.72610206550226" lon="9.527580635889786"><ele>288.2</ele><time>2026-03-29T08:50:09Z</time></trkpt><trkpt lat="45.72610974698822" lon="9.527425768499532"><ele>288.4</ele><time>2026-03-29T08:50:11Z</time></trkpt><trkpt lat="45.72613760060635" lon="9.527288971206595"><ele>288.59999999999997</ele><time>2026-03-29T08:50:13Z</time></trkpt><trkpt lat="45.7261515136524" lon="9.52716135157191"><ele>288.8</ele><time>2026-03-29T08:50:15Z</time></trkpt><trkpt lat="45.72616123765851" lon="9.527020646367733"><ele>289.0</ele><time>2026-03-29T08:50:17Z</time></trkpt><trkpt lat="45.726167650453384" lon="9.526873697611933"><ele>289.0</ele><time>2026-03-29T08:50:19Z</time></trkpt><trkpt lat="45.72618164254053" lon="9.526731680753583"><ele>289.0</ele><time>2026-03-29T08:50:21Z</time></trkpt><trkpt lat="45.72618512870889" lon="9.526596534185726"><ele>289.0</ele><time>2026-03-29T08:50:23Z</time></trkpt><trkpt lat="45.7262077556375" lon="9.526461731454908"><ele>289.0</ele><time>2026-03-29T08:50:25Z</time></trkpt><trkpt lat="45.726222786130236" lon="9.526326895475174"><ele>289.0</ele><time>2026-03-29T08:50:27Z</time></trkpt><trkpt lat="45.72622768077291" lon="9.526187883007514"><ele>289.2</ele><time>2026-03-29T08:50:29Z</time></trkpt><trkpt lat="45.726241964541195" lon="9.52605058888154"><ele>289.4</ele><time>2026-03-29T08:50:31Z</time></trkpt><trkpt lat="45.72625847992032" lon="9.525917162893512"><ele>289.6</ele><time>2026-03-29T08:50:33Z</time></trkpt><trkpt lat="45.72631223636211" lon="9.52579191731123"><ele>289.8</ele><time>2026-03-29T08:50:35Z</time></trkpt><trkpt lat="45.72631559355379" lon="9.525638392958738"><ele>290.0</ele><time>2026-03-29T08:50:37Z</time></trkpt><trkpt lat="45.72630757662163" lon="9.525490677678992"><ele>290.0</ele><time>2026-03-29T08:50:39Z</time></trkpt><trkpt lat="45.726318576330655" lon="9.525348967229444"><ele>290.0</ele><time>2026-03-29T08:50:41Z</time></trkpt><trkpt lat="45.72633194133193" lon="9.525212840963983"><ele>290.0</ele><time>2026-03-29T08:50:43Z</time></trkpt><trkpt lat="45.7263353426337" lon="9.525076393852679"><ele>290.0</ele><time>2026-03-29T08:50:45Z</time></trkpt><trkpt lat="45.72634748258028" lon="9.524946355589552"><ele>290.0</ele><time>2026-03-29T08:50:47Z</time></trkpt><trkpt lat="45.726357282224036" lon="9.524818184539424"><ele>290.0</ele><time>2026-03-29T08:50:49Z</time></trkpt><trkpt lat="45.72636239515969" lon="9.524683931567285"><ele>290.0</ele><time>2026-03-29T08:50:51Z</time></trkpt><trkpt lat="45.726365941729384" lon="9.524546070671676"><ele>290.0</ele><time>2026-03-29T08:50:53Z</time></trkpt><trkpt lat="45.72636431506183" lon="9.524412391582182"><ele>290.0</ele><time>2026-03-29T08:50:55Z</time></trkpt><trkpt lat="45.72637673508686" lon="9.524276858397814"><ele>290.0</ele><time>2026-03-29T08:50:57Z</time></trkpt><trkpt lat="45.7263956486115" lon="9.524148795920423"><ele>290.33333333333337</ele><time>2026-03-29T08:50:59Z</time></trkpt><trkpt lat="45.726411980494376" lon="9.524013318567155"><ele>290.6666666666667</ele><time>2026-03-29T08:51:01Z</time></trkpt><trkpt lat="45.7264237989917" lon="9.523887458231442"><ele>291.0</ele><time>2026-03-29T08:51:03Z</time></trkpt><trkpt lat="45.72642511918711" lon="9.52376010420923"><ele>291.3333333333333</ele><time>2026-03-29T08:51:05Z</time></trkpt><trkpt lat="45.72644655494047" lon="9.523649267579229"><ele>291.66666666666663</ele><time>2026-03-29T08:51:07Z</time></trkpt><trkpt lat="45.72643334379103" lon="9.523514008608624"><ele>292.0</ele><time>2026-03-29T08:51:09Z</time></trkpt><trkpt lat="45.72642102849769" lon="9.523366121607156"><ele>293.0</ele><time>2026-03-29T08:51:11Z</time></trkpt><trkpt lat="45.72642633295593" lon="9.523221546228935"><ele>294.0</ele><time>2026-03-29T08:51:13Z</time></trkpt><trkpt lat="45.72643633860543" lon="9.523078380393939"><ele>295.0</ele><time>2026-03-29T08:51:15Z</time></trkpt><trkpt lat="45.726450502545426" lon="9.522931390611964"><ele>296.0</ele><time>2026-03-29T08:51:17Z</time></trkpt><trkpt lat="45.72645108097763" lon="9.522789725146838"><ele>297.0</ele><time>2026-03-29T08:51:19Z</time></trkpt><trkpt lat="45.72645251902767" lon="9.522645796875464"><ele>297.2</ele><time>2026-03-29T08:51:21Z</time></trkpt><trkpt lat="45.726440556613355" lon="9.522512518564982"><ele>297.4</ele><time>2026-03-29T08:51:23Z</time></trkpt><trkpt lat="45.72645778472549" lon="9.522372273775838"><ele>297.6</ele><time>2026-03-29T08:51:25Z</time></trkpt><trkpt lat="45.72645089465819" lon="9.522236156814168"><ele>297.8</ele><time>2026-03-29T08:51:27Z</time></trkpt><trkpt lat="45.72643378309302" lon="9.52210361788028"><ele>298.0</ele><time>2026-03-29T08:51:29Z</time></trkpt><trkpt lat="45.72643085144237" lon="9.521963659180114"><ele>298.0</ele><time>2026-03-29T08:51:31Z</time></trkpt><trkpt lat="45.726439876724875" lon="9.521855970816407"><ele>298.0</ele><time>2026-03-29T08:51:33Z</time></trkpt><trkpt lat="45.726431619715505" lon="9.521716968567732"><ele>298.0</ele><time>2026-03-29T08:51:35Z</time></trkpt><trkpt lat="45.726392896817345" lon="9.521596319901962"><ele>298.0</ele><time>2026-03-29T08:51:37Z</time></trkpt><trkpt lat="45.726363525156266" lon="9.521467989899572"><ele>298.0</ele><time>2026-03-29T08:51:39Z</time></trkpt><trkpt lat="45.72632601921288" lon="9.521327595092778"><ele>297.8</ele><time>2026-03-29T08:51:41Z</time></trkpt><trkpt lat="45.72628226335665" lon="9.521197440350143"><ele>297.6</ele><time>2026-03-29T08:51:43Z</time></trkpt><trkpt lat="45.72624866571369" lon="9.52107200341143"><ele>297.4</ele><time>2026-03-29T08:51:45Z</time></trkpt><trkpt lat="45.726229410582945" lon="9.520948558792927"><ele>297.2</ele><time>2026-03-29T08:51:47Z</time></trkpt><trkpt lat="45.72620139543009" lon="9.520815591437046"><ele>297.0</ele><time>2026-03-29T08:51:49Z</time></trkpt><trkpt lat="45.72621611081165" lon="9.520677613962441"><ele>297.0</ele><time>2026-03-29T08:51:51Z</time></trkpt><trkpt lat="45.72622743546239" lon="9.52053662356438"><ele>297.0</ele><time>2026-03-29T08:51:53Z</time></trkpt><trkpt lat="45.726245852770546" lon="9.520400234503601"><ele>297.0</ele><time>2026-03-29T08:51:55Z</time></trkpt><trkpt lat="45.726254475461815" lon="9.520254654171655"><ele>297.0</ele><time>2026-03-29T08:51:57Z</time></trkpt><trkpt lat="45.72625404185385" lon="9.520108752671904"><ele>297.0</ele><time>2026-03-29T08:51:59Z</time></trkpt><trkpt lat="45.72625158534658" lon="9.519969018588952"><ele>297.2</ele><time>2026-03-29T08:52:01Z</time></trkpt><trkpt lat="45.726253792909795" lon="9.51982269959509"><ele>297.4</ele><time>2026-03-29T08:52:03Z</time></trkpt><trkpt lat="45.72626013202224" lon="9.519680265482384"><ele>297.6</ele><time>2026-03-29T08:52:05Z</time></trkpt><trkpt lat="45.72628185575855" lon="9.519551293040582"><ele>297.8</ele><time>2026-03-29T08:52:07Z</time></trkpt><trkpt lat="45.72630303673761" lon="9.519422652713443"><ele>298.0</ele><time>2026-03-29T08:52:09Z</time></trkpt><trkpt lat="45.726321970418425" lon="9.519284726834863"><ele>298.6</ele><time>2026-03-29T08:52:11Z</time></trkpt><trkpt lat="45.72633470502016" lon="9.519147074301596"><ele>299.20000000000005</ele><time>2026-03-29T08:52:13Z</time></trkpt><trkpt lat="45.726346688012036" lon="9.519023168165408"><ele>299.8</ele><time>2026-03-29T08:52:15Z</time></trkpt><trkpt lat="45.7263648167972" lon="9.518882392019135"><ele>300.40000000000003</ele><time>2026-03-29T08:52:17Z</time></trkpt><trkpt lat="45.7263563828105" lon="9.51873028561794"><ele>301.0</ele><time>2026-03-29T08:52:19Z</time></trkpt><trkpt lat="45.72635008176046" lon="9.518608877606175"><ele>301.8</ele><time>2026-03-29T08:52:21Z</time></trkpt><trkpt lat="45.72633094659719" lon="9.518473872767279"><ele>302.6</ele><time>2026-03-29T08:52:23Z</time></trkpt><trkpt lat="45.72631040488542" lon="9.518328854851388"><ele>303.4</ele><time>2026-03-29T08:52:25Z</time></trkpt><trkpt lat="45.72630931265241" lon="9.518197394136735"><ele>304.2</ele><time>2026-03-29T08:52:27Z</time></trkpt><trkpt lat="45.72629796399934" lon="9.518065381349466"><ele>305.0</ele><time>2026-03-29T08:52:29Z</time></trkpt><trkpt lat="45.726310757471595" lon="9.517943629743561"><ele>306.0</ele><time>2026-03-29T08:52:31Z</time></trkpt><trkpt lat="45.726331589560004" lon="9.517810542034315"><ele>307.0</ele><time>2026-03-29T08:52:33Z</time></trkpt><trkpt lat="45.726339344545664" lon="9.517682954202249"><ele>308.0</ele><time>2026-03-29T08:52:35Z</time></trkpt><trkpt lat="45.72635964886367" lon="9.51755293913972"><ele>309.0</ele><time>2026-03-29T08:52:37Z</time></trkpt><trkpt lat="45.72636725939545" lon="9.517413981102344"><ele>310.0</ele><time>2026-03-29T08:52:39Z</time></trkpt><trkpt lat="45.726384559598735" lon="9.517287863040565"><ele>310.0</ele><time>2026-03-29T08:52:41Z</time></trkpt><trkpt lat="45.72639929862006" lon="9.517161605019517"><ele>310.0</ele><time>2026-03-29T08:52:43Z</time></trkpt><trkpt lat="45.72639382682378" lon="9.517043515251718"><ele>310.0</ele><time>2026-03-29T08:52:45Z</time></trkpt><trkpt lat="45.72637629812208" lon="9.516925171466497"><ele>310.0</ele><time>2026-03-29T08:52:47Z</time></trkpt><trkpt lat="45.726351574353956" lon="9.516801749611835"><ele>310.0</ele><time>2026-03-29T08:52:49Z</time></trkpt><trkpt lat="45.72631189558936" lon="9.516661412365908"><ele>311.0</ele><time>2026-03-29T08:52:51Z</time></trkpt><trkpt lat="45.72629458197126" lon="9.516550497332714"><ele>312.0</ele><time>2026-03-29T08:52:53Z</time></trkpt><trkpt lat="45.72627661897923" lon="9.51644399304032"><ele>313.0</ele><time>2026-03-29T08:52:55Z</time></trkpt><trkpt lat="45.72625065797168" lon="9.516339306643792"><ele>314.0</ele><time>2026-03-29T08:52:57Z</time></trkpt><trkpt lat="45.72621677587486" lon="9.516215301956947"><ele>315.0</ele><time>2026-03-29T08:52:59Z</time></trkpt><trkpt lat="45.72617377745291" lon="9.516101123518991"><ele>316.0</ele><time>2026-03-29T08:53:01Z</time></trkpt><trkpt lat="45.72611696718544" lon="9.51601462547694"><ele>315.8333333333333</ele><time>2026-03-29T08:53:03Z</time></trkpt><trkpt lat="45.72605835135724" lon="9.515928922345136"><ele>315.66666666666663</ele><time>2026-03-29T08:53:05Z</time></trkpt><trkpt lat="45.72600134467894" lon="9.51585595244125"><ele>315.5</ele><time>2026-03-29T08:53:07Z</time></trkpt><trkpt lat="45.72595945594885" lon="9.515728014969522"><ele>315.3333333333333</ele><time>2026-03-29T08:53:09Z</time></trkpt><trkpt lat="45.725930238094094" lon="9.515601387290292"><ele>315.1666666666667</ele><time>2026-03-29T08:53:11Z</time></trkpt><trkpt lat="45.725927154635436" lon="9.515480020440982"><ele>315.0</ele><time>2026-03-29T08:53:13Z</time></trkpt><trkpt lat="45.725922472370335" lon="9.515359809777955"><ele>315.0</ele><time>2026-03-29T08:53:15Z</time></trkpt><trkpt lat="45.72592056596897" lon="9.515242733317544"><ele>315.0</ele><time>2026-03-29T08:53:17Z</time></trkpt><trkpt lat="45.7259278413063" lon="9.515126950934322"><ele>315.0</ele><time>2026-03-29T08:53:19Z</time></trkpt><trkpt lat="45.725916707585526" lon="9.515012807873246"><ele>315.0</ele><time>2026-03-29T08:53:21Z</time></trkpt><trkpt lat="45.72588432787843" lon="9.514907099712003"><ele>315.0</ele><time>2026-03-29T08:53:23Z</time></trkpt><trkpt lat="45.725879047710954" lon="9.514805236091066"><ele>315.0</ele><time>2026-03-29T08:53:25Z</time></trkpt><trkpt lat="45.72589056925583" lon="9.51468736610546"><ele>315.0</ele><time>2026-03-29T08:53:28Z</time></trkpt><trkpt lat="45.72581077996966" lon="9.514659867506916"><ele>315.0</ele><time>2026-03-29T08:53:31Z</time></trkpt><trkpt lat="45.725748345476056" lon="9.514677289052539"><ele>315.0</ele><time>2026-03-29T08:53:33Z</time></trkpt><trkpt lat="45.72564059038976" lon="9.514552912732702"><ele>315.0</ele><time>2026-03-29T08:53:36Z</time></trkpt><trkpt lat="45.7255782789397" lon="9.514469844926952"><ele>315.0</ele><time>2026-03-29T08:53:38Z</time></trkpt><trkpt lat="45.725573612196285" lon="9.514340964235718"><ele>315.3333333333333</ele><time>2026-03-29T08:53:40Z</time></trkpt><trkpt lat="45.72556227801581" lon="9.514251735647617"><ele>315.6666666666667</ele><time>2026-03-29T08:53:42Z</time></trkpt><trkpt lat="45.72556518027082" lon="9.514141655199708"><ele>316.0</ele><time>2026-03-29T08:53:44Z</time></trkpt><trkpt lat="45.72560312932477" lon="9.514041084158785"><ele>316.33333333333337</ele><time>2026-03-29T08:53:46Z</time></trkpt><trkpt lat="45.7256321300946" lon="9.513924389950466"><ele>316.6666666666667</ele><time>2026-03-29T08:53:48Z</time></trkpt><trkpt lat="45.725648056446424" lon="9.513814745426638"><ele>317.0</ele><time>2026-03-29T08:53:50Z</time></trkpt><trkpt lat="45.725672117432325" lon="9.51370023934708"><ele>317.2857142857143</ele><time>2026-03-29T08:53:52Z</time></trkpt><trkpt lat="45.72568253217898" lon="9.5135894625332"><ele>317.57142857142856</ele><time>2026-03-29T08:53:54Z</time></trkpt><trkpt lat="45.725690371662374" lon="9.513493576841679"><ele>317.8571428571429</ele><time>2026-03-29T08:53:56Z</time></trkpt><trkpt lat="45.72569406146017" lon="9.51338568021489"><ele>318.1428571428571</ele><time>2026-03-29T08:53:58Z</time></trkpt><trkpt lat="45.72571427370893" lon="9.513282711913732"><ele>318.4285714285714</ele><time>2026-03-29T08:54:00Z</time></trkpt><trkpt lat="45.725717504924084" lon="9.513188212677719"><ele>318.7142857142857</ele><time>2026-03-29T08:54:02Z</time></trkpt><trkpt lat="45.72572944494897" lon="9.51309269826387"><ele>319.0</ele><time>2026-03-29T08:54:04Z</time></trkpt><trkpt lat="45.725750918152286" lon="9.512978535483285"><ele>320.8333333333333</ele><time>2026-03-29T08:54:06Z</time></trkpt><trkpt lat="45.72576479515379" lon="9.512879947812067"><ele>322.66666666666663</ele><time>2026-03-29T08:54:08Z</time></trkpt><trkpt lat="45.72581277534901" lon="9.512821064344319"><ele>324.5</ele><time>2026-03-29T08:54:11Z</time></trkpt><trkpt lat="45.72585893100614" lon="9.512727981341078"><ele>326.3333333333333</ele><time>2026-03-29T08:54:14Z</time></trkpt><trkpt lat="45.7258699107763" lon="9.51259027989381"><ele>328.1666666666667</ele><time>2026-03-29T08:54:16Z</time></trkpt><trkpt lat="45.72587790094197" lon="9.512467177527848"><ele>330.0</ele><time>2026-03-29T08:54:18Z</time></trkpt><trkpt lat="45.72589553487973" lon="9.512330933536798"><ele>330.0</ele><time>2026-03-29T08:54:20Z</time></trkpt><trkpt lat="45.72587804578085" lon="9.512224703774953"><ele>330.0</ele><time>2026-03-29T08:54:22Z</time></trkpt><trkpt lat="45.7258555787353" lon="9.512125639312993"><ele>330.0</ele><time>2026-03-29T08:54:24Z</time></trkpt><trkpt lat="45.72579478022456" lon="9.51201846799449"><ele>330.0</ele><time>2026-03-29T08:54:27Z</time></trkpt><trkpt lat="45.72580521567632" lon="9.511922695161292"><ele>330.0</ele><time>2026-03-29T08:54:29Z</time></trkpt><trkpt lat="45.725850538888565" lon="9.51184577929037"><ele>330.0</ele><time>2026-03-29T08:54:30Z</time></trkpt><trkpt lat="45.72584760681528" lon="9.511733535184616"><ele>331.1666666666667</ele><time>2026-03-29T08:54:33Z</time></trkpt><trkpt lat="45.725805856008705" lon="9.511633422903758"><ele>332.3333333333333</ele><time>2026-03-29T08:54:35Z</time></trkpt><trkpt lat="45.72574905041404" lon="9.511566392581763"><ele>333.5</ele><time>2026-03-29T08:54:38Z</time></trkpt><trkpt lat="45.72575634794888" lon="9.511447821656253"><ele>334.66666666666663</ele><time>2026-03-29T08:54:41Z</time></trkpt><trkpt lat="45.725798609168514" lon="9.51132826373068"><ele>335.8333333333333</ele><time>2026-03-29T08:54:45Z</time></trkpt><trkpt lat="45.72581315439102" lon="9.511226894394401"><ele>337.0</ele><time>2026-03-29T08:54:48Z</time></trkpt><trkpt lat="45.72578819244716" lon="9.51131196995633"><ele>337.0</ele><time>2026-03-29T08:55:07Z</time></trkpt><trkpt lat="45.72573090651914" lon="9.511446614371703"><ele>337.0</ele><time>2026-03-29T08:55:09Z</time></trkpt><trkpt lat="45.72571798850366" lon="9.511567520146206"><ele>337.0</ele><time>2026-03-29T08:55:11Z</time></trkpt><trkpt lat="45.7257488845324" lon="9.511692744824868"><ele>337.0</ele><time>2026-03-29T08:55:13Z</time></trkpt><trkpt lat="45.72577545058275" lon="9.511781638048259"><ele>337.0</ele><time>2026-03-29T08:55:15Z</time></trkpt><trkpt lat="45.72575312902009" lon="9.51187375235321"><ele>337.0</ele><time>2026-03-29T08:55:17Z</time></trkpt><trkpt lat="45.7257825279408" lon="9.512042760526539"><ele>335.8333333333333</ele><time>2026-03-29T08:55:20Z</time></trkpt><trkpt lat="45.72579412279087" lon="9.51213388767342"><ele>334.66666666666663</ele><time>2026-03-29T08:55:21Z</time></trkpt><trkpt lat="45.72580451026803" lon="9.512232270832605"><ele>333.5</ele><time>2026-03-29T08:55:22Z</time></trkpt><trkpt lat="45.72583851765818" lon="9.512308432460294"><ele>332.3333333333333</ele><time>2026-03-29T08:55:23Z</time></trkpt><trkpt lat="45.72585481257834" lon="9.512452449450905"><ele>331.1666666666667</ele><time>2026-03-29T08:55:25Z</time></trkpt><trkpt lat="45.725852153088695" lon="9.512545686311723"><ele>330.0</ele><time>2026-03-29T08:55:26Z</time></trkpt><trkpt lat="45.72583090509873" lon="9.51267032399805"><ele>330.0</ele><time>2026-03-29T08:55:27Z</time></trkpt><trkpt lat="45.72581145570831" lon="9.512781870902701"><ele>330.0</ele><time>2026-03-29T08:55:29Z</time></trkpt><trkpt lat="45.7257427046519" lon="9.512881428775554"><ele>330.0</ele><time>2026-03-29T08:55:31Z</time></trkpt><trkpt lat="45.72572222408425" lon="9.51302631341868"><ele>330.0</ele><time>2026-03-29T08:55:33Z</time></trkpt><trkpt lat="45.72567310166872" lon="9.513192570065424"><ele>330.0</ele><time>2026-03-29T08:55:35Z</time></trkpt><trkpt lat="45.7256671156013" lon="9.51330940276753"><ele>328.1666666666667</ele><time>2026-03-29T08:55:36Z</time></trkpt><trkpt lat="45.72564895550514" lon="9.513397984253734"><ele>326.3333333333333</ele><time>2026-03-29T08:55:37Z</time></trkpt><trkpt lat="45.7256258079421" lon="9.51354538433924"><ele>324.5</ele><time>2026-03-29T08:55:39Z</time></trkpt><trkpt lat="45.725639259937516" lon="9.513639248158384"><ele>322.66666666666663</ele><time>2026-03-29T08:55:40Z</time></trkpt><trkpt lat="45.725641010021974" lon="9.513790410440672"><ele>320.8333333333333</ele><time>2026-03-29T08:55:42Z</time></trkpt><trkpt lat="45.72561191205241" lon="9.513873119826656"><ele>319.0</ele><time>2026-03-29T08:55:43Z</time></trkpt><trkpt lat="45.72557898198771" lon="9.514023740385584"><ele>318.59999999999997</ele><time>2026-03-29T08:55:45Z</time></trkpt><trkpt lat="45.72556903410991" lon="9.514162955758666"><ele>318.2</ele><time>2026-03-29T08:55:47Z</time></trkpt><trkpt lat="45.72556804008806" lon="9.514310545868211"><ele>317.79999999999995</ele><time>2026-03-29T08:55:50Z</time></trkpt><trkpt lat="45.72559096963131" lon="9.514430987403298"><ele>317.4</ele><time>2026-03-29T08:55:52Z</time></trkpt><trkpt lat="45.72561126350695" lon="9.514561656091166"><ele>317.0</ele><time>2026-03-29T08:55:54Z</time></trkpt><trkpt lat="45.72564711758951" lon="9.514657612809463"><ele>316.6666666666667</ele><time>2026-03-29T08:55:56Z</time></trkpt><trkpt lat="45.72576579660092" lon="9.514686606934372"><ele>316.33333333333337</ele><time>2026-03-29T08:56:00Z</time></trkpt><trkpt lat="45.725807086670784" lon="9.514792217904064"><ele>316.0</ele><time>2026-03-29T08:56:03Z</time></trkpt><trkpt lat="45.72582652352229" lon="9.51487871316419"><ele>315.6666666666667</ele><time>2026-03-29T08:56:04Z</time></trkpt><trkpt lat="45.725871759398444" lon="9.514990246174147"><ele>315.3333333333333</ele><time>2026-03-29T08:56:05Z</time></trkpt><trkpt lat="45.725888743821834" lon="9.51509865913954"><ele>315.0</ele><time>2026-03-29T08:56:06Z</time></trkpt><trkpt lat="45.725907658471996" lon="9.515191245912826"><ele>315.0</ele><time>2026-03-29T08:56:07Z</time></trkpt><trkpt lat="45.725911129234625" lon="9.515285024966916"><ele>315.0</ele><time>2026-03-29T08:56:08Z</time></trkpt><trkpt lat="45.725913003762955" lon="9.515383897724645"><ele>315.0</ele><time>2026-03-29T08:56:09Z</time></trkpt><trkpt lat="45.72591320983545" lon="9.515475301451387"><ele>315.0</ele><time>2026-03-29T08:56:10Z</time></trkpt><trkpt lat="45.72592639952909" lon="9.515571914027365"><ele>315.0</ele><time>2026-03-29T08:56:11Z</time></trkpt><trkpt lat="45.72593495787393" lon="9.515667199997676"><ele>315.0</ele><time>2026-03-29T08:56:12Z</time></trkpt><trkpt lat="45.725943983748415" lon="9.515768686409599"><ele>315.0</ele><time>2026-03-29T08:56:13Z</time></trkpt><trkpt lat="45.72601480940877" lon="9.515931009471975"><ele>315.2</ele><time>2026-03-29T08:56:15Z</time></trkpt><trkpt lat="45.72610546283146" lon="9.516046077333604"><ele>315.4</ele><time>2026-03-29T08:56:17Z</time></trkpt><trkpt lat="45.72619090739832" lon="9.51619123533093"><ele>315.6</ele><time>2026-03-29T08:56:19Z</time></trkpt><trkpt lat="45.726242101963955" lon="9.5163469963433"><ele>315.8</ele><time>2026-03-29T08:56:21Z</time></trkpt><trkpt lat="45.726263859556084" lon="9.51644196550264"><ele>316.0</ele><time>2026-03-29T08:56:22Z</time></trkpt><trkpt lat="45.72629369680713" lon="9.516526487638043"><ele>316.0</ele><time>2026-03-29T08:56:23Z</time></trkpt><trkpt lat="45.72631722646327" lon="9.516698912253243"><ele>316.0</ele><time>2026-03-29T08:56:25Z</time></trkpt><trkpt lat="45.7263102069369" lon="9.516792336038751"><ele>316.0</ele><time>2026-03-29T08:56:26Z</time></trkpt><trkpt lat="45.7263399349719" lon="9.516961135779793"><ele>316.0</ele><time>2026-03-29T08:56:28Z</time></trkpt><trkpt lat="45.72634451078717" lon="9.51705530505674"><ele>316.0</ele><time>2026-03-29T08:56:29Z</time></trkpt><trkpt lat="45.72634776222896" lon="9.517149946440934"><ele>316.0</ele><time>2026-03-29T08:56:30Z</time></trkpt><trkpt lat="45.72632128282313" lon="9.517237181749275"><ele>315.0</ele><time>2026-03-29T08:56:31Z</time></trkpt><trkpt lat="45.7263167521534" lon="9.517331732803894"><ele>314.0</ele><time>2026-03-29T08:56:32Z</time></trkpt><trkpt lat="45.72632970178206" lon="9.517421311470963"><ele>313.0</ele><time>2026-03-29T08:56:33Z</time></trkpt><trkpt lat="45.72630206307269" lon="9.517594122893966"><ele>312.0</ele><time>2026-03-29T08:56:35Z</time></trkpt><trkpt lat="45.72629454289726" lon="9.517768551726245"><ele>311.0</ele><time>2026-03-29T08:56:37Z</time></trkpt><trkpt lat="45.72627745065275" lon="9.517856285357988"><ele>310.0</ele><time>2026-03-29T08:56:38Z</time></trkpt><trkpt lat="45.7262892709657" lon="9.517944971245164"><ele>309.0</ele><time>2026-03-29T08:56:39Z</time></trkpt><trkpt lat="45.72627369293679" lon="9.5181268251383"><ele>308.0</ele><time>2026-03-29T08:56:41Z</time></trkpt><trkpt lat="45.726273975343624" lon="9.518230179325949"><ele>307.0</ele><time>2026-03-29T08:56:42Z</time></trkpt><trkpt lat="45.7262925532803" lon="9.518396563916909"><ele>306.0</ele><time>2026-03-29T08:56:44Z</time></trkpt><trkpt lat="45.726287379663795" lon="9.51848763190509"><ele>305.0</ele><time>2026-03-29T08:56:45Z</time></trkpt><trkpt lat="45.72631482318569" lon="9.518662877142892"><ele>304.2</ele><time>2026-03-29T08:56:47Z</time></trkpt><trkpt lat="45.72632126817169" lon="9.518831534121"><ele>303.4</ele><time>2026-03-29T08:56:49Z</time></trkpt><trkpt lat="45.72632495867227" lon="9.518922372377505"><ele>302.6</ele><time>2026-03-29T08:56:50Z</time></trkpt><trkpt lat="45.72631970194087" lon="9.519078113022879"><ele>301.8</ele><time>2026-03-29T08:56:52Z</time></trkpt><trkpt lat="45.72629152777568" lon="9.519243844079654"><ele>301.0</ele><time>2026-03-29T08:56:54Z</time></trkpt><trkpt lat="45.726275035414126" lon="9.519431150007241"><ele>301.0</ele><time>2026-03-29T08:56:56Z</time></trkpt><trkpt lat="45.72625863648364" lon="9.51951894288949"><ele>301.0</ele><time>2026-03-29T08:56:57Z</time></trkpt><trkpt lat="45.726230092903656" lon="9.519615401410793"><ele>301.0</ele><time>2026-03-29T08:56:58Z</time></trkpt><trkpt lat="45.726216373119506" lon="9.519788377162456"><ele>301.0</ele><time>2026-03-29T08:57:00Z</time></trkpt><trkpt lat="45.726222796686585" lon="9.519957784038644"><ele>301.0</ele><time>2026-03-29T08:57:02Z</time></trkpt><trkpt lat="45.726237905923426" lon="9.520124307116404"><ele>300.25</ele><time>2026-03-29T08:57:04Z</time></trkpt><trkpt lat="45.72621697226306" lon="9.520288217436331"><ele>299.5</ele><time>2026-03-29T08:57:06Z</time></trkpt><trkpt lat="45.726225736477815" lon="9.52040933015713"><ele>298.75</ele><time>2026-03-29T08:57:08Z</time></trkpt><trkpt lat="45.72620743330844" lon="9.520543753593715"><ele>298.0</ele><time>2026-03-29T08:57:10Z</time></trkpt><trkpt lat="45.726182130037955" lon="9.5208089768541"><ele>298.0</ele><time>2026-03-29T08:57:17Z</time></trkpt><trkpt lat="45.72617082910113" lon="9.520965607863134"><ele>298.0</ele><time>2026-03-29T08:57:19Z</time></trkpt><trkpt lat="45.726162069284015" lon="9.521087018954036"><ele>298.0</ele><time>2026-03-29T08:57:21Z</time></trkpt><trkpt lat="45.72630325522049" lon="9.521175002491937"><ele>298.0</ele><time>2026-03-29T08:57:22Z</time></trkpt><trkpt lat="45.72631456099447" lon="9.52132414687464"><ele>298.0</ele><time>2026-03-29T08:57:24Z</time></trkpt><trkpt lat="45.726316673183675" lon="9.521492973420544"><ele>298.0</ele><time>2026-03-29T08:57:26Z</time></trkpt><trkpt lat="45.72637119423559" lon="9.521637813066988"><ele>298.0</ele><time>2026-03-29T08:57:28Z</time></trkpt><trkpt lat="45.72638346434869" lon="9.521791650069835"><ele>298.0</ele><time>2026-03-29T08:57:30Z</time></trkpt><trkpt lat="45.726408006113665" lon="9.52195052506309"><ele>298.2</ele><time>2026-03-29T08:57:32Z</time></trkpt><trkpt lat="45.726417639190316" lon="9.522100204512492"><ele>298.4</ele><time>2026-03-29T08:57:34Z</time></trkpt><trkpt lat="45.72640507779465" lon="9.522258098461165"><ele>298.59999999999997</ele><time>2026-03-29T08:57:36Z</time></trkpt><trkpt lat="45.72641228395478" lon="9.522364763376213"><ele>298.8</ele><time>2026-03-29T08:57:40Z</time></trkpt><trkpt lat="45.726391629646145" lon="9.522526102791392"><ele>299.0</ele><time>2026-03-29T08:57:43Z</time></trkpt><trkpt lat="45.7264129926366" lon="9.522619340375527"><ele>299.0</ele><time>2026-03-29T08:57:45Z</time></trkpt><trkpt lat="45.726395038020826" lon="9.522741340794015"><ele>299.0</ele><time>2026-03-29T08:57:48Z</time></trkpt><trkpt lat="45.726393832424066" lon="9.522837334581292"><ele>299.0</ele><time>2026-03-29T08:57:49Z</time></trkpt><trkpt lat="45.726383853139204" lon="9.522994682628626"><ele>299.0</ele><time>2026-03-29T08:57:51Z</time></trkpt><trkpt lat="45.72640932235197" lon="9.523083858780883"><ele>299.0</ele><time>2026-03-29T08:57:52Z</time></trkpt><trkpt lat="45.72641742243949" lon="9.52324722817762"><ele>299.0</ele><time>2026-03-29T08:57:54Z</time></trkpt><trkpt lat="45.72641121457646" lon="9.523373299765483"><ele>298.5</ele><time>2026-03-29T08:57:56Z</time></trkpt><trkpt lat="45.72643643761824" lon="9.52348425529842"><ele>298.0</ele><time>2026-03-29T08:57:58Z</time></trkpt><trkpt lat="45.726544982789164" lon="9.52368556377661"><ele>297.5</ele><time>2026-03-29T08:58:00Z</time></trkpt><trkpt lat="45.72660818996428" lon="9.523745799540388"><ele>297.0</ele><time>2026-03-29T08:58:01Z</time></trkpt><trkpt lat="45.72672739165687" lon="9.523844576237183"><ele>296.2</ele><time>2026-03-29T08:58:03Z</time></trkpt><trkpt lat="45.72683041818538" lon="9.523906179906035"><ele>295.4</ele><time>2026-03-29T08:58:05Z</time></trkpt><trkpt lat="45.72690347306912" lon="9.523958581808682"><ele>294.6</ele><time>2026-03-29T08:58:07Z</time></trkpt><trkpt lat="45.72696444921353" lon="9.524073988297934"><ele>293.8</ele><time>2026-03-29T08:58:09Z</time></trkpt><trkpt lat="45.727019929304255" lon="9.524184854820374"><ele>293.0</ele><time>2026-03-29T08:58:11Z</time></trkpt><trkpt lat="45.727056451382005" lon="9.524294484167717"><ele>293.0</ele><time>2026-03-29T08:58:13Z</time></trkpt><trkpt lat="45.72711204567632" lon="9.524414754934021"><ele>293.0</ele><time>2026-03-29T08:58:15Z</time></trkpt><trkpt lat="45.72715220966316" lon="9.524546846765157"><ele>293.0</ele><time>2026-03-29T08:58:17Z</time></trkpt><trkpt lat="45.72719892728771" lon="9.52465902577526"><ele>293.0</ele><time>2026-03-29T08:58:19Z</time></trkpt><trkpt lat="45.72723456557195" lon="9.52478297375175"><ele>293.0</ele><time>2026-03-29T08:58:21Z</time></trkpt><trkpt lat="45.72725814953611" lon="9.524881514508671"><ele>293.0</ele><time>2026-03-29T08:58:23Z</time></trkpt><trkpt lat="45.727270268820334" lon="9.5247510337303"><ele>293.0</ele><time>2026-03-29T08:58:29Z</time></trkpt><trkpt lat="45.72723911938985" lon="9.524666158993464"><ele>293.0</ele><time>2026-03-29T08:58:30Z</time></trkpt><trkpt lat="45.72717460090253" lon="9.524544416643943"><ele>293.0</ele><time>2026-03-29T08:58:32Z</time></trkpt><trkpt lat="45.727132879151924" lon="9.524410768931851"><ele>293.0</ele><time>2026-03-29T08:58:34Z</time></trkpt><trkpt lat="45.72709694053367" lon="9.524288798156936"><ele>293.0</ele><time>2026-03-29T08:58:36Z</time></trkpt><trkpt lat="45.727069402345805" lon="9.524171601855542"><ele>293.0</ele><time>2026-03-29T08:58:38Z</time></trkpt><trkpt lat="45.72702367237791" lon="9.524053732868191"><ele>293.0</ele><time>2026-03-29T08:58:40Z</time></trkpt><trkpt lat="45.726973100001665" lon="9.523963076551953"><ele>293.0</ele><time>2026-03-29T08:58:42Z</time></trkpt><trkpt lat="45.727077141805616" lon="9.523835498892822"><ele>293.0</ele><time>2026-03-29T08:58:45Z</time></trkpt><trkpt lat="45.727168285458234" lon="9.523765557804138"><ele>293.33333333333337</ele><time>2026-03-29T08:58:47Z</time></trkpt><trkpt lat="45.727242144332955" lon="9.523674883699494"><ele>293.6666666666667</ele><time>2026-03-29T08:58:49Z</time></trkpt><trkpt lat="45.727272072070946" lon="9.523588286851048"><ele>294.0</ele><time>2026-03-29T08:58:52Z</time></trkpt><trkpt lat="45.72730438466359" lon="9.523490146832138"><ele>294.3333333333333</ele><time>2026-03-29T08:58:55Z</time></trkpt><trkpt lat="45.72736433668115" lon="9.523420504597077"><ele>294.66666666666663</ele><time>2026-03-29T08:58:58Z</time></trkpt><trkpt lat="45.72747431035007" lon="9.523382862031768"><ele>295.0</ele><time>2026-03-29T08:59:01Z</time></trkpt><trkpt lat="45.72752182284611" lon="9.523305661170244"><ele>295.0</ele><time>2026-03-29T08:59:03Z</time></trkpt><trkpt lat="45.72758949037006" lon="9.52321694399065"><ele>295.0</ele><time>2026-03-29T08:59:05Z</time></trkpt><trkpt lat="45.727641072219136" lon="9.523094538674126"><ele>295.0</ele><time>2026-03-29T08:59:07Z</time></trkpt><trkpt lat="45.727670275627425" lon="9.52298578714219"><ele>295.0</ele><time>2026-03-29T08:59:09Z</time></trkpt><trkpt lat="45.727737764874334" lon="9.522941777542922"><ele>295.0</ele><time>2026-03-29T08:59:11Z</time></trkpt><trkpt lat="45.72780576494937" lon="9.522875676621043"><ele>295.0</ele><time>2026-03-29T08:59:13Z</time></trkpt><trkpt lat="45.727853746718466" lon="9.522793263189525"><ele>294.5</ele><time>2026-03-29T08:59:15Z</time></trkpt><trkpt lat="45.72791347209441" lon="9.522727422436983"><ele>294.0</ele><time>2026-03-29T08:59:17Z</time></trkpt><trkpt lat="45.72791871482882" lon="9.522609034826301"><ele>293.5</ele><time>2026-03-29T08:59:19Z</time></trkpt><trkpt lat="45.727936386395825" lon="9.522444862503066"><ele>293.0</ele><time>2026-03-29T08:59:20Z</time></trkpt><trkpt lat="45.72803932312888" lon="9.521998317259134"><ele>293.0</ele><time>2026-03-29T08:59:21Z</time></trkpt><trkpt lat="45.72804276367702" lon="9.521846096337883"><ele>293.0</ele><time>2026-03-29T08:59:23Z</time></trkpt><trkpt lat="45.7280342944403" lon="9.521694814076566"><ele>293.0</ele><time>2026-03-29T08:59:25Z</time></trkpt><trkpt lat="45.728033503591305" lon="9.521568684359774"><ele>293.0</ele><time>2026-03-29T08:59:27Z</time></trkpt><trkpt lat="45.72802821740727" lon="9.521437862846245"><ele>293.0</ele><time>2026-03-29T08:59:29Z</time></trkpt><trkpt lat="45.72803129066707" lon="9.521309152253012"><ele>293.0</ele><time>2026-03-29T08:59:31Z</time></trkpt><trkpt lat="45.72804519382049" lon="9.52117185515021"><ele>293.0</ele><time>2026-03-29T08:59:33Z</time></trkpt><trkpt lat="45.72804734417535" lon="9.521031310955992"><ele>293.0</ele><time>2026-03-29T08:59:35Z</time></trkpt><trkpt lat="45.728059563829746" lon="9.520904464742895"><ele>293.0</ele><time>2026-03-29T08:59:37Z</time></trkpt><trkpt lat="45.72806056779913" lon="9.520777220792873"><ele>293.0</ele><time>2026-03-29T08:59:39Z</time></trkpt><trkpt lat="45.72806002854233" lon="9.520676994475465"><ele>293.0</ele><time>2026-03-29T08:59:41Z</time></trkpt><trkpt lat="45.72805856538815" lon="9.52058370568364"><ele>293.0</ele><time>2026-03-29T08:59:44Z</time></trkpt><trkpt lat="45.72807577980838" lon="9.520466937716563"><ele>293.0</ele><time>2026-03-29T08:59:46Z</time></trkpt><trkpt lat="45.72808353882228" lon="9.520325565796231"><ele>293.0</ele><time>2026-03-29T08:59:49Z</time></trkpt><trkpt lat="45.72813698621538" lon="9.520204678068083"><ele>293.0</ele><time>2026-03-29T08:59:52Z</time></trkpt><trkpt lat="45.728139406527966" lon="9.520090365026407"><ele>293.0</ele><time>2026-03-29T08:59:55Z</time></trkpt><trkpt lat="45.72811008281186" lon="9.519991292889506"><ele>293.0</ele><time>2026-03-29T08:59:56Z</time></trkpt><trkpt lat="45.72812643197187" lon="9.51989559984428"><ele>293.1666666666667</ele><time>2026-03-29T08:59:59Z</time></trkpt><trkpt lat="45.72817608328086" lon="9.519771801241243"><ele>293.33333333333337</ele><time>2026-03-29T09:00:02Z</time></trkpt><trkpt lat="45.728237734251614" lon="9.51972595294662"><ele>293.5</ele><time>2026-03-29T09:00:05Z</time></trkpt><trkpt lat="45.728294307544765" lon="9.519604942373851"><ele>293.6666666666667</ele><time>2026-03-29T09:00:07Z</time></trkpt><trkpt lat="45.72833604895545" lon="9.519477025113877"><ele>293.8333333333333</ele><time>2026-03-29T09:00:09Z</time></trkpt><trkpt lat="45.72835787207238" lon="9.519389094180823"><ele>294.0</ele><time>2026-03-29T09:00:12Z</time></trkpt><trkpt lat="45.728371913376634" lon="9.519279564336278"><ele>295.2</ele><time>2026-03-29T09:00:14Z</time></trkpt><trkpt lat="45.728385155060444" lon="9.519131009083528"><ele>296.4</ele><time>2026-03-29T09:00:18Z</time></trkpt><trkpt lat="45.72841519315066" lon="9.519031619436513"><ele>297.6</ele><time>2026-03-29T09:00:21Z</time></trkpt><trkpt lat="45.72845934505587" lon="9.518922128428981"><ele>298.8</ele><time>2026-03-29T09:00:25Z</time></trkpt><trkpt lat="45.72845669658473" lon="9.518808472911676"><ele>300.0</ele><time>2026-03-29T09:00:26Z</time></trkpt><trkpt lat="45.728470322883545" lon="9.518662881117013"><ele>299.1666666666667</ele><time>2026-03-29T09:00:28Z</time></trkpt><trkpt lat="45.728504088432665" lon="9.518563998595237"><ele>298.3333333333333</ele><time>2026-03-29T09:00:30Z</time></trkpt><trkpt lat="45.728511875511444" lon="9.51846199781401"><ele>297.5</ele><time>2026-03-29T09:00:33Z</time></trkpt><trkpt lat="45.72859061731806" lon="9.518311021343449"><ele>296.66666666666663</ele><time>2026-03-29T09:00:35Z</time></trkpt><trkpt lat="45.72864049160198" lon="9.518207519799198"><ele>295.8333333333333</ele><time>2026-03-29T09:00:39Z</time></trkpt><trkpt lat="45.72870064279145" lon="9.518154955164555"><ele>295.0</ele><time>2026-03-29T09:00:42Z</time></trkpt><trkpt lat="45.72870139082506" lon="9.518025432129045"><ele>295.0</ele><time>2026-03-29T09:00:44Z</time></trkpt><trkpt lat="45.728721671990996" lon="9.517904315631336"><ele>295.0</ele><time>2026-03-29T09:00:45Z</time></trkpt><trkpt lat="45.72876211634985" lon="9.517714348687331"><ele>295.0</ele><time>2026-03-29T09:00:47Z</time></trkpt><trkpt lat="45.72879892177158" lon="9.517387895765957"><ele>295.2</ele><time>2026-03-29T09:00:50Z</time></trkpt><trkpt lat="45.72885761924933" lon="9.517288566253852"><ele>295.4</ele><time>2026-03-29T09:00:52Z</time></trkpt><trkpt lat="45.72882828614849" lon="9.517171526863736"><ele>295.6</ele><time>2026-03-29T09:00:54Z</time></trkpt><trkpt lat="45.72883861746638" lon="9.516976770001918"><ele>295.8</ele><time>2026-03-29T09:00:56Z</time></trkpt><trkpt lat="45.72886774580312" lon="9.516790824373388"><ele>296.0</ele><time>2026-03-29T09:00:58Z</time></trkpt><trkpt lat="45.7288729795046" lon="9.516690697678314"><ele>296.0</ele><time>2026-03-29T09:01:00Z</time></trkpt><trkpt lat="45.72885203006597" lon="9.516587165302779"><ele>296.0</ele><time>2026-03-29T09:01:01Z</time></trkpt><trkpt lat="45.72881982118522" lon="9.516506705276145"><ele>296.0</ele><time>2026-03-29T09:01:03Z</time></trkpt><trkpt lat="45.72882618928763" lon="9.516362251443683"><ele>296.0</ele><time>2026-03-29T09:01:05Z</time></trkpt><trkpt lat="45.72879938308643" lon="9.516274918247063"><ele>296.0</ele><time>2026-03-29T09:01:06Z</time></trkpt><trkpt lat="45.72876084883514" lon="9.516166512407034"><ele>296.0</ele><time>2026-03-29T09:01:08Z</time></trkpt><trkpt lat="45.728721128304784" lon="9.516057790536944"><ele>296.0</ele><time>2026-03-29T09:01:10Z</time></trkpt><trkpt lat="45.728736637544216" lon="9.515879279612927"><ele>296.0</ele><time>2026-03-29T09:01:12Z</time></trkpt><trkpt lat="45.728743550934105" lon="9.51572491440413"><ele>296.0</ele><time>2026-03-29T09:01:14Z</time></trkpt><trkpt lat="45.7287136664082" lon="9.515596552485919"><ele>296.0</ele><time>2026-03-29T09:01:16Z</time></trkpt><trkpt lat="45.728710742214716" lon="9.515471932340356"><ele>296.0</ele><time>2026-03-29T09:01:18Z</time></trkpt><trkpt lat="45.728706791519926" lon="9.51538113106165"><ele>296.1666666666667</ele><time>2026-03-29T09:01:19Z</time></trkpt><trkpt lat="45.728668870681524" lon="9.515270583224337"><ele>296.33333333333337</ele><time>2026-03-29T09:01:21Z</time></trkpt><trkpt lat="45.7286395318957" lon="9.515162378156845"><ele>296.5</ele><time>2026-03-29T09:01:23Z</time></trkpt><trkpt lat="45.7286453192233" lon="9.515042122063823"><ele>296.6666666666667</ele><time>2026-03-29T09:01:27Z</time></trkpt><trkpt lat="45.72861148132567" lon="9.514964416128135"><ele>296.8333333333333</ele><time>2026-03-29T09:01:29Z</time></trkpt><trkpt lat="45.72852297798432" lon="9.514919086228113"><ele>297.0</ele><time>2026-03-29T09:01:32Z</time></trkpt><trkpt lat="45.7284950272693" lon="9.51476207516281"><ele>300.0</ele><time>2026-03-29T09:01:34Z</time></trkpt><trkpt lat="45.72846932417386" lon="9.514653844734804"><ele>303.0</ele><time>2026-03-29T09:01:36Z</time></trkpt><trkpt lat="45.728447540716054" lon="9.514510964470237"><ele>306.0</ele><time>2026-03-29T09:01:39Z</time></trkpt><trkpt lat="45.72838852871072" lon="9.51445097247944"><ele>309.0</ele><time>2026-03-29T09:01:41Z</time></trkpt><trkpt lat="45.728407667876816" lon="9.514364707204399"><ele>312.0</ele><time>2026-03-29T09:01:43Z</time></trkpt><trkpt lat="45.72838680676417" lon="9.514267039060153"><ele>315.0</ele><time>2026-03-29T09:01:45Z</time></trkpt><trkpt lat="45.72837880447572" lon="9.514147116428258"><ele>315.0</ele><time>2026-03-29T09:01:48Z</time></trkpt><trkpt lat="45.72840761550494" lon="9.513979514086033"><ele>315.0</ele><time>2026-03-29T09:01:51Z</time></trkpt><trkpt lat="45.72846026085114" lon="9.513858080881342"><ele>315.0</ele><time>2026-03-29T09:01:53Z</time></trkpt><trkpt lat="45.72852073388134" lon="9.513745210240401"><ele>315.0</ele><time>2026-03-29T09:01:54Z</time></trkpt><trkpt lat="45.72858438837068" lon="9.513638552176294"><ele>315.0</ele><time>2026-03-29T09:01:56Z</time></trkpt><trkpt lat="45.72857579990427" lon="9.513505765341382"><ele>315.1666666666667</ele><time>2026-03-29T09:01:58Z</time></trkpt><trkpt lat="45.72857347059428" lon="9.513385571940006"><ele>315.3333333333333</ele><time>2026-03-29T09:02:00Z</time></trkpt><trkpt lat="45.728566019175354" lon="9.513257902696312"><ele>315.5</ele><time>2026-03-29T09:02:02Z</time></trkpt><trkpt lat="45.728555619341726" lon="9.513155203489026"><ele>315.66666666666663</ele><time>2026-03-29T09:02:04Z</time></trkpt><trkpt lat="45.72857509103486" lon="9.513059807379378"><ele>315.8333333333333</ele><time>2026-03-29T09:02:06Z</time></trkpt><trkpt lat="45.72859536144099" lon="9.512931934222955"><ele>316.0</ele><time>2026-03-29T09:02:09Z</time></trkpt><trkpt lat="45.72858036886605" lon="9.512812037902084"><ele>312.8333333333333</ele><time>2026-03-29T09:02:11Z</time></trkpt><trkpt lat="45.728597627509544" lon="9.512694859173765"><ele>309.66666666666663</ele><time>2026-03-29T09:02:14Z</time></trkpt><trkpt lat="45.72859733256553" lon="9.512584315999339"><ele>306.5</ele><time>2026-03-29T09:02:17Z</time></trkpt><trkpt lat="45.72858579035101" lon="9.512470539325363"><ele>303.3333333333333</ele><time>2026-03-29T09:02:19Z</time></trkpt><trkpt lat="45.72860049222321" lon="9.512349819441615"><ele>300.1666666666667</ele><time>2026-03-29T09:02:21Z</time></trkpt><trkpt lat="45.72860669230329" lon="9.512251213511913"><ele>297.0</ele><time>2026-03-29T09:02:23Z</time></trkpt><trkpt lat="45.72861575510727" lon="9.512111200805059"><ele>297.3333333333333</ele><time>2026-03-29T09:02:25Z</time></trkpt><trkpt lat="45.728603707465574" lon="9.511977473071749"><ele>297.6666666666667</ele><time>2026-03-29T09:02:27Z</time></trkpt><trkpt lat="45.728591881984926" lon="9.511855436616385"><ele>298.0</ele><time>2026-03-29T09:02:29Z</time></trkpt><trkpt lat="45.728617876478836" lon="9.511731266734158"><ele>298.33333333333337</ele><time>2026-03-29T09:02:31Z</time></trkpt><trkpt lat="45.72863448188302" lon="9.511644015922284"><ele>298.6666666666667</ele><time>2026-03-29T09:02:33Z</time></trkpt><trkpt lat="45.728636523207236" lon="9.51152629745456"><ele>299.0</ele><time>2026-03-29T09:02:36Z</time></trkpt><trkpt lat="45.72870359064828" lon="9.511453028748926"><ele>299.0</ele><time>2026-03-29T09:02:38Z</time></trkpt><trkpt lat="45.728953625145785" lon="9.511465156212456"><ele>299.0</ele><time>2026-03-29T09:02:45Z</time></trkpt><trkpt lat="45.72907186874632" lon="9.511483776689321"><ele>299.0</ele><time>2026-03-29T09:02:47Z</time></trkpt><trkpt lat="45.72918149919967" lon="9.511351472469046"><ele>299.0</ele><time>2026-03-29T09:02:49Z</time></trkpt><trkpt lat="45.72927460896603" lon="9.51137619929787"><ele>299.0</ele><time>2026-03-29T09:02:51Z</time></trkpt><trkpt lat="45.72936949239587" lon="9.511402589127224"><ele>299.0</ele><time>2026-03-29T09:02:53Z</time></trkpt><trkpt lat="45.72947357814387" lon="9.51142679127196"><ele>299.0</ele><time>2026-03-29T09:02:55Z</time></trkpt><trkpt lat="45.72958321036296" lon="9.511446959473991"><ele>299.0</ele><time>2026-03-29T09:02:57Z</time></trkpt><trkpt lat="45.72968216321241" lon="9.51140720981392"><ele>298.8</ele><time>2026-03-29T09:02:59Z</time></trkpt><trkpt lat="45.7297074531269" lon="9.511289545945095"><ele>298.59999999999997</ele><time>2026-03-29T09:03:01Z</time></trkpt><trkpt lat="45.72971691175051" lon="9.511198671206088"><ele>298.4</ele><time>2026-03-29T09:03:02Z</time></trkpt><trkpt lat="45.729768543973925" lon="9.511059578773247"><ele>298.2</ele><time>2026-03-29T09:03:04Z</time></trkpt><trkpt lat="45.72973797444688" lon="9.51091682407685"><ele>298.0</ele><time>2026-03-29T09:03:06Z</time></trkpt><trkpt lat="45.72966825745427" lon="9.510803459494454"><ele>298.0</ele><time>2026-03-29T09:03:08Z</time></trkpt><trkpt lat="45.72968563450057" lon="9.510680081896746"><ele>298.0</ele><time>2026-03-29T09:03:10Z</time></trkpt><trkpt lat="45.7296742678049" lon="9.510557332362112"><ele>298.0</ele><time>2026-03-29T09:03:12Z</time></trkpt><trkpt lat="45.72965710139041" lon="9.51043690988826"><ele>298.0</ele><time>2026-03-29T09:03:14Z</time></trkpt><trkpt lat="45.72964717883495" lon="9.510311634836311"><ele>298.0</ele><time>2026-03-29T09:03:16Z</time></trkpt><trkpt lat="45.729641697570116" lon="9.51020945474338"><ele>298.0</ele><time>2026-03-29T09:03:18Z</time></trkpt><trkpt lat="45.729613427377615" lon="9.510088468223698"><ele>298.4</ele><time>2026-03-29T09:03:20Z</time></trkpt><trkpt lat="45.72959003743238" lon="9.509968514794531"><ele>298.8</ele><time>2026-03-29T09:03:22Z</time></trkpt><trkpt lat="45.72960297927342" lon="9.509830594561416"><ele>299.2</ele><time>2026-03-29T09:03:24Z</time></trkpt><trkpt lat="45.729584663971465" lon="9.50970140830718"><ele>299.6</ele><time>2026-03-29T09:03:26Z</time></trkpt><trkpt lat="45.72955447917514" lon="9.50957797238685"><ele>300.0</ele><time>2026-03-29T09:03:28Z</time></trkpt><trkpt lat="45.729548472169846" lon="9.509457559348922"><ele>300.0</ele><time>2026-03-29T09:03:30Z</time></trkpt><trkpt lat="45.72952639570706" lon="9.509325048092906"><ele>300.0</ele><time>2026-03-29T09:03:32Z</time></trkpt><trkpt lat="45.72948452141847" lon="9.509207499705777"><ele>300.0</ele><time>2026-03-29T09:03:34Z</time></trkpt><trkpt lat="45.72946138956387" lon="9.509092567604256"><ele>300.0</ele><time>2026-03-29T09:03:36Z</time></trkpt><trkpt lat="45.72944213363381" lon="9.508975536761088"><ele>300.0</ele><time>2026-03-29T09:03:38Z</time></trkpt><trkpt lat="45.72942595940174" lon="9.508856894073508"><ele>300.0</ele><time>2026-03-29T09:03:40Z</time></trkpt><trkpt lat="45.72939601184435" lon="9.508736537778638"><ele>300.6666666666667</ele><time>2026-03-29T09:03:42Z</time></trkpt><trkpt lat="45.72937375376287" lon="9.508612641589682"><ele>301.3333333333333</ele><time>2026-03-29T09:03:44Z</time></trkpt><trkpt lat="45.72934449466498" lon="9.508514838337735"><ele>302.0</ele><time>2026-03-29T09:03:46Z</time></trkpt><trkpt lat="45.72934669396138" lon="9.508377152020943"><ele>302.66666666666663</ele><time>2026-03-29T09:03:48Z</time></trkpt><trkpt lat="45.729331468379655" lon="9.508258630160233"><ele>303.3333333333333</ele><time>2026-03-29T09:03:50Z</time></trkpt><trkpt lat="45.72929357026385" lon="9.508158757165932"><ele>304.0</ele><time>2026-03-29T09:03:52Z</time></trkpt><trkpt lat="45.72927883623916" lon="9.508022381361721"><ele>304.3333333333333</ele><time>2026-03-29T09:03:54Z</time></trkpt><trkpt lat="45.72925445909747" lon="9.507902611638356"><ele>304.66666666666663</ele><time>2026-03-29T09:03:56Z</time></trkpt><trkpt lat="45.72924721853418" lon="9.507776077925117"><ele>305.0</ele><time>2026-03-29T09:03:58Z</time></trkpt><trkpt lat="45.729237900899804" lon="9.507657949702566"><ele>305.3333333333333</ele><time>2026-03-29T09:04:00Z</time></trkpt><trkpt lat="45.72921091053466" lon="9.507551218487322"><ele>305.6666666666667</ele><time>2026-03-29T09:04:02Z</time></trkpt><trkpt lat="45.72920288853498" lon="9.507440611169852"><ele>306.0</ele><time>2026-03-29T09:04:04Z</time></trkpt><trkpt lat="45.729139496823386" lon="9.507331812309038"><ele>306.0</ele><time>2026-03-29T09:04:06Z</time></trkpt><trkpt lat="45.7291339141077" lon="9.507227233557071"><ele>306.0</ele><time>2026-03-29T09:04:08Z</time></trkpt><trkpt lat="45.729134015557165" lon="9.507116015067949"><ele>306.0</ele><time>2026-03-29T09:04:10Z</time></trkpt><trkpt lat="45.72915115820849" lon="9.50701574312116"><ele>306.0</ele><time>2026-03-29T09:04:12Z</time></trkpt><trkpt lat="45.729219766537135" lon="9.506943937109975"><ele>306.0</ele><time>2026-03-29T09:04:14Z</time></trkpt><trkpt lat="45.72930716179133" lon="9.506916504518449"><ele>306.0</ele><time>2026-03-29T09:04:16Z</time></trkpt><trkpt lat="45.72940547664388" lon="9.506866930265268"><ele>305.75</ele><time>2026-03-29T09:04:18Z</time></trkpt><trkpt lat="45.72950693745924" lon="9.506839775952308"><ele>305.5</ele><time>2026-03-29T09:04:20Z</time></trkpt><trkpt lat="45.729684665361695" lon="9.506862170235467"><ele>305.25</ele><time>2026-03-29T09:04:23Z</time></trkpt><trkpt lat="45.729782379636546" lon="9.506906632375406"><ele>305.0</ele><time>2026-03-29T09:04:25Z</time></trkpt><trkpt lat="45.729876979743686" lon="9.506971082297296"><ele>305.0</ele><time>2026-03-29T09:04:27Z</time></trkpt><trkpt lat="45.72997625483037" lon="9.507075512972271"><ele>305.0</ele><time>2026-03-29T09:04:29Z</time></trkpt><trkpt lat="45.730049329537394" lon="9.507217810022908"><ele>305.0</ele><time>2026-03-29T09:04:31Z</time></trkpt><trkpt lat="45.73013075561245" lon="9.50736242187715"><ele>305.0</ele><time>2026-03-29T09:04:33Z</time></trkpt><trkpt lat="45.73016470803935" lon="9.507447151886602"><ele>305.0</ele><time>2026-03-29T09:04:34Z</time></trkpt><trkpt lat="45.73021490088207" lon="9.507516954270658"><ele>304.7142857142857</ele><time>2026-03-29T09:04:35Z</time></trkpt><trkpt lat="45.73026392798991" lon="9.507589395852737"><ele>304.4285714285714</ele><time>2026-03-29T09:04:36Z</time></trkpt><trkpt lat="45.73032176350892" lon="9.507635729494364"><ele>304.1428571428571</ele><time>2026-03-29T09:04:37Z</time></trkpt><trkpt lat="45.730391426713624" lon="9.507659572011535"><ele>303.8571428571429</ele><time>2026-03-29T09:04:38Z</time></trkpt><trkpt lat="45.73045029483497" lon="9.50771038378349"><ele>303.57142857142856</ele><time>2026-03-29T09:04:39Z</time></trkpt><trkpt lat="45.73052020637716" lon="9.507724185296837"><ele>303.2857142857143</ele><time>2026-03-29T09:04:40Z</time></trkpt><trkpt lat="45.730590072981315" lon="9.50773276813681"><ele>303.0</ele><time>2026-03-29T09:04:41Z</time></trkpt><trkpt lat="45.730654176782394" lon="9.507756127406607"><ele>303.0</ele><time>2026-03-29T09:04:42Z</time></trkpt><trkpt lat="45.73071850520373" lon="9.507772075137614"><ele>303.0</ele><time>2026-03-29T09:04:43Z</time></trkpt><trkpt lat="45.73078640518082" lon="9.507780756659061"><ele>303.0</ele><time>2026-03-29T09:04:44Z</time></trkpt><trkpt lat="45.7308964075043" lon="9.507813263084726"><ele>303.0</ele><time>2026-03-29T09:04:46Z</time></trkpt><trkpt lat="45.73098341864699" lon="9.507812591298585"><ele>303.0</ele><time>2026-03-29T09:04:48Z</time></trkpt><trkpt lat="45.731057540628896" lon="9.507831597940164"><ele>303.0</ele><time>2026-03-29T09:04:50Z</time></trkpt><trkpt lat="45.7311329011579" lon="9.507852162059232"><ele>305.4</ele><time>2026-03-29T09:04:52Z</time></trkpt><trkpt lat="45.73120994987308" lon="9.507872845502542"><ele>307.8</ele><time>2026-03-29T09:04:54Z</time></trkpt><trkpt lat="45.73127501195691" lon="9.507890363824224"><ele>310.2</ele><time>2026-03-29T09:04:56Z</time></trkpt><trkpt lat="45.731353997408306" lon="9.507889620117181"><ele>312.6</ele><time>2026-03-29T09:04:59Z</time></trkpt><trkpt lat="45.731489235193536" lon="9.50765873441328"><ele>315.0</ele><time>2026-03-29T09:05:00Z</time></trkpt><trkpt lat="45.731425316772324" lon="9.507579596497742"><ele>315.0</ele><time>2026-03-29T09:05:01Z</time></trkpt><trkpt lat="45.73146459648556" lon="9.507466889224292"><ele>315.0</ele><time>2026-03-29T09:05:04Z</time></trkpt><trkpt lat="45.731484874436696" lon="9.507329092117661"><ele>315.0</ele><time>2026-03-29T09:05:06Z</time></trkpt><trkpt lat="45.73150261856808" lon="9.507187683175786"><ele>315.0</ele><time>2026-03-29T09:05:08Z</time></trkpt><trkpt lat="45.731519609744936" lon="9.507058961656949"><ele>315.0</ele><time>2026-03-29T09:05:10Z</time></trkpt><trkpt lat="45.731535224970884" lon="9.50693067196622"><ele>315.3333333333333</ele><time>2026-03-29T09:05:12Z</time></trkpt><trkpt lat="45.73153161085947" lon="9.506812604409472"><ele>315.6666666666667</ele><time>2026-03-29T09:05:14Z</time></trkpt><trkpt lat="45.7315373709646" lon="9.506688893227086"><ele>316.0</ele><time>2026-03-29T09:05:16Z</time></trkpt><trkpt lat="45.73158157077149" lon="9.506581962882422"><ele>316.33333333333337</ele><time>2026-03-29T09:05:18Z</time></trkpt><trkpt lat="45.73159805793291" lon="9.506470493520727"><ele>316.6666666666667</ele><time>2026-03-29T09:05:20Z</time></trkpt><trkpt lat="45.73160808748828" lon="9.506353265943062"><ele>317.0</ele><time>2026-03-29T09:05:22Z</time></trkpt><trkpt lat="45.731601653537055" lon="9.506235539706275"><ele>316.0</ele><time>2026-03-29T09:05:24Z</time></trkpt><trkpt lat="45.73163867609813" lon="9.506160156337657"><ele>315.0</ele><time>2026-03-29T09:05:26Z</time></trkpt><trkpt lat="45.73166251806064" lon="9.50602264580454"><ele>314.0</ele><time>2026-03-29T09:05:31Z</time></trkpt><trkpt lat="45.73171378369579" lon="9.505969504890853"><ele>313.0</ele><time>2026-03-29T09:05:32Z</time></trkpt><trkpt lat="45.73172897058308" lon="9.505848342880222"><ele>312.0</ele><time>2026-03-29T09:05:33Z</time></trkpt><trkpt lat="45.731726789393804" lon="9.50569865540804"><ele>311.0</ele><time>2026-03-29T09:05:35Z</time></trkpt><trkpt lat="45.73172057767811" lon="9.505557075570817"><ele>311.0</ele><time>2026-03-29T09:05:37Z</time></trkpt><trkpt lat="45.73173461905973" lon="9.505468094100475"><ele>311.0</ele><time>2026-03-29T09:05:41Z</time></trkpt><trkpt lat="45.73173221021299" lon="9.505356173858086"><ele>311.0</ele><time>2026-03-29T09:05:43Z</time></trkpt><trkpt lat="45.73172169588122" lon="9.50524570204002"><ele>311.0</ele><time>2026-03-29T09:05:45Z</time></trkpt><trkpt lat="45.73171283397594" lon="9.505155157166918"><ele>311.0</ele><time>2026-03-29T09:05:47Z</time></trkpt><trkpt lat="45.73170406907844" lon="9.505025935130304"><ele>311.0</ele><time>2026-03-29T09:05:50Z</time></trkpt><trkpt lat="45.73172105317433" lon="9.504933595246609"><ele>311.0</ele><time>2026-03-29T09:05:52Z</time></trkpt><trkpt lat="45.73172010298005" lon="9.504804047177755"><ele>310.6666666666667</ele><time>2026-03-29T09:05:55Z</time></trkpt><trkpt lat="45.73171790000436" lon="9.504708940758269"><ele>310.33333333333337</ele><time>2026-03-29T09:05:58Z</time></trkpt><trkpt lat="45.73175906033256" lon="9.50463631468788"><ele>310.0</ele><time>2026-03-29T09:06:00Z</time></trkpt><trkpt lat="45.73172678139514" lon="9.50448838936148"><ele>309.6666666666667</ele><time>2026-03-29T09:06:03Z</time></trkpt><trkpt lat="45.73165764597263" lon="9.504398406338375"><ele>309.3333333333333</ele><time>2026-03-29T09:06:04Z</time></trkpt><trkpt lat="45.731606568701686" lon="9.504321979738638"><ele>309.0</ele><time>2026-03-29T09:06:05Z</time></trkpt><trkpt lat="45.731552934026325" lon="9.504191682838906"><ele>308.8333333333333</ele><time>2026-03-29T09:06:07Z</time></trkpt><trkpt lat="45.73149018452818" lon="9.504131801147388"><ele>308.6666666666667</ele><time>2026-03-29T09:06:08Z</time></trkpt><trkpt lat="45.73142681876526" lon="9.504099451542912"><ele>308.5</ele><time>2026-03-29T09:06:09Z</time></trkpt><trkpt lat="45.73136624058462" lon="9.504066328423331"><ele>308.33333333333337</ele><time>2026-03-29T09:06:10Z</time></trkpt><trkpt lat="45.731277656852505" lon="9.504001581055586"><ele>308.1666666666667</ele><time>2026-03-29T09:06:12Z</time></trkpt><trkpt lat="45.73117338101248" lon="9.503943866972708"><ele>308.0</ele><time>2026-03-29T09:06:14Z</time></trkpt><trkpt lat="45.73111205391674" lon="9.503904388993908"><ele>308.4</ele><time>2026-03-29T09:06:15Z</time></trkpt><trkpt lat="45.73103462123321" lon="9.503804891080623"><ele>308.8</ele><time>2026-03-29T09:06:17Z</time></trkpt><trkpt lat="45.73097013045377" lon="9.503709814437668"><ele>309.2</ele><time>2026-03-29T09:06:19Z</time></trkpt><trkpt lat="45.73087627562583" lon="9.503665975955665"><ele>309.6</ele><time>2026-03-29T09:06:21Z</time></trkpt><trkpt lat="45.73081693560627" lon="9.503618715703997"><ele>310.0</ele><time>2026-03-29T09:06:22Z</time></trkpt><trkpt lat="45.73073421452343" lon="9.503562371298857"><ele>309.2</ele><time>2026-03-29T09:06:24Z</time></trkpt><trkpt lat="45.73062890796493" lon="9.503508846825232"><ele>308.4</ele><time>2026-03-29T09:06:26Z</time></trkpt><trkpt lat="45.73052908560256" lon="9.503463087872598"><ele>307.6</ele><time>2026-03-29T09:06:28Z</time></trkpt><trkpt lat="45.73043062823118" lon="9.503427957673106"><ele>306.8</ele><time>2026-03-29T09:06:30Z</time></trkpt><trkpt lat="45.73036659686362" lon="9.503398940735618"><ele>306.0</ele><time>2026-03-29T09:06:31Z</time></trkpt><trkpt lat="45.73025853005227" lon="9.503340130087361"><ele>305.6</ele><time>2026-03-29T09:06:33Z</time></trkpt><trkpt lat="45.730166649532755" lon="9.50337428996372"><ele>305.20000000000005</ele><time>2026-03-29T09:06:35Z</time></trkpt><trkpt lat="45.73006460557778" lon="9.503429967304665"><ele>304.79999999999995</ele><time>2026-03-29T09:06:37Z</time></trkpt><trkpt lat="45.72997836843839" lon="9.503465560811541"><ele>304.4</ele><time>2026-03-29T09:06:39Z</time></trkpt><trkpt lat="45.72988230508932" lon="9.503464277591759"><ele>304.0</ele><time>2026-03-29T09:06:41Z</time></trkpt><trkpt lat="45.729794946808916" lon="9.503411360357852"><ele>304.0</ele><time>2026-03-29T09:06:43Z</time></trkpt><trkpt lat="45.72972069674332" lon="9.503320013840655"><ele>304.0</ele><time>2026-03-29T09:06:45Z</time></trkpt><trkpt lat="45.72963505889569" lon="9.503300904394813"><ele>304.0</ele><time>2026-03-29T09:06:50Z</time></trkpt><trkpt lat="45.72961034628671" lon="9.503176797203091"><ele>304.0</ele><time>2026-03-29T09:06:54Z</time></trkpt><trkpt lat="45.72950038356412" lon="9.503226979575686"><ele>304.0</ele><time>2026-03-29T09:06:55Z</time></trkpt><trkpt lat="45.72941926503719" lon="9.503264540149644"><ele>305.3333333333333</ele><time>2026-03-29T09:06:58Z</time></trkpt><trkpt lat="45.729349071697264" lon="9.503242312679506"><ele>306.66666666666663</ele><time>2026-03-29T09:07:01Z</time></trkpt><trkpt lat="45.72926561097608" lon="9.503230846009444"><ele>308.0</ele><time>2026-03-29T09:07:04Z</time></trkpt><trkpt lat="45.72917595673827" lon="9.503153305280653"><ele>309.3333333333333</ele><time>2026-03-29T09:07:07Z</time></trkpt><trkpt lat="45.72910351162956" lon="9.503097580450767"><ele>310.6666666666667</ele><time>2026-03-29T09:07:10Z</time></trkpt><trkpt lat="45.729024337822956" lon="9.503041239857655"><ele>312.0</ele><time>2026-03-29T09:07:12Z</time></trkpt><trkpt lat="45.72895310139857" lon="9.50308601897764"><ele>312.0</ele><time>2026-03-29T09:07:14Z</time></trkpt><trkpt lat="45.72886184589773" lon="9.503160867944"><ele>312.0</ele><time>2026-03-29T09:07:17Z</time></trkpt><trkpt lat="45.72880843618546" lon="9.503228633152942"><ele>312.0</ele><time>2026-03-29T09:07:19Z</time></trkpt><trkpt lat="45.72874487288613" lon="9.503293100816192"><ele>312.0</ele><time>2026-03-29T09:07:22Z</time></trkpt><trkpt lat="45.72866829774779" lon="9.503304659861035"><ele>312.0</ele><time>2026-03-29T09:07:24Z</time></trkpt><trkpt lat="45.728607376337706" lon="9.503368467490379"><ele>312.0</ele><time>2026-03-29T09:07:27Z</time></trkpt><trkpt lat="45.728548026827944" lon="9.503447808205465"><ele>314.0</ele><time>2026-03-29T09:07:30Z</time></trkpt><trkpt lat="45.728499472884295" lon="9.50351311837915"><ele>316.0</ele><time>2026-03-29T09:07:32Z</time></trkpt><trkpt lat="45.728500494393245" lon="9.503626843677633"><ele>318.0</ele><time>2026-03-29T09:07:35Z</time></trkpt><trkpt lat="45.72849076546228" lon="9.50376388109465"><ele>320.0</ele><time>2026-03-29T09:07:38Z</time></trkpt><trkpt lat="45.72849239684147" lon="9.503861671638644"><ele>322.0</ele><time>2026-03-29T09:07:40Z</time></trkpt><trkpt lat="45.728476251127866" lon="9.503965716380387"><ele>324.0</ele><time>2026-03-29T09:07:43Z</time></trkpt><trkpt lat="45.72849335976224" lon="9.504080856759439"><ele>324.6666666666667</ele><time>2026-03-29T09:07:45Z</time></trkpt><trkpt lat="45.72846900891371" lon="9.504175477868122"><ele>325.3333333333333</ele><time>2026-03-29T09:07:47Z</time></trkpt><trkpt lat="45.72848846131977" lon="9.504274623003933"><ele>326.0</ele><time>2026-03-29T09:07:49Z</time></trkpt><trkpt lat="45.72843842660276" lon="9.504374405087383"><ele>326.66666666666663</ele><time>2026-03-29T09:07:51Z</time></trkpt><trkpt lat="45.72840514509264" lon="9.504459974919266"><ele>327.3333333333333</ele><time>2026-03-29T09:07:54Z</time></trkpt><trkpt lat="45.72835054511079" lon="9.50454434248323"><ele>328.0</ele><time>2026-03-29T09:07:57Z</time></trkpt><trkpt lat="45.72832263277867" lon="9.504647259557148"><ele>328.66666666666663</ele><time>2026-03-29T09:07:58Z</time></trkpt><trkpt lat="45.72832021665237" lon="9.504797604596115"><ele>329.3333333333333</ele><time>2026-03-29T09:08:01Z</time></trkpt><trkpt lat="45.728281680535254" lon="9.504875415874581"><ele>330.0</ele><time>2026-03-29T09:08:03Z</time></trkpt><trkpt lat="45.72833230005184" lon="9.505010496643003"><ele>330.6666666666667</ele><time>2026-03-29T09:08:05Z</time></trkpt><trkpt lat="45.72837309841351" lon="9.50511364671326"><ele>331.33333333333337</ele><time>2026-03-29T09:08:07Z</time></trkpt><trkpt lat="45.72836658034036" lon="9.505225941212208"><ele>332.0</ele><time>2026-03-29T09:08:09Z</time></trkpt><trkpt lat="45.72836368835843" lon="9.505368188392028"><ele>332.5</ele><time>2026-03-29T09:08:11Z</time></trkpt><trkpt lat="45.72834999145607" lon="9.505469210498706"><ele>333.0</ele><time>2026-03-29T09:08:12Z</time></trkpt><trkpt lat="45.728356247807476" lon="9.505616964890393"><ele>333.5</ele><time>2026-03-29T09:08:14Z</time></trkpt><trkpt lat="45.72839233919562" lon="9.505736956751923"><ele>334.0</ele><time>2026-03-29T09:08:16Z</time></trkpt><trkpt lat="45.7284163636647" lon="9.505836048629082"><ele>334.5</ele><time>2026-03-29T09:08:18Z</time></trkpt><trkpt lat="45.7284055303476" lon="9.505935633634207"><ele>335.0</ele><time>2026-03-29T09:08:21Z</time></trkpt><trkpt lat="45.72836055763215" lon="9.506030234494709"><ele>335.0</ele><time>2026-03-29T09:08:23Z</time></trkpt><trkpt lat="45.728328061617404" lon="9.506143597007092"><ele>335.0</ele><time>2026-03-29T09:08:28Z</time></trkpt><trkpt lat="45.7282850695842" lon="9.506251160322687"><ele>335.0</ele><time>2026-03-29T09:08:31Z</time></trkpt><trkpt lat="45.72830176477206" lon="9.506346475905547"><ele>335.0</ele><time>2026-03-29T09:08:33Z</time></trkpt><trkpt lat="45.728280178058114" lon="9.506479296371575"><ele>335.0</ele><time>2026-03-29T09:08:37Z</time></trkpt><trkpt lat="45.7282204464393" lon="9.506568703158663"><ele>335.0</ele><time>2026-03-29T09:08:39Z</time></trkpt><trkpt lat="45.72820083546949" lon="9.506668556331608"><ele>334.6666666666667</ele><time>2026-03-29T09:08:42Z</time></trkpt><trkpt lat="45.728186789589564" lon="9.506786498695172"><ele>334.33333333333337</ele><time>2026-03-29T09:08:45Z</time></trkpt><trkpt lat="45.72815851937002" lon="9.506895077987284"><ele>334.0</ele><time>2026-03-29T09:08:48Z</time></trkpt><trkpt lat="45.72815579799121" lon="9.50699293196594"><ele>333.6666666666667</ele><time>2026-03-29T09:08:50Z</time></trkpt><trkpt lat="45.72812902989866" lon="9.507076592372028"><ele>333.3333333333333</ele><time>2026-03-29T09:08:51Z</time></trkpt><trkpt lat="45.72809746377358" lon="9.507197440271023"><ele>333.0</ele><time>2026-03-29T09:08:53Z</time></trkpt><trkpt lat="45.728065967414004" lon="9.507308703264526"><ele>332.5</ele><time>2026-03-29T09:08:57Z</time></trkpt><trkpt lat="45.728019783130556" lon="9.507414424245757"><ele>332.0</ele><time>2026-03-29T09:09:00Z</time></trkpt><trkpt lat="45.7279830077548" lon="9.507529325155383"><ele>331.5</ele><time>2026-03-29T09:09:03Z</time></trkpt><trkpt lat="45.72798021335224" lon="9.507648801622219"><ele>331.0</ele><time>2026-03-29T09:09:06Z</time></trkpt><trkpt lat="45.72794677863941" lon="9.507757772658493"><ele>330.5</ele><time>2026-03-29T09:09:09Z</time></trkpt><trkpt lat="45.72792607057862" lon="9.507870734723932"><ele>330.0</ele><time>2026-03-29T09:09:12Z</time></trkpt><trkpt lat="45.72788917490849" lon="9.507954347604318"><ele>329.8333333333333</ele><time>2026-03-29T09:09:15Z</time></trkpt><trkpt lat="45.72784418758777" lon="9.50804072973123"><ele>329.6666666666667</ele><time>2026-03-29T09:09:18Z</time></trkpt><trkpt lat="45.72780597512823" lon="9.508138965151003"><ele>329.5</ele><time>2026-03-29T09:09:21Z</time></trkpt><trkpt lat="45.72774180161827" lon="9.5081984595186"><ele>329.33333333333337</ele><time>2026-03-29T09:09:24Z</time></trkpt><trkpt lat="45.72771517398844" lon="9.508287419849658"><ele>329.1666666666667</ele><time>2026-03-29T09:09:27Z</time></trkpt><trkpt lat="45.72766753687703" lon="9.508379604748642"><ele>329.0</ele><time>2026-03-29T09:09:30Z</time></trkpt><trkpt lat="45.72767130854198" lon="9.508483218137759"><ele>335.0</ele><time>2026-03-29T09:09:32Z</time></trkpt><trkpt lat="45.72767247871305" lon="9.508580059309182"><ele>341.0</ele><time>2026-03-29T09:09:35Z</time></trkpt><trkpt lat="45.72767102877348" lon="9.508706673654169"><ele>347.0</ele><time>2026-03-29T09:09:38Z</time></trkpt><trkpt lat="45.72763678090594" lon="9.50879173522981"><ele>353.0</ele><time>2026-03-29T09:09:40Z</time></trkpt><trkpt lat="45.72763294972771" lon="9.508920829124941"><ele>359.0</ele><time>2026-03-29T09:09:43Z</time></trkpt><trkpt lat="45.72763273391367" lon="9.509036612924938"><ele>365.0</ele><time>2026-03-29T09:09:45Z</time></trkpt><trkpt lat="45.72760505072955" lon="9.50913104562532"><ele>365.0</ele><time>2026-03-29T09:09:47Z</time></trkpt><trkpt lat="45.727588367870254" lon="9.509239250264843"><ele>365.0</ele><time>2026-03-29T09:09:49Z</time></trkpt><trkpt lat="45.72750398161663" lon="9.509365437622362"><ele>365.0</ele><time>2026-03-29T09:10:04Z</time></trkpt><trkpt lat="45.72751548951247" lon="9.509267113472804"><ele>365.0</ele><time>2026-03-29T09:10:08Z</time></trkpt><trkpt lat="45.727489780919335" lon="9.509145848573567"><ele>365.0</ele><time>2026-03-29T09:10:12Z</time></trkpt><trkpt lat="45.727489763521596" lon="9.509046841616097"><ele>365.0</ele><time>2026-03-29T09:10:15Z</time></trkpt><trkpt lat="45.72746304633901" lon="9.50895318438103"><ele>365.0</ele><time>2026-03-29T09:10:19Z</time></trkpt><trkpt lat="45.727417880368975" lon="9.508845232609485"><ele>365.0</ele><time>2026-03-29T09:10:23Z</time></trkpt><trkpt lat="45.727412309703546" lon="9.508751162340776"><ele>365.0</ele><time>2026-03-29T09:10:25Z</time></trkpt><trkpt lat="45.727411554492996" lon="9.508645580009533"><ele>365.0</ele><time>2026-03-29T09:10:28Z</time></trkpt><trkpt lat="45.72739943273847" lon="9.50854041303519"><ele>365.0</ele><time>2026-03-29T09:10:31Z</time></trkpt><trkpt lat="45.727393862323524" lon="9.508418057193884"><ele>365.0</ele><time>2026-03-29T09:10:34Z</time></trkpt><trkpt lat="45.72738620225763" lon="9.508327644383664"><ele>365.14285714285717</ele><time>2026-03-29T09:10:36Z</time></trkpt><trkpt lat="45.727380998776084" lon="9.50822914675075"><ele>365.2857142857143</ele><time>2026-03-29T09:10:38Z</time></trkpt><trkpt lat="45.72736946920233" lon="9.508100648637004"><ele>365.42857142857144</ele><time>2026-03-29T09:10:41Z</time></trkpt><trkpt lat="45.72736772476539" lon="9.507981622036386"><ele>365.57142857142856</ele><time>2026-03-29T09:10:44Z</time></trkpt><trkpt lat="45.72734319295848" lon="9.50788603348849"><ele>365.7142857142857</ele><time>2026-03-29T09:10:47Z</time></trkpt><trkpt lat="45.72734879787452" lon="9.507794460724543"><ele>365.8571428571429</ele><time>2026-03-29T09:10:50Z</time></trkpt><trkpt lat="45.72736015004887" lon="9.507701611056593"><ele>366.0</ele><time>2026-03-29T09:10:53Z</time></trkpt><trkpt lat="45.72733994867655" lon="9.507603304141053"><ele>366.8333333333333</ele><time>2026-03-29T09:10:56Z</time></trkpt><trkpt lat="45.727327713300774" lon="9.507473105975196"><ele>367.6666666666667</ele><time>2026-03-29T09:10:59Z</time></trkpt><trkpt lat="45.72731150713876" lon="9.507372721876354"><ele>368.5</ele><time>2026-03-29T09:11:02Z</time></trkpt><trkpt lat="45.72731160931046" lon="9.507262487277659"><ele>369.33333333333337</ele><time>2026-03-29T09:11:05Z</time></trkpt><trkpt lat="45.72730524626497" lon="9.507159864237659"><ele>370.1666666666667</ele><time>2026-03-29T09:11:08Z</time></trkpt><trkpt lat="45.7273126388272" lon="9.507029098917013"><ele>371.0</ele><time>2026-03-29T09:11:11Z</time></trkpt><trkpt lat="45.727321199191074" lon="9.506921259645445"><ele>371.83333333333337</ele><time>2026-03-29T09:11:14Z</time></trkpt><trkpt lat="45.7273419827567" lon="9.506798014525602"><ele>372.6666666666667</ele><time>2026-03-29T09:11:17Z</time></trkpt><trkpt lat="45.72735116376673" lon="9.506699140618606"><ele>373.5</ele><time>2026-03-29T09:11:19Z</time></trkpt><trkpt lat="45.727319029029594" lon="9.506590263660168"><ele>374.3333333333333</ele><time>2026-03-29T09:11:22Z</time></trkpt><trkpt lat="45.72732242664263" lon="9.5064608209898"><ele>375.16666666666663</ele><time>2026-03-29T09:11:25Z</time></trkpt><trkpt lat="45.72732691087896" lon="9.50635563790102"><ele>376.0</ele><time>2026-03-29T09:11:28Z</time></trkpt><trkpt lat="45.72735790383721" lon="9.506263823049252"><ele>376.66666666666663</ele><time>2026-03-29T09:11:31Z</time></trkpt><trkpt lat="45.727352655379114" lon="9.506148089379527"><ele>377.3333333333333</ele><time>2026-03-29T09:11:34Z</time></trkpt><trkpt lat="45.727390337777074" lon="9.506034090044958"><ele>378.0</ele><time>2026-03-29T09:11:38Z</time></trkpt><trkpt lat="45.727385636088265" lon="9.50591666754924"><ele>378.6666666666667</ele><time>2026-03-29T09:11:41Z</time></trkpt><trkpt lat="45.72737003517431" lon="9.505808263572645"><ele>379.33333333333337</ele><time>2026-03-29T09:11:44Z</time></trkpt><trkpt lat="45.72734635376643" lon="9.50569645726269"><ele>380.0</ele><time>2026-03-29T09:11:48Z</time></trkpt><trkpt lat="45.72730391296224" lon="9.505609198578993"><ele>380.0</ele><time>2026-03-29T09:11:51Z</time></trkpt><trkpt lat="45.727276818854754" lon="9.505498578192359"><ele>380.0</ele><time>2026-03-29T09:11:54Z</time></trkpt><trkpt lat="45.72724202991305" lon="9.505419808036669"><ele>380.0</ele><time>2026-03-29T09:11:56Z</time></trkpt><trkpt lat="45.727202740754805" lon="9.505321836966175"><ele>380.0</ele><time>2026-03-29T09:11:59Z</time></trkpt><trkpt lat="45.727164064627715" lon="9.50523459352839"><ele>380.0</ele><time>2026-03-29T09:12:02Z</time></trkpt><trkpt lat="45.72710102360373" lon="9.505156176560513"><ele>380.0</ele><time>2026-03-29T09:12:05Z</time></trkpt><trkpt lat="45.727080975160156" lon="9.505033695120822"><ele>378.6</ele><time>2026-03-29T09:12:08Z</time></trkpt><trkpt lat="45.7270701544352" lon="9.504922182776488"><ele>377.2</ele><time>2026-03-29T09:12:11Z</time></trkpt><trkpt lat="45.72700807895573" lon="9.504902798232003"><ele>375.79999999999995</ele><time>2026-03-29T09:12:14Z</time></trkpt><trkpt lat="45.72700181672634" lon="9.505054524176922"><ele>374.4</ele><time>2026-03-29T09:12:19Z</time></trkpt><trkpt lat="45.72702403115968" lon="9.505172323024862"><ele>373.0</ele><time>2026-03-29T09:12:23Z</time></trkpt><trkpt lat="45.72708253959868" lon="9.505318945069257"><ele>373.0</ele><time>2026-03-29T09:12:28Z</time></trkpt><trkpt lat="45.72710346154495" lon="9.50540453994627"><ele>373.0</ele><time>2026-03-29T09:12:30Z</time></trkpt><trkpt lat="45.727089910329305" lon="9.505516757404964"><ele>373.0</ele><time>2026-03-29T09:12:31Z</time></trkpt><trkpt lat="45.72714951326131" lon="9.505625732975687"><ele>373.0</ele><time>2026-03-29T09:12:33Z</time></trkpt><trkpt lat="45.72718843758131" lon="9.505711502398976"><ele>373.0</ele><time>2026-03-29T09:12:35Z</time></trkpt><trkpt lat="45.7271688943501" lon="9.505813073134272"><ele>373.0</ele><time>2026-03-29T09:12:37Z</time></trkpt><trkpt lat="45.72711894603389" lon="9.505910330200159"><ele>373.5</ele><time>2026-03-29T09:12:39Z</time></trkpt><trkpt lat="45.72705444119816" lon="9.50604658589932"><ele>374.0</ele><time>2026-03-29T09:12:42Z</time></trkpt><trkpt lat="45.72702729466715" lon="9.506160411062023"><ele>374.5</ele><time>2026-03-29T09:12:46Z</time></trkpt><trkpt lat="45.727016834685" lon="9.506266962274704"><ele>375.0</ele><time>2026-03-29T09:12:49Z</time></trkpt><trkpt lat="45.72698421320197" lon="9.50638072378155"><ele>375.5</ele><time>2026-03-29T09:12:52Z</time></trkpt><trkpt lat="45.72696755906941" lon="9.506491619801054"><ele>376.0</ele><time>2026-03-29T09:12:56Z</time></trkpt><trkpt lat="45.72699133816581" lon="9.506578313893081"><ele>376.0</ele><time>2026-03-29T09:12:57Z</time></trkpt><trkpt lat="45.7269283096537" lon="9.506619201984703"><ele>376.0</ele><time>2026-03-29T09:12:59Z</time></trkpt><trkpt lat="45.72688125674879" lon="9.506746790037848"><ele>376.0</ele><time>2026-03-29T09:13:02Z</time></trkpt><trkpt lat="45.726881734795505" lon="9.506915588059652"><ele>376.0</ele><time>2026-03-29T09:13:06Z</time></trkpt><trkpt lat="45.72688243514483" lon="9.507041073788278"><ele>376.0</ele><time>2026-03-29T09:13:09Z</time></trkpt><trkpt lat="45.72683294005159" lon="9.507106286382218"><ele>376.0</ele><time>2026-03-29T09:13:11Z</time></trkpt><trkpt lat="45.726779490734415" lon="9.50720264609046"><ele>381.8333333333333</ele><time>2026-03-29T09:13:14Z</time></trkpt><trkpt lat="45.726752830362294" lon="9.507114894066804"><ele>387.66666666666663</ele><time>2026-03-29T09:13:21Z</time></trkpt><trkpt lat="45.726747703480704" lon="9.506980379016015"><ele>393.5</ele><time>2026-03-29T09:13:25Z</time></trkpt><trkpt lat="45.726725556801036" lon="9.506875859426625"><ele>399.3333333333333</ele><time>2026-03-29T09:13:29Z</time></trkpt><trkpt lat="45.72670954713636" lon="9.50677688562973"><ele>405.1666666666667</ele><time>2026-03-29T09:13:32Z</time></trkpt><trkpt lat="45.72671251833694" lon="9.506669281239063"><ele>411.0</ele><time>2026-03-29T09:13:35Z</time></trkpt><trkpt lat="45.726749818795" lon="9.506556471608727"><ele>412.5</ele><time>2026-03-29T09:13:38Z</time></trkpt><trkpt lat="45.72679121176288" lon="9.50645480011101"><ele>414.0</ele><time>2026-03-29T09:13:42Z</time></trkpt><trkpt lat="45.72683327664309" lon="9.506353368797164"><ele>415.5</ele><time>2026-03-29T09:13:46Z</time></trkpt><trkpt lat="45.7268331591204" lon="9.506261892516527"><ele>417.0</ele><time>2026-03-29T09:13:47Z</time></trkpt><trkpt lat="45.72683120399444" lon="9.50617168150369"><ele>418.5</ele><time>2026-03-29T09:13:48Z</time></trkpt><trkpt lat="45.72682076552758" lon="9.506062224643683"><ele>420.0</ele><time>2026-03-29T09:13:51Z</time></trkpt><trkpt lat="45.726812568697774" lon="9.505944977755949"><ele>420.8333333333333</ele><time>2026-03-29T09:13:54Z</time></trkpt><trkpt lat="45.72679816129728" lon="9.505829774794755"><ele>421.66666666666663</ele><time>2026-03-29T09:13:58Z</time></trkpt><trkpt lat="45.72677532990198" lon="9.505745493722664"><ele>422.5</ele><time>2026-03-29T09:14:00Z</time></trkpt><trkpt lat="45.726730511850036" lon="9.50563623459343"><ele>423.3333333333333</ele><time>2026-03-29T09:14:03Z</time></trkpt><trkpt lat="45.72670585878526" lon="9.50553867175615"><ele>424.16666666666663</ele><time>2026-03-29T09:14:06Z</time></trkpt><trkpt lat="45.72665039078303" lon="9.505455260522538"><ele>425.0</ele><time>2026-03-29T09:14:09Z</time></trkpt><trkpt lat="45.72657913308938" lon="9.505424774104998"><ele>424.49999999999994</ele><time>2026-03-29T09:14:12Z</time></trkpt><trkpt lat="45.72654840865963" lon="9.505318961616306"><ele>424.0</ele><time>2026-03-29T09:14:15Z</time></trkpt><trkpt lat="45.72655420343149" lon="9.505223743059055"><ele>423.5</ele><time>2026-03-29T09:14:17Z</time></trkpt><trkpt lat="45.72655686556849" lon="9.505124295501192"><ele>423.0</ele><time>2026-03-29T09:14:19Z</time></trkpt><trkpt lat="45.7265296202442" lon="9.505018161057803"><ele>422.49999999999994</ele><time>2026-03-29T09:14:21Z</time></trkpt><trkpt lat="45.72648655625719" lon="9.504917536100585"><ele>422.0</ele><time>2026-03-29T09:14:23Z</time></trkpt><trkpt lat="45.72646150297887" lon="9.504791320799411"><ele>421.99999999999994</ele><time>2026-03-29T09:14:25Z</time></trkpt><trkpt lat="45.72642240518129" lon="9.504713207575927"><ele>422.0</ele><time>2026-03-29T09:14:28Z</time></trkpt><trkpt lat="45.726381755582054" lon="9.504605498587033"><ele>422.0</ele><time>2026-03-29T09:14:31Z</time></trkpt><trkpt lat="45.726342994215315" lon="9.504509278322073"><ele>422.0</ele><time>2026-03-29T09:14:34Z</time></trkpt><trkpt lat="45.72635694534457" lon="9.504411827879208"><ele>421.99999999999994</ele><time>2026-03-29T09:14:37Z</time></trkpt><trkpt lat="45.7263389122184" lon="9.504318229952643"><ele>422.0</ele><time>2026-03-29T09:14:40Z</time></trkpt><trkpt lat="45.72633762828638" lon="9.504187305471362"><ele>420.99999999999994</ele><time>2026-03-29T09:14:43Z</time></trkpt><trkpt lat="45.726330534811694" lon="9.504079854594119"><ele>420.0</ele><time>2026-03-29T09:14:46Z</time></trkpt><trkpt lat="45.72627263744027" lon="9.504027489374643"><ele>419.0</ele><time>2026-03-29T09:14:50Z</time></trkpt><trkpt lat="45.726217731445395" lon="9.50411078630786"><ele>418.0</ele><time>2026-03-29T09:14:53Z</time></trkpt><trkpt lat="45.7262317132013" lon="9.504255652559007"><ele>416.99999999999994</ele><time>2026-03-29T09:14:57Z</time></trkpt><trkpt lat="45.726167625465656" lon="9.504326773531035"><ele>416.0</ele><time>2026-03-29T09:15:00Z</time></trkpt><trkpt lat="45.7261230644188" lon="9.504396998016748"><ele>415.99999999999994</ele><time>2026-03-29T09:15:03Z</time></trkpt><trkpt lat="45.72608306269707" lon="9.504506893160762"><ele>416.0</ele><time>2026-03-29T09:15:06Z</time></trkpt><trkpt lat="45.72610549915213" lon="9.504637340894554"><ele>416.0</ele><time>2026-03-29T09:15:10Z</time></trkpt><trkpt lat="45.72611095215214" lon="9.504734534270723"><ele>416.0</ele><time>2026-03-29T09:15:13Z</time></trkpt><trkpt lat="45.72613401162059" lon="9.504842924041004"><ele>415.99999999999994</ele><time>2026-03-29T09:15:17Z</time></trkpt><trkpt lat="45.72617329301203" lon="9.504950440110012"><ele>416.0</ele><time>2026-03-29T09:15:20Z</time></trkpt><trkpt lat="45.72620394029609" lon="9.50503525899263"><ele>416.99999999999994</ele><time>2026-03-29T09:15:23Z</time></trkpt><trkpt lat="45.72616340531796" lon="9.50511162102329"><ele>418.0</ele><time>2026-03-29T09:15:25Z</time></trkpt><trkpt lat="45.72608688200374" lon="9.505103563274655"><ele>419.0</ele><time>2026-03-29T09:15:29Z</time></trkpt><trkpt lat="45.726064959387465" lon="9.505017481177038"><ele>420.0</ele><time>2026-03-29T09:15:32Z</time></trkpt><trkpt lat="45.726072443775216" lon="9.504901111425468"><ele>420.99999999999994</ele><time>2026-03-29T09:15:36Z</time></trkpt><trkpt lat="45.72600634370754" lon="9.504828329755693"><ele>422.0</ele><time>2026-03-29T09:15:40Z</time></trkpt><trkpt lat="45.72595451983341" lon="9.504911253881176"><ele>421.99999999999994</ele><time>2026-03-29T09:15:43Z</time></trkpt><trkpt lat="45.72595939120895" lon="9.50501745000829"><ele>422.0</ele><time>2026-03-29T09:15:47Z</time></trkpt><trkpt lat="45.72596499779837" lon="9.50512261724871"><ele>422.0</ele><time>2026-03-29T09:15:50Z</time></trkpt><trkpt lat="45.72597621468837" lon="9.505247926552611"><ele>422.0</ele><time>2026-03-29T09:15:54Z</time></trkpt><trkpt lat="45.72604383984035" lon="9.505300345252197"><ele>421.99999999999994</ele><time>2026-03-29T09:15:57Z</time></trkpt><trkpt lat="45.726096880866415" lon="9.505392557862638"><ele>422.0</ele><time>2026-03-29T09:16:00Z</time></trkpt><trkpt lat="45.726155945375474" lon="9.505464886495046"><ele>422.42857142857144</ele><time>2026-03-29T09:16:03Z</time></trkpt><trkpt lat="45.726177739797286" lon="9.50555562078919"><ele>422.8571428571429</ele><time>2026-03-29T09:16:06Z</time></trkpt><trkpt lat="45.72611373202324" lon="9.505580708759638"><ele>423.2857142857143</ele><time>2026-03-29T09:16:11Z</time></trkpt><trkpt lat="45.72604008457034" lon="9.505572780824298"><ele>423.7142857142857</ele><time>2026-03-29T09:16:16Z</time></trkpt><trkpt lat="45.725985819244194" lon="9.505500351983144"><ele>424.1428571428571</ele><time>2026-03-29T09:16:19Z</time></trkpt><trkpt lat="45.72595612087663" lon="9.505395711468335"><ele>424.57142857142856</ele><time>2026-03-29T09:16:23Z</time></trkpt><trkpt lat="45.72595890247451" lon="9.505303000861177"><ele>425.0</ele><time>2026-03-29T09:16:26Z</time></trkpt><trkpt lat="45.72592542346388" lon="9.505203819174408"><ele>429.3333333333333</ele><time>2026-03-29T09:16:29Z</time></trkpt><trkpt lat="45.725887323013815" lon="9.50507132783779"><ele>433.66666666666663</ele><time>2026-03-29T09:16:32Z</time></trkpt><trkpt lat="45.72583745353682" lon="9.504999171851669"><ele>438.0</ele><time>2026-03-29T09:16:34Z</time></trkpt><trkpt lat="45.72578775479155" lon="9.504899981745979"><ele>442.33333333333337</ele><time>2026-03-29T09:16:36Z</time></trkpt><trkpt lat="45.725768658652356" lon="9.504783804439821"><ele>446.6666666666667</ele><time>2026-03-29T09:16:38Z</time></trkpt><trkpt lat="45.7257489314926" lon="9.504693081000651"><ele>451.0</ele><time>2026-03-29T09:16:40Z</time></trkpt><trkpt lat="45.725731309458794" lon="9.504579407220506"><ele>451.0</ele><time>2026-03-29T09:16:43Z</time></trkpt><trkpt lat="45.72570516831426" lon="9.504491156921668"><ele>451.0</ele><time>2026-03-29T09:16:46Z</time></trkpt><trkpt lat="45.72570214418566" lon="9.504372825468831"><ele>451.0</ele><time>2026-03-29T09:16:50Z</time></trkpt><trkpt lat="45.72566522662471" lon="9.50425465042398"><ele>451.0</ele><time>2026-03-29T09:16:54Z</time></trkpt><trkpt lat="45.725657369181974" lon="9.504161895828453"><ele>451.0</ele><time>2026-03-29T09:16:57Z</time></trkpt><trkpt lat="45.72563995928753" lon="9.504074684896967"><ele>451.0</ele><time>2026-03-29T09:17:00Z</time></trkpt><trkpt lat="45.725601180828335" lon="9.504001815765823"><ele>451.0</ele><time>2026-03-29T09:17:03Z</time></trkpt><trkpt lat="45.725572998160665" lon="9.503896417295381"><ele>451.0</ele><time>2026-03-29T09:17:06Z</time></trkpt><trkpt lat="45.72553749426689" lon="9.50378122481859"><ele>451.0</ele><time>2026-03-29T09:17:10Z</time></trkpt><trkpt lat="45.7254775155313" lon="9.503725485208005"><ele>451.0</ele><time>2026-03-29T09:17:13Z</time></trkpt><trkpt lat="45.72544131135328" lon="9.503643205661948"><ele>451.0</ele><time>2026-03-29T09:17:17Z</time></trkpt><trkpt lat="45.72542031777586" lon="9.503553839104628"><ele>451.0</ele><time>2026-03-29T09:17:21Z</time></trkpt><trkpt lat="45.72539158692657" lon="9.503473344826968"><ele>451.0</ele><time>2026-03-29T09:17:24Z</time></trkpt><trkpt lat="45.72534681057156" lon="9.503366345801474"><ele>451.0</ele><time>2026-03-29T09:17:28Z</time></trkpt><trkpt lat="45.725291532579654" lon="9.50328627661909"><ele>453.50000000000006</ele><time>2026-03-29T09:17:31Z</time></trkpt><trkpt lat="45.72522752388906" lon="9.503270664693106"><ele>456.0</ele><time>2026-03-29T09:17:32Z</time></trkpt><trkpt lat="45.725164049591875" lon="9.50322671870814"><ele>458.5</ele><time>2026-03-29T09:17:34Z</time></trkpt><trkpt lat="45.72509991306178" lon="9.503155289767065"><ele>461.0</ele><time>2026-03-29T09:17:37Z</time></trkpt><trkpt lat="45.72505242810024" lon="9.503075934493902"><ele>463.50000000000006</ele><time>2026-03-29T09:17:40Z</time></trkpt><trkpt lat="45.7250189685575" lon="9.50294966096996"><ele>466.0</ele><time>2026-03-29T09:17:43Z</time></trkpt><trkpt lat="45.7249955049144" lon="9.502838659575621"><ele>466.00000000000006</ele><time>2026-03-29T09:17:46Z</time></trkpt><trkpt lat="45.724920802982105" lon="9.502849896518164"><ele>466.0</ele><time>2026-03-29T09:17:48Z</time></trkpt><trkpt lat="45.724899880713565" lon="9.50294663942212"><ele>466.0</ele><time>2026-03-29T09:17:54Z</time></trkpt><trkpt lat="45.724923715560415" lon="9.503060602163698"><ele>466.0</ele><time>2026-03-29T09:17:58Z</time></trkpt><trkpt lat="45.72496325611645" lon="9.503155385356287"><ele>466.00000000000006</ele><time>2026-03-29T09:18:02Z</time></trkpt><trkpt lat="45.72500562670612" lon="9.50326541450887"><ele>466.0</ele><time>2026-03-29T09:18:05Z</time></trkpt><trkpt lat="45.725067964505314" lon="9.503361598537765"><ele>468.14285714285717</ele><time>2026-03-29T09:18:09Z</time></trkpt><trkpt lat="45.72511424353266" lon="9.503456018657086"><ele>470.2857142857142</ele><time>2026-03-29T09:18:14Z</time></trkpt><trkpt lat="45.72514446935014" lon="9.50354101767178"><ele>472.4285714285714</ele><time>2026-03-29T09:18:16Z</time></trkpt><trkpt lat="45.725156581597076" lon="9.503637983403758"><ele>474.57142857142856</ele><time>2026-03-29T09:18:18Z</time></trkpt><trkpt lat="45.7252041166237" lon="9.503716957988816"><ele>476.71428571428567</ele><time>2026-03-29T09:18:21Z</time></trkpt><trkpt lat="45.72522848821169" lon="9.503818625970945"><ele>478.8571428571428</ele><time>2026-03-29T09:18:24Z</time></trkpt><trkpt lat="45.72526340725957" lon="9.503895653712645"><ele>480.99999999999994</ele><time>2026-03-29T09:18:26Z</time></trkpt><trkpt lat="45.725296004870174" lon="9.504021505430533"><ele>476.6666666666667</ele><time>2026-03-29T09:18:30Z</time></trkpt><trkpt lat="45.7253433277903" lon="9.504105757281096"><ele>472.33333333333337</ele><time>2026-03-29T09:18:33Z</time></trkpt><trkpt lat="45.72540054706626" lon="9.504162928043987"><ele>468.0</ele><time>2026-03-29T09:18:35Z</time></trkpt><trkpt lat="45.725403536579336" lon="9.504265686279675"><ele>463.66666666666663</ele><time>2026-03-29T09:18:38Z</time></trkpt><trkpt lat="45.72539723709693" lon="9.504359814326175"><ele>459.3333333333333</ele><time>2026-03-29T09:18:41Z</time></trkpt><trkpt lat="45.72542714174719" lon="9.504470793258816"><ele>455.0</ele><time>2026-03-29T09:18:44Z</time></trkpt><trkpt lat="45.725430315334265" lon="9.504599916919968"><ele>455.0</ele><time>2026-03-29T09:18:48Z</time></trkpt><trkpt lat="45.72537793625343" lon="9.504653074444292"><ele>455.0</ele><time>2026-03-29T09:18:51Z</time></trkpt><trkpt lat="45.725373014345415" lon="9.504558394261766"><ele>455.0</ele><time>2026-03-29T09:18:55Z</time></trkpt><trkpt lat="45.72537063784433" lon="9.504461577178068"><ele>455.0</ele><time>2026-03-29T09:18:58Z</time></trkpt><trkpt lat="45.725355190815506" lon="9.504339948178053"><ele>455.0</ele><time>2026-03-29T09:19:02Z</time></trkpt><trkpt lat="45.725321200361186" lon="9.50426172483788"><ele>455.0</ele><time>2026-03-29T09:19:05Z</time></trkpt><trkpt lat="45.72529500498862" lon="9.504167628355878"><ele>455.0</ele><time>2026-03-29T09:19:08Z</time></trkpt><trkpt lat="45.72525310963175" lon="9.504095619180383"><ele>458.7142857142857</ele><time>2026-03-29T09:19:11Z</time></trkpt><trkpt lat="45.72522258027575" lon="9.503998475736756"><ele>462.42857142857144</ele><time>2026-03-29T09:19:15Z</time></trkpt><trkpt lat="45.725171161646" lon="9.50392701530026"><ele>466.1428571428571</ele><time>2026-03-29T09:19:18Z</time></trkpt><trkpt lat="45.72513778363163" lon="9.503818930064083"><ele>469.85714285714283</ele><time>2026-03-29T09:19:22Z</time></trkpt><trkpt lat="45.72507738390345" lon="9.503787591710967"><ele>473.57142857142856</ele><time>2026-03-29T09:19:25Z</time></trkpt><trkpt lat="45.72502904152934" lon="9.503728723632168"><ele>477.2857142857142</ele><time>2026-03-29T09:19:28Z</time></trkpt><trkpt lat="45.72498116597217" lon="9.503662427316694"><ele>480.99999999999994</ele><time>2026-03-29T09:19:31Z</time></trkpt><trkpt lat="45.724929632874506" lon="9.503587259720428"><ele>481.00000000000006</ele><time>2026-03-29T09:19:34Z</time></trkpt><trkpt lat="45.724891588860416" lon="9.503511380198477"><ele>481.0</ele><time>2026-03-29T09:19:37Z</time></trkpt><trkpt lat="45.72483082750735" lon="9.503422259369765"><ele>481.0</ele><time>2026-03-29T09:19:40Z</time></trkpt><trkpt lat="45.724783495379455" lon="9.503344498677022"><ele>481.0</ele><time>2026-03-29T09:19:43Z</time></trkpt><trkpt lat="45.724723347159426" lon="9.503283932541219"><ele>481.00000000000006</ele><time>2026-03-29T09:19:46Z</time></trkpt><trkpt lat="45.7246874569882" lon="9.503199030303747"><ele>481.0</ele><time>2026-03-29T09:19:49Z</time></trkpt><trkpt lat="45.72464067532918" lon="9.503088433502025"><ele>481.00000000000006</ele><time>2026-03-29T09:19:52Z</time></trkpt><trkpt lat="45.72462113949449" lon="9.503001718488154"><ele>481.0</ele><time>2026-03-29T09:19:54Z</time></trkpt><trkpt lat="45.72459995352966" lon="9.502891862024821"><ele>481.0</ele><time>2026-03-29T09:19:57Z</time></trkpt><trkpt lat="45.7245513347692" lon="9.502762838310371"><ele>481.0</ele><time>2026-03-29T09:20:00Z</time></trkpt><trkpt lat="45.724490225147676" lon="9.502715139941902"><ele>481.00000000000006</ele><time>2026-03-29T09:20:03Z</time></trkpt><trkpt lat="45.724423899269084" lon="9.502648155581532"><ele>481.0</ele><time>2026-03-29T09:20:07Z</time></trkpt><trkpt lat="45.72435572850813" lon="9.502602552669865"><ele>485.6666666666667</ele><time>2026-03-29T09:20:10Z</time></trkpt><trkpt lat="45.724289183417206" lon="9.502517870761073"><ele>490.33333333333337</ele><time>2026-03-29T09:20:14Z</time></trkpt><trkpt lat="45.72425100834719" lon="9.502442248238555"><ele>495.0</ele><time>2026-03-29T09:20:17Z</time></trkpt><trkpt lat="45.724242938307746" lon="9.502288531217985"><ele>499.66666666666663</ele><time>2026-03-29T09:20:20Z</time></trkpt><trkpt lat="45.72419439827632" lon="9.5022228314083"><ele>504.3333333333333</ele><time>2026-03-29T09:20:23Z</time></trkpt><trkpt lat="45.724149931079424" lon="9.502132029499117"><ele>509.0</ele><time>2026-03-29T09:20:27Z</time></trkpt><trkpt lat="45.724089136554966" lon="9.502083172130849"><ele>507.66666666666663</ele><time>2026-03-29T09:20:29Z</time></trkpt><trkpt lat="45.724050086860146" lon="9.501972945637531"><ele>506.3333333333333</ele><time>2026-03-29T09:20:32Z</time></trkpt><trkpt lat="45.724038978200824" lon="9.501867193133254"><ele>505.0</ele><time>2026-03-29T09:20:35Z</time></trkpt><trkpt lat="45.72401152859229" lon="9.50176945194088"><ele>503.66666666666663</ele><time>2026-03-29T09:20:38Z</time></trkpt><trkpt lat="45.72397077805636" lon="9.501682132563596"><ele>502.3333333333333</ele><time>2026-03-29T09:20:41Z</time></trkpt><trkpt lat="45.72391788419504" lon="9.501572928070795"><ele>501.0</ele><time>2026-03-29T09:20:44Z</time></trkpt><trkpt lat="45.723905899207004" lon="9.501481951560013"><ele>501.0</ele><time>2026-03-29T09:20:46Z</time></trkpt><trkpt lat="45.72379676397081" lon="9.501453209626114"><ele>501.0</ele><time>2026-03-29T09:20:49Z</time></trkpt><trkpt lat="45.72374024714886" lon="9.50149306963267"><ele>501.0</ele><time>2026-03-29T09:20:52Z</time></trkpt><trkpt lat="45.723712450177196" lon="9.501613817236528"><ele>501.0</ele><time>2026-03-29T09:20:56Z</time></trkpt><trkpt lat="45.723767536478086" lon="9.501690444229387"><ele>501.0</ele><time>2026-03-29T09:21:00Z</time></trkpt><trkpt lat="45.72380472981808" lon="9.50179199873129"><ele>501.0</ele><time>2026-03-29T09:21:04Z</time></trkpt><trkpt lat="45.72385600895433" lon="9.501879968621772"><ele>501.0</ele><time>2026-03-29T09:21:09Z</time></trkpt><trkpt lat="45.72383929593441" lon="9.502016822692948"><ele>501.0</ele><time>2026-03-29T09:21:12Z</time></trkpt><trkpt lat="45.723880754071956" lon="9.50210486640885"><ele>501.0</ele><time>2026-03-29T09:21:16Z</time></trkpt><trkpt lat="45.723917079726554" lon="9.502212415058343"><ele>501.0</ele><time>2026-03-29T09:21:19Z</time></trkpt><trkpt lat="45.72392405527382" lon="9.502341874592176"><ele>501.0</ele><time>2026-03-29T09:21:23Z</time></trkpt><trkpt lat="45.72395509245128" lon="9.502452421630853"><ele>501.0</ele><time>2026-03-29T09:21:27Z</time></trkpt><trkpt lat="45.72400039031285" lon="9.502520682043532"><ele>502.14285714285717</ele><time>2026-03-29T09:21:30Z</time></trkpt><trkpt lat="45.72399591162831" lon="9.502647859493761"><ele>503.2857142857142</ele><time>2026-03-29T09:21:33Z</time></trkpt><trkpt lat="45.72404643140087" lon="9.502708431157714"><ele>504.4285714285714</ele><time>2026-03-29T09:21:35Z</time></trkpt><trkpt lat="45.72408594023585" lon="9.502785727859324"><ele>505.57142857142856</ele><time>2026-03-29T09:21:38Z</time></trkpt><trkpt lat="45.724111002148696" lon="9.502888122122657"><ele>506.71428571428567</ele><time>2026-03-29T09:21:42Z</time></trkpt><trkpt lat="45.724123398808935" lon="9.50298539517445"><ele>507.8571428571428</ele><time>2026-03-29T09:21:45Z</time></trkpt><trkpt lat="45.72414398279004" lon="9.50309848550752"><ele>508.99999999999994</ele><time>2026-03-29T09:21:49Z</time></trkpt><trkpt lat="45.72415835146093" lon="9.503196842405721"><ele>508.99999999999994</ele><time>2026-03-29T09:21:52Z</time></trkpt><trkpt lat="45.72417606081337" lon="9.503313270438989"><ele>509.0</ele><time>2026-03-29T09:21:56Z</time></trkpt><trkpt lat="45.72413955867159" lon="9.503223752149195"><ele>509.0</ele><time>2026-03-29T09:22:07Z</time></trkpt><trkpt lat="45.72413374615358" lon="9.503122762811689"><ele>509.0</ele><time>2026-03-29T09:22:11Z</time></trkpt><trkpt lat="45.72409183383735" lon="9.503018004871015"><ele>508.99999999999994</ele><time>2026-03-29T09:22:15Z</time></trkpt><trkpt lat="45.72406321436311" lon="9.502917813214328"><ele>509.0</ele><time>2026-03-29T09:22:19Z</time></trkpt><trkpt lat="45.72401168580911" lon="9.502854418365247"><ele>508.99999999999994</ele><time>2026-03-29T09:22:22Z</time></trkpt><trkpt lat="45.723957596100284" lon="9.502765759732586"><ele>509.0</ele><time>2026-03-29T09:22:26Z</time></trkpt><trkpt lat="45.72391430262337" lon="9.502658943570747"><ele>509.0</ele><time>2026-03-29T09:22:30Z</time></trkpt><trkpt lat="45.72387295297716" lon="9.502549122983842"><ele>509.0</ele><time>2026-03-29T09:22:34Z</time></trkpt><trkpt lat="45.72386874838579" lon="9.502454732241507"><ele>508.99999999999994</ele><time>2026-03-29T09:22:37Z</time></trkpt><trkpt lat="45.72383266912581" lon="9.502378629041853"><ele>509.0</ele><time>2026-03-29T09:22:40Z</time></trkpt><trkpt lat="45.72377832144292" lon="9.502290418988995"><ele>508.99999999999994</ele><time>2026-03-29T09:22:43Z</time></trkpt><trkpt lat="45.723702077677984" lon="9.502218016122304"><ele>509.0</ele><time>2026-03-29T09:22:46Z</time></trkpt><trkpt lat="45.72364730161624" lon="9.502142153654422"><ele>509.0</ele><time>2026-03-29T09:22:49Z</time></trkpt><trkpt lat="45.72360367358041" lon="9.502054414197877"><ele>509.0</ele><time>2026-03-29T09:22:52Z</time></trkpt><trkpt lat="45.72356733002265" lon="9.501976604410174"><ele>508.99999999999994</ele><time>2026-03-29T09:22:55Z</time></trkpt><trkpt lat="45.72352054501924" lon="9.501879138195376"><ele>509.0</ele><time>2026-03-29T09:22:59Z</time></trkpt><trkpt lat="45.723495724224755" lon="9.501764210516685"><ele>514.3333333333333</ele><time>2026-03-29T09:23:02Z</time></trkpt><trkpt lat="45.723478318374674" lon="9.501648280717399"><ele>519.6666666666666</ele><time>2026-03-29T09:23:05Z</time></trkpt><trkpt lat="45.72343477517624" lon="9.501550949009452"><ele>525.0</ele><time>2026-03-29T09:23:08Z</time></trkpt><trkpt lat="45.72338945600657" lon="9.501473931708057"><ele>530.3333333333334</ele><time>2026-03-29T09:23:11Z</time></trkpt><trkpt lat="45.72335743812461" lon="9.501385052728105"><ele>535.6666666666667</ele><time>2026-03-29T09:23:14Z</time></trkpt><trkpt lat="45.723306685560914" lon="9.501299207694109"><ele>541.0</ele><time>2026-03-29T09:23:18Z</time></trkpt><trkpt lat="45.72328431264856" lon="9.50118754197969"><ele>541.0</ele><time>2026-03-29T09:23:22Z</time></trkpt><trkpt lat="45.72327411939113" lon="9.501091851733884"><ele>541.0</ele><time>2026-03-29T09:23:26Z</time></trkpt><trkpt lat="45.72321790832359" lon="9.500993021450318"><ele>541.0</ele><time>2026-03-29T09:23:30Z</time></trkpt><trkpt lat="45.723181827508256" lon="9.500908837405792"><ele>541.0</ele><time>2026-03-29T09:23:33Z</time></trkpt><trkpt lat="45.72312434206585" lon="9.501010696566146"><ele>541.0</ele><time>2026-03-29T09:23:40Z</time></trkpt><trkpt lat="45.72313027631972" lon="9.501151083764054"><ele>541.0</ele><time>2026-03-29T09:23:45Z</time></trkpt><trkpt lat="45.7231298227269" lon="9.501262561096476"><ele>541.0</ele><time>2026-03-29T09:23:49Z</time></trkpt><trkpt lat="45.72314088768149" lon="9.501376113814688"><ele>541.0</ele><time>2026-03-29T09:23:54Z</time></trkpt><trkpt lat="45.72315041321445" lon="9.501489516823748"><ele>541.0</ele><time>2026-03-29T09:23:58Z</time></trkpt><trkpt lat="45.723165867063486" lon="9.501576971275542"><ele>541.0</ele><time>2026-03-29T09:24:01Z</time></trkpt><trkpt lat="45.723190671046225" lon="9.501673799400184"><ele>541.0</ele><time>2026-03-29T09:24:04Z</time></trkpt><trkpt lat="45.72323637013385" lon="9.501779903170949"><ele>541.0</ele><time>2026-03-29T09:24:08Z</time></trkpt><trkpt lat="45.72325404121613" lon="9.501898019691124"><ele>541.0</ele><time>2026-03-29T09:24:12Z</time></trkpt><trkpt lat="45.7232733732342" lon="9.501995904240875"><ele>541.0</ele><time>2026-03-29T09:24:16Z</time></trkpt><trkpt lat="45.723308185569664" lon="9.50207862188397"><ele>541.0</ele><time>2026-03-29T09:24:19Z</time></trkpt><trkpt lat="45.72333080426246" lon="9.502169618673769"><ele>541.0</ele><time>2026-03-29T09:24:22Z</time></trkpt><trkpt lat="45.72336830542173" lon="9.502261817362786"><ele>541.0</ele><time>2026-03-29T09:24:26Z</time></trkpt><trkpt lat="45.723419906041556" lon="9.502378473034055"><ele>541.0</ele><time>2026-03-29T09:24:30Z</time></trkpt><trkpt lat="45.72340392819054" lon="9.502505185546429"><ele>542.5</ele><time>2026-03-29T09:24:34Z</time></trkpt><trkpt lat="45.72338005570029" lon="9.502613285018032"><ele>544.0</ele><time>2026-03-29T09:24:37Z</time></trkpt><trkpt lat="45.72337945474986" lon="9.502773142280464"><ele>545.5</ele><time>2026-03-29T09:24:40Z</time></trkpt><trkpt lat="45.72336354836119" lon="9.502872079865783"><ele>547.0</ele><time>2026-03-29T09:24:42Z</time></trkpt><trkpt lat="45.72341539438881" lon="9.502811378190172"><ele>548.5</ele><time>2026-03-29T09:24:49Z</time></trkpt><trkpt lat="45.7234453702816" lon="9.502724368730552"><ele>550.0</ele><time>2026-03-29T09:24:52Z</time></trkpt><trkpt lat="45.7234172058187" lon="9.502616582345633"><ele>550.0</ele><time>2026-03-29T09:24:56Z</time></trkpt><trkpt lat="45.72337881204843" lon="9.502523256716806"><ele>550.0</ele><time>2026-03-29T09:25:00Z</time></trkpt><trkpt lat="45.7233390253995" lon="9.502447232657211"><ele>550.0</ele><time>2026-03-29T09:25:03Z</time></trkpt><trkpt lat="45.72330296980051" lon="9.502326224859418"><ele>550.0</ele><time>2026-03-29T09:25:07Z</time></trkpt><trkpt lat="45.723277537309" lon="9.502239662385659"><ele>550.0</ele><time>2026-03-29T09:25:10Z</time></trkpt><trkpt lat="45.72323476622972" lon="9.502148314066797"><ele>550.0</ele><time>2026-03-29T09:25:13Z</time></trkpt><trkpt lat="45.723202407948385" lon="9.502070442076532"><ele>550.0</ele><time>2026-03-29T09:25:16Z</time></trkpt><trkpt lat="45.723175741728895" lon="9.501986851804563"><ele>548.7142857142858</ele><time>2026-03-29T09:25:19Z</time></trkpt><trkpt lat="45.72313831227952" lon="9.501888358267536"><ele>547.4285714285714</ele><time>2026-03-29T09:25:23Z</time></trkpt><trkpt lat="45.72309360036542" lon="9.501807649213433"><ele>546.1428571428571</ele><time>2026-03-29T09:25:26Z</time></trkpt><trkpt lat="45.72307053836728" lon="9.50171159208128"><ele>544.8571428571429</ele><time>2026-03-29T09:25:29Z</time></trkpt><trkpt lat="45.72303459549984" lon="9.501628539168433"><ele>543.5714285714286</ele><time>2026-03-29T09:25:32Z</time></trkpt><trkpt lat="45.72299488553149" lon="9.50155585843996"><ele>542.2857142857143</ele><time>2026-03-29T09:25:35Z</time></trkpt><trkpt lat="45.72294223939817" lon="9.501480881039623"><ele>541.0</ele><time>2026-03-29T09:25:38Z</time></trkpt><trkpt lat="45.72289290870769" lon="9.501424656919982"><ele>541.0</ele><time>2026-03-29T09:25:41Z</time></trkpt><trkpt lat="45.72288258500809" lon="9.501316453458994"><ele>541.0</ele><time>2026-03-29T09:25:45Z</time></trkpt><trkpt lat="45.72289868371726" lon="9.501213286712524"><ele>541.0</ele><time>2026-03-29T09:25:48Z</time></trkpt><trkpt lat="45.72291595637354" lon="9.501085750468134"><ele>541.0</ele><time>2026-03-29T09:25:52Z</time></trkpt><trkpt lat="45.72290396596982" lon="9.500961154963646"><ele>541.0</ele><time>2026-03-29T09:25:56Z</time></trkpt><trkpt lat="45.722844040398705" lon="9.500858268010415"><ele>541.0</ele><time>2026-03-29T09:25:59Z</time></trkpt><trkpt lat="45.722797983256655" lon="9.500787744862004"><ele>541.5714285714287</ele><time>2026-03-29T09:26:01Z</time></trkpt><trkpt lat="45.72275698040396" lon="9.500717175288734"><ele>542.1428571428571</ele><time>2026-03-29T09:26:04Z</time></trkpt><trkpt lat="45.72275273119372" lon="9.500616627840387"><ele>542.7142857142858</ele><time>2026-03-29T09:26:07Z</time></trkpt><trkpt lat="45.722766964458245" lon="9.500528552276565"><ele>543.2857142857143</ele><time>2026-03-29T09:26:10Z</time></trkpt><trkpt lat="45.722781534255326" lon="9.500428223705907"><ele>543.8571428571429</ele><time>2026-03-29T09:26:13Z</time></trkpt><trkpt lat="45.72276639494261" lon="9.500300520039154"><ele>544.4285714285714</ele><time>2026-03-29T09:26:16Z</time></trkpt><trkpt lat="45.72274223080126" lon="9.500211101471919"><ele>545.0</ele><time>2026-03-29T09:26:20Z</time></trkpt><trkpt lat="45.72264894551598" lon="9.500254249607968"><ele>551.7142857142858</ele><time>2026-03-29T09:26:23Z</time></trkpt><trkpt lat="45.72260390039983" lon="9.500338312694977"><ele>558.4285714285714</ele><time>2026-03-29T09:26:26Z</time></trkpt><trkpt lat="45.7225762606902" lon="9.500423248311028"><ele>565.1428571428571</ele><time>2026-03-29T09:26:29Z</time></trkpt><trkpt lat="45.72255713195986" lon="9.500531131062237"><ele>571.8571428571429</ele><time>2026-03-29T09:26:34Z</time></trkpt><trkpt lat="45.72257589636314" lon="9.500649521657344"><ele>578.5714285714286</ele><time>2026-03-29T09:26:37Z</time></trkpt><trkpt lat="45.72259056268509" lon="9.50075799734703"><ele>585.2857142857143</ele><time>2026-03-29T09:26:40Z</time></trkpt><trkpt lat="45.722557980679" lon="9.500837899688833"><ele>592.0</ele><time>2026-03-29T09:26:43Z</time></trkpt><trkpt lat="45.722547582029634" lon="9.500932372181623"><ele>592.0</ele><time>2026-03-29T09:26:46Z</time></trkpt><trkpt lat="45.722556535527886" lon="9.501052370127416"><ele>592.0</ele><time>2026-03-29T09:26:49Z</time></trkpt><trkpt lat="45.72256027453987" lon="9.50115775974708"><ele>592.0</ele><time>2026-03-29T09:26:52Z</time></trkpt><trkpt lat="45.72258704497015" lon="9.501260182357385"><ele>592.0</ele><time>2026-03-29T09:26:55Z</time></trkpt><trkpt lat="45.72259727818233" lon="9.501376777511664"><ele>592.0</ele><time>2026-03-29T09:26:59Z</time></trkpt><trkpt lat="45.722600949412154" lon="9.50151864233162"><ele>592.0</ele><time>2026-03-29T09:27:03Z</time></trkpt><trkpt lat="45.72263995979466" lon="9.501594161058538"><ele>592.6666666666667</ele><time>2026-03-29T09:27:06Z</time></trkpt><trkpt lat="45.722677218232" lon="9.501681427063438"><ele>593.3333333333334</ele><time>2026-03-29T09:27:09Z</time></trkpt><trkpt lat="45.72273382728249" lon="9.50176004288945"><ele>594.0</ele><time>2026-03-29T09:27:13Z</time></trkpt><trkpt lat="45.72277648996005" lon="9.5018267002075"><ele>594.6666666666666</ele><time>2026-03-29T09:27:15Z</time></trkpt><trkpt lat="45.72277303579141" lon="9.50193493025663"><ele>595.3333333333333</ele><time>2026-03-29T09:27:17Z</time></trkpt><trkpt lat="45.72277856176623" lon="9.502039253779442"><ele>596.0</ele><time>2026-03-29T09:27:21Z</time></trkpt><trkpt lat="45.722773688710966" lon="9.502171573508866"><ele>596.0</ele><time>2026-03-29T09:27:24Z</time></trkpt><trkpt lat="45.722772004617205" lon="9.502288809183613"><ele>596.0</ele><time>2026-03-29T09:27:27Z</time></trkpt><trkpt lat="45.72279708429832" lon="9.502201990782588"><ele>596.0</ele><time>2026-03-29T09:27:34Z</time></trkpt><trkpt lat="45.722789044296015" lon="9.502108330868259"><ele>596.0</ele><time>2026-03-29T09:27:38Z</time></trkpt><trkpt lat="45.72276092792657" lon="9.502011912635272"><ele>596.0</ele><time>2026-03-29T09:27:42Z</time></trkpt><trkpt lat="45.72270400057368" lon="9.501944517051328"><ele>596.0</ele><time>2026-03-29T09:27:45Z</time></trkpt><trkpt lat="45.722649070794695" lon="9.501897620071503"><ele>596.0</ele><time>2026-03-29T09:27:48Z</time></trkpt><trkpt lat="45.72261119655124" lon="9.501811524522111"><ele>596.0</ele><time>2026-03-29T09:27:52Z</time></trkpt><trkpt lat="45.72260611213586" lon="9.501701042367946"><ele>596.0</ele><time>2026-03-29T09:27:55Z</time></trkpt><trkpt lat="45.7225422025732" lon="9.501628765735312"><ele>596.0</ele><time>2026-03-29T09:27:58Z</time></trkpt><trkpt lat="45.72247505728264" lon="9.501553918249424"><ele>596.0</ele><time>2026-03-29T09:28:01Z</time></trkpt><trkpt lat="45.72247426081928" lon="9.501421035838552"><ele>596.0</ele><time>2026-03-29T09:28:05Z</time></trkpt><trkpt lat="45.722486742393784" lon="9.501326191182674"><ele>596.0</ele><time>2026-03-29T09:28:07Z</time></trkpt><trkpt lat="45.72247833300807" lon="9.501214213992832"><ele>595.3333333333333</ele><time>2026-03-29T09:28:10Z</time></trkpt><trkpt lat="45.72244112040417" lon="9.501129743943778"><ele>594.6666666666666</ele><time>2026-03-29T09:28:13Z</time></trkpt><trkpt lat="45.7224237341934" lon="9.501010988496263"><ele>594.0</ele><time>2026-03-29T09:28:16Z</time></trkpt><trkpt lat="45.72239937519602" lon="9.500913385563846"><ele>593.3333333333334</ele><time>2026-03-29T09:28:19Z</time></trkpt><trkpt lat="45.72232309941543" lon="9.500846861131999"><ele>592.6666666666667</ele><time>2026-03-29T09:28:21Z</time></trkpt><trkpt lat="45.722271927892876" lon="9.5007707109538"><ele>592.0</ele><time>2026-03-29T09:28:24Z</time></trkpt><trkpt lat="45.722275702851256" lon="9.500629803878"><ele>592.0</ele><time>2026-03-29T09:28:28Z</time></trkpt><trkpt lat="45.722304404833956" lon="9.500548991397554"><ele>592.0</ele><time>2026-03-29T09:28:31Z</time></trkpt><trkpt lat="45.72231426469108" lon="9.500453841886982"><ele>592.0</ele><time>2026-03-29T09:28:34Z</time></trkpt><trkpt lat="45.722283665092185" lon="9.500342980314736"><ele>592.0</ele><time>2026-03-29T09:28:37Z</time></trkpt><trkpt lat="45.72226683723627" lon="9.50022595894685"><ele>592.0</ele><time>2026-03-29T09:28:40Z</time></trkpt><trkpt lat="45.72222386914571" lon="9.500130721609343"><ele>592.0</ele><time>2026-03-29T09:28:42Z</time></trkpt><trkpt lat="45.72223329478263" lon="9.500022854068487"><ele>592.1428571428571</ele><time>2026-03-29T09:28:45Z</time></trkpt><trkpt lat="45.72223098508455" lon="9.499924739223976"><ele>592.2857142857142</ele><time>2026-03-29T09:28:48Z</time></trkpt><trkpt lat="45.72223316558601" lon="9.49982674314512"><ele>592.4285714285713</ele><time>2026-03-29T09:28:51Z</time></trkpt><trkpt lat="45.72222087089427" lon="9.499719860305502"><ele>592.5714285714286</ele><time>2026-03-29T09:28:54Z</time></trkpt><trkpt lat="45.7222189184711" lon="9.499626780793685"><ele>592.7142857142857</ele><time>2026-03-29T09:28:57Z</time></trkpt><trkpt lat="45.72222010012624" lon="9.499504453391566"><ele>592.8571428571428</ele><time>2026-03-29T09:29:00Z</time></trkpt><trkpt lat="45.722258910730524" lon="9.499433008205223"><ele>593.0</ele><time>2026-03-29T09:29:02Z</time></trkpt><trkpt lat="45.72230843476414" lon="9.499361330862245"><ele>596.3333333333333</ele><time>2026-03-29T09:29:04Z</time></trkpt><trkpt lat="45.722321676003794" lon="9.499263036558776"><ele>599.6666666666666</ele><time>2026-03-29T09:29:06Z</time></trkpt><trkpt lat="45.722368531941754" lon="9.499196462174346"><ele>603.0</ele><time>2026-03-29T09:29:10Z</time></trkpt><trkpt lat="45.72241350519319" lon="9.499113973815753"><ele>606.3333333333334</ele><time>2026-03-29T09:29:14Z</time></trkpt><trkpt lat="45.72247641336494" lon="9.49902764032382"><ele>609.6666666666667</ele><time>2026-03-29T09:29:18Z</time></trkpt><trkpt lat="45.72251144037052" lon="9.498947398427989"><ele>613.0</ele><time>2026-03-29T09:29:22Z</time></trkpt><trkpt lat="45.7225318680118" lon="9.498781609293031"><ele>610.0</ele><time>2026-03-29T09:29:24Z</time></trkpt><trkpt lat="45.72255096003411" lon="9.498666241484788"><ele>607.0</ele><time>2026-03-29T09:29:27Z</time></trkpt><trkpt lat="45.72260752865073" lon="9.498593955423683"><ele>604.0</ele><time>2026-03-29T09:29:31Z</time></trkpt><trkpt lat="45.722641629158055" lon="9.498513096960325"><ele>601.0</ele><time>2026-03-29T09:29:34Z</time></trkpt><trkpt lat="45.72269327927378" lon="9.498425427225747"><ele>598.0</ele><time>2026-03-29T09:29:37Z</time></trkpt><trkpt lat="45.72274033817154" lon="9.498339785985886"><ele>595.0</ele><time>2026-03-29T09:29:40Z</time></trkpt><trkpt lat="45.722802769201756" lon="9.498218338847051"><ele>595.0</ele><time>2026-03-29T09:29:44Z</time></trkpt><trkpt lat="45.72281217532266" lon="9.498068765508096"><ele>595.0</ele><time>2026-03-29T09:29:46Z</time></trkpt><trkpt lat="45.72281241074252" lon="9.497970762410393"><ele>595.0</ele><time>2026-03-29T09:29:48Z</time></trkpt><trkpt lat="45.722822345307414" lon="9.497880803182644"><ele>595.0</ele><time>2026-03-29T09:29:50Z</time></trkpt><trkpt lat="45.72284197180498" lon="9.4977695205926"><ele>595.0</ele><time>2026-03-29T09:29:53Z</time></trkpt><trkpt lat="45.72286204655069" lon="9.497651880679811"><ele>595.0</ele><time>2026-03-29T09:29:55Z</time></trkpt><trkpt lat="45.72288570632631" lon="9.497566622950533"><ele>596.8571428571429</ele><time>2026-03-29T09:29:57Z</time></trkpt><trkpt lat="45.72292879410307" lon="9.497466300180294"><ele>598.7142857142858</ele><time>2026-03-29T09:30:00Z</time></trkpt><trkpt lat="45.72294786103851" lon="9.497376318282134"><ele>600.5714285714286</ele><time>2026-03-29T09:30:03Z</time></trkpt><trkpt lat="45.72293854161415" lon="9.497273807520106"><ele>602.4285714285714</ele><time>2026-03-29T09:30:06Z</time></trkpt><trkpt lat="45.72297658873344" lon="9.497198457071567"><ele>604.2857142857143</ele><time>2026-03-29T09:30:08Z</time></trkpt><trkpt lat="45.72296830898442" lon="9.49707190834383"><ele>606.1428571428571</ele><time>2026-03-29T09:30:11Z</time></trkpt><trkpt lat="45.72298436043051" lon="9.496978161919074"><ele>608.0</ele><time>2026-03-29T09:30:14Z</time></trkpt><trkpt lat="45.72298320609183" lon="9.496879939702149"><ele>607.6666666666666</ele><time>2026-03-29T09:30:17Z</time></trkpt><trkpt lat="45.722983157876556" lon="9.49677952697486"><ele>607.3333333333333</ele><time>2026-03-29T09:30:20Z</time></trkpt><trkpt lat="45.72298639052102" lon="9.496651162763337"><ele>607.0</ele><time>2026-03-29T09:30:23Z</time></trkpt><trkpt lat="45.722994566164815" lon="9.496527172861024"><ele>606.6666666666666</ele><time>2026-03-29T09:30:27Z</time></trkpt><trkpt lat="45.722982535530846" lon="9.496397163730348"><ele>606.3333333333334</ele><time>2026-03-29T09:30:31Z</time></trkpt><trkpt lat="45.72298534520435" lon="9.496264378909496"><ele>606.0</ele><time>2026-03-29T09:30:35Z</time></trkpt><trkpt lat="45.72297250415893" lon="9.496155998106568"><ele>606.0</ele><time>2026-03-29T09:30:37Z</time></trkpt><trkpt lat="45.72295925602465" lon="9.496031377418468"><ele>606.0</ele><time>2026-03-29T09:30:41Z</time></trkpt><trkpt lat="45.72292893264051" lon="9.495945616842775"><ele>606.0</ele><time>2026-03-29T09:30:44Z</time></trkpt><trkpt lat="45.722916565503354" lon="9.495829778970764"><ele>606.0</ele><time>2026-03-29T09:30:48Z</time></trkpt><trkpt lat="45.722922782299165" lon="9.49569987801172"><ele>606.0</ele><time>2026-03-29T09:30:51Z</time></trkpt><trkpt lat="45.72292044572419" lon="9.49559414650033"><ele>606.0</ele><time>2026-03-29T09:30:54Z</time></trkpt><trkpt lat="45.72290183163671" lon="9.495505344684503"><ele>605.5</ele><time>2026-03-29T09:30:56Z</time></trkpt><trkpt lat="45.722891477783456" lon="9.495409429378828"><ele>605.0</ele><time>2026-03-29T09:30:58Z</time></trkpt><trkpt lat="45.72287662285125" lon="9.495284286551703"><ele>604.5</ele><time>2026-03-29T09:31:01Z</time></trkpt><trkpt lat="45.72286358496175" lon="9.495160985331545"><ele>604.0</ele><time>2026-03-29T09:31:05Z</time></trkpt><trkpt lat="45.722844764862636" lon="9.495051376129734"><ele>603.5</ele><time>2026-03-29T09:31:08Z</time></trkpt><trkpt lat="45.72282438300233" lon="9.49496075352412"><ele>603.0</ele><time>2026-03-29T09:31:11Z</time></trkpt><trkpt lat="45.7227616151062" lon="9.494879415909576"><ele>603.0</ele><time>2026-03-29T09:31:15Z</time></trkpt><trkpt lat="45.722744598036186" lon="9.494773910653421"><ele>603.0</ele><time>2026-03-29T09:31:18Z</time></trkpt><trkpt lat="45.722772651249265" lon="9.494682044606108"><ele>603.0</ele><time>2026-03-29T09:31:22Z</time></trkpt><trkpt lat="45.722705769587" lon="9.494680945425351"><ele>603.0</ele><time>2026-03-29T09:31:29Z</time></trkpt><trkpt lat="45.722747738271295" lon="9.494485680855938"><ele>603.0</ele><time>2026-03-29T09:34:24Z</time></trkpt><trkpt lat="45.722784692824774" lon="9.494394927890996"><ele>603.0</ele><time>2026-03-29T09:34:27Z</time></trkpt><trkpt lat="45.72279831426885" lon="9.494275611015347"><ele>603.4285714285714</ele><time>2026-03-29T09:34:30Z</time></trkpt><trkpt lat="45.722836749758656" lon="9.49419534700649"><ele>603.8571428571428</ele><time>2026-03-29T09:34:32Z</time></trkpt><trkpt lat="45.72287397129046" lon="9.494111136423488"><ele>604.2857142857142</ele><time>2026-03-29T09:34:34Z</time></trkpt><trkpt lat="45.722901380841435" lon="9.49402600956042"><ele>604.7142857142858</ele><time>2026-03-29T09:34:36Z</time></trkpt><trkpt lat="45.72292957990587" lon="9.493933196780414"><ele>605.1428571428571</ele><time>2026-03-29T09:34:39Z</time></trkpt><trkpt lat="45.72290626510397" lon="9.49384645518516"><ele>605.5714285714286</ele><time>2026-03-29T09:34:41Z</time></trkpt><trkpt lat="45.72288713249279" lon="9.493707760702842"><ele>606.0</ele><time>2026-03-29T09:34:44Z</time></trkpt><trkpt lat="45.722879145119045" lon="9.493577794844997"><ele>607.1666666666666</ele><time>2026-03-29T09:34:47Z</time></trkpt><trkpt lat="45.72287062957235" lon="9.493434411657253"><ele>608.3333333333334</ele><time>2026-03-29T09:34:50Z</time></trkpt><trkpt lat="45.72287969149032" lon="9.49330787531088"><ele>609.5</ele><time>2026-03-29T09:34:53Z</time></trkpt><trkpt lat="45.72291519290572" lon="9.49319622869401"><ele>610.6666666666667</ele><time>2026-03-29T09:34:55Z</time></trkpt><trkpt lat="45.72290500991491" lon="9.493091540543228"><ele>611.8333333333334</ele><time>2026-03-29T09:34:57Z</time></trkpt><trkpt lat="45.72292770719755" lon="9.492972489445815"><ele>613.0</ele><time>2026-03-29T09:35:00Z</time></trkpt><trkpt lat="45.72290950829534" lon="9.492851440128184"><ele>615.1999999999999</ele><time>2026-03-29T09:35:03Z</time></trkpt><trkpt lat="45.722876981612615" lon="9.492757174896125"><ele>617.4</ele><time>2026-03-29T09:35:04Z</time></trkpt><trkpt lat="45.7228036842511" lon="9.492643012564582"><ele>619.5999999999999</ele><time>2026-03-29T09:35:06Z</time></trkpt><trkpt lat="45.72272668676858" lon="9.49255435526925"><ele>621.8</ele><time>2026-03-29T09:35:08Z</time></trkpt><trkpt lat="45.722672621937534" lon="9.492444903470409"><ele>624.0</ele><time>2026-03-29T09:35:11Z</time></trkpt><trkpt lat="45.722546248565315" lon="9.492446139682746"><ele>624.0</ele><time>2026-03-29T09:35:13Z</time></trkpt><trkpt lat="45.72252577511972" lon="9.492569213018417"><ele>624.0</ele><time>2026-03-29T09:35:14Z</time></trkpt><trkpt lat="45.7224957669153" lon="9.49265005405165"><ele>624.0</ele><time>2026-03-29T09:35:15Z</time></trkpt><trkpt lat="45.72248166760095" lon="9.492785760431868"><ele>624.0</ele><time>2026-03-29T09:35:17Z</time></trkpt><trkpt lat="45.72246744974019" lon="9.492927357141182"><ele>624.0</ele><time>2026-03-29T09:35:19Z</time></trkpt><trkpt lat="45.72244487749941" lon="9.493073649090771"><ele>623.6666666666666</ele><time>2026-03-29T09:35:21Z</time></trkpt><trkpt lat="45.72237487122489" lon="9.493168112650215"><ele>623.3333333333334</ele><time>2026-03-29T09:35:23Z</time></trkpt><trkpt lat="45.722331751177805" lon="9.493273427550598"><ele>623.0</ele><time>2026-03-29T09:35:24Z</time></trkpt><trkpt lat="45.72230498682182" lon="9.493357424004241"><ele>622.6666666666667</ele><time>2026-03-29T09:35:25Z</time></trkpt><trkpt lat="45.72228231691638" lon="9.493452500779698"><ele>622.3333333333334</ele><time>2026-03-29T09:35:26Z</time></trkpt><trkpt lat="45.722262859340006" lon="9.493545472328147"><ele>622.0</ele><time>2026-03-29T09:35:27Z</time></trkpt><trkpt lat="45.722238005396164" lon="9.493703045996055"><ele>622.0</ele><time>2026-03-29T09:35:29Z</time></trkpt><trkpt lat="45.72220636516412" lon="9.493867641029787"><ele>622.0</ele><time>2026-03-29T09:35:31Z</time></trkpt><trkpt lat="45.72217967990434" lon="9.494020696283512"><ele>622.0</ele><time>2026-03-29T09:35:33Z</time></trkpt><trkpt lat="45.72214091668509" lon="9.494158476824008"><ele>622.0</ele><time>2026-03-29T09:35:35Z</time></trkpt><trkpt lat="45.72211842831272" lon="9.494250549919816"><ele>622.0</ele><time>2026-03-29T09:35:36Z</time></trkpt><trkpt lat="45.72207576068207" lon="9.494360769745184"><ele>622.0</ele><time>2026-03-29T09:35:38Z</time></trkpt><trkpt lat="45.72204312972141" lon="9.49447354646266"><ele>622.0</ele><time>2026-03-29T09:35:40Z</time></trkpt><trkpt lat="45.72202339478321" lon="9.494577839954838"><ele>622.0</ele><time>2026-03-29T09:35:42Z</time></trkpt><trkpt lat="45.721969658650785" lon="9.494675352141392"><ele>622.0</ele><time>2026-03-29T09:35:44Z</time></trkpt><trkpt lat="45.721945196718124" lon="9.494793904077378"><ele>622.0</ele><time>2026-03-29T09:35:46Z</time></trkpt><trkpt lat="45.72191513975085" lon="9.49494053025083"><ele>622.0</ele><time>2026-03-29T09:35:48Z</time></trkpt><trkpt lat="45.721876452690964" lon="9.495052374445645"><ele>621.6666666666667</ele><time>2026-03-29T09:35:50Z</time></trkpt><trkpt lat="45.721889400112076" lon="9.49519261122202"><ele>621.3333333333334</ele><time>2026-03-29T09:35:52Z</time></trkpt><trkpt lat="45.721876406123585" lon="9.495284532884074"><ele>621.0</ele><time>2026-03-29T09:35:55Z</time></trkpt><trkpt lat="45.721865989914654" lon="9.495389497149674"><ele>620.6666666666666</ele><time>2026-03-29T09:35:58Z</time></trkpt><trkpt lat="45.72179114449629" lon="9.495431750827043"><ele>620.3333333333333</ele><time>2026-03-29T09:36:00Z</time></trkpt><trkpt lat="45.721718491082974" lon="9.495511733916508"><ele>620.0</ele><time>2026-03-29T09:36:03Z</time></trkpt><trkpt lat="45.72172722016983" lon="9.495620800886977"><ele>620.0</ele><time>2026-03-29T09:36:05Z</time></trkpt><trkpt lat="45.72167023146369" lon="9.495684018532284"><ele>620.0</ele><time>2026-03-29T09:36:07Z</time></trkpt><trkpt lat="45.721595541794755" lon="9.495709846142084"><ele>620.0</ele><time>2026-03-29T09:36:09Z</time></trkpt><trkpt lat="45.72151985394585" lon="9.495726848159148"><ele>620.0</ele><time>2026-03-29T09:36:10Z</time></trkpt><trkpt lat="45.72142747221062" lon="9.495735663796296"><ele>620.0</ele><time>2026-03-29T09:36:11Z</time></trkpt><trkpt lat="45.72136475777789" lon="9.495756707053443"><ele>620.0</ele><time>2026-03-29T09:36:12Z</time></trkpt><trkpt lat="45.721264015483875" lon="9.495893829907082"><ele>620.0</ele><time>2026-03-29T09:36:14Z</time></trkpt><trkpt lat="45.72118167834123" lon="9.495710206965619"><ele>620.0</ele><time>2026-03-29T09:36:15Z</time></trkpt><trkpt lat="45.72113047525351" lon="9.495654471643197"><ele>620.0</ele><time>2026-03-29T09:36:16Z</time></trkpt><trkpt lat="45.721016883861225" lon="9.495571928221077"><ele>620.0</ele><time>2026-03-29T09:36:18Z</time></trkpt><trkpt lat="45.72093659543859" lon="9.495539561865034"><ele>620.0</ele><time>2026-03-29T09:36:19Z</time></trkpt><trkpt lat="45.720838710074226" lon="9.495481520291667"><ele>619.3333333333333</ele><time>2026-03-29T09:36:21Z</time></trkpt><trkpt lat="45.72077489195112" lon="9.495487493312584"><ele>618.6666666666666</ele><time>2026-03-29T09:36:22Z</time></trkpt><trkpt lat="45.720699352451945" lon="9.49551102687183"><ele>618.0</ele><time>2026-03-29T09:36:23Z</time></trkpt><trkpt lat="45.72062893876395" lon="9.495546182877"><ele>617.3333333333334</ele><time>2026-03-29T09:36:24Z</time></trkpt><trkpt lat="45.72054618988182" lon="9.495545677411487"><ele>616.6666666666667</ele><time>2026-03-29T09:36:25Z</time></trkpt><trkpt lat="45.72044927376417" lon="9.495554801291503"><ele>616.0</ele><time>2026-03-29T09:36:27Z</time></trkpt><trkpt lat="45.72041332058849" lon="9.495434769847872"><ele>611.6</ele><time>2026-03-29T09:36:28Z</time></trkpt><trkpt lat="45.720484077378416" lon="9.495339942273826"><ele>607.2</ele><time>2026-03-29T09:36:30Z</time></trkpt><trkpt lat="45.720599853758216" lon="9.49540036574849"><ele>602.8</ele><time>2026-03-29T09:36:34Z</time></trkpt><trkpt lat="45.720663099254665" lon="9.495383570774038"><ele>598.4</ele><time>2026-03-29T09:36:37Z</time></trkpt><trkpt lat="45.720767901283395" lon="9.495330565091114"><ele>594.0</ele><time>2026-03-29T09:36:39Z</time></trkpt><trkpt lat="45.72083126189717" lon="9.495306822061936"><ele>594.0</ele><time>2026-03-29T09:36:41Z</time></trkpt><trkpt lat="45.72103993816723" lon="9.495270643518342"><ele>594.0</ele><time>2026-03-29T09:36:43Z</time></trkpt><trkpt lat="45.72115099008176" lon="9.495210115818724"><ele>594.0</ele><time>2026-03-29T09:36:44Z</time></trkpt><trkpt lat="45.721239245012434" lon="9.495174941456447"><ele>594.0</ele><time>2026-03-29T09:36:45Z</time></trkpt><trkpt lat="45.72133416606327" lon="9.495134161336653"><ele>596.6</ele><time>2026-03-29T09:36:46Z</time></trkpt><trkpt lat="45.72139743127208" lon="9.495079741007926"><ele>599.2</ele><time>2026-03-29T09:36:47Z</time></trkpt><trkpt lat="45.721461663810395" lon="9.494955551590255"><ele>601.8000000000001</ele><time>2026-03-29T09:36:49Z</time></trkpt><trkpt lat="45.72142455700638" lon="9.494839003443222"><ele>604.4</ele><time>2026-03-29T09:36:50Z</time></trkpt><trkpt lat="45.7213408346888" lon="9.49470386153313"><ele>607.0</ele><time>2026-03-29T09:36:51Z</time></trkpt><trkpt lat="45.72127036560499" lon="9.494647811661373"><ele>605.8333333333334</ele><time>2026-03-29T09:36:52Z</time></trkpt><trkpt lat="45.72121447355969" lon="9.494568541890628"><ele>604.6666666666667</ele><time>2026-03-29T09:37:02Z</time></trkpt><trkpt lat="45.721147405505725" lon="9.49457235432275"><ele>603.5</ele><time>2026-03-29T09:37:03Z</time></trkpt><trkpt lat="45.721051961399674" lon="9.494642857812378"><ele>602.3333333333334</ele><time>2026-03-29T09:37:05Z</time></trkpt><trkpt lat="45.72092915145787" lon="9.494658285168414"><ele>601.1666666666666</ele><time>2026-03-29T09:37:07Z</time></trkpt><trkpt lat="45.720858474876174" lon="9.49466901410911"><ele>600.0</ele><time>2026-03-29T09:37:08Z</time></trkpt><trkpt lat="45.72077065847096" lon="9.494680778608704"><ele>598.8</ele><time>2026-03-29T09:37:10Z</time></trkpt><trkpt lat="45.7206829605705" lon="9.49468714683317"><ele>597.6</ele><time>2026-03-29T09:37:12Z</time></trkpt><trkpt lat="45.720593754604195" lon="9.494689140681317"><ele>596.4</ele><time>2026-03-29T09:37:15Z</time></trkpt><trkpt lat="45.720499762461046" lon="9.49470500079296"><ele>595.2</ele><time>2026-03-29T09:37:17Z</time></trkpt><trkpt lat="45.72039805600839" lon="9.494690224314102"><ele>594.0</ele><time>2026-03-29T09:37:19Z</time></trkpt><trkpt lat="45.72028663195365" lon="9.494658355916034"><ele>593.0</ele><time>2026-03-29T09:37:21Z</time></trkpt><trkpt lat="45.72017371297992" lon="9.494633484056939"><ele>592.0</ele><time>2026-03-29T09:37:23Z</time></trkpt><trkpt lat="45.720105691656244" lon="9.494649824795761"><ele>591.0</ele><time>2026-03-29T09:37:24Z</time></trkpt><trkpt lat="45.71999827304892" lon="9.49470694788441"><ele>590.0</ele><time>2026-03-29T09:37:26Z</time></trkpt><trkpt lat="45.71991583384028" lon="9.494799436918608"><ele>589.0</ele><time>2026-03-29T09:37:28Z</time></trkpt><trkpt lat="45.71982728251599" lon="9.49481221813064"><ele>589.0</ele><time>2026-03-29T09:37:30Z</time></trkpt><trkpt lat="45.719893155723206" lon="9.494617266979379"><ele>589.0</ele><time>2026-03-29T09:37:32Z</time></trkpt><trkpt lat="45.7199539603978" lon="9.494645770532847"><ele>589.0</ele><time>2026-03-29T09:37:35Z</time></trkpt><trkpt lat="45.72005384552367" lon="9.494588630568632"><ele>589.0</ele><time>2026-03-29T09:37:45.001Z</time></trkpt><trkpt lat="45.72019400279029" lon="9.494546636371938"><ele>586.0</ele><time>2026-03-29T09:37:48.001Z</time></trkpt><trkpt lat="45.72049633071845" lon="9.494469655200236"><ele>583.0</ele><time>2026-03-29T09:37:54Z</time></trkpt><trkpt lat="45.720538650623254" lon="9.494391975686685"><ele>580.0</ele><time>2026-03-29T09:37:55Z</time></trkpt><trkpt lat="45.72055295056143" lon="9.494289405990568"><ele>577.0</ele><time>2026-03-29T09:37:56Z</time></trkpt><trkpt lat="45.72035261101097" lon="9.494190445687966"><ele>577.0</ele><time>2026-03-29T09:38:00Z</time></trkpt><trkpt lat="45.720283239552444" lon="9.494195676886845"><ele>577.0</ele><time>2026-03-29T09:38:01Z</time></trkpt><trkpt lat="45.72021280400999" lon="9.494200986975962"><ele>577.0</ele><time>2026-03-29T09:38:02Z</time></trkpt><trkpt lat="45.720076350011176" lon="9.494201854959858"><ele>577.0</ele><time>2026-03-29T09:38:04Z</time></trkpt><trkpt lat="45.720000206890994" lon="9.494216188160394"><ele>577.0</ele><time>2026-03-29T09:38:05Z</time></trkpt><trkpt lat="45.71993837170308" lon="9.49425083789688"><ele>577.0</ele><time>2026-03-29T09:38:06Z</time></trkpt><trkpt lat="45.71985246083904" lon="9.494261780385667"><ele>574.5</ele><time>2026-03-29T09:38:07Z</time></trkpt><trkpt lat="45.71976665145001" lon="9.49423811966438"><ele>572.0</ele><time>2026-03-29T09:38:08Z</time></trkpt><trkpt lat="45.71965912898204" lon="9.494215859110549"><ele>569.5</ele><time>2026-03-29T09:38:09Z</time></trkpt><trkpt lat="45.71959053906644" lon="9.494199004103084"><ele>567.0</ele><time>2026-03-29T09:38:10Z</time></trkpt><trkpt lat="45.719516311720405" lon="9.494181262635303"><ele>564.5</ele><time>2026-03-29T09:38:11Z</time></trkpt><trkpt lat="45.71943926580983" lon="9.494169458446569"><ele>562.0</ele><time>2026-03-29T09:38:12Z</time></trkpt><trkpt lat="45.71936194669216" lon="9.494190466301701"><ele>560.2</ele><time>2026-03-29T09:38:13Z</time></trkpt><trkpt lat="45.719282058047256" lon="9.494150433325373"><ele>558.4000000000001</ele><time>2026-03-29T09:38:14Z</time></trkpt><trkpt lat="45.71916724854381" lon="9.49420679438638"><ele>556.5999999999999</ele><time>2026-03-29T09:38:16Z</time></trkpt><trkpt lat="45.71906340497973" lon="9.49426547796644"><ele>554.8</ele><time>2026-03-29T09:38:18Z</time></trkpt><trkpt lat="45.71899192713567" lon="9.494301780980667"><ele>553.0</ele><time>2026-03-29T09:38:19Z</time></trkpt><trkpt lat="45.718947659115905" lon="9.494378537417036"><ele>553.0</ele><time>2026-03-29T09:38:20Z</time></trkpt><trkpt lat="45.7188627768886" lon="9.49445323631095"><ele>553.0</ele><time>2026-03-29T09:38:22Z</time></trkpt><trkpt lat="45.71879621584431" lon="9.494453273432342"><ele>553.0</ele><time>2026-03-29T09:38:24Z</time></trkpt><trkpt lat="45.71876276178112" lon="9.494339657569087"><ele>553.0</ele><time>2026-03-29T09:38:26Z</time></trkpt><trkpt lat="45.71881706241776" lon="9.49427555275499"><ele>553.0</ele><time>2026-03-29T09:38:28Z</time></trkpt><trkpt lat="45.718933643417685" lon="9.494231541399024"><ele>553.0</ele><time>2026-03-29T09:38:30Z</time></trkpt><trkpt lat="45.71899116430556" lon="9.494162268244716"><ele>553.0</ele><time>2026-03-29T09:38:31Z</time></trkpt><trkpt lat="45.719054257435154" lon="9.494115309582039"><ele>553.0</ele><time>2026-03-29T09:38:32Z</time></trkpt><trkpt lat="45.71918591033016" lon="9.494042971393585"><ele>553.0</ele><time>2026-03-29T09:38:34Z</time></trkpt><trkpt lat="45.719279671256125" lon="9.494036943224016"><ele>553.0</ele><time>2026-03-29T09:38:38Z</time></trkpt><trkpt lat="45.71933883609259" lon="9.493989653277223"><ele>553.0</ele><time>2026-03-29T09:38:39Z</time></trkpt><trkpt lat="45.719431925483164" lon="9.49394407192567"><ele>553.0</ele><time>2026-03-29T09:38:41Z</time></trkpt><trkpt lat="45.71950776469096" lon="9.49386992295834"><ele>553.0</ele><time>2026-03-29T09:38:43Z</time></trkpt><trkpt lat="45.71946004670865" lon="9.493775643174992"><ele>553.0</ele><time>2026-03-29T09:38:46Z</time></trkpt><trkpt lat="45.71937180966892" lon="9.493746437380654"><ele>553.0</ele><time>2026-03-29T09:38:48Z</time></trkpt><trkpt lat="45.71925955128302" lon="9.49374298404981"><ele>553.0</ele><time>2026-03-29T09:38:50Z</time></trkpt><trkpt lat="45.71919386236615" lon="9.493730241072063"><ele>553.0</ele><time>2026-03-29T09:38:51Z</time></trkpt><trkpt lat="45.71907478118096" lon="9.493760941089281"><ele>553.0</ele><time>2026-03-29T09:38:53Z</time></trkpt><trkpt lat="45.71899427017228" lon="9.493783951636894"><ele>553.0</ele><time>2026-03-29T09:38:54Z</time></trkpt><trkpt lat="45.71889847303678" lon="9.49381748725931"><ele>553.0</ele><time>2026-03-29T09:38:55Z</time></trkpt><trkpt lat="45.7188090459137" lon="9.493842826254"><ele>553.0</ele><time>2026-03-29T09:38:56Z</time></trkpt><trkpt lat="45.718723067610824" lon="9.493871290408622"><ele>553.0</ele><time>2026-03-29T09:38:57Z</time></trkpt><trkpt lat="45.71865174568563" lon="9.493894483949894"><ele>553.0</ele><time>2026-03-29T09:38:58Z</time></trkpt><trkpt lat="45.718575994958265" lon="9.493918479508661"><ele>548.1999999999999</ele><time>2026-03-29T09:38:59Z</time></trkpt><trkpt lat="45.7185032305304" lon="9.493941120455537"><ele>543.4</ele><time>2026-03-29T09:39:00.001Z</time></trkpt><trkpt lat="45.71840347607606" lon="9.493965743248644"><ele>538.5999999999999</ele><time>2026-03-29T09:39:01.001Z</time></trkpt><trkpt lat="45.718313927190316" lon="9.493969477720443"><ele>533.8</ele><time>2026-03-29T09:39:02.001Z</time></trkpt><trkpt lat="45.718218412227614" lon="9.493931128114381"><ele>529.0</ele><time>2026-03-29T09:39:03.001Z</time></trkpt><trkpt lat="45.71814496800603" lon="9.493859343630277"><ele>529.0</ele><time>2026-03-29T09:39:05.001Z</time></trkpt><trkpt lat="45.71816130361059" lon="9.493761592414176"><ele>529.0</ele><time>2026-03-29T09:39:08.001Z</time></trkpt><trkpt lat="45.71832102278479" lon="9.493791218632188"><ele>529.0</ele><time>2026-03-29T09:39:10.001Z</time></trkpt><trkpt lat="45.71839225377347" lon="9.493788627192034"><ele>529.0</ele><time>2026-03-29T09:39:11.001Z</time></trkpt><trkpt lat="45.7184924240857" lon="9.493736864153698"><ele>529.0</ele><time>2026-03-29T09:39:13.001Z</time></trkpt><trkpt lat="45.71858203874603" lon="9.49365090535384"><ele>528.75</ele><time>2026-03-29T09:39:15.001Z</time></trkpt><trkpt lat="45.71869663617608" lon="9.493610299093849"><ele>528.5</ele><time>2026-03-29T09:39:17.001Z</time></trkpt><trkpt lat="45.718823898395826" lon="9.493579447642958"><ele>528.25</ele><time>2026-03-29T09:39:19.001Z</time></trkpt><trkpt lat="45.718915668777385" lon="9.493487308230401"><ele>528.0</ele><time>2026-03-29T09:39:21.001Z</time></trkpt><trkpt lat="45.71896253284933" lon="9.49336199932871"><ele>528.0</ele><time>2026-03-29T09:39:23.001Z</time></trkpt><trkpt lat="45.718871492811125" lon="9.493242178596114"><ele>528.0</ele><time>2026-03-29T09:39:26.001Z</time></trkpt><trkpt lat="45.71879440784501" lon="9.49322590009724"><ele>528.0</ele><time>2026-03-29T09:39:27.001Z</time></trkpt><trkpt lat="45.718718622501314" lon="9.49322463881853"><ele>528.0</ele><time>2026-03-29T09:39:28.001Z</time></trkpt><trkpt lat="45.71864815201938" lon="9.493268793858995"><ele>528.0</ele><time>2026-03-29T09:39:29.001Z</time></trkpt><trkpt lat="45.718584338334686" lon="9.493268869039436"><ele>528.0</ele><time>2026-03-29T09:39:30.001Z</time></trkpt><trkpt lat="45.71854423083004" lon="9.493342605942148"><ele>524.3333333333334</ele><time>2026-03-29T09:39:31.001Z</time></trkpt><trkpt lat="45.718494102582795" lon="9.493423548447652"><ele>520.6666666666666</ele><time>2026-03-29T09:39:32.001Z</time></trkpt><trkpt lat="45.718382395611485" lon="9.49353572611384"><ele>517.0</ele><time>2026-03-29T09:39:34.001Z</time></trkpt><trkpt lat="45.718319297854585" lon="9.493569028177998"><ele>513.3333333333333</ele><time>2026-03-29T09:39:35.001Z</time></trkpt><trkpt lat="45.71824177420478" lon="9.493591727696439"><ele>509.66666666666663</ele><time>2026-03-29T09:39:36.001Z</time></trkpt><trkpt lat="45.71817884610558" lon="9.493606595613118"><ele>506.0</ele><time>2026-03-29T09:39:37.001Z</time></trkpt><trkpt lat="45.718109200670916" lon="9.493625423342058"><ele>506.0</ele><time>2026-03-29T09:39:38.001Z</time></trkpt><trkpt lat="45.71803658056229" lon="9.493642127410325"><ele>506.0</ele><time>2026-03-29T09:39:39.001Z</time></trkpt><trkpt lat="45.71793256094167" lon="9.493675993260903"><ele>506.0</ele><time>2026-03-29T09:39:41.001Z</time></trkpt><trkpt lat="45.71785568017984" lon="9.4937343030352"><ele>506.0</ele><time>2026-03-29T09:39:43.001Z</time></trkpt><trkpt lat="45.71776726612707" lon="9.49385150178225"><ele>506.0</ele><time>2026-03-29T09:39:45.001Z</time></trkpt><trkpt lat="45.717713730910425" lon="9.49393065933896"><ele>503.49999999999994</ele><time>2026-03-29T09:39:46.001Z</time></trkpt><trkpt lat="45.717636649036635" lon="9.49408820882351"><ele>501.0</ele><time>2026-03-29T09:39:48.001Z</time></trkpt><trkpt lat="45.717611538912124" lon="9.494172642122738"><ele>498.5</ele><time>2026-03-29T09:39:49.001Z</time></trkpt><trkpt lat="45.71758873103291" lon="9.49425932002522"><ele>496.0</ele><time>2026-03-29T09:39:50.001Z</time></trkpt><trkpt lat="45.717567286381815" lon="9.494352041510881"><ele>493.49999999999994</ele><time>2026-03-29T09:39:51.001Z</time></trkpt><trkpt lat="45.717551885390805" lon="9.49444149389435"><ele>491.0</ele><time>2026-03-29T09:39:52.001Z</time></trkpt><trkpt lat="45.71753325071735" lon="9.49453321257865"><ele>490.99999999999994</ele><time>2026-03-29T09:39:53.001Z</time></trkpt><trkpt lat="45.71751442957682" lon="9.494622278408178"><ele>491.0</ele><time>2026-03-29T09:39:54.001Z</time></trkpt><trkpt lat="45.71748229147129" lon="9.49474888089227"><ele>491.0</ele><time>2026-03-29T09:39:56.001Z</time></trkpt><trkpt lat="45.7174124176139" lon="9.494700033117446"><ele>491.0</ele><time>2026-03-29T09:39:59.001Z</time></trkpt><trkpt lat="45.7174827250798" lon="9.494641306594199"><ele>490.99999999999994</ele><time>2026-03-29T09:40:00.001Z</time></trkpt><trkpt lat="45.7174576288983" lon="9.494492260024566"><ele>491.0</ele><time>2026-03-29T09:40:04.001Z</time></trkpt><trkpt lat="45.71744171884979" lon="9.494329107843283"><ele>491.0</ele><time>2026-03-29T09:40:06.001Z</time></trkpt><trkpt lat="45.71737966964533" lon="9.494199598959176"><ele>491.0</ele><time>2026-03-29T09:40:08.001Z</time></trkpt><trkpt lat="45.7172766674116" lon="9.494078992815183"><ele>491.0</ele><time>2026-03-29T09:40:10.001Z</time></trkpt><trkpt lat="45.71724119124838" lon="9.493942102945953"><ele>491.0</ele><time>2026-03-29T09:40:12.001Z</time></trkpt><trkpt lat="45.71732205181893" lon="9.49387689195101"><ele>491.0</ele><time>2026-03-29T09:40:14Z</time></trkpt><trkpt lat="45.71738839561791" lon="9.493805687800924"><ele>488.66666666666663</ele><time>2026-03-29T09:40:16Z</time></trkpt><trkpt lat="45.717441550057984" lon="9.493745261387835"><ele>486.3333333333333</ele><time>2026-03-29T09:40:17Z</time></trkpt><trkpt lat="45.71749070462324" lon="9.493660113486579"><ele>484.0</ele><time>2026-03-29T09:40:18Z</time></trkpt><trkpt lat="45.71753653397616" lon="9.493582670453595"><ele>481.66666666666663</ele><time>2026-03-29T09:40:19Z</time></trkpt><trkpt lat="45.717584811398275" lon="9.49348387995314"><ele>479.3333333333333</ele><time>2026-03-29T09:40:20Z</time></trkpt><trkpt lat="45.717624536544726" lon="9.493381615985562"><ele>477.0</ele><time>2026-03-29T09:40:21Z</time></trkpt><trkpt lat="45.71761469256071" lon="9.493275608410835"><ele>477.0</ele><time>2026-03-29T09:40:22Z</time></trkpt><trkpt lat="45.71766235749661" lon="9.49311671833078"><ele>477.0</ele><time>2026-03-29T09:40:24Z</time></trkpt><trkpt lat="45.717698005737915" lon="9.493035511831357"><ele>477.0</ele><time>2026-03-29T09:40:25Z</time></trkpt><trkpt lat="45.71775694392135" lon="9.492993863383155"><ele>477.0</ele><time>2026-03-29T09:40:26Z</time></trkpt><trkpt lat="45.71782388472016" lon="9.492865826018694"><ele>477.0</ele><time>2026-03-29T09:40:28Z</time></trkpt><trkpt lat="45.717887374426866" lon="9.492829937349864"><ele>477.0</ele><time>2026-03-29T09:40:29Z</time></trkpt><trkpt lat="45.71792398758899" lon="9.492747793712795"><ele>477.3333333333333</ele><time>2026-03-29T09:40:31Z</time></trkpt><trkpt lat="45.71786762443951" lon="9.492651579471191"><ele>477.66666666666663</ele><time>2026-03-29T09:40:34Z</time></trkpt><trkpt lat="45.717800776303015" lon="9.492644799489522"><ele>478.0</ele><time>2026-03-29T09:40:35Z</time></trkpt><trkpt lat="45.71771437037487" lon="9.492686750664973"><ele>478.3333333333333</ele><time>2026-03-29T09:40:36Z</time></trkpt><trkpt lat="45.717646498233705" lon="9.49275042175116"><ele>478.66666666666663</ele><time>2026-03-29T09:40:37Z</time></trkpt><trkpt lat="45.71759138474038" lon="9.492822442156033"><ele>479.0</ele><time>2026-03-29T09:40:38Z</time></trkpt><trkpt lat="45.717519687248455" lon="9.49285322093596"><ele>478.66666666666663</ele><time>2026-03-29T09:40:39Z</time></trkpt><trkpt lat="45.71744047481471" lon="9.492915917319719"><ele>478.3333333333333</ele><time>2026-03-29T09:40:40Z</time></trkpt><trkpt lat="45.71737897073773" lon="9.492986163851498"><ele>478.0</ele><time>2026-03-29T09:40:41Z</time></trkpt><trkpt lat="45.71730300160006" lon="9.493058153904496"><ele>477.66666666666663</ele><time>2026-03-29T09:40:42Z</time></trkpt><trkpt lat="45.71723290486925" lon="9.493157698923337"><ele>477.3333333333333</ele><time>2026-03-29T09:40:43Z</time></trkpt><trkpt lat="45.71717943484467" lon="9.493257426338928"><ele>477.0</ele><time>2026-03-29T09:40:44Z</time></trkpt><trkpt lat="45.71709387003729" lon="9.49329436443154"><ele>477.0</ele><time>2026-03-29T09:40:45Z</time></trkpt><trkpt lat="45.71703676612253" lon="9.493349411894426"><ele>477.0</ele><time>2026-03-29T09:40:46Z</time></trkpt><trkpt lat="45.71696900422869" lon="9.493381272539482"><ele>477.0</ele><time>2026-03-29T09:40:47Z</time></trkpt><trkpt lat="45.716910122487604" lon="9.493418002951115"><ele>477.0</ele><time>2026-03-29T09:40:48Z</time></trkpt><trkpt lat="45.716852346793715" lon="9.493462288149136"><ele>477.0</ele><time>2026-03-29T09:40:49Z</time></trkpt><trkpt lat="45.71680046515681" lon="9.493530150810885"><ele>477.0</ele><time>2026-03-29T09:40:50Z</time></trkpt><trkpt lat="45.716721720787895" lon="9.493646726626707"><ele>477.0</ele><time>2026-03-29T09:40:52Z</time></trkpt><trkpt lat="45.71674437148186" lon="9.493533702804218"><ele>477.0</ele><time>2026-03-29T09:40:57Z</time></trkpt><trkpt lat="45.71680015874399" lon="9.493394455250575"><ele>477.0</ele><time>2026-03-29T09:40:59Z</time></trkpt><trkpt lat="45.71684016119363" lon="9.493293999555053"><ele>477.0</ele><time>2026-03-29T09:41:00Z</time></trkpt><trkpt lat="45.71687386298746" lon="9.493200092777018"><ele>477.0</ele><time>2026-03-29T09:41:01Z</time></trkpt><trkpt lat="45.716905393779705" lon="9.49310382503595"><ele>477.0</ele><time>2026-03-29T09:41:02Z</time></trkpt><trkpt lat="45.71692319989284" lon="9.49300075028651"><ele>472.8</ele><time>2026-03-29T09:41:03Z</time></trkpt><trkpt lat="45.71692463127403" lon="9.492896691358009"><ele>468.6</ele><time>2026-03-29T09:41:04Z</time></trkpt><trkpt lat="45.71692673176819" lon="9.492777576286173"><ele>464.40000000000003</ele><time>2026-03-29T09:41:05Z</time></trkpt><trkpt lat="45.71691267245968" lon="9.4926501298561"><ele>460.20000000000005</ele><time>2026-03-29T09:41:06Z</time></trkpt><trkpt lat="45.716973514723904" lon="9.492468549191205"><ele>456.0</ele><time>2026-03-29T09:41:08Z</time></trkpt><trkpt lat="45.71699726770081" lon="9.492375698417522"><ele>456.0</ele><time>2026-03-29T09:41:09Z</time></trkpt><trkpt lat="45.71704472588662" lon="9.492245846835308"><ele>456.0</ele><time>2026-03-29T09:41:11Z</time></trkpt><trkpt lat="45.71710873531413" lon="9.492194769671656"><ele>456.0</ele><time>2026-03-29T09:41:12Z</time></trkpt><trkpt lat="45.717196736502146" lon="9.49218393422"><ele>456.0</ele><time>2026-03-29T09:41:14Z</time></trkpt><trkpt lat="45.71726559533675" lon="9.492147631273811"><ele>456.0</ele><time>2026-03-29T09:41:15Z</time></trkpt><trkpt lat="45.71732254305647" lon="9.492091819605834"><ele>456.0</ele><time>2026-03-29T09:41:16Z</time></trkpt><trkpt lat="45.71736999573965" lon="9.49197823991821"><ele>452.1666666666667</ele><time>2026-03-29T09:41:17Z</time></trkpt><trkpt lat="45.717430576949795" lon="9.491933443183653"><ele>448.33333333333337</ele><time>2026-03-29T09:41:18Z</time></trkpt><trkpt lat="45.71748120245486" lon="9.491872921780372"><ele>444.5</ele><time>2026-03-29T09:41:19Z</time></trkpt><trkpt lat="45.7175589876388" lon="9.491789809592698"><ele>440.6666666666667</ele><time>2026-03-29T09:41:21Z</time></trkpt><trkpt lat="45.71764612535286" lon="9.49179699681876"><ele>436.83333333333337</ele><time>2026-03-29T09:41:26.001Z</time></trkpt><trkpt lat="45.717713743680434" lon="9.491699542795438"><ele>433.0</ele><time>2026-03-29T09:41:28.001Z</time></trkpt><trkpt lat="45.71766014741484" lon="9.491542629675633"><ele>433.0</ele><time>2026-03-29T09:41:31.001Z</time></trkpt><trkpt lat="45.7176024235242" lon="9.491489063810961"><ele>432.99999999999994</ele><time>2026-03-29T09:41:32.001Z</time></trkpt><trkpt lat="45.7174501855271" lon="9.491589884420703"><ele>432.99999999999994</ele><time>2026-03-29T09:41:33.001Z</time></trkpt><trkpt lat="45.71734431627139" lon="9.491613256608789"><ele>433.0</ele><time>2026-03-29T09:41:35.001Z</time></trkpt><trkpt lat="45.71727123079536" lon="9.491629931607719"><ele>433.0</ele><time>2026-03-29T09:41:36.001Z</time></trkpt><trkpt lat="45.71716923446161" lon="9.491641205488538"><ele>433.00000000000006</ele><time>2026-03-29T09:41:37.001Z</time></trkpt><trkpt lat="45.71709493199232" lon="9.491681438113483"><ele>433.0</ele><time>2026-03-29T09:41:38.001Z</time></trkpt><trkpt lat="45.71700788959047" lon="9.491700100350144"><ele>433.0</ele><time>2026-03-29T09:41:39.001Z</time></trkpt><trkpt lat="45.7169193251556" lon="9.491706118332049"><ele>433.0</ele><time>2026-03-29T09:41:40.001Z</time></trkpt><trkpt lat="45.716830520581844" lon="9.491748946428581"><ele>433.00000000000006</ele><time>2026-03-29T09:41:41.001Z</time></trkpt><trkpt lat="45.71676372829397" lon="9.491783126825736"><ele>433.0</ele><time>2026-03-29T09:41:42.001Z</time></trkpt><trkpt lat="45.71670188244409" lon="9.491856439590245"><ele>429.4</ele><time>2026-03-29T09:41:43.001Z</time></trkpt><trkpt lat="45.716584452385575" lon="9.49192562589391"><ele>425.79999999999995</ele><time>2026-03-29T09:41:45.001Z</time></trkpt><trkpt lat="45.7165051061436" lon="9.491992316242335"><ele>422.2</ele><time>2026-03-29T09:41:47.001Z</time></trkpt><trkpt lat="45.716430644891126" lon="9.491991105452133"><ele>418.6</ele><time>2026-03-29T09:41:49.001Z</time></trkpt><trkpt lat="45.71631974247503" lon="9.492000309418081"><ele>415.0</ele><time>2026-03-29T09:41:51.001Z</time></trkpt><trkpt lat="45.71625338332527" lon="9.491973878417113"><ele>415.00000000000006</ele><time>2026-03-29T09:41:52.001Z</time></trkpt><trkpt lat="45.71617269013091" lon="9.491955033743125"><ele>415.0</ele><time>2026-03-29T09:41:53.001Z</time></trkpt><trkpt lat="45.71609738351341" lon="9.491942500217334"><ele>415.0</ele><time>2026-03-29T09:41:54.001Z</time></trkpt><trkpt lat="45.716029017208335" lon="9.491941763546281"><ele>415.0</ele><time>2026-03-29T09:41:55.001Z</time></trkpt><trkpt lat="45.715962288395644" lon="9.491956687873639"><ele>415.00000000000006</ele><time>2026-03-29T09:41:56.001Z</time></trkpt><trkpt lat="45.71587418658005" lon="9.491933360811968"><ele>415.0</ele><time>2026-03-29T09:41:58.001Z</time></trkpt><trkpt lat="45.71579741391412" lon="9.491926257448416"><ele>413.2</ele><time>2026-03-29T09:42:00.001Z</time></trkpt><trkpt lat="45.71570406685384" lon="9.491991983385986"><ele>411.4</ele><time>2026-03-29T09:42:03.001Z</time></trkpt><trkpt lat="45.715615207234926" lon="9.492085881921502"><ele>409.6</ele><time>2026-03-29T09:42:05.001Z</time></trkpt><trkpt lat="45.71565249275742" lon="9.492259784472314"><ele>407.8</ele><time>2026-03-29T09:42:07.001Z</time></trkpt><trkpt lat="45.71565673359154" lon="9.492399781301089"><ele>406.0</ele><time>2026-03-29T09:42:09.001Z</time></trkpt><trkpt lat="45.715682339766836" lon="9.49252561116484"><ele>406.0</ele><time>2026-03-29T09:42:11.001Z</time></trkpt><trkpt lat="45.715657474907616" lon="9.492612963557491"><ele>406.0</ele><time>2026-03-29T09:42:13.001Z</time></trkpt><trkpt lat="45.71551753663442" lon="9.492679959482105"><ele>406.0</ele><time>2026-03-29T09:42:15.001Z</time></trkpt><trkpt lat="45.71543285349285" lon="9.49269290202185"><ele>406.0</ele><time>2026-03-29T09:42:16Z</time></trkpt><trkpt lat="45.71534600922856" lon="9.492629098762032"><ele>406.0</ele><time>2026-03-29T09:42:17Z</time></trkpt><trkpt lat="45.715283779869495" lon="9.492569337909103"><ele>401.5</ele><time>2026-03-29T09:42:18Z</time></trkpt><trkpt lat="45.71515281005205" lon="9.492534145656517"><ele>397.0</ele><time>2026-03-29T09:42:20Z</time></trkpt><trkpt lat="45.71503421559572" lon="9.492592655453436"><ele>392.5</ele><time>2026-03-29T09:42:22Z</time></trkpt><trkpt lat="45.714925377644235" lon="9.492616896798259"><ele>388.0</ele><time>2026-03-29T09:42:24Z</time></trkpt><trkpt lat="45.714815444679914" lon="9.492600431600508"><ele>388.00000000000006</ele><time>2026-03-29T09:42:26Z</time></trkpt><trkpt lat="45.71474728591424" lon="9.492591559287206"><ele>388.0</ele><time>2026-03-29T09:42:27Z</time></trkpt><trkpt lat="45.71466272274599" lon="9.492593895336025"><ele>388.0</ele><time>2026-03-29T09:42:28Z</time></trkpt><trkpt lat="45.71458844108403" lon="9.492612808928927"><ele>388.0</ele><time>2026-03-29T09:42:29Z</time></trkpt><trkpt lat="45.714463886354054" lon="9.492657829958267"><ele>388.00000000000006</ele><time>2026-03-29T09:42:31Z</time></trkpt><trkpt lat="45.71439548962779" lon="9.49268324678463"><ele>388.0</ele><time>2026-03-29T09:42:32Z</time></trkpt><trkpt lat="45.714310906255434" lon="9.492707224050152"><ele>384.4</ele><time>2026-03-29T09:42:33Z</time></trkpt><trkpt lat="45.714193196693095" lon="9.49271991342459"><ele>380.79999999999995</ele><time>2026-03-29T09:42:35Z</time></trkpt><trkpt lat="45.714077942691155" lon="9.492730478820793"><ele>377.2</ele><time>2026-03-29T09:42:37Z</time></trkpt><trkpt lat="45.71399064046289" lon="9.492725726467729"><ele>373.6</ele><time>2026-03-29T09:42:39Z</time></trkpt><trkpt lat="45.71390251955096" lon="9.492783152548721"><ele>370.0</ele><time>2026-03-29T09:42:41Z</time></trkpt><trkpt lat="45.71384221977601" lon="9.492886101153593"><ele>371.66666666666663</ele><time>2026-03-29T09:42:43Z</time></trkpt><trkpt lat="45.713771166197496" lon="9.492973518802906"><ele>373.3333333333333</ele><time>2026-03-29T09:42:45Z</time></trkpt><trkpt lat="45.71371542199458" lon="9.49310320946586"><ele>375.0</ele><time>2026-03-29T09:42:47Z</time></trkpt><trkpt lat="45.713701484389624" lon="9.49324851535924"><ele>376.6666666666667</ele><time>2026-03-29T09:42:49Z</time></trkpt><trkpt lat="45.71366837914091" lon="9.493326213465032"><ele>378.33333333333337</ele><time>2026-03-29T09:42:50Z</time></trkpt><trkpt lat="45.713647385054024" lon="9.49341652459373"><ele>380.0</ele><time>2026-03-29T09:42:51Z</time></trkpt><trkpt lat="45.71363370542134" lon="9.493504937986181"><ele>380.0</ele><time>2026-03-29T09:42:52Z</time></trkpt><trkpt lat="45.71360323859218" lon="9.493635369425022"><ele>380.0</ele><time>2026-03-29T09:42:54Z</time></trkpt><trkpt lat="45.71364025063489" lon="9.493737399504859"><ele>380.0</ele><time>2026-03-29T09:42:56Z</time></trkpt><trkpt lat="45.71370371973813" lon="9.493755825713448"><ele>380.0</ele><time>2026-03-29T09:42:57Z</time></trkpt><trkpt lat="45.71379186176193" lon="9.493765744757512"><ele>380.0</ele><time>2026-03-29T09:42:58Z</time></trkpt><trkpt lat="45.71401924175961" lon="9.493801715769198"><ele>377.2</ele><time>2026-03-29T09:43:03Z</time></trkpt><trkpt lat="45.714060313353954" lon="9.493936943725954"><ele>374.4</ele><time>2026-03-29T09:43:05Z</time></trkpt><trkpt lat="45.71410446429831" lon="9.494047901425576"><ele>371.6</ele><time>2026-03-29T09:43:07Z</time></trkpt><trkpt lat="45.71416810292257" lon="9.494074352084397"><ele>368.8</ele><time>2026-03-29T09:43:08Z</time></trkpt><trkpt lat="45.714230430301235" lon="9.494045773583796"><ele>366.0</ele><time>2026-03-29T09:43:09Z</time></trkpt><trkpt lat="45.714348122901185" lon="9.494171509116306"><ele>369.3333333333333</ele><time>2026-03-29T09:43:13Z</time></trkpt><trkpt lat="45.714406083382684" lon="9.494260236207245"><ele>372.66666666666663</ele><time>2026-03-29T09:43:14Z</time></trkpt><trkpt lat="45.71451138259118" lon="9.494323482143617"><ele>376.0</ele><time>2026-03-29T09:43:16Z</time></trkpt><trkpt lat="45.71458735862164" lon="9.494394436155343"><ele>379.3333333333333</ele><time>2026-03-29T09:43:18Z</time></trkpt><trkpt lat="45.71456306601821" lon="9.494504955300448"><ele>382.66666666666663</ele><time>2026-03-29T09:43:20Z</time></trkpt><trkpt lat="45.71450831985939" lon="9.494572075125376"><ele>386.0</ele><time>2026-03-29T09:43:21Z</time></trkpt><trkpt lat="45.71444922228741" lon="9.494606968479749"><ele>383.6</ele><time>2026-03-29T09:43:22Z</time></trkpt><trkpt lat="45.71433471886592" lon="9.494665471336814"><ele>381.20000000000005</ele><time>2026-03-29T09:43:24Z</time></trkpt><trkpt lat="45.71425295716546" lon="9.494624971023288"><ele>378.79999999999995</ele><time>2026-03-29T09:43:25Z</time></trkpt><trkpt lat="45.71421848883173" lon="9.49470376445589"><ele>376.4</ele><time>2026-03-29T09:43:26Z</time></trkpt><trkpt lat="45.71414813788878" lon="9.494788392992227"><ele>374.0</ele><time>2026-03-29T09:43:28Z</time></trkpt><trkpt lat="45.71405796948897" lon="9.494861487607459"><ele>374.0</ele><time>2026-03-29T09:43:30Z</time></trkpt><trkpt lat="45.71394912442709" lon="9.49480716863827"><ele>374.0</ele><time>2026-03-29T09:43:32Z</time></trkpt><trkpt lat="45.71406124482567" lon="9.494793555169418"><ele>374.0</ele><time>2026-03-29T09:43:37Z</time></trkpt><trkpt lat="45.714118223700225" lon="9.494710324961757"><ele>374.0</ele><time>2026-03-29T09:43:39Z</time></trkpt><trkpt lat="45.71415903382757" lon="9.494586721201683"><ele>374.0</ele><time>2026-03-29T09:43:41Z</time></trkpt><trkpt lat="45.71412618472588" lon="9.494503092547502"><ele>374.0</ele><time>2026-03-29T09:43:43Z</time></trkpt><trkpt lat="45.71405897539057" lon="9.494545709576439"><ele>374.0</ele><time>2026-03-29T09:43:45Z</time></trkpt><trkpt lat="45.71396329896385" lon="9.494587810360814"><ele>374.0</ele><time>2026-03-29T09:43:47Z</time></trkpt><trkpt lat="45.71390909457231" lon="9.494639305162712"><ele>374.0</ele><time>2026-03-29T09:43:48Z</time></trkpt><trkpt lat="45.71382930130055" lon="9.494660490280253"><ele>374.0</ele><time>2026-03-29T09:43:49Z</time></trkpt><trkpt lat="45.71375926903499" lon="9.494679707391645"><ele>374.0</ele><time>2026-03-29T09:43:50Z</time></trkpt><trkpt lat="45.713688912497915" lon="9.494707513437836"><ele>374.0</ele><time>2026-03-29T09:43:51Z</time></trkpt><trkpt lat="45.71358239342866" lon="9.494705682230205"><ele>374.0</ele><time>2026-03-29T09:43:53Z</time></trkpt><trkpt lat="45.7134920195496" lon="9.494679313696748"><ele>374.0</ele><time>2026-03-29T09:43:55Z</time></trkpt><trkpt lat="45.71341233558288" lon="9.49464415810821"><ele>374.0</ele><time>2026-03-29T09:43:57Z</time></trkpt><trkpt lat="45.71334275343045" lon="9.49453149735515"><ele>374.0</ele><time>2026-03-29T09:43:59Z</time></trkpt><trkpt lat="45.713247053333696" lon="9.494517795663931"><ele>369.4</ele><time>2026-03-29T09:44:01Z</time></trkpt><trkpt lat="45.71314299045932" lon="9.494547380594446"><ele>364.79999999999995</ele><time>2026-03-29T09:44:03Z</time></trkpt><trkpt lat="45.71307587821074" lon="9.494605649380421"><ele>360.20000000000005</ele><time>2026-03-29T09:44:09Z</time></trkpt><trkpt lat="45.71297573019182" lon="9.494592713159024"><ele>355.6</ele><time>2026-03-29T09:44:11Z</time></trkpt><trkpt lat="45.71289030564884" lon="9.494585610914882"><ele>351.0</ele><time>2026-03-29T09:44:13Z</time></trkpt><trkpt lat="45.712807376480406" lon="9.494572695764008"><ele>347.3333333333333</ele><time>2026-03-29T09:44:15Z</time></trkpt><trkpt lat="45.71272855791401" lon="9.494571391026927"><ele>343.6666666666667</ele><time>2026-03-29T09:44:17Z</time></trkpt><trkpt lat="45.7126519532446" lon="9.494605388818348"><ele>340.0</ele><time>2026-03-29T09:44:19Z</time></trkpt><trkpt lat="45.71256313417994" lon="9.494620270678789"><ele>336.33333333333337</ele><time>2026-03-29T09:44:21Z</time></trkpt><trkpt lat="45.71247747849919" lon="9.494644991017092"><ele>332.6666666666667</ele><time>2026-03-29T09:44:23Z</time></trkpt><trkpt lat="45.71238922654349" lon="9.494660709250196"><ele>329.0</ele><time>2026-03-29T09:44:25Z</time></trkpt><trkpt lat="45.71229459559451" lon="9.494676907133849"><ele>329.0</ele><time>2026-03-29T09:44:27Z</time></trkpt><trkpt lat="45.71220451554073" lon="9.494690526498662"><ele>329.0</ele><time>2026-03-29T09:44:29Z</time></trkpt><trkpt lat="45.71212845127625" lon="9.494710469112059"><ele>329.0</ele><time>2026-03-29T09:44:31Z</time></trkpt><trkpt lat="45.712054896458596" lon="9.494756114575317"><ele>329.0</ele><time>2026-03-29T09:44:33Z</time></trkpt><trkpt lat="45.711986569498315" lon="9.494897322891234"><ele>329.0</ele><time>2026-03-29T09:44:35Z</time></trkpt><trkpt lat="45.71189558680411" lon="9.49500249847462"><ele>327.79999999999995</ele><time>2026-03-29T09:44:37Z</time></trkpt><trkpt lat="45.711847066202914" lon="9.495060849276422"><ele>326.59999999999997</ele><time>2026-03-29T09:44:38Z</time></trkpt><trkpt lat="45.711741935592386" lon="9.495132944050422"><ele>325.4</ele><time>2026-03-29T09:44:40Z</time></trkpt><trkpt lat="45.711646388924784" lon="9.49519614135608"><ele>324.2</ele><time>2026-03-29T09:44:42Z</time></trkpt><trkpt lat="45.711534129101494" lon="9.495223369876237"><ele>323.0</ele><time>2026-03-29T09:44:44Z</time></trkpt><trkpt lat="45.71141777487815" lon="9.49524906270925"><ele>323.0</ele><time>2026-03-29T09:44:46Z</time></trkpt><trkpt lat="45.71131991376471" lon="9.495270606119849"><ele>323.0</ele><time>2026-03-29T09:44:48Z</time></trkpt><trkpt lat="45.71121813208234" lon="9.495245891797587"><ele>323.0</ele><time>2026-03-29T09:44:50Z</time></trkpt><trkpt lat="45.71111524047419" lon="9.495162060110676"><ele>323.0</ele><time>2026-03-29T09:44:52Z</time></trkpt><trkpt lat="45.71102634221936" lon="9.495088894782338"><ele>323.0</ele><time>2026-03-29T09:44:54Z</time></trkpt><trkpt lat="45.711008399930655" lon="9.494953120293554"><ele>321.4</ele><time>2026-03-29T09:44:56Z</time></trkpt><trkpt lat="45.71093906719358" lon="9.494789477854901"><ele>319.79999999999995</ele><time>2026-03-29T09:44:58Z</time></trkpt><trkpt lat="45.71089867816608" lon="9.494694127519669"><ele>318.2</ele><time>2026-03-29T09:44:59Z</time></trkpt><trkpt lat="45.7108571591784" lon="9.494596109474378"><ele>316.6</ele><time>2026-03-29T09:45:00Z</time></trkpt><trkpt lat="45.710798052359394" lon="9.49449644857316"><ele>315.0</ele><time>2026-03-29T09:45:01Z</time></trkpt><trkpt lat="45.710772434706534" lon="9.494382688949452"><ele>314.5</ele><time>2026-03-29T09:45:02Z</time></trkpt><trkpt lat="45.710741808314864" lon="9.494284481865154"><ele>314.0</ele><time>2026-03-29T09:45:03Z</time></trkpt><trkpt lat="45.71071312745769" lon="9.494188926521083"><ele>313.5</ele><time>2026-03-29T09:45:04Z</time></trkpt><trkpt lat="45.710682589945144" lon="9.494087985754648"><ele>313.0</ele><time>2026-03-29T09:45:05Z</time></trkpt><trkpt lat="45.710652214897806" lon="9.493994869747898"><ele>312.5</ele><time>2026-03-29T09:45:06Z</time></trkpt><trkpt lat="45.71061371029488" lon="9.493883517371252"><ele>312.0</ele><time>2026-03-29T09:45:07Z</time></trkpt><trkpt lat="45.71056225174226" lon="9.493782706406568"><ele>311.1666666666667</ele><time>2026-03-29T09:45:08Z</time></trkpt><trkpt lat="45.7105283378347" lon="9.493684733786342"><ele>310.3333333333333</ele><time>2026-03-29T09:45:09Z</time></trkpt><trkpt lat="45.71043855825041" lon="9.49361954763013"><ele>309.5</ele><time>2026-03-29T09:45:10Z</time></trkpt><trkpt lat="45.71037174011789" lon="9.493556625816254"><ele>308.66666666666663</ele><time>2026-03-29T09:45:11Z</time></trkpt><trkpt lat="45.710273695023695" lon="9.493495093544645"><ele>307.8333333333333</ele><time>2026-03-29T09:45:12Z</time></trkpt><trkpt lat="45.710190037316295" lon="9.493486449754867"><ele>307.0</ele><time>2026-03-29T09:45:13Z</time></trkpt><trkpt lat="45.71011806195638" lon="9.49347764404763"><ele>307.0</ele><time>2026-03-29T09:45:14Z</time></trkpt><trkpt lat="45.71004236275392" lon="9.493465682828646"><ele>307.0</ele><time>2026-03-29T09:45:15Z</time></trkpt><trkpt lat="45.709950043284664" lon="9.493470432441857"><ele>307.0</ele><time>2026-03-29T09:45:16Z</time></trkpt><trkpt lat="45.709865471133746" lon="9.49350701691633"><ele>307.0</ele><time>2026-03-29T09:45:17Z</time></trkpt><trkpt lat="45.70977889592263" lon="9.493524942057592"><ele>307.0</ele><time>2026-03-29T09:45:18Z</time></trkpt><trkpt lat="45.70968711175787" lon="9.49351355954575"><ele>307.0</ele><time>2026-03-29T09:45:19Z</time></trkpt><trkpt lat="45.70960715099381" lon="9.493524513223443"><ele>307.0</ele><time>2026-03-29T09:45:20Z</time></trkpt><trkpt lat="45.70952876301706" lon="9.493527475413805"><ele>307.0</ele><time>2026-03-29T09:45:21Z</time></trkpt><trkpt lat="45.7094475825484" lon="9.49353574296051"><ele>307.0</ele><time>2026-03-29T09:45:22Z</time></trkpt><trkpt lat="45.709374960392864" lon="9.493551825044023"><ele>307.0</ele><time>2026-03-29T09:45:23Z</time></trkpt><trkpt lat="45.70929756941626" lon="9.49356392818583"><ele>307.0</ele><time>2026-03-29T09:45:24Z</time></trkpt><trkpt lat="45.70922811193867" lon="9.49362158988174"><ele>307.0</ele><time>2026-03-29T09:45:25Z</time></trkpt><trkpt lat="45.709154826073146" lon="9.493667532318732"><ele>306.3333333333333</ele><time>2026-03-29T09:45:26Z</time></trkpt><trkpt lat="45.70908493341728" lon="9.493689187433244"><ele>305.66666666666663</ele><time>2026-03-29T09:45:27Z</time></trkpt><trkpt lat="45.70902633663687" lon="9.493737049560107"><ele>305.0</ele><time>2026-03-29T09:45:28Z</time></trkpt><trkpt lat="45.70892360248304" lon="9.493801727257086"><ele>304.3333333333333</ele><time>2026-03-29T09:45:30Z</time></trkpt><trkpt lat="45.70883680431906" lon="9.493823974549766"><ele>303.6666666666667</ele><time>2026-03-29T09:45:32Z</time></trkpt><trkpt lat="45.70877189891584" lon="9.493827332569765"><ele>303.0</ele><time>2026-03-29T09:45:33Z</time></trkpt><trkpt lat="45.70870699447563" lon="9.493826875257037"><ele>302.5</ele><time>2026-03-29T09:45:35Z</time></trkpt><trkpt lat="45.70863952382285" lon="9.49381476211045"><ele>302.0</ele><time>2026-03-29T09:45:37Z</time></trkpt><trkpt lat="45.708565689837656" lon="9.493800438046023"><ele>301.5</ele><time>2026-03-29T09:45:39Z</time></trkpt><trkpt lat="45.7084434085271" lon="9.493830199261614"><ele>301.0</ele><time>2026-03-29T09:45:41Z</time></trkpt><trkpt lat="45.70838910852371" lon="9.493896247062361"><ele>300.5</ele><time>2026-03-29T09:45:42Z</time></trkpt><trkpt lat="45.70834856166428" lon="9.493996042089547"><ele>300.0</ele><time>2026-03-29T09:45:43Z</time></trkpt><trkpt lat="45.70826584717137" lon="9.494115268578144"><ele>300.0</ele><time>2026-03-29T09:45:45Z</time></trkpt><trkpt lat="45.70817600120746" lon="9.494230627830133"><ele>300.0</ele><time>2026-03-29T09:45:47Z</time></trkpt><trkpt lat="45.708149124245004" lon="9.494378629062682"><ele>300.0</ele><time>2026-03-29T09:45:49Z</time></trkpt><trkpt lat="45.70811702611543" lon="9.494482407300268"><ele>300.0</ele><time>2026-03-29T09:45:51Z</time></trkpt><trkpt lat="45.70805875493528" lon="9.494564528579753"><ele>300.0</ele><time>2026-03-29T09:45:53Z</time></trkpt><trkpt lat="45.70795914469191" lon="9.49455661647368"><ele>300.0</ele><time>2026-03-29T09:45:55Z</time></trkpt><trkpt lat="45.70787804913238" lon="9.494545908537182"><ele>300.0</ele><time>2026-03-29T09:45:57Z</time></trkpt><trkpt lat="45.70778836884294" lon="9.494565018259078"><ele>300.0</ele><time>2026-03-29T09:45:59Z</time></trkpt><trkpt lat="45.707690196027805" lon="9.494576045192533"><ele>300.0</ele><time>2026-03-29T09:46:01Z</time></trkpt><trkpt lat="45.70758448070159" lon="9.494562531275745"><ele>300.0</ele><time>2026-03-29T09:46:03Z</time></trkpt><trkpt lat="45.707505288456254" lon="9.494509896721006"><ele>299.2</ele><time>2026-03-29T09:46:05Z</time></trkpt><trkpt lat="45.707422543334566" lon="9.494461386945007"><ele>298.4</ele><time>2026-03-29T09:46:07Z</time></trkpt><trkpt lat="45.707338113199526" lon="9.494539516566109"><ele>297.6</ele><time>2026-03-29T09:46:08Z</time></trkpt><trkpt lat="45.707227784314256" lon="9.49453827370341"><ele>296.8</ele><time>2026-03-29T09:46:10Z</time></trkpt><trkpt lat="45.7071423844286" lon="9.494526154932252"><ele>296.0</ele><time>2026-03-29T09:46:12Z</time></trkpt><trkpt lat="45.70705090985924" lon="9.494556182967864"><ele>296.0</ele><time>2026-03-29T09:46:15Z</time></trkpt><trkpt lat="45.706974410579576" lon="9.494566132551936"><ele>296.0</ele><time>2026-03-29T09:46:18Z</time></trkpt><trkpt lat="45.70687774884697" lon="9.494634290122956"><ele>296.0</ele><time>2026-03-29T09:46:20Z</time></trkpt><trkpt lat="45.70678466421479" lon="9.494707552747661"><ele>296.0</ele><time>2026-03-29T09:46:22Z</time></trkpt><trkpt lat="45.70669921052955" lon="9.494830140797482"><ele>296.0</ele><time>2026-03-29T09:46:24Z</time></trkpt><trkpt lat="45.70659870245165" lon="9.494959693014842"><ele>295.1666666666667</ele><time>2026-03-29T09:46:26Z</time></trkpt><trkpt lat="45.70654454510815" lon="9.495005935525764"><ele>294.33333333333337</ele><time>2026-03-29T09:46:27Z</time></trkpt><trkpt lat="45.7064608849899" lon="9.49502385486046"><ele>293.5</ele><time>2026-03-29T09:46:28Z</time></trkpt><trkpt lat="45.70640073996077" lon="9.495072630906996"><ele>292.6666666666667</ele><time>2026-03-29T09:46:29Z</time></trkpt><trkpt lat="45.706347014060796" lon="9.495119835064704"><ele>291.8333333333333</ele><time>2026-03-29T09:46:30Z</time></trkpt><trkpt lat="45.70624939845087" lon="9.495193318618913"><ele>291.0</ele><time>2026-03-29T09:46:32Z</time></trkpt><trkpt lat="45.70614650495318" lon="9.495305518820107"><ele>290.6</ele><time>2026-03-29T09:46:34Z</time></trkpt><trkpt lat="45.7060594765994" lon="9.495444714379776"><ele>290.20000000000005</ele><time>2026-03-29T09:46:36Z</time></trkpt><trkpt lat="45.70602340005446" lon="9.495527689438944"><ele>289.79999999999995</ele><time>2026-03-29T09:46:37Z</time></trkpt><trkpt lat="45.70598301044946" lon="9.495608145880116"><ele>289.4</ele><time>2026-03-29T09:46:38Z</time></trkpt><trkpt lat="45.70590605598824" lon="9.495767908530249"><ele>289.0</ele><time>2026-03-29T09:46:40Z</time></trkpt><trkpt lat="45.70585960706448" lon="9.495935039327355"><ele>289.0</ele><time>2026-03-29T09:46:42Z</time></trkpt><trkpt lat="45.7058324727537" lon="9.49610827245813"><ele>289.0</ele><time>2026-03-29T09:46:44Z</time></trkpt><trkpt lat="45.70581363824184" lon="9.496195171854819"><ele>289.0</ele><time>2026-03-29T09:46:45Z</time></trkpt><trkpt lat="45.705764279251945" lon="9.496352581029438"><ele>289.0</ele><time>2026-03-29T09:46:47Z</time></trkpt><trkpt lat="45.70572803821191" lon="9.496529281039965"><ele>289.0</ele><time>2026-03-29T09:46:49Z</time></trkpt><trkpt lat="45.705695589219566" lon="9.496699165366131"><ele>288.8333333333333</ele><time>2026-03-29T09:46:51Z</time></trkpt><trkpt lat="45.705673192683896" lon="9.496793116676399"><ele>288.66666666666663</ele><time>2026-03-29T09:46:52Z</time></trkpt><trkpt lat="45.70561330462304" lon="9.496963337211863"><ele>288.5</ele><time>2026-03-29T09:46:54Z</time></trkpt><trkpt lat="45.705586330102356" lon="9.49705261073428"><ele>288.3333333333333</ele><time>2026-03-29T09:46:55Z</time></trkpt><trkpt lat="45.70555761108682" lon="9.49714853202114"><ele>288.1666666666667</ele><time>2026-03-29T09:46:56Z</time></trkpt><trkpt lat="45.705521908228654" lon="9.49723844526636"><ele>288.0</ele><time>2026-03-29T09:46:57Z</time></trkpt><trkpt lat="45.70548526158991" lon="9.497321565495414"><ele>287.7142857142857</ele><time>2026-03-29T09:46:58Z</time></trkpt><trkpt lat="45.70545957009437" lon="9.497415566246453"><ele>287.42857142857144</ele><time>2026-03-29T09:46:59Z</time></trkpt><trkpt lat="45.70543483861435" lon="9.497519288790055"><ele>287.1428571428571</ele><time>2026-03-29T09:47:00Z</time></trkpt><trkpt lat="45.70541538331487" lon="9.497624653196556"><ele>286.8571428571429</ele><time>2026-03-29T09:47:01Z</time></trkpt><trkpt lat="45.70539925587989" lon="9.497727336662448"><ele>286.57142857142856</ele><time>2026-03-29T09:47:02Z</time></trkpt><trkpt lat="45.70538374554866" lon="9.497831944247457"><ele>286.2857142857143</ele><time>2026-03-29T09:47:03Z</time></trkpt><trkpt lat="45.70536848645533" lon="9.497933472125196"><ele>286.0</ele><time>2026-03-29T09:47:04Z</time></trkpt><trkpt lat="45.70535127202302" lon="9.498038843384508"><ele>285.71428571428567</ele><time>2026-03-29T09:47:05Z</time></trkpt><trkpt lat="45.70532916687137" lon="9.498147124290378"><ele>285.42857142857144</ele><time>2026-03-29T09:47:06Z</time></trkpt><trkpt lat="45.705301369541544" lon="9.49824165499585"><ele>285.1428571428571</ele><time>2026-03-29T09:47:07Z</time></trkpt><trkpt lat="45.705253105650065" lon="9.498318258997879"><ele>284.85714285714283</ele><time>2026-03-29T09:47:08Z</time></trkpt><trkpt lat="45.7052141099902" lon="9.498391725702078"><ele>284.57142857142856</ele><time>2026-03-29T09:47:09Z</time></trkpt><trkpt lat="45.705159610085936" lon="9.498446684605494"><ele>284.2857142857143</ele><time>2026-03-29T09:47:10Z</time></trkpt><trkpt lat="45.70510790944859" lon="9.49850637345101"><ele>284.0</ele><time>2026-03-29T09:47:11Z</time></trkpt><trkpt lat="45.70504086043109" lon="9.498518007298246"><ele>283.8</ele><time>2026-03-29T09:47:12Z</time></trkpt><trkpt lat="45.7049401732658" lon="9.498584654798377"><ele>283.59999999999997</ele><time>2026-03-29T09:47:14Z</time></trkpt><trkpt lat="45.70484233858077" lon="9.498605603780849"><ele>283.4</ele><time>2026-03-29T09:47:16Z</time></trkpt><trkpt lat="45.704771530294664" lon="9.498644219300667"><ele>283.2</ele><time>2026-03-29T09:47:18Z</time></trkpt><trkpt lat="45.70467668176941" lon="9.498689070131611"><ele>283.0</ele><time>2026-03-29T09:47:20Z</time></trkpt><trkpt lat="45.7045733802061" lon="9.498739594746441"><ele>283.0</ele><time>2026-03-29T09:47:22Z</time></trkpt><trkpt lat="45.704447678803696" lon="9.498677378054493"><ele>283.0</ele><time>2026-03-29T09:47:24Z</time></trkpt><trkpt lat="45.70435695987609" lon="9.498762992708553"><ele>283.0</ele><time>2026-03-29T09:47:26Z</time></trkpt><trkpt lat="45.704266326459106" lon="9.498837558147592"><ele>283.0</ele><time>2026-03-29T09:47:28Z</time></trkpt><trkpt lat="45.70418723018982" lon="9.498911545577197"><ele>283.0</ele><time>2026-03-29T09:47:30Z</time></trkpt><trkpt lat="45.70408477197091" lon="9.498965904979409"><ele>283.2</ele><time>2026-03-29T09:47:32Z</time></trkpt><trkpt lat="45.70398540090142" lon="9.49901495399048"><ele>283.4</ele><time>2026-03-29T09:47:34Z</time></trkpt><trkpt lat="45.70390912922323" lon="9.499100978512944"><ele>283.59999999999997</ele><time>2026-03-29T09:47:36Z</time></trkpt><trkpt lat="45.7038173908884" lon="9.499135118082249"><ele>283.8</ele><time>2026-03-29T09:47:38Z</time></trkpt><trkpt lat="45.70373823442028" lon="9.49916696361133"><ele>284.0</ele><time>2026-03-29T09:47:40Z</time></trkpt><trkpt lat="45.70365551652151" lon="9.499215977033968"><ele>284.0</ele><time>2026-03-29T09:47:43Z</time></trkpt><trkpt lat="45.70358759038978" lon="9.499227870460759"><ele>284.0</ele><time>2026-03-29T09:47:45Z</time></trkpt><trkpt lat="45.703535295125526" lon="9.499279111547136"><ele>284.0</ele><time>2026-03-29T09:47:47Z</time></trkpt><trkpt lat="45.703477039477704" lon="9.499313534628872"><ele>284.0</ele><time>2026-03-29T09:47:49Z</time></trkpt><trkpt lat="45.70340427449096" lon="9.499317494386393"><ele>284.0</ele><time>2026-03-29T09:47:51Z</time></trkpt><trkpt lat="45.70333079071629" lon="9.499388325573147"><ele>284.0</ele><time>2026-03-29T09:47:54Z</time></trkpt><trkpt lat="45.70326036174849" lon="9.49945259939109"><ele>284.0</ele><time>2026-03-29T09:47:57Z</time></trkpt><trkpt lat="45.7031778091375" lon="9.49947304844237"><ele>284.0</ele><time>2026-03-29T09:48:00Z</time></trkpt><trkpt lat="45.70310817948527" lon="9.499552335438006"><ele>284.0</ele><time>2026-03-29T09:48:03Z</time></trkpt><trkpt lat="45.70304804723966" lon="9.499586841819124"><ele>284.0</ele><time>2026-03-29T09:48:05Z</time></trkpt><trkpt lat="45.7029900989364" lon="9.499665626358418"><ele>284.0</ele><time>2026-03-29T09:48:08Z</time></trkpt><trkpt lat="45.70295450895625" lon="9.499760511518284"><ele>284.0</ele><time>2026-03-29T09:48:11Z</time></trkpt><trkpt lat="45.70289296207696" lon="9.499806600559987"><ele>284.0</ele><time>2026-03-29T09:48:14Z</time></trkpt><trkpt lat="45.702822188193004" lon="9.499769034627557"><ele>283.2</ele><time>2026-03-29T09:48:15Z</time></trkpt><trkpt lat="45.702733423684144" lon="9.499788291082044"><ele>282.4</ele><time>2026-03-29T09:48:17Z</time></trkpt><trkpt lat="45.70267700516168" lon="9.499874582000873"><ele>281.6</ele><time>2026-03-29T09:48:18Z</time></trkpt><trkpt lat="45.702572587366454" lon="9.499973550185212"><ele>280.8</ele><time>2026-03-29T09:48:20Z</time></trkpt><trkpt lat="45.702499585624956" lon="9.500017821968859"><ele>280.0</ele><time>2026-03-29T09:48:21Z</time></trkpt><trkpt lat="45.70248937618672" lon="9.500125427216759"><ele>280.0</ele><time>2026-03-29T09:48:22Z</time></trkpt><trkpt lat="45.70243283104364" lon="9.500200620430743"><ele>280.0</ele><time>2026-03-29T09:48:23Z</time></trkpt><trkpt lat="45.70234304280562" lon="9.500258821022777"><ele>280.0</ele><time>2026-03-29T09:48:24Z</time></trkpt><trkpt lat="45.70227857816352" lon="9.500319130990961"><ele>280.0</ele><time>2026-03-29T09:48:25Z</time></trkpt><trkpt lat="45.70223728060638" lon="9.500413917428418"><ele>280.0</ele><time>2026-03-29T09:48:26Z</time></trkpt><trkpt lat="45.702181266638725" lon="9.500484857560314"><ele>280.0</ele><time>2026-03-29T09:48:27Z</time></trkpt><trkpt lat="45.70212825777739" lon="9.500568596194856"><ele>280.4</ele><time>2026-03-29T09:48:28Z</time></trkpt><trkpt lat="45.70204552707281" lon="9.50061633094361"><ele>280.8</ele><time>2026-03-29T09:48:29Z</time></trkpt><trkpt lat="45.70196706095149" lon="9.50066187615784"><ele>281.2</ele><time>2026-03-29T09:48:30Z</time></trkpt><trkpt lat="45.70187891582583" lon="9.500727659710847"><ele>281.6</ele><time>2026-03-29T09:48:31Z</time></trkpt><trkpt lat="45.70178830031373" lon="9.50079401100105"><ele>282.0</ele><time>2026-03-29T09:48:32Z</time></trkpt><trkpt lat="45.70173960957002" lon="9.50095291528762"><ele>281.4</ele><time>2026-03-29T09:48:33Z</time></trkpt><trkpt lat="45.701665928775434" lon="9.501049950061946"><ele>280.79999999999995</ele><time>2026-03-29T09:48:34Z</time></trkpt><trkpt lat="45.7015817788929" lon="9.501120963017508"><ele>280.2</ele><time>2026-03-29T09:48:35Z</time></trkpt><trkpt lat="45.70147865365498" lon="9.50110205082356"><ele>279.59999999999997</ele><time>2026-03-29T09:48:36Z</time></trkpt><trkpt lat="45.701405597908064" lon="9.50117416392245"><ele>279.0</ele><time>2026-03-29T09:48:37Z</time></trkpt><trkpt lat="45.701316027200576" lon="9.50126271678264"><ele>279.0</ele><time>2026-03-29T09:48:38Z</time></trkpt><trkpt lat="45.701254610237115" lon="9.501364561895176"><ele>279.0</ele><time>2026-03-29T09:48:39Z</time></trkpt><trkpt lat="45.70119453946507" lon="9.501438729187674"><ele>279.0</ele><time>2026-03-29T09:48:40Z</time></trkpt><trkpt lat="45.7011177769232" lon="9.501510509207245"><ele>279.0</ele><time>2026-03-29T09:48:41Z</time></trkpt><trkpt lat="45.70103755696414" lon="9.501569481416004"><ele>279.0</ele><time>2026-03-29T09:48:42Z</time></trkpt><trkpt lat="45.70094689384839" lon="9.501647064644756"><ele>278.1666666666667</ele><time>2026-03-29T09:48:43Z</time></trkpt><trkpt lat="45.700870029288986" lon="9.501708119939348"><ele>277.3333333333333</ele><time>2026-03-29T09:48:44Z</time></trkpt><trkpt lat="45.700794227230055" lon="9.501758647175299"><ele>276.5</ele><time>2026-03-29T09:48:45Z</time></trkpt><trkpt lat="45.70072965240862" lon="9.501816121468535"><ele>275.66666666666663</ele><time>2026-03-29T09:48:46Z</time></trkpt><trkpt lat="45.70062825585488" lon="9.501916064832175"><ele>274.8333333333333</ele><time>2026-03-29T09:48:48Z</time></trkpt><trkpt lat="45.70056881297001" lon="9.50195702950723"><ele>274.0</ele><time>2026-03-29T09:48:49Z</time></trkpt><trkpt lat="45.700475300500365" lon="9.502055365043752"><ele>274.0</ele><time>2026-03-29T09:48:51Z</time></trkpt><trkpt lat="45.700383803373576" lon="9.502134706404938"><ele>274.0</ele><time>2026-03-29T09:48:53Z</time></trkpt><trkpt lat="45.70029461550951" lon="9.50221598118012"><ele>274.0</ele><time>2026-03-29T09:48:55Z</time></trkpt><trkpt lat="45.70020698227771" lon="9.50229745265694"><ele>274.0</ele><time>2026-03-29T09:48:57Z</time></trkpt><trkpt lat="45.70013641590431" lon="9.502396967522808"><ele>274.0</ele><time>2026-03-29T09:48:59Z</time></trkpt><trkpt lat="45.7000500998997" lon="9.502482233727319"><ele>273.8</ele><time>2026-03-29T09:49:01Z</time></trkpt><trkpt lat="45.69996711425604" lon="9.502564210093635"><ele>273.59999999999997</ele><time>2026-03-29T09:49:03Z</time></trkpt><trkpt lat="45.69988309968506" lon="9.502646634622172"><ele>273.4</ele><time>2026-03-29T09:49:05Z</time></trkpt><trkpt lat="45.69980022946134" lon="9.5027264107225"><ele>273.2</ele><time>2026-03-29T09:49:07Z</time></trkpt><trkpt lat="45.69971968000932" lon="9.502802693510473"><ele>273.0</ele><time>2026-03-29T09:49:09Z</time></trkpt><trkpt lat="45.69964522629955" lon="9.502870355654604"><ele>273.0</ele><time>2026-03-29T09:49:11Z</time></trkpt><trkpt lat="45.699582866899036" lon="9.50289476598833"><ele>273.0</ele><time>2026-03-29T09:49:14Z</time></trkpt><trkpt lat="45.69958696023841" lon="9.502758382893385"><ele>273.0</ele><time>2026-03-29T09:49:17Z</time></trkpt><trkpt lat="45.69961951656148" lon="9.502639202860635"><ele>273.0</ele><time>2026-03-29T09:49:19Z</time></trkpt><trkpt lat="45.69966063240856" lon="9.502497940154726"><ele>273.0</ele><time>2026-03-29T09:49:21Z</time></trkpt><trkpt lat="45.6996866833996" lon="9.502348079242953"><ele>273.0</ele><time>2026-03-29T09:49:23Z</time></trkpt><trkpt lat="45.6997169140335" lon="9.502204263783241"><ele>273.0</ele><time>2026-03-29T09:49:25Z</time></trkpt><trkpt lat="45.69975712986757" lon="9.50206313247314"><ele>273.0</ele><time>2026-03-29T09:49:27Z</time></trkpt><trkpt lat="45.699789778902534" lon="9.501925402068519"><ele>273.0</ele><time>2026-03-29T09:49:29Z</time></trkpt><trkpt lat="45.699816429598684" lon="9.501785080174367"><ele>273.0</ele><time>2026-03-29T09:49:31Z</time></trkpt><trkpt lat="45.69983948978508" lon="9.501651280968186"><ele>273.0</ele><time>2026-03-29T09:49:33Z</time></trkpt><trkpt lat="45.69986646840766" lon="9.501512932050712"><ele>273.0</ele><time>2026-03-29T09:49:35Z</time></trkpt><trkpt lat="45.69989666432601" lon="9.501380309849731"><ele>273.0</ele><time>2026-03-29T09:49:37Z</time></trkpt><trkpt lat="45.69991839528122" lon="9.501242779451152"><ele>273.0</ele><time>2026-03-29T09:49:40Z</time></trkpt><trkpt lat="45.69993479324243" lon="9.501119656578751"><ele>273.0</ele><time>2026-03-29T09:49:42Z</time></trkpt><trkpt lat="45.69994377555786" lon="9.500997851402111"><ele>273.0</ele><time>2026-03-29T09:49:44Z</time></trkpt><trkpt lat="45.699947205904564" lon="9.500861723172866"><ele>273.0</ele><time>2026-03-29T09:49:47Z</time></trkpt><trkpt lat="45.69994523959343" lon="9.500750610009458"><ele>273.0</ele><time>2026-03-29T09:49:49Z</time></trkpt><trkpt lat="45.69999712238493" lon="9.50036619138753"><ele>273.0</ele><time>2026-03-29T09:49:52Z</time></trkpt><trkpt lat="45.70001705855546" lon="9.500235717503257"><ele>273.0</ele><time>2026-03-29T09:49:54Z</time></trkpt><trkpt lat="45.700039260775114" lon="9.500106289449663"><ele>273.0</ele><time>2026-03-29T09:49:56Z</time></trkpt><trkpt lat="45.70006633176536" lon="9.499989208316792"><ele>273.0</ele><time>2026-03-29T09:49:58Z</time></trkpt><trkpt lat="45.70009229219552" lon="9.49986268625695"><ele>273.0</ele><time>2026-03-29T09:50:00Z</time></trkpt><trkpt lat="45.700101555497916" lon="9.499734286606556"><ele>273.0</ele><time>2026-03-29T09:50:02Z</time></trkpt><trkpt lat="45.700110610153615" lon="9.499604045714518"><ele>273.2</ele><time>2026-03-29T09:50:04Z</time></trkpt><trkpt lat="45.700108586939066" lon="9.49947516298236"><ele>273.4</ele><time>2026-03-29T09:50:06Z</time></trkpt><trkpt lat="45.70010569056688" lon="9.499348716499803"><ele>273.59999999999997</ele><time>2026-03-29T09:50:08Z</time></trkpt><trkpt lat="45.70011173919252" lon="9.499217409558625"><ele>273.8</ele><time>2026-03-29T09:50:10Z</time></trkpt><trkpt lat="45.70010691549228" lon="9.499080643213093"><ele>274.0</ele><time>2026-03-29T09:50:12Z</time></trkpt><trkpt lat="45.70011292882265" lon="9.498950259819365"><ele>274.0</ele><time>2026-03-29T09:50:14Z</time></trkpt><trkpt lat="45.70010755917173" lon="9.498824266162215"><ele>274.0</ele><time>2026-03-29T09:50:16Z</time></trkpt><trkpt lat="45.700112403589365" lon="9.498693313238086"><ele>274.0</ele><time>2026-03-29T09:50:18Z</time></trkpt><trkpt lat="45.700102007155174" lon="9.49856367421241"><ele>274.0</ele><time>2026-03-29T09:50:20Z</time></trkpt><trkpt lat="45.70009931455978" lon="9.4984307351771"><ele>274.0</ele><time>2026-03-29T09:50:22Z</time></trkpt><trkpt lat="45.70010340499114" lon="9.498308601388178"><ele>274.0</ele><time>2026-03-29T09:50:24Z</time></trkpt><trkpt lat="45.70009766936628" lon="9.498175989692484"><ele>274.0</ele><time>2026-03-29T09:50:26Z</time></trkpt><trkpt lat="45.70008314114145" lon="9.498064894654773"><ele>274.0</ele><time>2026-03-29T09:50:28Z</time></trkpt><trkpt lat="45.70007336566126" lon="9.49794269988458"><ele>274.0</ele><time>2026-03-29T09:50:30Z</time></trkpt><trkpt lat="45.70009671921191" lon="9.497811839945625"><ele>274.0</ele><time>2026-03-29T09:50:32Z</time></trkpt><trkpt lat="45.70012737502107" lon="9.497691977947925"><ele>274.0</ele><time>2026-03-29T09:50:34Z</time></trkpt><trkpt lat="45.700156968035266" lon="9.497571844974376"><ele>274.0</ele><time>2026-03-29T09:50:36Z</time></trkpt><trkpt lat="45.70018396744341" lon="9.4974538025786"><ele>274.0</ele><time>2026-03-29T09:50:38Z</time></trkpt><trkpt lat="45.700209583558454" lon="9.497336122369646"><ele>274.0</ele><time>2026-03-29T09:50:40Z</time></trkpt><trkpt lat="45.70022418074629" lon="9.497224864861604"><ele>274.0</ele><time>2026-03-29T09:50:42Z</time></trkpt><trkpt lat="45.70026219412537" lon="9.49711953339487"><ele>274.0</ele><time>2026-03-29T09:50:44Z</time></trkpt><trkpt lat="45.700287672285015" lon="9.496987284110121"><ele>274.0</ele><time>2026-03-29T09:50:46Z</time></trkpt><trkpt lat="45.70033274566155" lon="9.49686866212705"><ele>274.0</ele><time>2026-03-29T09:50:48Z</time></trkpt><trkpt lat="45.7003710294269" lon="9.496748356674503"><ele>274.16666666666663</ele><time>2026-03-29T09:50:50Z</time></trkpt><trkpt lat="45.70040300389109" lon="9.496627896513504"><ele>274.3333333333333</ele><time>2026-03-29T09:50:52Z</time></trkpt><trkpt lat="45.700428945772984" lon="9.496511662087167"><ele>274.5</ele><time>2026-03-29T09:50:54Z</time></trkpt><trkpt lat="45.70045552648943" lon="9.496404668456057"><ele>274.6666666666667</ele><time>2026-03-29T09:50:56Z</time></trkpt><trkpt lat="45.70049220690009" lon="9.496301392272954"><ele>274.83333333333337</ele><time>2026-03-29T09:50:58Z</time></trkpt><trkpt lat="45.70052470015114" lon="9.496188170807045"><ele>275.0</ele><time>2026-03-29T09:51:00Z</time></trkpt><trkpt lat="45.700539524349786" lon="9.4960613376551"><ele>275.0</ele><time>2026-03-29T09:51:02Z</time></trkpt><trkpt lat="45.70056613711735" lon="9.49591640325303"><ele>275.0</ele><time>2026-03-29T09:51:04Z</time></trkpt><trkpt lat="45.70055845751805" lon="9.495768048457663"><ele>275.0</ele><time>2026-03-29T09:51:06Z</time></trkpt><trkpt lat="45.70055766730547" lon="9.495613825499516"><ele>275.0</ele><time>2026-03-29T09:51:08Z</time></trkpt><trkpt lat="45.700582312095015" lon="9.495467626383608"><ele>275.0</ele><time>2026-03-29T09:51:10Z</time></trkpt><trkpt lat="45.70056855455854" lon="9.495330534385554"><ele>274.8</ele><time>2026-03-29T09:51:12Z</time></trkpt><trkpt lat="45.700587262826296" lon="9.495198879973875"><ele>274.6</ele><time>2026-03-29T09:51:14Z</time></trkpt><trkpt lat="45.70058333083085" lon="9.495060855224583"><ele>274.4</ele><time>2026-03-29T09:51:16Z</time></trkpt><trkpt lat="45.70058792832633" lon="9.49492168221528"><ele>274.2</ele><time>2026-03-29T09:51:18Z</time></trkpt><trkpt lat="45.700582497259525" lon="9.494781878375184"><ele>274.0</ele><time>2026-03-29T09:51:20Z</time></trkpt><trkpt lat="45.70057382711475" lon="9.494648709724327"><ele>274.59999999999997</ele><time>2026-03-29T09:51:22Z</time></trkpt><trkpt lat="45.700557036400134" lon="9.494526089027525"><ele>275.2</ele><time>2026-03-29T09:51:24Z</time></trkpt><trkpt lat="45.70055405524069" lon="9.494398918474573"><ele>275.79999999999995</ele><time>2026-03-29T09:51:26Z</time></trkpt><trkpt lat="45.70053673276221" lon="9.494267906010851"><ele>276.4</ele><time>2026-03-29T09:51:28Z</time></trkpt><trkpt lat="45.70051216355557" lon="9.4941422474921"><ele>277.0</ele><time>2026-03-29T09:51:30Z</time></trkpt><trkpt lat="45.70046575746385" lon="9.494028311005428"><ele>277.0</ele><time>2026-03-29T09:51:32Z</time></trkpt><trkpt lat="45.700369602167605" lon="9.493943189713796"><ele>277.0</ele><time>2026-03-29T09:51:34Z</time></trkpt><trkpt lat="45.70028228898764" lon="9.493891208724301"><ele>277.0</ele><time>2026-03-29T09:51:36Z</time></trkpt><trkpt lat="45.70022028755196" lon="9.493931409853133"><ele>277.0</ele><time>2026-03-29T09:51:42Z</time></trkpt><trkpt lat="45.700136267143414" lon="9.493915149925726"><ele>277.0</ele><time>2026-03-29T09:51:47Z</time></trkpt><trkpt lat="45.700076552590446" lon="9.493880368835125"><ele>277.0</ele><time>2026-03-29T09:51:49Z</time></trkpt><trkpt lat="45.70008645814112" lon="9.493777079355473"><ele>276.4</ele><time>2026-03-29T09:51:54Z</time></trkpt><trkpt lat="45.70014486412016" lon="9.49365739509984"><ele>275.79999999999995</ele><time>2026-03-29T09:51:56Z</time></trkpt><trkpt lat="45.70016410310946" lon="9.493527147080199"><ele>275.2</ele><time>2026-03-29T09:51:58Z</time></trkpt><trkpt lat="45.70017467121799" lon="9.493403803902634"><ele>274.59999999999997</ele><time>2026-03-29T09:52:00Z</time></trkpt><trkpt lat="45.700195148122084" lon="9.493275469608884"><ele>274.0</ele><time>2026-03-29T09:52:02Z</time></trkpt><trkpt lat="45.70022284914419" lon="9.493151703113421"><ele>274.0</ele><time>2026-03-29T09:52:04Z</time></trkpt><trkpt lat="45.700249753331484" lon="9.493030017722175"><ele>274.0</ele><time>2026-03-29T09:52:06Z</time></trkpt><trkpt lat="45.70027064253092" lon="9.492899756031589"><ele>274.0</ele><time>2026-03-29T09:52:08Z</time></trkpt><trkpt lat="45.700280664626995" lon="9.492774818984401"><ele>274.0</ele><time>2026-03-29T09:52:10Z</time></trkpt><trkpt lat="45.700299086623374" lon="9.492643670860268"><ele>274.0</ele><time>2026-03-29T09:52:12Z</time></trkpt><trkpt lat="45.70031228157744" lon="9.4925237896563"><ele>274.0</ele><time>2026-03-29T09:52:14Z</time></trkpt><trkpt lat="45.70032516254066" lon="9.492405282729496"><ele>274.8333333333333</ele><time>2026-03-29T09:52:16Z</time></trkpt><trkpt lat="45.700329025266775" lon="9.492289320790242"><ele>275.66666666666663</ele><time>2026-03-29T09:52:18Z</time></trkpt><trkpt lat="45.700309834737666" lon="9.49219545496195"><ele>276.5</ele><time>2026-03-29T09:52:20Z</time></trkpt><trkpt lat="45.700305307017196" lon="9.49208818609292"><ele>277.3333333333333</ele><time>2026-03-29T09:52:25Z</time></trkpt><trkpt lat="45.700312110775315" lon="9.491948977238547"><ele>278.1666666666667</ele><time>2026-03-29T09:52:28Z</time></trkpt><trkpt lat="45.700330262936916" lon="9.491817066465982"><ele>279.0</ele><time>2026-03-29T09:52:30Z</time></trkpt><trkpt lat="45.70034172394199" lon="9.491693029508227"><ele>279.1666666666667</ele><time>2026-03-29T09:52:32Z</time></trkpt><trkpt lat="45.700360312846946" lon="9.491566641317572"><ele>279.3333333333333</ele><time>2026-03-29T09:52:34Z</time></trkpt><trkpt lat="45.700361837476905" lon="9.49144470557445"><ele>279.5</ele><time>2026-03-29T09:52:36Z</time></trkpt><trkpt lat="45.70036067714959" lon="9.491339862639487"><ele>279.66666666666663</ele><time>2026-03-29T09:52:38Z</time></trkpt><trkpt lat="45.700354390048346" lon="9.491220205146188"><ele>279.8333333333333</ele><time>2026-03-29T09:52:41Z</time></trkpt><trkpt lat="45.70035498736107" lon="9.491086083630805"><ele>280.0</ele><time>2026-03-29T09:52:44Z</time></trkpt><trkpt lat="45.7003839237735" lon="9.490963197825597"><ele>280.0</ele><time>2026-03-29T09:52:46Z</time></trkpt><trkpt lat="45.70038867997032" lon="9.4908201767797"><ele>280.0</ele><time>2026-03-29T09:52:48Z</time></trkpt><trkpt lat="45.70039621101505" lon="9.490680906599074"><ele>280.0</ele><time>2026-03-29T09:52:50Z</time></trkpt><trkpt lat="45.700406651760034" lon="9.490553948363434"><ele>280.0</ele><time>2026-03-29T09:52:52Z</time></trkpt><trkpt lat="45.7004003218058" lon="9.490435413979169"><ele>280.0</ele><time>2026-03-29T09:52:54Z</time></trkpt><trkpt lat="45.70040487098096" lon="9.490317452096125"><ele>280.0</ele><time>2026-03-29T09:52:56Z</time></trkpt><trkpt lat="45.70040240621817" lon="9.490193755471156"><ele>280.0</ele><time>2026-03-29T09:52:58Z</time></trkpt><trkpt lat="45.70041251567521" lon="9.490075774059742"><ele>280.0</ele><time>2026-03-29T09:53:00Z</time></trkpt><trkpt lat="45.70042307875117" lon="9.489953924296014"><ele>280.0</ele><time>2026-03-29T09:53:02Z</time></trkpt><trkpt lat="45.70042445553596" lon="9.48982797606707"><ele>280.0</ele><time>2026-03-29T09:53:04Z</time></trkpt><trkpt lat="45.7004242711889" lon="9.489703877534328"><ele>280.0</ele><time>2026-03-29T09:53:06Z</time></trkpt><trkpt lat="45.700431485427124" lon="9.489581885985087"><ele>280.0</ele><time>2026-03-29T09:53:08Z</time></trkpt><trkpt lat="45.7004399240756" lon="9.48945414984656"><ele>280.0</ele><time>2026-03-29T09:53:10Z</time></trkpt><trkpt lat="45.70043391992044" lon="9.48933202808352"><ele>280.0</ele><time>2026-03-29T09:53:12Z</time></trkpt><trkpt lat="45.700434806595275" lon="9.489200131222717"><ele>280.0</ele><time>2026-03-29T09:53:14Z</time></trkpt><trkpt lat="45.70045867056051" lon="9.489071277549936"><ele>280.0</ele><time>2026-03-29T09:53:16Z</time></trkpt><trkpt lat="45.70046462742996" lon="9.488947058851142"><ele>280.0</ele><time>2026-03-29T09:53:18Z</time></trkpt><trkpt lat="45.70046729703636" lon="9.488825515829392"><ele>279.8333333333333</ele><time>2026-03-29T09:53:20Z</time></trkpt><trkpt lat="45.70047346479026" lon="9.488689581750826"><ele>279.66666666666663</ele><time>2026-03-29T09:53:22Z</time></trkpt><trkpt lat="45.70048895284191" lon="9.488572200402558"><ele>279.5</ele><time>2026-03-29T09:53:24Z</time></trkpt><trkpt lat="45.70049326576596" lon="9.48845006218629"><ele>279.3333333333333</ele><time>2026-03-29T09:53:26Z</time></trkpt><trkpt lat="45.70049752880964" lon="9.488327831484487"><ele>279.1666666666667</ele><time>2026-03-29T09:53:28Z</time></trkpt><trkpt lat="45.70049506138381" lon="9.488209102145923"><ele>279.0</ele><time>2026-03-29T09:53:30Z</time></trkpt><trkpt lat="45.70049168206069" lon="9.488111511287116"><ele>279.0</ele><time>2026-03-29T09:53:32Z</time></trkpt><trkpt lat="45.700499191389085" lon="9.488016082233505"><ele>279.0</ele><time>2026-03-29T09:53:34Z</time></trkpt><trkpt lat="45.700540771545526" lon="9.487928889159742"><ele>279.0</ele><time>2026-03-29T09:53:37Z</time></trkpt><trkpt lat="45.700509929791785" lon="9.487849735497193"><ele>279.0</ele><time>2026-03-29T09:53:39Z</time></trkpt><trkpt lat="45.70050793822372" lon="9.487738035858746"><ele>279.0</ele><time>2026-03-29T09:53:42Z</time></trkpt><trkpt lat="45.70050590270293" lon="9.487620357884774"><ele>279.0</ele><time>2026-03-29T09:53:44Z</time></trkpt><trkpt lat="45.7005025773713" lon="9.487471518592908"><ele>278.6666666666667</ele><time>2026-03-29T09:53:46Z</time></trkpt><trkpt lat="45.700498480769745" lon="9.487335881829598"><ele>278.3333333333333</ele><time>2026-03-29T09:53:48Z</time></trkpt><trkpt lat="45.700507136509906" lon="9.487203912278813"><ele>278.0</ele><time>2026-03-29T09:53:50Z</time></trkpt><trkpt lat="45.700500499822205" lon="9.487090692732023"><ele>277.66666666666663</ele><time>2026-03-29T09:53:52Z</time></trkpt><trkpt lat="45.700509126770804" lon="9.48696173095428"><ele>277.3333333333333</ele><time>2026-03-29T09:53:54Z</time></trkpt><trkpt lat="45.700505757841796" lon="9.486851575259523"><ele>277.0</ele><time>2026-03-29T09:53:56Z</time></trkpt><trkpt lat="45.70051345194809" lon="9.486748501453514"><ele>276.5</ele><time>2026-03-29T09:53:58Z</time></trkpt><trkpt lat="45.700511111094805" lon="9.486646016932148"><ele>276.0</ele><time>2026-03-29T09:54:00Z</time></trkpt><trkpt lat="45.700506563723636" lon="9.486524650470935"><ele>275.5</ele><time>2026-03-29T09:54:03Z</time></trkpt><trkpt lat="45.70049510511598" lon="9.486423586874688"><ele>275.0</ele><time>2026-03-29T09:54:05Z</time></trkpt><trkpt lat="45.70055087860213" lon="9.48633024990578"><ele>274.5</ele><time>2026-03-29T09:54:07Z</time></trkpt><trkpt lat="45.70058772624736" lon="9.486228230282824"><ele>274.0</ele><time>2026-03-29T09:54:09Z</time></trkpt><trkpt lat="45.70058046852128" lon="9.486101544057396"><ele>273.8333333333333</ele><time>2026-03-29T09:54:11Z</time></trkpt><trkpt lat="45.70057336820672" lon="9.485977650320027"><ele>273.66666666666663</ele><time>2026-03-29T09:54:13Z</time></trkpt><trkpt lat="45.70058522857215" lon="9.485854416807172"><ele>273.5</ele><time>2026-03-29T09:54:15Z</time></trkpt><trkpt lat="45.70060888182359" lon="9.485724168899642"><ele>273.3333333333333</ele><time>2026-03-29T09:54:17Z</time></trkpt><trkpt lat="45.700619637288234" lon="9.485593599040232"><ele>273.1666666666667</ele><time>2026-03-29T09:54:19Z</time></trkpt><trkpt lat="45.700620408177784" lon="9.485472104889995"><ele>273.0</ele><time>2026-03-29T09:54:21Z</time></trkpt><trkpt lat="45.70062289029651" lon="9.485338199718601"><ele>273.3333333333333</ele><time>2026-03-29T09:54:23Z</time></trkpt><trkpt lat="45.70063471576872" lon="9.485208740902468"><ele>273.6666666666667</ele><time>2026-03-29T09:54:25Z</time></trkpt><trkpt lat="45.70063776863326" lon="9.485080082694179"><ele>274.0</ele><time>2026-03-29T09:54:27Z</time></trkpt><trkpt lat="45.700641486320926" lon="9.48494660972075"><ele>274.33333333333337</ele><time>2026-03-29T09:54:29Z</time></trkpt><trkpt lat="45.7006566041624" lon="9.48482602781831"><ele>274.6666666666667</ele><time>2026-03-29T09:54:31Z</time></trkpt><trkpt lat="45.700646304454466" lon="9.484704017250017"><ele>275.0</ele><time>2026-03-29T09:54:33Z</time></trkpt><trkpt lat="45.700651438918854" lon="9.48457978802191"><ele>275.33333333333337</ele><time>2026-03-29T09:54:35Z</time></trkpt><trkpt lat="45.70065865315024" lon="9.484454133544055"><ele>275.6666666666667</ele><time>2026-03-29T09:54:37Z</time></trkpt><trkpt lat="45.70065690726977" lon="9.48433164274067"><ele>276.0</ele><time>2026-03-29T09:54:39Z</time></trkpt><trkpt lat="45.70067388818736" lon="9.484209543955345"><ele>276.3333333333333</ele><time>2026-03-29T09:54:41Z</time></trkpt><trkpt lat="45.70067063575698" lon="9.484109278310504"><ele>276.66666666666663</ele><time>2026-03-29T09:54:43Z</time></trkpt><trkpt lat="45.70067510820123" lon="9.48396940713372"><ele>277.0</ele><time>2026-03-29T09:54:45Z</time></trkpt><trkpt lat="45.70069320912115" lon="9.483845270360401"><ele>276.8333333333333</ele><time>2026-03-29T09:54:47Z</time></trkpt><trkpt lat="45.70069588115361" lon="9.48372309826379"><ele>276.66666666666663</ele><time>2026-03-29T09:54:49Z</time></trkpt><trkpt lat="45.70070860940338" lon="9.483606469502645"><ele>276.5</ele><time>2026-03-29T09:54:51Z</time></trkpt><trkpt lat="45.700706141546576" lon="9.483474177351326"><ele>276.3333333333333</ele><time>2026-03-29T09:54:53Z</time></trkpt><trkpt lat="45.700715437335965" lon="9.483346507331333"><ele>276.1666666666667</ele><time>2026-03-29T09:54:55Z</time></trkpt><trkpt lat="45.700729627777484" lon="9.483222878668972"><ele>276.0</ele><time>2026-03-29T09:54:57Z</time></trkpt><trkpt lat="45.700730061866594" lon="9.483108630609346"><ele>276.0</ele><time>2026-03-29T09:54:59Z</time></trkpt><trkpt lat="45.700732097301334" lon="9.482993343445234"><ele>276.0</ele><time>2026-03-29T09:55:01Z</time></trkpt><trkpt lat="45.70074866204326" lon="9.482877307672707"><ele>276.0</ele><time>2026-03-29T09:55:03Z</time></trkpt><trkpt lat="45.70073358096585" lon="9.482755828509635"><ele>276.0</ele><time>2026-03-29T09:55:05Z</time></trkpt><trkpt lat="45.70074263211125" lon="9.482630778599503"><ele>276.0</ele><time>2026-03-29T09:55:07Z</time></trkpt><trkpt lat="45.7007508815177" lon="9.482509320565685"><ele>276.0</ele><time>2026-03-29T09:55:09Z</time></trkpt><trkpt lat="45.7007588362778" lon="9.482388516739242"><ele>276.0</ele><time>2026-03-29T09:55:11Z</time></trkpt><trkpt lat="45.700759322482114" lon="9.482273177087384"><ele>276.0</ele><time>2026-03-29T09:55:13Z</time></trkpt><trkpt lat="45.700771777633214" lon="9.482155416268219"><ele>276.0</ele><time>2026-03-29T09:55:15Z</time></trkpt><trkpt lat="45.700781166010955" lon="9.482046249779744"><ele>276.0</ele><time>2026-03-29T09:55:17Z</time></trkpt><trkpt lat="45.700786005467144" lon="9.481931815785627"><ele>276.0</ele><time>2026-03-29T09:55:19Z</time></trkpt><trkpt lat="45.70079171851493" lon="9.481821689883898"><ele>276.0</ele><time>2026-03-29T09:55:21Z</time></trkpt><trkpt lat="45.70079912107142" lon="9.481708371022737"><ele>276.1666666666667</ele><time>2026-03-29T09:55:23Z</time></trkpt><trkpt lat="45.700807080423836" lon="9.481595114177876"><ele>276.3333333333333</ele><time>2026-03-29T09:55:25Z</time></trkpt><trkpt lat="45.70080957786133" lon="9.481477251106813"><ele>276.5</ele><time>2026-03-29T09:55:27Z</time></trkpt><trkpt lat="45.70079739831168" lon="9.481359445267735"><ele>276.66666666666663</ele><time>2026-03-29T09:55:29Z</time></trkpt><trkpt lat="45.700796363887314" lon="9.48125471601618"><ele>276.8333333333333</ele><time>2026-03-29T09:55:31Z</time></trkpt><trkpt lat="45.70080761156326" lon="9.481137724053657"><ele>277.0</ele><time>2026-03-29T09:55:33Z</time></trkpt><trkpt lat="45.70082431265389" lon="9.481020594713456"><ele>277.3333333333333</ele><time>2026-03-29T09:55:35Z</time></trkpt><trkpt lat="45.70082846737286" lon="9.480901618057834"><ele>277.66666666666663</ele><time>2026-03-29T09:55:37Z</time></trkpt><trkpt lat="45.70083521297352" lon="9.480784338112066"><ele>278.0</ele><time>2026-03-29T09:55:39Z</time></trkpt><trkpt lat="45.70082245363198" lon="9.480668671780736"><ele>278.3333333333333</ele><time>2026-03-29T09:55:41Z</time></trkpt><trkpt lat="45.70080508143195" lon="9.480553130967142"><ele>278.6666666666667</ele><time>2026-03-29T09:55:43Z</time></trkpt><trkpt lat="45.700801243425936" lon="9.480438819319849"><ele>279.0</ele><time>2026-03-29T09:55:45Z</time></trkpt><trkpt lat="45.70076758795373" lon="9.480329116587384"><ele>279.1428571428571</ele><time>2026-03-29T09:55:47Z</time></trkpt><trkpt lat="45.70074648634401" lon="9.48023390190865"><ele>279.2857142857143</ele><time>2026-03-29T09:55:49Z</time></trkpt><trkpt lat="45.7006967653546" lon="9.480146011710083"><ele>279.42857142857144</ele><time>2026-03-29T09:55:51Z</time></trkpt><trkpt lat="45.700642144335546" lon="9.480065962932148"><ele>279.57142857142856</ele><time>2026-03-29T09:55:53Z</time></trkpt><trkpt lat="45.70059380061454" lon="9.47999431342578"><ele>279.7142857142857</ele><time>2026-03-29T09:55:55Z</time></trkpt><trkpt lat="45.700530602545726" lon="9.479941640045743"><ele>279.85714285714283</ele><time>2026-03-29T09:55:57Z</time></trkpt><trkpt lat="45.70045238601198" lon="9.47992310623056"><ele>280.0</ele><time>2026-03-29T09:55:59Z</time></trkpt><trkpt lat="45.70035573797169" lon="9.479942637148351"><ele>280.0</ele><time>2026-03-29T09:56:01Z</time></trkpt><trkpt lat="45.700263831699004" lon="9.47994402225239"><ele>280.0</ele><time>2026-03-29T09:56:03Z</time></trkpt><trkpt lat="45.70018276950865" lon="9.479936788108615"><ele>280.0</ele><time>2026-03-29T09:56:05Z</time></trkpt><trkpt lat="45.700100437625004" lon="9.479921425419663"><ele>280.0</ele><time>2026-03-29T09:56:07Z</time></trkpt><trkpt lat="45.700001840081896" lon="9.479890445731778"><ele>280.0</ele><time>2026-03-29T09:56:09Z</time></trkpt><trkpt lat="45.69990481725544" lon="9.479837189682636"><ele>279.8333333333333</ele><time>2026-03-29T09:56:11Z</time></trkpt><trkpt lat="45.69981196871689" lon="9.479840020440804"><ele>279.66666666666663</ele><time>2026-03-29T09:56:13Z</time></trkpt><trkpt lat="45.699717919186774" lon="9.479849313941294"><ele>279.5</ele><time>2026-03-29T09:56:15Z</time></trkpt><trkpt lat="45.69963329181258" lon="9.479849253378616"><ele>279.3333333333333</ele><time>2026-03-29T09:56:17Z</time></trkpt><trkpt lat="45.69954734092393" lon="9.47988881935617"><ele>279.1666666666667</ele><time>2026-03-29T09:56:19Z</time></trkpt><trkpt lat="45.69946634596063" lon="9.479896167114388"><ele>279.0</ele><time>2026-03-29T09:56:21Z</time></trkpt><trkpt lat="45.6993747759477" lon="9.47990923209757"><ele>279.5</ele><time>2026-03-29T09:56:23Z</time></trkpt><trkpt lat="45.69929232338648" lon="9.479949152691098"><ele>280.0</ele><time>2026-03-29T09:56:25Z</time></trkpt><trkpt lat="45.69921491083396" lon="9.479972422661627"><ele>280.5</ele><time>2026-03-29T09:56:27Z</time></trkpt><trkpt lat="45.69913785460742" lon="9.479971501361788"><ele>281.0</ele><time>2026-03-29T09:56:29Z</time></trkpt><trkpt lat="45.699056224821646" lon="9.48001451022198"><ele>281.5</ele><time>2026-03-29T09:56:31Z</time></trkpt><trkpt lat="45.69897960920004" lon="9.480063369000002"><ele>282.0</ele><time>2026-03-29T09:56:33Z</time></trkpt><trkpt lat="45.6988803150836" lon="9.480082438586926"><ele>282.0</ele><time>2026-03-29T09:56:35Z</time></trkpt><trkpt lat="45.69879374023805" lon="9.48008366042154"><ele>282.0</ele><time>2026-03-29T09:56:37Z</time></trkpt><trkpt lat="45.698697407119795" lon="9.480053620517621"><ele>282.0</ele><time>2026-03-29T09:56:39Z</time></trkpt><trkpt lat="45.69860333092751" lon="9.48005053871731"><ele>282.0</ele><time>2026-03-29T09:56:41Z</time></trkpt><trkpt lat="45.69850867161831" lon="9.480067076159365"><ele>282.0</ele><time>2026-03-29T09:56:43Z</time></trkpt><trkpt lat="45.69841628304211" lon="9.48008518766775"><ele>282.0</ele><time>2026-03-29T09:56:45Z</time></trkpt><trkpt lat="45.69832041860339" lon="9.480096766585746"><ele>282.0</ele><time>2026-03-29T09:56:47Z</time></trkpt><trkpt lat="45.69823914679089" lon="9.480110676530337"><ele>282.0</ele><time>2026-03-29T09:56:49Z</time></trkpt><trkpt lat="45.69814730618104" lon="9.480134874566343"><ele>282.0</ele><time>2026-03-29T09:56:51Z</time></trkpt><trkpt lat="45.69805587353128" lon="9.480172724449048"><ele>282.0</ele><time>2026-03-29T09:56:53Z</time></trkpt><trkpt lat="45.69796849759904" lon="9.48021824617639"><ele>282.0</ele><time>2026-03-29T09:56:55Z</time></trkpt><trkpt lat="45.69787610413133" lon="9.480233544839876"><ele>282.0</ele><time>2026-03-29T09:56:57Z</time></trkpt><trkpt lat="45.697792185846225" lon="9.480272142308367"><ele>282.0</ele><time>2026-03-29T09:56:59Z</time></trkpt><trkpt lat="45.69771010216717" lon="9.480286624383282"><ele>282.0</ele><time>2026-03-29T09:57:01Z</time></trkpt><trkpt lat="45.697631625405066" lon="9.480306874318588"><ele>282.0</ele><time>2026-03-29T09:57:03Z</time></trkpt><trkpt lat="45.697546138826844" lon="9.48033581310481"><ele>282.0</ele><time>2026-03-29T09:57:05Z</time></trkpt><trkpt lat="45.69746690563522" lon="9.480361358891882"><ele>282.6</ele><time>2026-03-29T09:57:07Z</time></trkpt><trkpt lat="45.69737431952175" lon="9.480342115169005"><ele>283.2</ele><time>2026-03-29T09:57:09Z</time></trkpt><trkpt lat="45.697284491449416" lon="9.480334966094421"><ele>283.8</ele><time>2026-03-29T09:57:11Z</time></trkpt><trkpt lat="45.69719532019721" lon="9.48035098910278"><ele>284.4</ele><time>2026-03-29T09:57:13Z</time></trkpt><trkpt lat="45.69710042645856" lon="9.480387505109881"><ele>285.0</ele><time>2026-03-29T09:57:15Z</time></trkpt><trkpt lat="45.69700670365598" lon="9.48042116589402"><ele>284.2</ele><time>2026-03-29T09:57:17Z</time></trkpt><trkpt lat="45.69691138236139" lon="9.480461813022961"><ele>283.4</ele><time>2026-03-29T09:57:19Z</time></trkpt><trkpt lat="45.6968158107562" lon="9.480491083011318"><ele>282.6</ele><time>2026-03-29T09:57:21Z</time></trkpt><trkpt lat="45.69672354211925" lon="9.480505171708856"><ele>281.8</ele><time>2026-03-29T09:57:23Z</time></trkpt><trkpt lat="45.696643441559985" lon="9.48051124422661"><ele>281.0</ele><time>2026-03-29T09:57:25Z</time></trkpt><trkpt lat="45.69656740090126" lon="9.480570523354844"><ele>281.0</ele><time>2026-03-29T09:57:27Z</time></trkpt><trkpt lat="45.6965083587898" lon="9.480678694077927"><ele>281.0</ele><time>2026-03-29T09:57:29Z</time></trkpt><trkpt lat="45.696435063180225" lon="9.480745099643606"><ele>281.0</ele><time>2026-03-29T09:57:31Z</time></trkpt><trkpt lat="45.69635289952272" lon="9.480718672010644"><ele>281.0</ele><time>2026-03-29T09:57:33Z</time></trkpt><trkpt lat="45.69623292566292" lon="9.480728947228481"><ele>281.0</ele><time>2026-03-29T09:57:35Z</time></trkpt><trkpt lat="45.69612546554424" lon="9.480738624599118"><ele>280.40000000000003</ele><time>2026-03-29T09:57:37Z</time></trkpt><trkpt lat="45.69602308747813" lon="9.480809805074658"><ele>279.8</ele><time>2026-03-29T09:57:39Z</time></trkpt><trkpt lat="45.695940169923404" lon="9.480854481658156"><ele>279.20000000000005</ele><time>2026-03-29T09:57:41Z</time></trkpt><trkpt lat="45.695880191608204" lon="9.480896441313918"><ele>278.6</ele><time>2026-03-29T09:57:49Z</time></trkpt><trkpt lat="45.695844690564705" lon="9.480797639889543"><ele>278.0</ele><time>2026-03-29T09:57:52Z</time></trkpt><trkpt lat="45.69571958759912" lon="9.480760680708846"><ele>278.0</ele><time>2026-03-29T09:57:54Z</time></trkpt><trkpt lat="45.69565299703404" lon="9.480797084680363"><ele>278.0</ele><time>2026-03-29T09:57:55Z</time></trkpt><trkpt lat="45.69557875639192" lon="9.480807582786554"><ele>278.0</ele><time>2026-03-29T09:57:56Z</time></trkpt><trkpt lat="45.695509347568475" lon="9.480816631534012"><ele>278.0</ele><time>2026-03-29T09:57:57Z</time></trkpt><trkpt lat="45.69543913735008" lon="9.480812786004547"><ele>278.0</ele><time>2026-03-29T09:57:58Z</time></trkpt><trkpt lat="45.695371134743446" lon="9.480813572461829"><ele>278.0</ele><time>2026-03-29T09:57:59Z</time></trkpt><trkpt lat="45.69530547268718" lon="9.480837780089672"><ele>278.0</ele><time>2026-03-29T09:58:00Z</time></trkpt><trkpt lat="45.695240501245856" lon="9.48085017133156"><ele>278.1428571428571</ele><time>2026-03-29T09:58:01Z</time></trkpt><trkpt lat="45.69517594275139" lon="9.48086168156243"><ele>278.2857142857143</ele><time>2026-03-29T09:58:02Z</time></trkpt><trkpt lat="45.69510964290609" lon="9.480864801214448"><ele>278.42857142857144</ele><time>2026-03-29T09:58:03Z</time></trkpt><trkpt lat="45.69504496411743" lon="9.480847606021134"><ele>278.57142857142856</ele><time>2026-03-29T09:58:04Z</time></trkpt><trkpt lat="45.6949791862319" lon="9.48083335471999"><ele>278.7142857142857</ele><time>2026-03-29T09:58:05Z</time></trkpt><trkpt lat="45.69491769514377" lon="9.4808133190775"><ele>278.85714285714283</ele><time>2026-03-29T09:58:06Z</time></trkpt><trkpt lat="45.694811249250996" lon="9.480740177797342"><ele>279.0</ele><time>2026-03-29T09:58:08Z</time></trkpt><trkpt lat="45.69476643934762" lon="9.480657178131981"><ele>279.0</ele><time>2026-03-29T09:58:09Z</time></trkpt><trkpt lat="45.69473390784511" lon="9.480552807637887"><ele>279.0</ele><time>2026-03-29T09:58:10Z</time></trkpt><trkpt lat="45.69472989157695" lon="9.480439704022864"><ele>279.0</ele><time>2026-03-29T09:58:11Z</time></trkpt><trkpt lat="45.694717871661595" lon="9.480269376393098"><ele>279.0</ele><time>2026-03-29T09:58:13Z</time></trkpt><trkpt lat="45.694682778409174" lon="9.480187096194783"><ele>279.0</ele><time>2026-03-29T09:58:14Z</time></trkpt><trkpt lat="45.6946522654798" lon="9.480106737823261"><ele>279.0</ele><time>2026-03-29T09:58:15Z</time></trkpt><trkpt lat="45.694566736894494" lon="9.47997107803684"><ele>279.0</ele><time>2026-03-29T09:58:17Z</time></trkpt><trkpt lat="45.694508789702525" lon="9.479923534778147"><ele>279.0</ele><time>2026-03-29T09:58:18Z</time></trkpt><trkpt lat="45.694441986463126" lon="9.479917536944303"><ele>279.0</ele><time>2026-03-29T09:58:19Z</time></trkpt><trkpt lat="45.69431880803941" lon="9.47990447680898"><ele>279.0</ele><time>2026-03-29T09:58:21Z</time></trkpt><trkpt lat="45.69425414595924" lon="9.479916111779847"><ele>279.0</ele><time>2026-03-29T09:58:22Z</time></trkpt><trkpt lat="45.69419322791266" lon="9.479949200879506"><ele>279.0</ele><time>2026-03-29T09:58:23Z</time></trkpt><trkpt lat="45.694132547213115" lon="9.479976308362454"><ele>278.59999999999997</ele><time>2026-03-29T09:58:24Z</time></trkpt><trkpt lat="45.69400834883257" lon="9.47997083086532"><ele>278.2</ele><time>2026-03-29T09:58:26Z</time></trkpt><trkpt lat="45.69394600666265" lon="9.479941552164705"><ele>277.79999999999995</ele><time>2026-03-29T09:58:27Z</time></trkpt><trkpt lat="45.69382477779665" lon="9.479956337159233"><ele>277.4</ele><time>2026-03-29T09:58:29Z</time></trkpt><trkpt lat="45.69376772275607" lon="9.479815465043496"><ele>277.0</ele><time>2026-03-29T09:58:30Z</time></trkpt><trkpt lat="45.6937082025912" lon="9.479749045952397"><ele>277.0</ele><time>2026-03-29T09:58:31Z</time></trkpt><trkpt lat="45.69365793529934" lon="9.479686677977114"><ele>277.0</ele><time>2026-03-29T09:58:32Z</time></trkpt><trkpt lat="45.693549694223016" lon="9.479577838343316"><ele>277.0</ele><time>2026-03-29T09:58:34Z</time></trkpt><trkpt lat="45.69349503937545" lon="9.479527994203577"><ele>277.0</ele><time>2026-03-29T09:58:35Z</time></trkpt><trkpt lat="45.69344283354927" lon="9.479476723492658"><ele>277.0</ele><time>2026-03-29T09:58:36Z</time></trkpt><trkpt lat="45.6933884553746" lon="9.479425116406707"><ele>277.0</ele><time>2026-03-29T09:58:37Z</time></trkpt><trkpt lat="45.69333422339032" lon="9.479377116498778"><ele>277.0</ele><time>2026-03-29T09:58:38Z</time></trkpt><trkpt lat="45.69328085698816" lon="9.479324759262296"><ele>277.0</ele><time>2026-03-29T09:58:39Z</time></trkpt><trkpt lat="45.69318107931817" lon="9.479236815081997"><ele>277.0</ele><time>2026-03-29T09:58:41Z</time></trkpt><trkpt lat="45.6930810506342" lon="9.479144136643777"><ele>277.0</ele><time>2026-03-29T09:58:43Z</time></trkpt><trkpt lat="45.692979957020164" lon="9.479040860870604"><ele>277.0</ele><time>2026-03-29T09:58:45Z</time></trkpt><trkpt lat="45.69288493655095" lon="9.478937264024115"><ele>277.0</ele><time>2026-03-29T09:58:47Z</time></trkpt><trkpt lat="45.69278472422019" lon="9.478840583132737"><ele>277.0</ele><time>2026-03-29T09:58:49Z</time></trkpt><trkpt lat="45.692733501788275" lon="9.478787485971063"><ele>277.0</ele><time>2026-03-29T09:58:50Z</time></trkpt><trkpt lat="45.69264364108474" lon="9.478668807871143"><ele>277.0</ele><time>2026-03-29T09:58:52Z</time></trkpt><trkpt lat="45.692584002166235" lon="9.478622633490424"><ele>277.0</ele><time>2026-03-29T09:58:53Z</time></trkpt><trkpt lat="45.692527047582274" lon="9.478575124990288"><ele>277.0</ele><time>2026-03-29T09:58:54Z</time></trkpt><trkpt lat="45.692432383514856" lon="9.478468639726145"><ele>276.5</ele><time>2026-03-29T09:58:56Z</time></trkpt><trkpt lat="45.69237788491082" lon="9.478420637604659"><ele>276.0</ele><time>2026-03-29T09:58:57Z</time></trkpt><trkpt lat="45.69227793784987" lon="9.478325020163767"><ele>275.5</ele><time>2026-03-29T09:58:59Z</time></trkpt><trkpt lat="45.69222059835992" lon="9.478275858613333"><ele>275.0</ele><time>2026-03-29T09:59:00Z</time></trkpt><trkpt lat="45.69216860973323" lon="9.478224157299056"><ele>274.5</ele><time>2026-03-29T09:59:01Z</time></trkpt><trkpt lat="45.692073553847116" lon="9.478125974412258"><ele>274.0</ele><time>2026-03-29T09:59:03Z</time></trkpt><trkpt lat="45.6919716457891" lon="9.478031011550318"><ele>274.0</ele><time>2026-03-29T09:59:05Z</time></trkpt><trkpt lat="45.69186989046695" lon="9.477926148451246"><ele>274.0</ele><time>2026-03-29T09:59:07Z</time></trkpt><trkpt lat="45.69177061955109" lon="9.477838018416064"><ele>274.0</ele><time>2026-03-29T09:59:09Z</time></trkpt><trkpt lat="45.691669237690554" lon="9.477819419353322"><ele>274.0</ele><time>2026-03-29T09:59:11Z</time></trkpt><trkpt lat="45.69163712051453" lon="9.477696738674409"><ele>274.0</ele><time>2026-03-29T09:59:12Z</time></trkpt><trkpt lat="45.69153918341051" lon="9.47760122776437"><ele>274.0</ele><time>2026-03-29T09:59:14Z</time></trkpt><trkpt lat="45.69146650665418" lon="9.477516003379044"><ele>274.0</ele><time>2026-03-29T09:59:16Z</time></trkpt><trkpt lat="45.691402541653964" lon="9.477406900755383"><ele>274.0</ele><time>2026-03-29T09:59:18Z</time></trkpt><trkpt lat="45.69134658200697" lon="9.477334300648597"><ele>274.0</ele><time>2026-03-29T09:59:20Z</time></trkpt><trkpt lat="45.69132126705165" lon="9.477225961060242"><ele>274.0</ele><time>2026-03-29T09:59:24Z</time></trkpt><trkpt lat="45.69125914243407" lon="9.477176199728953"><ele>274.0</ele><time>2026-03-29T09:59:26Z</time></trkpt><trkpt lat="45.69122550722005" lon="9.477084157930378"><ele>274.2</ele><time>2026-03-29T09:59:28Z</time></trkpt><trkpt lat="45.69117651795343" lon="9.476998042538659"><ele>274.4</ele><time>2026-03-29T09:59:30Z</time></trkpt><trkpt lat="45.69114148818333" lon="9.476886139541817"><ele>274.6</ele><time>2026-03-29T09:59:32Z</time></trkpt><trkpt lat="45.69108905768037" lon="9.476771211746442"><ele>274.8</ele><time>2026-03-29T09:59:34Z</time></trkpt><trkpt lat="45.69104708069609" lon="9.47665277730302"><ele>275.0</ele><time>2026-03-29T09:59:36Z</time></trkpt><trkpt lat="45.691007760816305" lon="9.476519597160303"><ele>275.0</ele><time>2026-03-29T09:59:38Z</time></trkpt><trkpt lat="45.69098006163868" lon="9.476375785210584"><ele>275.0</ele><time>2026-03-29T09:59:40Z</time></trkpt><trkpt lat="45.69094935871046" lon="9.476224903764498"><ele>275.0</ele><time>2026-03-29T09:59:42Z</time></trkpt><trkpt lat="45.690909907282" lon="9.476092979949964"><ele>275.0</ele><time>2026-03-29T09:59:44Z</time></trkpt><trkpt lat="45.69085705394242" lon="9.475968855324382"><ele>275.0</ele><time>2026-03-29T09:59:46Z</time></trkpt><trkpt lat="45.69081434400914" lon="9.475837064170184"><ele>275.0</ele><time>2026-03-29T09:59:48Z</time></trkpt><trkpt lat="45.69077475893306" lon="9.475678099563833"><ele>275.0</ele><time>2026-03-29T09:59:50Z</time></trkpt><trkpt lat="45.690730965878934" lon="9.475531271487386"><ele>275.0</ele><time>2026-03-29T09:59:52Z</time></trkpt><trkpt lat="45.69068890087422" lon="9.475376826318817"><ele>275.0</ele><time>2026-03-29T09:59:54Z</time></trkpt><trkpt lat="45.690651296324674" lon="9.47523437657335"><ele>274.83333333333337</ele><time>2026-03-29T09:59:56Z</time></trkpt><trkpt lat="45.690608490809055" lon="9.475098431820077"><ele>274.6666666666667</ele><time>2026-03-29T09:59:58Z</time></trkpt><trkpt lat="45.69056125397237" lon="9.475002180049204"><ele>274.5</ele><time>2026-03-29T10:00:00Z</time></trkpt><trkpt lat="45.69055165716459" lon="9.4749041723013"><ele>274.3333333333333</ele><time>2026-03-29T10:00:03Z</time></trkpt><trkpt lat="45.690487463925045" lon="9.474782646589457"><ele>274.16666666666663</ele><time>2026-03-29T10:00:05Z</time></trkpt><trkpt lat="45.69046130541995" lon="9.474673873782473"><ele>274.0</ele><time>2026-03-29T10:00:07Z</time></trkpt><trkpt lat="45.690575023277475" lon="9.474675150579658"><ele>274.0</ele><time>2026-03-29T10:01:54Z</time></trkpt><trkpt lat="45.6906662680442" lon="9.47464142221062"><ele>274.0</ele><time>2026-03-29T10:01:56Z</time></trkpt><trkpt lat="45.69060207084566" lon="9.474627889305376"><ele>274.0</ele><time>2026-03-29T10:01:59Z</time></trkpt><trkpt lat="45.69052729419174" lon="9.474516132513656"><ele>274.0</ele><time>2026-03-29T10:02:10Z</time></trkpt><trkpt lat="45.690482265254765" lon="9.474418027453304"><ele>274.0</ele><time>2026-03-29T10:02:12Z</time></trkpt><trkpt lat="45.690471864425106" lon="9.474312806761857"><ele>274.0</ele><time>2026-03-29T10:02:14Z</time></trkpt><trkpt lat="45.69040462713997" lon="9.474260733747235"><ele>274.0</ele><time>2026-03-29T10:02:16Z</time></trkpt><trkpt lat="45.69037853791401" lon="9.47415020208602"><ele>274.0</ele><time>2026-03-29T10:02:20Z</time></trkpt><trkpt lat="45.69028335356418" lon="9.47409905867198"><ele>274.0</ele><time>2026-03-29T10:02:25Z</time></trkpt><trkpt lat="45.690256270691" lon="9.47400891440812"><ele>274.0</ele><time>2026-03-29T10:02:27Z</time></trkpt><trkpt lat="45.69023166687547" lon="9.473905337110061"><ele>274.0</ele><time>2026-03-29T10:02:29Z</time></trkpt><trkpt lat="45.69017626350138" lon="9.473817993429094"><ele>274.0</ele><time>2026-03-29T10:02:31Z</time></trkpt><trkpt lat="45.690136198895146" lon="9.473685531356391"><ele>274.0</ele><time>2026-03-29T10:02:33Z</time></trkpt><trkpt lat="45.69009425045745" lon="9.473543197258968"><ele>274.0</ele><time>2026-03-29T10:02:35Z</time></trkpt><trkpt lat="45.69006272416448" lon="9.473400563945686"><ele>274.0</ele><time>2026-03-29T10:02:37Z</time></trkpt><trkpt lat="45.6900376056595" lon="9.473248262882667"><ele>274.0</ele><time>2026-03-29T10:02:39Z</time></trkpt><trkpt lat="45.68998698708944" lon="9.473118370955246"><ele>274.0</ele><time>2026-03-29T10:02:41Z</time></trkpt><trkpt lat="45.68993015524677" lon="9.473003795373959"><ele>274.14285714285717</ele><time>2026-03-29T10:02:43Z</time></trkpt><trkpt lat="45.689904703854246" lon="9.472911004796453"><ele>274.2857142857143</ele><time>2026-03-29T10:02:44Z</time></trkpt><trkpt lat="45.68988954946166" lon="9.472806113801543"><ele>274.42857142857144</ele><time>2026-03-29T10:02:45Z</time></trkpt><trkpt lat="45.689863983796535" lon="9.472691845403315"><ele>274.57142857142856</ele><time>2026-03-29T10:02:46Z</time></trkpt><trkpt lat="45.6898345490454" lon="9.47259248286924"><ele>274.7142857142857</ele><time>2026-03-29T10:02:47Z</time></trkpt><trkpt lat="45.68981253599184" lon="9.472486231839408"><ele>274.8571428571429</ele><time>2026-03-29T10:02:48Z</time></trkpt><trkpt lat="45.68978851989433" lon="9.472399390005206"><ele>275.0</ele><time>2026-03-29T10:02:49Z</time></trkpt><trkpt lat="45.68971978231582" lon="9.472268961059862"><ele>275.0</ele><time>2026-03-29T10:02:51Z</time></trkpt><trkpt lat="45.68969729382031" lon="9.472166612650566"><ele>275.0</ele><time>2026-03-29T10:02:53Z</time></trkpt><trkpt lat="45.689624833487535" lon="9.47206232154005"><ele>275.0</ele><time>2026-03-29T10:02:55Z</time></trkpt><trkpt lat="45.68952922087266" lon="9.472045433387667"><ele>275.0</ele><time>2026-03-29T10:02:56Z</time></trkpt><trkpt lat="45.689462245089736" lon="9.472134704970562"><ele>275.0</ele><time>2026-03-29T10:02:57Z</time></trkpt><trkpt lat="45.68939947967695" lon="9.47218686635148"><ele>275.0</ele><time>2026-03-29T10:02:58Z</time></trkpt><trkpt lat="45.68934159053775" lon="9.47231982356863"><ele>274.8</ele><time>2026-03-29T10:03:00Z</time></trkpt><trkpt lat="45.68927688033322" lon="9.472401544884814"><ele>274.6</ele><time>2026-03-29T10:03:02Z</time></trkpt><trkpt lat="45.68916783886418" lon="9.472461445650355"><ele>274.4</ele><time>2026-03-29T10:03:04Z</time></trkpt><trkpt lat="45.68909331771485" lon="9.472554541018075"><ele>274.2</ele><time>2026-03-29T10:03:06Z</time></trkpt><trkpt lat="45.68904439671531" lon="9.472636149877752"><ele>274.0</ele><time>2026-03-29T10:03:08Z</time></trkpt><trkpt lat="45.68899475556889" lon="9.472752250434626"><ele>274.0</ele><time>2026-03-29T10:03:10Z</time></trkpt><trkpt lat="45.68892571550915" lon="9.472863040331283"><ele>274.0</ele><time>2026-03-29T10:03:12Z</time></trkpt><trkpt lat="45.688838052733324" lon="9.472934120711956"><ele>274.0</ele><time>2026-03-29T10:03:14Z</time></trkpt><trkpt lat="45.6887447180962" lon="9.472953898822434"><ele>274.0</ele><time>2026-03-29T10:03:16Z</time></trkpt><trkpt lat="45.68864339615102" lon="9.47297397874465"><ele>274.0</ele><time>2026-03-29T10:03:18Z</time></trkpt><trkpt lat="45.68856161138308" lon="9.47305686458988"><ele>273.8333333333333</ele><time>2026-03-29T10:03:20Z</time></trkpt><trkpt lat="45.68846763997775" lon="9.473122393333588"><ele>273.66666666666663</ele><time>2026-03-29T10:03:22Z</time></trkpt><trkpt lat="45.68839782258962" lon="9.473127553133626"><ele>273.5</ele><time>2026-03-29T10:03:23Z</time></trkpt><trkpt lat="45.68827239759018" lon="9.473113398909014"><ele>273.3333333333333</ele><time>2026-03-29T10:03:25Z</time></trkpt><trkpt lat="45.68820558104728" lon="9.473118539595912"><ele>273.1666666666667</ele><time>2026-03-29T10:03:26Z</time></trkpt><trkpt lat="45.68813865356581" lon="9.473122783389437"><ele>273.0</ele><time>2026-03-29T10:03:27Z</time></trkpt><trkpt lat="45.68806863243992" lon="9.473140663353469"><ele>273.0</ele><time>2026-03-29T10:03:28Z</time></trkpt><trkpt lat="45.68800262381428" lon="9.473161105270837"><ele>273.0</ele><time>2026-03-29T10:03:29Z</time></trkpt><trkpt lat="45.687935922847515" lon="9.473186374436176"><ele>273.0</ele><time>2026-03-29T10:03:30Z</time></trkpt><trkpt lat="45.68786699834693" lon="9.473208794973091"><ele>273.0</ele><time>2026-03-29T10:03:31Z</time></trkpt><trkpt lat="45.687778926782194" lon="9.473220671551415"><ele>273.0</ele><time>2026-03-29T10:03:33Z</time></trkpt><trkpt lat="45.68771332769192" lon="9.473222228733187"><ele>273.0</ele><time>2026-03-29T10:03:37Z</time></trkpt><trkpt lat="45.68769299361912" lon="9.47312884781693"><ele>273.0</ele><time>2026-03-29T10:03:39Z</time></trkpt><trkpt lat="45.68774837304323" lon="9.47302067978104"><ele>272.0</ele><time>2026-03-29T10:03:40Z</time></trkpt><trkpt lat="45.687727715701655" lon="9.472927769592324"><ele>271.0</ele><time>2026-03-29T10:03:41Z</time></trkpt><trkpt lat="45.68767049698039" lon="9.472785712637483"><ele>270.0</ele><time>2026-03-29T10:03:43Z</time></trkpt><trkpt lat="45.687642263452965" lon="9.47263369907171"><ele>269.0</ele><time>2026-03-29T10:03:45Z</time></trkpt><trkpt lat="45.68761923698397" lon="9.47250972142576"><ele>268.0</ele><time>2026-03-29T10:03:47Z</time></trkpt><trkpt lat="45.68759543898339" lon="9.472381594842894"><ele>268.0</ele><time>2026-03-29T10:03:49Z</time></trkpt><trkpt lat="45.68762727513312" lon="9.472288568607441"><ele>268.0</ele><time>2026-03-29T10:03:50Z</time></trkpt><trkpt lat="45.68759638678499" lon="9.472205303518999"><ele>268.0</ele><time>2026-03-29T10:03:51Z</time></trkpt><trkpt lat="45.68753401905227" lon="9.472128313082171"><ele>268.0</ele><time>2026-03-29T10:03:53Z</time></trkpt><trkpt lat="45.68751395121602" lon="9.47203022330818"><ele>268.0</ele><time>2026-03-29T10:03:54Z</time></trkpt><trkpt lat="45.68749492709967" lon="9.471934353352305"><ele>268.0</ele><time>2026-03-29T10:03:55Z</time></trkpt><trkpt lat="45.68746633262658" lon="9.471849013000556"><ele>268.0</ele><time>2026-03-29T10:03:56Z</time></trkpt><trkpt lat="45.68743338034762" lon="9.471691745348869"><ele>268.0</ele><time>2026-03-29T10:03:58Z</time></trkpt><trkpt lat="45.68741218229594" lon="9.47155329263278"><ele>268.0</ele><time>2026-03-29T10:04:00Z</time></trkpt><trkpt lat="45.68739638504864" lon="9.471409926405148"><ele>268.0</ele><time>2026-03-29T10:04:02Z</time></trkpt><trkpt lat="45.68737524243676" lon="9.471270916003471"><ele>268.0</ele><time>2026-03-29T10:04:04Z</time></trkpt><trkpt lat="45.6873415116042" lon="9.471183920909807"><ele>268.0</ele><time>2026-03-29T10:04:05Z</time></trkpt><trkpt lat="45.68730481747599" lon="9.471027249594988"><ele>268.0</ele><time>2026-03-29T10:04:07Z</time></trkpt><trkpt lat="45.68730309684332" lon="9.47089827851568"><ele>268.0</ele><time>2026-03-29T10:04:09Z</time></trkpt><trkpt lat="45.687278046664865" lon="9.470776862819163"><ele>268.0</ele><time>2026-03-29T10:04:11Z</time></trkpt><trkpt lat="45.68726404289027" lon="9.47064989034077"><ele>268.0</ele><time>2026-03-29T10:04:13Z</time></trkpt><trkpt lat="45.68725268613814" lon="9.47051040298489"><ele>268.0</ele><time>2026-03-29T10:04:15Z</time></trkpt><trkpt lat="45.687248687625605" lon="9.47041879498245"><ele>268.0</ele><time>2026-03-29T10:04:16Z</time></trkpt><trkpt lat="45.68722931586736" lon="9.470270796770679"><ele>268.2</ele><time>2026-03-29T10:04:18Z</time></trkpt><trkpt lat="45.68718940515482" lon="9.470135704273144"><ele>268.4</ele><time>2026-03-29T10:04:20Z</time></trkpt><trkpt lat="45.687132903682034" lon="9.470003726035845"><ele>268.59999999999997</ele><time>2026-03-29T10:04:22Z</time></trkpt><trkpt lat="45.6871024389015" lon="9.469853307024053"><ele>268.8</ele><time>2026-03-29T10:04:24Z</time></trkpt><trkpt lat="45.687077822113075" lon="9.469703438787294"><ele>269.0</ele><time>2026-03-29T10:04:26Z</time></trkpt><trkpt lat="45.6870670606666" lon="9.469574392775671"><ele>269.0</ele><time>2026-03-29T10:04:28Z</time></trkpt><trkpt lat="45.687033495001884" lon="9.469424578968129"><ele>269.0</ele><time>2026-03-29T10:04:30Z</time></trkpt><trkpt lat="45.687026167485186" lon="9.469272535626923"><ele>269.0</ele><time>2026-03-29T10:04:32Z</time></trkpt><trkpt lat="45.686995370602226" lon="9.469130753357945"><ele>269.0</ele><time>2026-03-29T10:04:34Z</time></trkpt><trkpt lat="45.68697164444879" lon="9.469038273224818"><ele>269.0</ele><time>2026-03-29T10:04:35Z</time></trkpt><trkpt lat="45.68694127722458" lon="9.468882872730857"><ele>268.4</ele><time>2026-03-29T10:04:37Z</time></trkpt><trkpt lat="45.68690633638512" lon="9.46875017020316"><ele>267.79999999999995</ele><time>2026-03-29T10:04:39Z</time></trkpt><trkpt lat="45.68687237605761" lon="9.468605495886106"><ele>267.20000000000005</ele><time>2026-03-29T10:04:41Z</time></trkpt><trkpt lat="45.686857085829594" lon="9.468476315817725"><ele>266.6</ele><time>2026-03-29T10:04:43Z</time></trkpt><trkpt lat="45.68683709065548" lon="9.468338713860618"><ele>266.0</ele><time>2026-03-29T10:04:45Z</time></trkpt><trkpt lat="45.68680713615079" lon="9.468195656359624"><ele>266.0</ele><time>2026-03-29T10:04:47Z</time></trkpt><trkpt lat="45.686777220114216" lon="9.468101830091335"><ele>266.0</ele><time>2026-03-29T10:04:49Z</time></trkpt><trkpt lat="45.686727848227555" lon="9.468001858440182"><ele>266.0</ele><time>2026-03-29T10:04:51Z</time></trkpt><trkpt lat="45.68670917955335" lon="9.46786773939443"><ele>266.0</ele><time>2026-03-29T10:04:53Z</time></trkpt><trkpt lat="45.68669998765577" lon="9.467745950872082"><ele>266.0</ele><time>2026-03-29T10:04:55Z</time></trkpt><trkpt lat="45.686689165112504" lon="9.467623638291377"><ele>266.0</ele><time>2026-03-29T10:04:57Z</time></trkpt><trkpt lat="45.686683989386076" lon="9.467491709328064"><ele>266.5</ele><time>2026-03-29T10:04:59Z</time></trkpt><trkpt lat="45.68667407378956" lon="9.467354331654747"><ele>267.0</ele><time>2026-03-29T10:05:01Z</time></trkpt><trkpt lat="45.68662741631729" lon="9.467243918126831"><ele>267.5</ele><time>2026-03-29T10:05:03Z</time></trkpt><trkpt lat="45.68660267570198" lon="9.467132549688417"><ele>268.0</ele><time>2026-03-29T10:05:05Z</time></trkpt><trkpt lat="45.68658840247904" lon="9.466997896534433"><ele>268.5</ele><time>2026-03-29T10:05:07Z</time></trkpt><trkpt lat="45.68656758067296" lon="9.46688832018952"><ele>269.0</ele><time>2026-03-29T10:05:09Z</time></trkpt><trkpt lat="45.686539538863094" lon="9.466775979707693"><ele>269.59999999999997</ele><time>2026-03-29T10:05:11Z</time></trkpt><trkpt lat="45.686520571194706" lon="9.466652157603633"><ele>270.2</ele><time>2026-03-29T10:05:13Z</time></trkpt><trkpt lat="45.68651506607161" lon="9.466511535475101"><ele>270.79999999999995</ele><time>2026-03-29T10:05:15Z</time></trkpt><trkpt lat="45.68648905328345" lon="9.466381448069649"><ele>271.4</ele><time>2026-03-29T10:05:17Z</time></trkpt><trkpt lat="45.68647217700726" lon="9.466263227902209"><ele>272.0</ele><time>2026-03-29T10:05:19Z</time></trkpt><trkpt lat="45.68647327452822" lon="9.466123801762823"><ele>272.0</ele><time>2026-03-29T10:05:21Z</time></trkpt><trkpt lat="45.68642832650998" lon="9.466011381109128"><ele>272.0</ele><time>2026-03-29T10:05:23Z</time></trkpt><trkpt lat="45.686408727409585" lon="9.46588850248739"><ele>272.0</ele><time>2026-03-29T10:05:25Z</time></trkpt><trkpt lat="45.68636765772081" lon="9.465760117669241"><ele>272.0</ele><time>2026-03-29T10:05:27Z</time></trkpt><trkpt lat="45.6863401108187" lon="9.465632237821321"><ele>272.0</ele><time>2026-03-29T10:05:29Z</time></trkpt><trkpt lat="45.68630654783658" lon="9.465503017922465"><ele>270.8</ele><time>2026-03-29T10:05:31Z</time></trkpt><trkpt lat="45.68628731102391" lon="9.46538353865152"><ele>269.6</ele><time>2026-03-29T10:05:33Z</time></trkpt><trkpt lat="45.68627013861207" lon="9.465223252229412"><ele>268.40000000000003</ele><time>2026-03-29T10:05:35Z</time></trkpt><trkpt lat="45.68624899152472" lon="9.465091497349883"><ele>267.2</ele><time>2026-03-29T10:05:37Z</time></trkpt><trkpt lat="45.68622911581414" lon="9.464952910004737"><ele>266.0</ele><time>2026-03-29T10:05:39Z</time></trkpt><trkpt lat="45.68621025780821" lon="9.464801865087658"><ele>266.0</ele><time>2026-03-29T10:05:41Z</time></trkpt><trkpt lat="45.68617334937426" lon="9.464687896345408"><ele>266.0</ele><time>2026-03-29T10:05:43Z</time></trkpt><trkpt lat="45.68613695955152" lon="9.464575980905074"><ele>266.0</ele><time>2026-03-29T10:05:45Z</time></trkpt><trkpt lat="45.686127655788574" lon="9.464424566029196"><ele>266.0</ele><time>2026-03-29T10:05:47Z</time></trkpt><trkpt lat="45.68610142775579" lon="9.464278623183363"><ele>266.0</ele><time>2026-03-29T10:05:49Z</time></trkpt><trkpt lat="45.68607732739305" lon="9.464159426173262"><ele>265.6</ele><time>2026-03-29T10:05:51Z</time></trkpt><trkpt lat="45.68604188376613" lon="9.464030781577108"><ele>265.20000000000005</ele><time>2026-03-29T10:05:53Z</time></trkpt><trkpt lat="45.68599626662348" lon="9.463875192514498"><ele>264.79999999999995</ele><time>2026-03-29T10:05:55Z</time></trkpt><trkpt lat="45.68597023829522" lon="9.463746373426643"><ele>264.4</ele><time>2026-03-29T10:05:57Z</time></trkpt><trkpt lat="45.68595127913574" lon="9.463611031238784"><ele>264.0</ele><time>2026-03-29T10:05:59Z</time></trkpt><trkpt lat="45.68591254674007" lon="9.463473773283251"><ele>264.0</ele><time>2026-03-29T10:06:01Z</time></trkpt><trkpt lat="45.68586835012777" lon="9.463339402782255"><ele>264.0</ele><time>2026-03-29T10:06:03Z</time></trkpt><trkpt lat="45.685851450691736" lon="9.46320408122249"><ele>264.0</ele><time>2026-03-29T10:06:05Z</time></trkpt><trkpt lat="45.68583519780322" lon="9.463067094622943"><ele>264.0</ele><time>2026-03-29T10:06:07Z</time></trkpt><trkpt lat="45.68581375348592" lon="9.462928835164032"><ele>264.0</ele><time>2026-03-29T10:06:09Z</time></trkpt><trkpt lat="45.68579474081995" lon="9.462780284048861"><ele>264.2</ele><time>2026-03-29T10:06:11Z</time></trkpt><trkpt lat="45.685770631368236" lon="9.462656845004716"><ele>264.4</ele><time>2026-03-29T10:06:13Z</time></trkpt><trkpt lat="45.685736252134085" lon="9.462522945011354"><ele>264.6</ele><time>2026-03-29T10:06:15Z</time></trkpt><trkpt lat="45.685703380088974" lon="9.462395796547534"><ele>264.8</ele><time>2026-03-29T10:06:17Z</time></trkpt><trkpt lat="45.68568431465012" lon="9.462261928834204"><ele>265.0</ele><time>2026-03-29T10:06:19Z</time></trkpt><trkpt lat="45.685670982875074" lon="9.462119635996324"><ele>264.8</ele><time>2026-03-29T10:06:21Z</time></trkpt><trkpt lat="45.68565163610814" lon="9.461979979259947"><ele>264.6</ele><time>2026-03-29T10:06:23Z</time></trkpt><trkpt lat="45.68562569236318" lon="9.461837164936501"><ele>264.4</ele><time>2026-03-29T10:06:25Z</time></trkpt><trkpt lat="45.6855797031735" lon="9.46170655683721"><ele>264.2</ele><time>2026-03-29T10:06:27Z</time></trkpt><trkpt lat="45.685555048297054" lon="9.461567009733699"><ele>264.0</ele><time>2026-03-29T10:06:29Z</time></trkpt><trkpt lat="45.68553440082962" lon="9.461440956051275"><ele>264.0</ele><time>2026-03-29T10:06:31Z</time></trkpt><trkpt lat="45.685499638658605" lon="9.461303273990731"><ele>264.0</ele><time>2026-03-29T10:06:33Z</time></trkpt><trkpt lat="45.685490414881556" lon="9.461162655408039"><ele>264.0</ele><time>2026-03-29T10:06:35Z</time></trkpt><trkpt lat="45.68547343532755" lon="9.461022926867873"><ele>264.0</ele><time>2026-03-29T10:06:37Z</time></trkpt><trkpt lat="45.685435377682886" lon="9.460896937401644"><ele>264.0</ele><time>2026-03-29T10:06:39Z</time></trkpt><trkpt lat="45.68542438734369" lon="9.460762052119318"><ele>264.3333333333333</ele><time>2026-03-29T10:06:41Z</time></trkpt><trkpt lat="45.68539597312696" lon="9.460644948424363"><ele>264.6666666666667</ele><time>2026-03-29T10:06:43Z</time></trkpt><trkpt lat="45.68536921623515" lon="9.460524414442313"><ele>265.0</ele><time>2026-03-29T10:06:45Z</time></trkpt><trkpt lat="45.68532694888075" lon="9.460424310889938"><ele>265.33333333333337</ele><time>2026-03-29T10:06:47Z</time></trkpt><trkpt lat="45.685279510306316" lon="9.460350804719944"><ele>265.6666666666667</ele><time>2026-03-29T10:06:49Z</time></trkpt><trkpt lat="45.68524404016576" lon="9.460267377915802"><ele>266.0</ele><time>2026-03-29T10:06:51Z</time></trkpt><trkpt lat="45.68518180108981" lon="9.460209560401994"><ele>266.0</ele><time>2026-03-29T10:06:53Z</time></trkpt><trkpt lat="45.68512826764123" lon="9.460146835183608"><ele>266.0</ele><time>2026-03-29T10:06:55Z</time></trkpt><trkpt lat="45.68505934658409" lon="9.460134192987926"><ele>266.0</ele><time>2026-03-29T10:06:57Z</time></trkpt><trkpt lat="45.68499980535538" lon="9.46009658317536"><ele>266.0</ele><time>2026-03-29T10:07:00Z</time></trkpt><trkpt lat="45.68491370143826" lon="9.460071301411823"><ele>266.0</ele><time>2026-03-29T10:07:02Z</time></trkpt><trkpt lat="45.68481840022053" lon="9.460140900164077"><ele>266.0</ele><time>2026-03-29T10:07:04Z</time></trkpt><trkpt lat="45.68472372311138" lon="9.46017942820232"><ele>266.0</ele><time>2026-03-29T10:07:06Z</time></trkpt><trkpt lat="45.68463566816738" lon="9.460236618590399"><ele>266.0</ele><time>2026-03-29T10:07:08Z</time></trkpt><trkpt lat="45.68454554120009" lon="9.460291266390142"><ele>266.0</ele><time>2026-03-29T10:07:10Z</time></trkpt><trkpt lat="45.68445451220013" lon="9.460337467174558"><ele>266.0</ele><time>2026-03-29T10:07:12Z</time></trkpt><trkpt lat="45.68436460405564" lon="9.460389425434826"><ele>266.0</ele><time>2026-03-29T10:07:14Z</time></trkpt><trkpt lat="45.68428147968305" lon="9.460444354140327"><ele>265.6</ele><time>2026-03-29T10:07:16Z</time></trkpt><trkpt lat="45.684184215088095" lon="9.46048662214023"><ele>265.20000000000005</ele><time>2026-03-29T10:07:18Z</time></trkpt><trkpt lat="45.684090075109246" lon="9.460553393434274"><ele>264.79999999999995</ele><time>2026-03-29T10:07:20Z</time></trkpt><trkpt lat="45.68399263558454" lon="9.460605997226825"><ele>264.4</ele><time>2026-03-29T10:07:22Z</time></trkpt><trkpt lat="45.68388359388918" lon="9.460656304715673"><ele>264.0</ele><time>2026-03-29T10:07:24Z</time></trkpt><trkpt lat="45.68376105290725" lon="9.460704854423925"><ele>264.0</ele><time>2026-03-29T10:07:26Z</time></trkpt><trkpt lat="45.683696438318364" lon="9.460723059268018"><ele>264.0</ele><time>2026-03-29T10:07:27Z</time></trkpt><trkpt lat="45.68362557424015" lon="9.460740395217591"><ele>264.0</ele><time>2026-03-29T10:07:28Z</time></trkpt><trkpt lat="45.683555871291006" lon="9.46075676967161"><ele>264.0</ele><time>2026-03-29T10:07:29Z</time></trkpt><trkpt lat="45.68348536270821" lon="9.460769986005294"><ele>264.0</ele><time>2026-03-29T10:07:30Z</time></trkpt><trkpt lat="45.683410690699525" lon="9.46079058504287"><ele>264.0</ele><time>2026-03-29T10:07:31Z</time></trkpt><trkpt lat="45.68333139937567" lon="9.46079544737009"><ele>264.0</ele><time>2026-03-29T10:07:32Z</time></trkpt><trkpt lat="45.683249785950416" lon="9.46079347652554"><ele>263.5</ele><time>2026-03-29T10:07:33Z</time></trkpt><trkpt lat="45.68316819012982" lon="9.46077993590662"><ele>263.0</ele><time>2026-03-29T10:07:34Z</time></trkpt><trkpt lat="45.68309680050464" lon="9.460733197793363"><ele>262.5</ele><time>2026-03-29T10:07:35Z</time></trkpt><trkpt lat="45.68302645452898" lon="9.460681033736773"><ele>262.0</ele><time>2026-03-29T10:07:36Z</time></trkpt><trkpt lat="45.682959834688546" lon="9.460639105775549"><ele>261.5</ele><time>2026-03-29T10:07:37Z</time></trkpt><trkpt lat="45.68289276220557" lon="9.460534047875269"><ele>261.0</ele><time>2026-03-29T10:07:39Z</time></trkpt><trkpt lat="45.682840495042534" lon="9.460476598298303"><ele>261.0</ele><time>2026-03-29T10:07:41Z</time></trkpt><trkpt lat="45.682774124861865" lon="9.46049451489898"><ele>261.0</ele><time>2026-03-29T10:07:43Z</time></trkpt><trkpt lat="45.6827449087987" lon="9.460615442900831"><ele>261.0</ele><time>2026-03-29T10:07:45Z</time></trkpt><trkpt lat="45.68270102302583" lon="9.4607508065034"><ele>261.0</ele><time>2026-03-29T10:07:47Z</time></trkpt><trkpt lat="45.682689297830414" lon="9.46090521870631"><ele>261.0</ele><time>2026-03-29T10:07:49Z</time></trkpt><trkpt lat="45.68266233734846" lon="9.461058876904778"><ele>260.6</ele><time>2026-03-29T10:07:51Z</time></trkpt><trkpt lat="45.68259924487276" lon="9.461192228578973"><ele>260.20000000000005</ele><time>2026-03-29T10:07:53Z</time></trkpt><trkpt lat="45.68253222750947" lon="9.461308022769822"><ele>259.79999999999995</ele><time>2026-03-29T10:07:55Z</time></trkpt><trkpt lat="45.68244849060638" lon="9.461417942047342"><ele>259.4</ele><time>2026-03-29T10:07:57Z</time></trkpt><trkpt lat="45.6823676129131" lon="9.461522337544652"><ele>259.0</ele><time>2026-03-29T10:07:59Z</time></trkpt><trkpt lat="45.68229741745995" lon="9.461639017751592"><ele>259.0</ele><time>2026-03-29T10:08:01Z</time></trkpt><trkpt lat="45.6822336179626" lon="9.461757754826492"><ele>259.0</ele><time>2026-03-29T10:08:03Z</time></trkpt><trkpt lat="45.68217186612924" lon="9.46188121745317"><ele>259.0</ele><time>2026-03-29T10:08:05Z</time></trkpt><trkpt lat="45.68211523830472" lon="9.462008696030892"><ele>259.0</ele><time>2026-03-29T10:08:07Z</time></trkpt><trkpt lat="45.6820613248552" lon="9.462142005114865"><ele>259.0</ele><time>2026-03-29T10:08:09Z</time></trkpt><trkpt lat="45.68201910403092" lon="9.46229019726347"><ele>259.0</ele><time>2026-03-29T10:08:11Z</time></trkpt><trkpt lat="45.68198790975331" lon="9.462433111925916"><ele>259.0</ele><time>2026-03-29T10:08:13Z</time></trkpt><trkpt lat="45.68195087505819" lon="9.462583894683124"><ele>259.0</ele><time>2026-03-29T10:08:15Z</time></trkpt><trkpt lat="45.68191839181739" lon="9.462732494792869"><ele>259.0</ele><time>2026-03-29T10:08:17Z</time></trkpt><trkpt lat="45.681904346527865" lon="9.462893671489745"><ele>259.0</ele><time>2026-03-29T10:08:19Z</time></trkpt><trkpt lat="45.68189668785043" lon="9.463042755493616"><ele>258.0</ele><time>2026-03-29T10:08:21Z</time></trkpt><trkpt lat="45.68188038234332" lon="9.463197970542495"><ele>257.0</ele><time>2026-03-29T10:08:23Z</time></trkpt><trkpt lat="45.68186429303422" lon="9.463351376300615"><ele>255.99999999999997</ele><time>2026-03-29T10:08:25Z</time></trkpt><trkpt lat="45.68184977220256" lon="9.463492880691248"><ele>255.0</ele><time>2026-03-29T10:08:27Z</time></trkpt><trkpt lat="45.681836961573204" lon="9.463648687491148"><ele>254.0</ele><time>2026-03-29T10:08:29Z</time></trkpt><trkpt lat="45.681823044316864" lon="9.46380498898169"><ele>254.0</ele><time>2026-03-29T10:08:31Z</time></trkpt><trkpt lat="45.681808786386455" lon="9.463957037200942"><ele>253.99999999999997</ele><time>2026-03-29T10:08:33Z</time></trkpt><trkpt lat="45.68178841047534" lon="9.464110879682801"><ele>253.99999999999997</ele><time>2026-03-29T10:08:35Z</time></trkpt><trkpt lat="45.681766104720914" lon="9.46427026376343"><ele>254.0</ele><time>2026-03-29T10:08:37Z</time></trkpt><trkpt lat="45.68175890261691" lon="9.464433930467218"><ele>254.0</ele><time>2026-03-29T10:08:39Z</time></trkpt><trkpt lat="45.68174852385515" lon="9.464594843983173"><ele>254.39999999999998</ele><time>2026-03-29T10:08:41Z</time></trkpt><trkpt lat="45.6817265486775" lon="9.464752177377"><ele>254.79999999999998</ele><time>2026-03-29T10:08:43Z</time></trkpt><trkpt lat="45.681709502179835" lon="9.464904600018345"><ele>255.20000000000002</ele><time>2026-03-29T10:08:45Z</time></trkpt><trkpt lat="45.681683923127" lon="9.465051994551631"><ele>255.60000000000002</ele><time>2026-03-29T10:08:47Z</time></trkpt><trkpt lat="45.68167024357863" lon="9.465202905840068"><ele>256.0</ele><time>2026-03-29T10:08:49Z</time></trkpt><trkpt lat="45.68164350431171" lon="9.46535301438644"><ele>256.2</ele><time>2026-03-29T10:08:51Z</time></trkpt><trkpt lat="45.681624543176945" lon="9.465508713505063"><ele>256.40000000000003</ele><time>2026-03-29T10:08:53Z</time></trkpt><trkpt lat="45.68161072244965" lon="9.465656118204285"><ele>256.6</ele><time>2026-03-29T10:08:55Z</time></trkpt><trkpt lat="45.681592728254586" lon="9.465803413518879"><ele>256.8</ele><time>2026-03-29T10:08:57Z</time></trkpt><trkpt lat="45.68158332449258" lon="9.465948768725758"><ele>257.0</ele><time>2026-03-29T10:08:59Z</time></trkpt><trkpt lat="45.681561930818795" lon="9.46608656935422"><ele>257.0</ele><time>2026-03-29T10:09:01Z</time></trkpt><trkpt lat="45.681550752619756" lon="9.466236774111506"><ele>257.0</ele><time>2026-03-29T10:09:03Z</time></trkpt><trkpt lat="45.68152763117309" lon="9.466377177987042"><ele>257.0</ele><time>2026-03-29T10:09:05Z</time></trkpt><trkpt lat="45.681514354510945" lon="9.466526021893667"><ele>257.0</ele><time>2026-03-29T10:09:07Z</time></trkpt><trkpt lat="45.68148722713825" lon="9.466676183399922"><ele>257.0</ele><time>2026-03-29T10:09:09Z</time></trkpt><trkpt lat="45.68146093718881" lon="9.466814825233604"><ele>257.0</ele><time>2026-03-29T10:09:11Z</time></trkpt><trkpt lat="45.68144239380708" lon="9.466955892595285"><ele>257.0</ele><time>2026-03-29T10:09:13Z</time></trkpt><trkpt lat="45.68141899654283" lon="9.467096237776268"><ele>257.0</ele><time>2026-03-29T10:09:15Z</time></trkpt><trkpt lat="45.681399066482534" lon="9.467241997697876"><ele>257.0</ele><time>2026-03-29T10:09:17Z</time></trkpt><trkpt lat="45.68139063376698" lon="9.467390943054902"><ele>257.0</ele><time>2026-03-29T10:09:19Z</time></trkpt><trkpt lat="45.681357698444785" lon="9.467537471820007"><ele>257.0</ele><time>2026-03-29T10:09:21Z</time></trkpt><trkpt lat="45.68132249350508" lon="9.467689146570173"><ele>257.0</ele><time>2026-03-29T10:09:23Z</time></trkpt><trkpt lat="45.68130506792728" lon="9.4678372305672"><ele>257.0</ele><time>2026-03-29T10:09:25Z</time></trkpt><trkpt lat="45.68129041124593" lon="9.467985919639501"><ele>257.0</ele><time>2026-03-29T10:09:27Z</time></trkpt><trkpt lat="45.6812982687903" lon="9.468138771839815"><ele>257.0</ele><time>2026-03-29T10:09:29Z</time></trkpt><trkpt lat="45.681299433258786" lon="9.468285194970973"><ele>257.0</ele><time>2026-03-29T10:09:31Z</time></trkpt><trkpt lat="45.681294975515684" lon="9.468428438620165"><ele>257.0</ele><time>2026-03-29T10:09:33Z</time></trkpt><trkpt lat="45.68127853235441" lon="9.468579558667628"><ele>257.0</ele><time>2026-03-29T10:09:35Z</time></trkpt><trkpt lat="45.681266234107376" lon="9.468725344391958"><ele>257.0</ele><time>2026-03-29T10:09:37Z</time></trkpt><trkpt lat="45.68125610642306" lon="9.468872459165523"><ele>257.0</ele><time>2026-03-29T10:09:39Z</time></trkpt><trkpt lat="45.681236153047685" lon="9.469014263635838"><ele>257.2</ele><time>2026-03-29T10:09:41Z</time></trkpt><trkpt lat="45.68121325449852" lon="9.469162113409007"><ele>257.4</ele><time>2026-03-29T10:09:43Z</time></trkpt><trkpt lat="45.68119662278478" lon="9.469309167216647"><ele>257.6</ele><time>2026-03-29T10:09:45Z</time></trkpt><trkpt lat="45.68118368725874" lon="9.469458841868548"><ele>257.8</ele><time>2026-03-29T10:09:47Z</time></trkpt><trkpt lat="45.68116255832727" lon="9.46960251921409"><ele>258.0</ele><time>2026-03-29T10:09:49Z</time></trkpt><trkpt lat="45.681158513150756" lon="9.469750277640006"><ele>258.0</ele><time>2026-03-29T10:09:51Z</time></trkpt><trkpt lat="45.68113748406872" lon="9.469895531368206"><ele>258.0</ele><time>2026-03-29T10:09:53Z</time></trkpt><trkpt lat="45.681113384265196" lon="9.470039595791901"><ele>258.0</ele><time>2026-03-29T10:09:55Z</time></trkpt><trkpt lat="45.68108662889394" lon="9.470174156971112"><ele>258.0</ele><time>2026-03-29T10:09:57Z</time></trkpt><trkpt lat="45.68107628826221" lon="9.470325542797557"><ele>258.0</ele><time>2026-03-29T10:09:59Z</time></trkpt><trkpt lat="45.68105634605517" lon="9.470477407031312"><ele>258.0</ele><time>2026-03-29T10:10:01Z</time></trkpt><trkpt lat="45.68104425395576" lon="9.470625962003167"><ele>258.0</ele><time>2026-03-29T10:10:03Z</time></trkpt><trkpt lat="45.681039055568576" lon="9.470764708699043"><ele>258.0</ele><time>2026-03-29T10:10:05Z</time></trkpt><trkpt lat="45.68103240033994" lon="9.470908958601285"><ele>258.0</ele><time>2026-03-29T10:10:07Z</time></trkpt><trkpt lat="45.68102290617963" lon="9.47105184824841"><ele>258.0</ele><time>2026-03-29T10:10:09Z</time></trkpt><trkpt lat="45.68100227768345" lon="9.471199920925063"><ele>257.6</ele><time>2026-03-29T10:10:11Z</time></trkpt><trkpt lat="45.68098976773706" lon="9.47134366716232"><ele>257.20000000000005</ele><time>2026-03-29T10:10:13Z</time></trkpt><trkpt lat="45.68096383769458" lon="9.47149563208765"><ele>256.8</ele><time>2026-03-29T10:10:15Z</time></trkpt><trkpt lat="45.68094092875028" lon="9.471644168584334"><ele>256.40000000000003</ele><time>2026-03-29T10:10:17Z</time></trkpt><trkpt lat="45.6809288969502" lon="9.471790158019957"><ele>256.0</ele><time>2026-03-29T10:10:19Z</time></trkpt><trkpt lat="45.68091287284176" lon="9.471935598849733"><ele>256.0</ele><time>2026-03-29T10:10:21Z</time></trkpt><trkpt lat="45.68090144313261" lon="9.472086232340217"><ele>256.0</ele><time>2026-03-29T10:10:23Z</time></trkpt><trkpt lat="45.68088810520451" lon="9.472234518681383"><ele>256.0</ele><time>2026-03-29T10:10:25Z</time></trkpt><trkpt lat="45.680880402150635" lon="9.472386293909889"><ele>256.0</ele><time>2026-03-29T10:10:27Z</time></trkpt><trkpt lat="45.68087335730873" lon="9.472533265732864"><ele>256.0</ele><time>2026-03-29T10:10:29Z</time></trkpt><trkpt lat="45.680851998792264" lon="9.472676585308726"><ele>256.2</ele><time>2026-03-29T10:10:31Z</time></trkpt><trkpt lat="45.68084035486687" lon="9.472809574834564"><ele>256.40000000000003</ele><time>2026-03-29T10:10:33Z</time></trkpt><trkpt lat="45.68084544526901" lon="9.472945366647906"><ele>256.6</ele><time>2026-03-29T10:10:35Z</time></trkpt><trkpt lat="45.68084295138655" lon="9.473072266279145"><ele>256.8</ele><time>2026-03-29T10:10:37Z</time></trkpt><trkpt lat="45.68085232557171" lon="9.473204045759008"><ele>257.0</ele><time>2026-03-29T10:10:39Z</time></trkpt><trkpt lat="45.680851174755446" lon="9.473336320096546"><ele>257.0</ele><time>2026-03-29T10:10:41Z</time></trkpt><trkpt lat="45.680856219727424" lon="9.47346289123586"><ele>257.0</ele><time>2026-03-29T10:10:43Z</time></trkpt><trkpt lat="45.68085519187441" lon="9.473583447379989"><ele>257.0</ele><time>2026-03-29T10:10:45Z</time></trkpt><trkpt lat="45.68083758103267" lon="9.473716977612968"><ele>257.0</ele><time>2026-03-29T10:10:47Z</time></trkpt><trkpt lat="45.68081593060449" lon="9.473848615808016"><ele>257.0</ele><time>2026-03-29T10:10:49Z</time></trkpt><trkpt lat="45.68077864154369" lon="9.473974652635937"><ele>256.6</ele><time>2026-03-29T10:10:51Z</time></trkpt><trkpt lat="45.68072367863508" lon="9.47409438401809"><ele>256.2</ele><time>2026-03-29T10:10:53Z</time></trkpt><trkpt lat="45.68066968691516" lon="9.474216973000436"><ele>255.8</ele><time>2026-03-29T10:10:55Z</time></trkpt><trkpt lat="45.68060532823481" lon="9.474331262803746"><ele>255.4</ele><time>2026-03-29T10:10:57Z</time></trkpt><trkpt lat="45.680497078183805" lon="9.474390166509227"><ele>255.0</ele><time>2026-03-29T10:10:59Z</time></trkpt><trkpt lat="45.6804346926654" lon="9.474405872838233"><ele>255.0</ele><time>2026-03-29T10:11:00Z</time></trkpt><trkpt lat="45.68032586931196" lon="9.474430338785155"><ele>255.0</ele><time>2026-03-29T10:11:02Z</time></trkpt><trkpt lat="45.68021488704709" lon="9.474462463300867"><ele>255.0</ele><time>2026-03-29T10:11:04Z</time></trkpt><trkpt lat="45.68010374693718" lon="9.474497107089507"><ele>255.0</ele><time>2026-03-29T10:11:06Z</time></trkpt><trkpt lat="45.67999181959985" lon="9.47454163828283"><ele>255.0</ele><time>2026-03-29T10:11:08Z</time></trkpt><trkpt lat="45.67988149825243" lon="9.47458697203976"><ele>255.0</ele><time>2026-03-29T10:11:10Z</time></trkpt><trkpt lat="45.67977499518147" lon="9.474622261602862"><ele>255.0</ele><time>2026-03-29T10:11:12Z</time></trkpt><trkpt lat="45.679663632789776" lon="9.474657862588481"><ele>255.0</ele><time>2026-03-29T10:11:14Z</time></trkpt><trkpt lat="45.67954303213128" lon="9.474710632136158"><ele>254.8</ele><time>2026-03-29T10:11:16Z</time></trkpt><trkpt lat="45.67948248985589" lon="9.474738537977492"><ele>254.6</ele><time>2026-03-29T10:11:17Z</time></trkpt><trkpt lat="45.679375646098734" lon="9.474774810933189"><ele>254.39999999999998</ele><time>2026-03-29T10:11:19Z</time></trkpt><trkpt lat="45.679262897905986" lon="9.474810141938367"><ele>254.2</ele><time>2026-03-29T10:11:21Z</time></trkpt><trkpt lat="45.679146338693656" lon="9.47483336756218"><ele>254.0</ele><time>2026-03-29T10:11:23Z</time></trkpt><trkpt lat="45.67902901472606" lon="9.474840137674219"><ele>253.0</ele><time>2026-03-29T10:11:25Z</time></trkpt><trkpt lat="45.67890575650645" lon="9.474841358979415"><ele>252.0</ele><time>2026-03-29T10:11:27Z</time></trkpt><trkpt lat="45.678782870881896" lon="9.474845139479278"><ele>251.0</ele><time>2026-03-29T10:11:29Z</time></trkpt><trkpt lat="45.678667018547735" lon="9.474864389116313"><ele>250.0</ele><time>2026-03-29T10:11:31Z</time></trkpt><trkpt lat="45.67855568858416" lon="9.474891179004345"><ele>250.0</ele><time>2026-03-29T10:11:33Z</time></trkpt><trkpt lat="45.67844047590378" lon="9.474889885746268"><ele>250.0</ele><time>2026-03-29T10:11:35Z</time></trkpt><trkpt lat="45.67832624994008" lon="9.474890190439059"><ele>250.0</ele><time>2026-03-29T10:11:37Z</time></trkpt><trkpt lat="45.678214404181446" lon="9.474853371338613"><ele>250.0</ele><time>2026-03-29T10:11:39Z</time></trkpt><trkpt lat="45.678151783588405" lon="9.474825828546104"><ele>250.0</ele><time>2026-03-29T10:11:40Z</time></trkpt><trkpt lat="45.678089715826104" lon="9.474794015586925"><ele>250.0</ele><time>2026-03-29T10:11:41Z</time></trkpt><trkpt lat="45.67802479535711" lon="9.474775616037187"><ele>250.0</ele><time>2026-03-29T10:11:42Z</time></trkpt><trkpt lat="45.677913810115115" lon="9.47470946001277"><ele>250.0</ele><time>2026-03-29T10:11:44Z</time></trkpt><trkpt lat="45.67780110168845" lon="9.474657443376103"><ele>250.0</ele><time>2026-03-29T10:11:46Z</time></trkpt><trkpt lat="45.67769927109102" lon="9.474587597965398"><ele>250.0</ele><time>2026-03-29T10:11:48Z</time></trkpt><trkpt lat="45.6775966156244" lon="9.474525035325446"><ele>250.0</ele><time>2026-03-29T10:11:50Z</time></trkpt><trkpt lat="45.6774930356189" lon="9.474470978738347"><ele>250.0</ele><time>2026-03-29T10:11:52Z</time></trkpt><trkpt lat="45.6773873352755" lon="9.47441451813524"><ele>250.0</ele><time>2026-03-29T10:11:54Z</time></trkpt><trkpt lat="45.67728402320288" lon="9.474350372741009"><ele>250.0</ele><time>2026-03-29T10:11:56Z</time></trkpt><trkpt lat="45.67717336568645" lon="9.474291967278152"><ele>250.0</ele><time>2026-03-29T10:11:58Z</time></trkpt><trkpt lat="45.677058277132666" lon="9.474262290282153"><ele>250.0</ele><time>2026-03-29T10:12:00Z</time></trkpt><trkpt lat="45.67693971371699" lon="9.474230267266334"><ele>250.0</ele><time>2026-03-29T10:12:02Z</time></trkpt><trkpt lat="45.67687527859351" lon="9.474220174037864"><ele>250.0</ele><time>2026-03-29T10:12:03Z</time></trkpt><trkpt lat="45.67675201353996" lon="9.474187433313327"><ele>250.0</ele><time>2026-03-29T10:12:05Z</time></trkpt><trkpt lat="45.676633277584614" lon="9.474162182518851"><ele>249.8</ele><time>2026-03-29T10:12:07Z</time></trkpt><trkpt lat="45.67652361283727" lon="9.474138698261168"><ele>249.6</ele><time>2026-03-29T10:12:09Z</time></trkpt><trkpt lat="45.67642823871128" lon="9.474108985268314"><ele>249.39999999999998</ele><time>2026-03-29T10:12:11Z</time></trkpt><trkpt lat="45.67634315673279" lon="9.474094341203688"><ele>249.2</ele><time>2026-03-29T10:12:13Z</time></trkpt><trkpt lat="45.6762738244382" lon="9.474073848263581"><ele>249.0</ele><time>2026-03-29T10:12:16Z</time></trkpt><trkpt lat="45.67623719595831" lon="9.47428013042719"><ele>249.0</ele><time>2026-03-29T10:12:19Z</time></trkpt><trkpt lat="45.67623664340376" lon="9.474411673952583"><ele>248.99999999999997</ele><time>2026-03-29T10:12:21Z</time></trkpt><trkpt lat="45.676215424547216" lon="9.474555234928713"><ele>248.99999999999997</ele><time>2026-03-29T10:12:23Z</time></trkpt><trkpt lat="45.676224921859095" lon="9.474674105483016"><ele>249.0</ele><time>2026-03-29T10:12:25Z</time></trkpt><trkpt lat="45.67623025398439" lon="9.474802499174082"><ele>249.0</ele><time>2026-03-29T10:12:27Z</time></trkpt><trkpt lat="45.67622739613996" lon="9.474931641374688"><ele>249.0</ele><time>2026-03-29T10:12:29Z</time></trkpt><trkpt lat="45.67622535556877" lon="9.47506099699985"><ele>249.0</ele><time>2026-03-29T10:12:31Z</time></trkpt><trkpt lat="45.67623539615336" lon="9.475162981150316"><ele>249.0</ele><time>2026-03-29T10:12:33Z</time></trkpt><trkpt lat="45.67622428482569" lon="9.475255121441418"><ele>249.0</ele><time>2026-03-29T10:12:34Z</time></trkpt><trkpt lat="45.67621359543464" lon="9.475389405638111"><ele>249.0</ele><time>2026-03-29T10:12:36Z</time></trkpt><trkpt lat="45.676219124629924" lon="9.475524069623543"><ele>249.0</ele><time>2026-03-29T10:12:38Z</time></trkpt><trkpt lat="45.676226633748854" lon="9.475674049921619"><ele>249.0</ele><time>2026-03-29T10:12:40Z</time></trkpt><trkpt lat="45.67623412239763" lon="9.475811537292849"><ele>248.99999999999997</ele><time>2026-03-29T10:12:42Z</time></trkpt><trkpt lat="45.67626393087886" lon="9.475936982046402"><ele>248.99999999999997</ele><time>2026-03-29T10:12:44Z</time></trkpt><trkpt lat="45.67629716316089" lon="9.476068579945661"><ele>249.0</ele><time>2026-03-29T10:12:46Z</time></trkpt><trkpt lat="45.67634472168309" lon="9.476188050740749"><ele>249.0</ele><time>2026-03-29T10:12:48Z</time></trkpt><trkpt lat="45.67639505082326" lon="9.47631428980785"><ele>249.0</ele><time>2026-03-29T10:12:50Z</time></trkpt><trkpt lat="45.67644907534896" lon="9.476440266908869"><ele>248.99999999999997</ele><time>2026-03-29T10:12:52Z</time></trkpt><trkpt lat="45.67651547650653" lon="9.476537475708833"><ele>248.99999999999997</ele><time>2026-03-29T10:12:54Z</time></trkpt><trkpt lat="45.67657302867382" lon="9.476630127220497"><ele>249.0</ele><time>2026-03-29T10:12:56Z</time></trkpt><trkpt lat="45.67663140240434" lon="9.476736633589816"><ele>249.0</ele><time>2026-03-29T10:12:58Z</time></trkpt><trkpt lat="45.67668929234461" lon="9.47685533535142"><ele>249.0</ele><time>2026-03-29T10:13:00Z</time></trkpt><trkpt lat="45.676733526030304" lon="9.476967826025797"><ele>249.0</ele><time>2026-03-29T10:13:02Z</time></trkpt><trkpt lat="45.676772477672124" lon="9.477074987796023"><ele>249.0</ele><time>2026-03-29T10:13:04Z</time></trkpt><trkpt lat="45.67679990321213" lon="9.477168939887271"><ele>249.0</ele><time>2026-03-29T10:13:06Z</time></trkpt><trkpt lat="45.67679448620278" lon="9.477276725390206"><ele>249.0</ele><time>2026-03-29T10:13:10Z</time></trkpt><trkpt lat="45.676717479639905" lon="9.47731824002443"><ele>249.0</ele><time>2026-03-29T10:13:12Z</time></trkpt><trkpt lat="45.67664604511113" lon="9.47739422842682"><ele>248.79999999999998</ele><time>2026-03-29T10:13:14Z</time></trkpt><trkpt lat="45.67656423079404" lon="9.47747195500167"><ele>248.59999999999997</ele><time>2026-03-29T10:13:16Z</time></trkpt><trkpt lat="45.67648119365388" lon="9.477551108317938"><ele>248.4</ele><time>2026-03-29T10:13:18Z</time></trkpt><trkpt lat="45.67638819074899" lon="9.477630576664012"><ele>248.2</ele><time>2026-03-29T10:13:20Z</time></trkpt><trkpt lat="45.67629418451468" lon="9.477705158448172"><ele>248.0</ele><time>2026-03-29T10:13:22Z</time></trkpt><trkpt lat="45.67619453951089" lon="9.477772521689188"><ele>248.0</ele><time>2026-03-29T10:13:24Z</time></trkpt><trkpt lat="45.67608768367011" lon="9.47780584766184"><ele>248.0</ele><time>2026-03-29T10:13:26Z</time></trkpt><trkpt lat="45.676044936449415" lon="9.477880990763506"><ele>248.0</ele><time>2026-03-29T10:13:28Z</time></trkpt><trkpt lat="45.67606377158853" lon="9.477983899754165"><ele>248.0</ele><time>2026-03-29T10:13:30Z</time></trkpt><trkpt lat="45.676106432088" lon="9.4781046046116"><ele>248.0</ele><time>2026-03-29T10:13:32Z</time></trkpt><trkpt lat="45.67615035737891" lon="9.478264293291675"><ele>248.0</ele><time>2026-03-29T10:13:34Z</time></trkpt><trkpt lat="45.67618275556238" lon="9.478346858522345"><ele>248.0</ele><time>2026-03-29T10:13:35Z</time></trkpt><trkpt lat="45.67622144174411" lon="9.478499192849222"><ele>248.0</ele><time>2026-03-29T10:13:37Z</time></trkpt><trkpt lat="45.6762485404789" lon="9.47862980921933"><ele>248.0</ele><time>2026-03-29T10:13:39Z</time></trkpt><trkpt lat="45.67628647064228" lon="9.478759193472541"><ele>248.0</ele><time>2026-03-29T10:13:41Z</time></trkpt><trkpt lat="45.6763131997687" lon="9.478874493361953"><ele>248.0</ele><time>2026-03-29T10:13:43Z</time></trkpt><trkpt lat="45.67628246411662" lon="9.47898483192661"><ele>248.0</ele><time>2026-03-29T10:13:45Z</time></trkpt><trkpt lat="45.67619401608443" lon="9.479112601202837"><ele>248.0</ele><time>2026-03-29T10:13:47Z</time></trkpt><trkpt lat="45.67610629627589" lon="9.479203130269187"><ele>248.0</ele><time>2026-03-29T10:13:49Z</time></trkpt><trkpt lat="45.67602083550304" lon="9.479216974493282"><ele>248.0</ele><time>2026-03-29T10:13:51Z</time></trkpt><trkpt lat="45.67595950863345" lon="9.47928571439215"><ele>248.0</ele><time>2026-03-29T10:13:53Z</time></trkpt><trkpt lat="45.6759169944124" lon="9.479370333520249"><ele>248.0</ele><time>2026-03-29T10:13:55Z</time></trkpt><trkpt lat="45.675814036794726" lon="9.479429327312614"><ele>248.0</ele><time>2026-03-29T10:13:57Z</time></trkpt><trkpt lat="45.67573184804823" lon="9.479516150563404"><ele>248.0</ele><time>2026-03-29T10:13:59Z</time></trkpt><trkpt lat="45.6755343326969" lon="9.479866683917601"><ele>247.2</ele><time>2026-03-29T10:14:06Z</time></trkpt><trkpt lat="45.67542628078341" lon="9.479940269742164"><ele>246.4</ele><time>2026-03-29T10:14:07Z</time></trkpt><trkpt lat="45.675357166807345" lon="9.479999331680311"><ele>245.59999999999997</ele><time>2026-03-29T10:14:08Z</time></trkpt><trkpt lat="45.67530935021258" lon="9.480123875403326"><ele>244.79999999999998</ele><time>2026-03-29T10:14:10Z</time></trkpt><trkpt lat="45.67531880778152" lon="9.48023009492063"><ele>244.0</ele><time>2026-03-29T10:14:12Z</time></trkpt><trkpt lat="45.675309179207076" lon="9.480347868889849"><ele>243.6</ele><time>2026-03-29T10:14:14Z</time></trkpt><trkpt lat="45.67534843573822" lon="9.480498802781979"><ele>243.2</ele><time>2026-03-29T10:14:16Z</time></trkpt><trkpt lat="45.67535954898188" lon="9.480654216082813"><ele>242.79999999999998</ele><time>2026-03-29T10:14:18Z</time></trkpt><trkpt lat="45.67535922797622" lon="9.480821893939222"><ele>242.39999999999998</ele><time>2026-03-29T10:14:24Z</time></trkpt><trkpt lat="45.67535026809318" lon="9.480916233548944"><ele>242.0</ele><time>2026-03-29T10:14:26Z</time></trkpt><trkpt lat="45.67537660950586" lon="9.48101253194694"><ele>242.0</ele><time>2026-03-29T10:14:28Z</time></trkpt><trkpt lat="45.675373772161436" lon="9.481141896969111"><ele>242.0</ele><time>2026-03-29T10:14:31Z</time></trkpt><trkpt lat="45.67530405523514" lon="9.481260308326751"><ele>242.0</ele><time>2026-03-29T10:14:33Z</time></trkpt><trkpt lat="45.67532912982486" lon="9.481390800568342"><ele>242.0</ele><time>2026-03-29T10:14:35Z</time></trkpt><trkpt lat="45.67529972547106" lon="9.481488532404894"><ele>242.0</ele><time>2026-03-29T10:14:37Z</time></trkpt><trkpt lat="45.6753162198655" lon="9.481610196532317"><ele>242.2</ele><time>2026-03-29T10:14:39Z</time></trkpt><trkpt lat="45.67535404134619" lon="9.48173126312582"><ele>242.39999999999998</ele><time>2026-03-29T10:14:42Z</time></trkpt><trkpt lat="45.67538488959113" lon="9.4818101986221"><ele>242.60000000000002</ele><time>2026-03-29T10:14:43Z</time></trkpt><trkpt lat="45.67540059534493" lon="9.481902717078908"><ele>242.8</ele><time>2026-03-29T10:14:45Z</time></trkpt><trkpt lat="45.67542944858345" lon="9.482067941003379"><ele>243.0</ele><time>2026-03-29T10:14:47Z</time></trkpt><trkpt lat="45.675432117821416" lon="9.482251980302422"><ele>243.25</ele><time>2026-03-29T10:14:49Z</time></trkpt><trkpt lat="45.67541368177581" lon="9.48244126068706"><ele>243.5</ele><time>2026-03-29T10:14:51Z</time></trkpt><trkpt lat="45.67541785330779" lon="9.48254818785586"><ele>243.75</ele><time>2026-03-29T10:14:52Z</time></trkpt><trkpt lat="45.675398824101144" lon="9.482761237556776"><ele>244.0</ele><time>2026-03-29T10:14:54Z</time></trkpt><trkpt lat="45.67536987970886" lon="9.48289022540493"><ele>244.0</ele><time>2026-03-29T10:14:55Z</time></trkpt><trkpt lat="45.675308155810484" lon="9.483049712479671"><ele>243.99999999999997</ele><time>2026-03-29T10:14:56Z</time></trkpt><trkpt lat="45.67527041921285" lon="9.483148913255654"><ele>243.99999999999997</ele><time>2026-03-29T10:14:57Z</time></trkpt><trkpt lat="45.675252895789555" lon="9.483289666279186"><ele>244.0</ele><time>2026-03-29T10:14:58Z</time></trkpt><trkpt lat="45.67523130154484" lon="9.483395610162274"><ele>244.0</ele><time>2026-03-29T10:14:59Z</time></trkpt><trkpt lat="45.67519038791337" lon="9.483531679638876"><ele>243.2</ele><time>2026-03-29T10:15:01Z</time></trkpt><trkpt lat="45.67514893203418" lon="9.483666774418678"><ele>242.39999999999998</ele><time>2026-03-29T10:15:03Z</time></trkpt><trkpt lat="45.67510438655698" lon="9.483790799849274"><ele>241.6</ele><time>2026-03-29T10:15:05Z</time></trkpt><trkpt lat="45.675009455445256" lon="9.483865572441577"><ele>240.8</ele><time>2026-03-29T10:15:07Z</time></trkpt><trkpt lat="45.67494305920153" lon="9.483978250076177"><ele>240.0</ele><time>2026-03-29T10:15:09Z</time></trkpt><trkpt lat="45.67486930281083" lon="9.48406234995927"><ele>240.0</ele><time>2026-03-29T10:15:11Z</time></trkpt><trkpt lat="45.67477329334092" lon="9.484108958074936"><ele>240.0</ele><time>2026-03-29T10:15:13Z</time></trkpt><trkpt lat="45.67471893678048" lon="9.484216191868054"><ele>240.0</ele><time>2026-03-29T10:15:15Z</time></trkpt><trkpt lat="45.6746660720472" lon="9.484330692419656"><ele>240.0</ele><time>2026-03-29T10:15:17Z</time></trkpt><trkpt lat="45.67467648795809" lon="9.48445581796265"><ele>240.0</ele><time>2026-03-29T10:15:19Z</time></trkpt><trkpt lat="45.67466656407272" lon="9.484590683318663"><ele>240.0</ele><time>2026-03-29T10:15:21Z</time></trkpt><trkpt lat="45.67469102787378" lon="9.484736468412308"><ele>240.0</ele><time>2026-03-29T10:15:23Z</time></trkpt><trkpt lat="45.67469898080512" lon="9.484863054252205"><ele>240.0</ele><time>2026-03-29T10:15:25Z</time></trkpt><trkpt lat="45.67466839041783" lon="9.484977391029178"><ele>240.0</ele><time>2026-03-29T10:15:27Z</time></trkpt><trkpt lat="45.674634856815686" lon="9.48511127927914"><ele>240.0</ele><time>2026-03-29T10:15:29Z</time></trkpt><trkpt lat="45.674587446229026" lon="9.485191817312858"><ele>240.0</ele><time>2026-03-29T10:15:31Z</time></trkpt><trkpt lat="45.674566271944926" lon="9.485277149014806"><ele>240.0</ele><time>2026-03-29T10:15:33Z</time></trkpt><trkpt lat="45.674582536960834" lon="9.485364790636142"><ele>240.0</ele><time>2026-03-29T10:15:35Z</time></trkpt><trkpt lat="45.6745254533327" lon="9.48547280601386"><ele>240.0</ele><time>2026-03-29T10:15:39Z</time></trkpt><trkpt lat="45.67438771389232" lon="9.48551504965704"><ele>240.0</ele><time>2026-03-29T10:15:42Z</time></trkpt><trkpt lat="45.67432543745939" lon="9.485596146054844"><ele>240.0</ele><time>2026-03-29T10:15:43Z</time></trkpt><trkpt lat="45.67429003196718" lon="9.485677898064441"><ele>237.8</ele><time>2026-03-29T10:15:44Z</time></trkpt><trkpt lat="45.67426002652203" lon="9.485776564537629"><ele>235.6</ele><time>2026-03-29T10:15:45Z</time></trkpt><trkpt lat="45.67425059423859" lon="9.485932499840613"><ele>233.39999999999998</ele><time>2026-03-29T10:15:47Z</time></trkpt><trkpt lat="45.674251825194105" lon="9.48605481942993"><ele>231.2</ele><time>2026-03-29T10:15:48Z</time></trkpt><trkpt lat="45.674235096757066" lon="9.486217570777908"><ele>229.0</ele><time>2026-03-29T10:15:50Z</time></trkpt><trkpt lat="45.6742306052848" lon="9.48631719625831"><ele>229.0</ele><time>2026-03-29T10:15:51Z</time></trkpt><trkpt lat="45.6741988623644" lon="9.486471497004286"><ele>228.99999999999997</ele><time>2026-03-29T10:15:53Z</time></trkpt><trkpt lat="45.67415265714974" lon="9.4865960368672"><ele>228.99999999999997</ele><time>2026-03-29T10:15:55Z</time></trkpt><trkpt lat="45.67411572546181" lon="9.486689336785066"><ele>229.0</ele><time>2026-03-29T10:15:57Z</time></trkpt><trkpt lat="45.67406726544832" lon="9.486757145999393"><ele>229.0</ele><time>2026-03-29T10:15:59Z</time></trkpt><trkpt lat="45.673962703203905" lon="9.486766707327787"><ele>229.0</ele><time>2026-03-29T10:16:02Z</time></trkpt><trkpt lat="45.67386409486209" lon="9.486859484599922"><ele>228.99999999999997</ele><time>2026-03-29T10:16:04Z</time></trkpt><trkpt lat="45.67387194769568" lon="9.487001459555197"><ele>228.99999999999997</ele><time>2026-03-29T10:16:07Z</time></trkpt><trkpt lat="45.67393891556673" lon="9.487068539396663"><ele>229.0</ele><time>2026-03-29T10:16:09Z</time></trkpt><trkpt lat="45.67401415615294" lon="9.487138133381075"><ele>229.0</ele><time>2026-03-29T10:16:11Z</time></trkpt><trkpt lat="45.67408572235879" lon="9.487194331577465"><ele>228.6</ele><time>2026-03-29T10:16:13Z</time></trkpt><trkpt lat="45.67418840674308" lon="9.487196040597947"><ele>228.2</ele><time>2026-03-29T10:16:16Z</time></trkpt><trkpt lat="45.67421531144527" lon="9.487290728275426"><ele>227.79999999999998</ele><time>2026-03-29T10:16:18Z</time></trkpt><trkpt lat="45.674309500384744" lon="9.487339203420808"><ele>227.39999999999998</ele><time>2026-03-29T10:16:22Z</time></trkpt><trkpt lat="45.67446179049758" lon="9.487364374914831"><ele>227.0</ele><time>2026-03-29T10:16:29Z</time></trkpt><trkpt lat="45.67452587597667" lon="9.48741252502189"><ele>227.0</ele><time>2026-03-29T10:16:31Z</time></trkpt><trkpt lat="45.67455381318999" lon="9.487549152407704"><ele>227.0</ele><time>2026-03-29T10:16:33Z</time></trkpt><trkpt lat="45.67451980965448" lon="9.487660423090901"><ele>227.0</ele><time>2026-03-29T10:16:35Z</time></trkpt><trkpt lat="45.67446098889227" lon="9.487781058967627"><ele>227.0</ele><time>2026-03-29T10:16:37Z</time></trkpt><trkpt lat="45.674370185943026" lon="9.487893212070965"><ele>227.0</ele><time>2026-03-29T10:16:39Z</time></trkpt><trkpt lat="45.6743048887114" lon="9.48791637631296"><ele>226.25</ele><time>2026-03-29T10:16:40Z</time></trkpt><trkpt lat="45.67419915448621" lon="9.487976538409704"><ele>225.5</ele><time>2026-03-29T10:16:42Z</time></trkpt><trkpt lat="45.674078870070446" lon="9.487968883042583"><ele>224.75</ele><time>2026-03-29T10:16:44Z</time></trkpt><trkpt lat="45.67395654665112" lon="9.487986613166296"><ele>224.0</ele><time>2026-03-29T10:16:46Z</time></trkpt><trkpt lat="45.673854914267764" lon="9.488069883575362"><ele>224.0</ele><time>2026-03-29T10:16:48Z</time></trkpt><trkpt lat="45.673752605417675" lon="9.488095306021345"><ele>223.99999999999997</ele><time>2026-03-29T10:16:50Z</time></trkpt><trkpt lat="45.67366062064766" lon="9.48823946070731"><ele>223.99999999999997</ele><time>2026-03-29T10:16:52Z</time></trkpt><trkpt lat="45.67356973916474" lon="9.488347597255386"><ele>224.0</ele><time>2026-03-29T10:16:54Z</time></trkpt><trkpt lat="45.67350026195324" lon="9.488399714238838"><ele>224.0</ele><time>2026-03-29T10:16:55Z</time></trkpt><trkpt lat="45.67343215992929" lon="9.488422720776738"><ele>222.16666666666669</ele><time>2026-03-29T10:16:56Z</time></trkpt><trkpt lat="45.673365015325494" lon="9.488442757416742"><ele>220.33333333333334</ele><time>2026-03-29T10:16:57Z</time></trkpt><trkpt lat="45.67326477535249" lon="9.488466828900377"><ele>218.5</ele><time>2026-03-29T10:16:59Z</time></trkpt><trkpt lat="45.67319333497356" lon="9.488484628160563"><ele>216.66666666666669</ele><time>2026-03-29T10:17:01Z</time></trkpt><trkpt lat="45.67313013506631" lon="9.488507458825724"><ele>214.83333333333334</ele><time>2026-03-29T10:17:03Z</time></trkpt><trkpt lat="45.67309430944308" lon="9.488420422220264"><ele>213.0</ele><time>2026-03-29T10:17:05Z</time></trkpt><trkpt lat="45.673032644980516" lon="9.488340591196838"><ele>213.0</ele><time>2026-03-29T10:17:07Z</time></trkpt><trkpt lat="45.672954566942785" lon="9.4883472297833"><ele>213.0</ele><time>2026-03-29T10:17:08Z</time></trkpt><trkpt lat="45.67284977283276" lon="9.488313809847984"><ele>213.0</ele><time>2026-03-29T10:17:10Z</time></trkpt><trkpt lat="45.67273827043357" lon="9.488335800679888"><ele>213.0</ele><time>2026-03-29T10:17:12Z</time></trkpt><trkpt lat="45.67267357466857" lon="9.488356570810494"><ele>213.0</ele><time>2026-03-29T10:17:13Z</time></trkpt><trkpt lat="45.672607596841836" lon="9.488379612733238"><ele>213.0</ele><time>2026-03-29T10:17:14Z</time></trkpt><trkpt lat="45.67254544570014" lon="9.488434022936632"><ele>211.0</ele><time>2026-03-29T10:17:15Z</time></trkpt><trkpt lat="45.67246988723658" lon="9.488475131145075"><ele>209.0</ele><time>2026-03-29T10:17:16Z</time></trkpt><trkpt lat="45.672397543113696" lon="9.488506778474347"><ele>207.0</ele><time>2026-03-29T10:17:17Z</time></trkpt><trkpt lat="45.672316545555" lon="9.488545479708591"><ele>205.0</ele><time>2026-03-29T10:17:18Z</time></trkpt><trkpt lat="45.67223825973923" lon="9.488586489474372"><ele>203.0</ele><time>2026-03-29T10:17:19Z</time></trkpt><trkpt lat="45.67216553000008" lon="9.488622672693998"><ele>201.0</ele><time>2026-03-29T10:17:20Z</time></trkpt><trkpt lat="45.672086190439956" lon="9.488661436755905"><ele>201.0</ele><time>2026-03-29T10:17:21Z</time></trkpt><trkpt lat="45.67200292512298" lon="9.488701576034103"><ele>201.0</ele><time>2026-03-29T10:17:22Z</time></trkpt><trkpt lat="45.671923536843295" lon="9.488727292731397"><ele>201.0</ele><time>2026-03-29T10:17:23Z</time></trkpt><trkpt lat="45.67183588467606" lon="9.488722144834943"><ele>201.0</ele><time>2026-03-29T10:17:24Z</time></trkpt><trkpt lat="45.67175041942679" lon="9.488737056427311"><ele>201.0</ele><time>2026-03-29T10:17:25Z</time></trkpt><trkpt lat="45.6716836726585" lon="9.488813355242144"><ele>201.0</ele><time>2026-03-29T10:17:26Z</time></trkpt><trkpt lat="45.67161581900155" lon="9.488816872323161"><ele>200.0</ele><time>2026-03-29T10:17:27Z</time></trkpt><trkpt lat="45.6715607509916" lon="9.488751230008614"><ele>199.0</ele><time>2026-03-29T10:17:28Z</time></trkpt><trkpt lat="45.671459808975484" lon="9.488743977189422"><ele>198.0</ele><time>2026-03-29T10:17:30Z</time></trkpt><trkpt lat="45.671348129742874" lon="9.488713243735404"><ele>197.0</ele><time>2026-03-29T10:17:32Z</time></trkpt><trkpt lat="45.6712277486903" lon="9.48864905462244"><ele>196.0</ele><time>2026-03-29T10:17:34Z</time></trkpt><trkpt lat="45.67115602712739" lon="9.488625921762532"><ele>194.66666666666666</ele><time>2026-03-29T10:17:35Z</time></trkpt><trkpt lat="45.671082952204586" lon="9.488620334625894"><ele>193.33333333333331</ele><time>2026-03-29T10:17:36Z</time></trkpt><trkpt lat="45.671001694845955" lon="9.488626103925391"><ele>192.0</ele><time>2026-03-29T10:17:37Z</time></trkpt><trkpt lat="45.67091221906214" lon="9.488639091081447"><ele>190.66666666666666</ele><time>2026-03-29T10:17:38Z</time></trkpt><trkpt lat="45.67081481140179" lon="9.488640806457038"><ele>189.33333333333331</ele><time>2026-03-29T10:17:39Z</time></trkpt><trkpt lat="45.67073210734297" lon="9.488670512838706"><ele>188.0</ele><time>2026-03-29T10:17:40Z</time></trkpt><trkpt lat="45.670629733051086" lon="9.488700523058187"><ele>188.0</ele><time>2026-03-29T10:17:41Z</time></trkpt><trkpt lat="45.670523679280244" lon="9.48871095300141"><ele>188.0</ele><time>2026-03-29T10:17:42Z</time></trkpt><trkpt lat="45.67042009243571" lon="9.488749031838896"><ele>188.0</ele><time>2026-03-29T10:17:43Z</time></trkpt><trkpt lat="45.67032162504991" lon="9.488813515657602"><ele>188.0</ele><time>2026-03-29T10:17:44Z</time></trkpt><trkpt lat="45.67022228695311" lon="9.488856458192226"><ele>188.0</ele><time>2026-03-29T10:17:45Z</time></trkpt><trkpt lat="45.670119546013204" lon="9.488898140242167"><ele>187.0</ele><time>2026-03-29T10:17:46Z</time></trkpt><trkpt lat="45.670016864850346" lon="9.488938523063421"><ele>186.0</ele><time>2026-03-29T10:17:47Z</time></trkpt><trkpt lat="45.669910867253975" lon="9.488977819894274"><ele>185.0</ele><time>2026-03-29T10:17:48Z</time></trkpt><trkpt lat="45.669808642762746" lon="9.48900300508248"><ele>184.0</ele><time>2026-03-29T10:17:49Z</time></trkpt><trkpt lat="45.66971787490964" lon="9.489022039860245"><ele>183.0</ele><time>2026-03-29T10:17:50Z</time></trkpt><trkpt lat="45.669625693020485" lon="9.489067421819776"><ele>183.0</ele><time>2026-03-29T10:17:51Z</time></trkpt><trkpt lat="45.669537916083506" lon="9.489097113288397"><ele>183.0</ele><time>2026-03-29T10:17:52Z</time></trkpt><trkpt lat="45.669473198961086" lon="9.489182812440312"><ele>183.0</ele><time>2026-03-29T10:17:53Z</time></trkpt><trkpt lat="45.66941137228633" lon="9.489261454709355"><ele>183.0</ele><time>2026-03-29T10:17:54Z</time></trkpt><trkpt lat="45.669360869973666" lon="9.489346604310416"><ele>183.0</ele><time>2026-03-29T10:17:55Z</time></trkpt><trkpt lat="45.669306484030244" lon="9.489445974459938"><ele>183.0</ele><time>2026-03-29T10:17:56Z</time></trkpt><trkpt lat="45.66926955984084" lon="9.489536498200522"><ele>182.0</ele><time>2026-03-29T10:17:57Z</time></trkpt><trkpt lat="45.669209987475384" lon="9.489688317183477"><ele>181.0</ele><time>2026-03-29T10:17:59Z</time></trkpt><trkpt lat="45.66916258787218" lon="9.48984878273168"><ele>180.0</ele><time>2026-03-29T10:18:01Z</time></trkpt><trkpt lat="45.669118319530085" lon="9.48997660454248"><ele>179.0</ele><time>2026-03-29T10:18:03Z</time></trkpt><trkpt lat="45.66904171224545" lon="9.49005726649881"><ele>178.0</ele><time>2026-03-29T10:18:05Z</time></trkpt><trkpt lat="45.66895019714993" lon="9.49006905722061"><ele>178.0</ele><time>2026-03-29T10:18:07Z</time></trkpt><trkpt lat="45.668877983950544" lon="9.490122560818028"><ele>178.0</ele><time>2026-03-29T10:18:09Z</time></trkpt><trkpt lat="45.66879018868386" lon="9.489899020908135"><ele>178.0</ele><time>2026-03-29T10:18:10Z</time></trkpt><trkpt lat="45.668690008249" lon="9.48987815663958"><ele>178.0</ele><time>2026-03-29T10:18:12Z</time></trkpt><trkpt lat="45.66855204203633" lon="9.490311676298951"><ele>178.33333333333334</ele><time>2026-03-29T10:18:14Z</time></trkpt><trkpt lat="45.66842390106831" lon="9.490254315906665"><ele>178.66666666666666</ele><time>2026-03-29T10:18:16Z</time></trkpt><trkpt lat="45.668549169424324" lon="9.489883015200215"><ele>179.0</ele><time>2026-03-29T10:18:17Z</time></trkpt><trkpt lat="45.668482673637534" lon="9.489901668555182"><ele>179.0</ele><time>2026-03-29T10:18:20Z</time></trkpt><trkpt lat="45.668367936338065" lon="9.48990226032674"><ele>179.0</ele><time>2026-03-29T10:18:22Z</time></trkpt><trkpt lat="45.668252676760474" lon="9.489921464022562"><ele>179.0</ele><time>2026-03-29T10:18:24Z</time></trkpt><trkpt lat="45.66818038343514" lon="9.489903376767119"><ele>179.0</ele><time>2026-03-29T10:18:28Z</time></trkpt><trkpt lat="45.66811024828439" lon="9.48993347204551"><ele>179.0</ele><time>2026-03-29T10:18:30Z</time></trkpt><trkpt lat="45.66804072178289" lon="9.48994918972855"><ele>179.0</ele><time>2026-03-29T10:18:32Z</time></trkpt><trkpt lat="45.66797085388804" lon="9.489974918705464"><ele>179.0</ele><time>2026-03-29T10:18:34Z</time></trkpt><trkpt lat="45.66788005538679" lon="9.489893357545359"><ele>179.0</ele><time>2026-03-29T10:18:36Z</time></trkpt><trkpt lat="45.66779551042265" lon="9.48994319616288"><ele>179.0</ele><time>2026-03-29T10:18:38Z</time></trkpt><trkpt lat="45.667737396947125" lon="9.490011824212177"><ele>179.0</ele><time>2026-03-29T10:18:40Z</time></trkpt><trkpt lat="45.6676669531596" lon="9.490036228104115"><ele>179.0</ele><time>2026-03-29T10:18:42Z</time></trkpt><trkpt lat="45.66758761731406" lon="9.490010294404527"><ele>179.0</ele><time>2026-03-29T10:18:44Z</time></trkpt><trkpt lat="45.6675245925718" lon="9.490035042760177"><ele>179.79999999999998</ele><time>2026-03-29T10:18:46Z</time></trkpt><trkpt lat="45.667438823214205" lon="9.489965394764264"><ele>180.6</ele><time>2026-03-29T10:18:48Z</time></trkpt><trkpt lat="45.66734222083787" lon="9.489972886067704"><ele>181.4</ele><time>2026-03-29T10:18:50Z</time></trkpt><trkpt lat="45.667270485819685" lon="9.489997007231485"><ele>182.2</ele><time>2026-03-29T10:18:51Z</time></trkpt><trkpt lat="45.66716150449743" lon="9.489976140227299"><ele>183.0</ele><time>2026-03-29T10:18:52Z</time></trkpt><trkpt lat="45.667078686553324" lon="9.489959924038535"><ele>183.0</ele><time>2026-03-29T10:18:53Z</time></trkpt><trkpt lat="45.66697821954926" lon="9.489908987156927"><ele>183.0</ele><time>2026-03-29T10:18:54Z</time></trkpt><trkpt lat="45.66689764304356" lon="9.489889208304609"><ele>183.0</ele><time>2026-03-29T10:18:55Z</time></trkpt><trkpt lat="45.66683013619291" lon="9.48986365287217"><ele>183.0</ele><time>2026-03-29T10:18:56Z</time></trkpt><trkpt lat="45.666764407611744" lon="9.489828678232378"><ele>183.0</ele><time>2026-03-29T10:18:57Z</time></trkpt><trkpt lat="45.66670167632388" lon="9.489778374020357"><ele>183.0</ele><time>2026-03-29T10:18:58Z</time></trkpt><trkpt lat="45.66659113703706" lon="9.489729066970327"><ele>183.4</ele><time>2026-03-29T10:19:00Z</time></trkpt><trkpt lat="45.66648992904896" lon="9.489705469971103"><ele>183.8</ele><time>2026-03-29T10:19:02Z</time></trkpt><trkpt lat="45.66639695817039" lon="9.48968965187927"><ele>184.2</ele><time>2026-03-29T10:19:04Z</time></trkpt><trkpt lat="45.66630595203007" lon="9.489701458797532"><ele>184.6</ele><time>2026-03-29T10:19:06Z</time></trkpt><trkpt lat="45.66620674363771" lon="9.48966126067537"><ele>185.0</ele><time>2026-03-29T10:19:08Z</time></trkpt><trkpt lat="45.666119355609645" lon="9.489645272709794"><ele>185.2</ele><time>2026-03-29T10:19:10Z</time></trkpt><trkpt lat="45.666024766263305" lon="9.489629990627991"><ele>185.4</ele><time>2026-03-29T10:19:12Z</time></trkpt><trkpt lat="45.66594419332227" lon="9.489561623990607"><ele>185.60000000000002</ele><time>2026-03-29T10:19:14Z</time></trkpt><trkpt lat="45.66585817793072" lon="9.489526612730721"><ele>185.8</ele><time>2026-03-29T10:19:16Z</time></trkpt><trkpt lat="45.665776394023396" lon="9.48954181200282"><ele>186.0</ele><time>2026-03-29T10:19:18Z</time></trkpt><trkpt lat="45.66567965490088" lon="9.489545714770648"><ele>186.0</ele><time>2026-03-29T10:19:20Z</time></trkpt><trkpt lat="45.665597081435045" lon="9.489566078685929"><ele>186.0</ele><time>2026-03-29T10:19:22Z</time></trkpt><trkpt lat="45.66549020454553" lon="9.489560475012292"><ele>186.0</ele><time>2026-03-29T10:19:24Z</time></trkpt><trkpt lat="45.665382089589606" lon="9.489525596932527"><ele>186.0</ele><time>2026-03-29T10:19:26Z</time></trkpt><trkpt lat="45.66527125363692" lon="9.489522925425948"><ele>186.0</ele><time>2026-03-29T10:19:28Z</time></trkpt><trkpt lat="45.66518138728602" lon="9.489525340799858"><ele>185.33333333333334</ele><time>2026-03-29T10:19:32Z</time></trkpt><trkpt lat="45.665074225450276" lon="9.489502489380284"><ele>184.66666666666666</ele><time>2026-03-29T10:19:34Z</time></trkpt><trkpt lat="45.66497596729022" lon="9.489493207614949"><ele>184.0</ele><time>2026-03-29T10:19:36Z</time></trkpt><trkpt lat="45.664883258992674" lon="9.48940386179078"><ele>183.33333333333331</ele><time>2026-03-29T10:19:38Z</time></trkpt><trkpt lat="45.66481980245476" lon="9.489398724413821"><ele>182.66666666666666</ele><time>2026-03-29T10:19:40Z</time></trkpt><trkpt lat="45.664757006810305" lon="9.489412894653007"><ele>182.0</ele><time>2026-03-29T10:19:41Z</time></trkpt><trkpt lat="45.664684656537176" lon="9.489410198772497"><ele>182.0</ele><time>2026-03-29T10:19:42Z</time></trkpt><trkpt lat="45.664589699345086" lon="9.489383536219341"><ele>182.0</ele><time>2026-03-29T10:19:43Z</time></trkpt><trkpt lat="45.664509635765974" lon="9.48936803840346"><ele>182.0</ele><time>2026-03-29T10:19:44Z</time></trkpt><trkpt lat="45.66442875334538" lon="9.489370240608565"><ele>182.0</ele><time>2026-03-29T10:19:45Z</time></trkpt><trkpt lat="45.66433564963947" lon="9.48930706956534"><ele>182.0</ele><time>2026-03-29T10:19:46Z</time></trkpt><trkpt lat="45.66421250287565" lon="9.489242425241253"><ele>182.0</ele><time>2026-03-29T10:19:47Z</time></trkpt><trkpt lat="45.664137860033804" lon="9.489202694097054"><ele>182.0</ele><time>2026-03-29T10:19:48Z</time></trkpt><trkpt lat="45.664073865746424" lon="9.48912974566535"><ele>182.0</ele><time>2026-03-29T10:19:49Z</time></trkpt><trkpt lat="45.66399631557177" lon="9.489069911498165"><ele>182.0</ele><time>2026-03-29T10:19:50Z</time></trkpt><trkpt lat="45.66393706595679" lon="9.489017778045604"><ele>182.0</ele><time>2026-03-29T10:19:51Z</time></trkpt><trkpt lat="45.66386023477344" lon="9.488999780085738"><ele>182.0</ele><time>2026-03-29T10:19:52Z</time></trkpt><trkpt lat="45.66379722686248" lon="9.488981842298866"><ele>182.0</ele><time>2026-03-29T10:19:53Z</time></trkpt><trkpt lat="45.66368861527181" lon="9.488976314971449"><ele>182.0</ele><time>2026-03-29T10:19:55Z</time></trkpt><trkpt lat="45.66357668006946" lon="9.488960861128632"><ele>182.0</ele><time>2026-03-29T10:19:57Z</time></trkpt><trkpt lat="45.6635073738333" lon="9.48899815856657"><ele>182.0</ele><time>2026-03-29T10:19:58Z</time></trkpt><trkpt lat="45.663428918893096" lon="9.489072342110257"><ele>182.0</ele><time>2026-03-29T10:20:00Z</time></trkpt><trkpt lat="45.66332915802454" lon="9.489114813055044"><ele>181.5</ele><time>2026-03-29T10:20:02Z</time></trkpt><trkpt lat="45.66319882786924" lon="9.489156667702401"><ele>181.0</ele><time>2026-03-29T10:20:04Z</time></trkpt><trkpt lat="45.66312279670201" lon="9.489135887195056"><ele>180.5</ele><time>2026-03-29T10:20:05Z</time></trkpt><trkpt lat="45.6630274156031" lon="9.489356191473552"><ele>180.0</ele><time>2026-03-29T10:20:06Z</time></trkpt><trkpt lat="45.66293720275049" lon="9.489337993200353"><ele>180.0</ele><time>2026-03-29T10:20:08Z</time></trkpt><trkpt lat="45.66282118767401" lon="9.489319399531729"><ele>180.0</ele><time>2026-03-29T10:20:10Z</time></trkpt><trkpt lat="45.662742290109065" lon="9.489308532921113"><ele>180.0</ele><time>2026-03-29T10:20:11Z</time></trkpt><trkpt lat="45.662646852563114" lon="9.48929605721215"><ele>180.0</ele><time>2026-03-29T10:20:13Z</time></trkpt><trkpt lat="45.66256626903339" lon="9.489289820188493"><ele>180.0</ele><time>2026-03-29T10:20:16Z</time></trkpt><trkpt lat="45.66246119127647" lon="9.489282781827328"><ele>181.0</ele><time>2026-03-29T10:20:18Z</time></trkpt><trkpt lat="45.66235881268114" lon="9.489277191115686"><ele>182.0</ele><time>2026-03-29T10:20:20Z</time></trkpt><trkpt lat="45.662291440527746" lon="9.489273457478955"><ele>183.0</ele><time>2026-03-29T10:20:21Z</time></trkpt><trkpt lat="45.662202639733835" lon="9.489271983861245"><ele>184.0</ele><time>2026-03-29T10:20:23Z</time></trkpt><trkpt lat="45.66212071263465" lon="9.489268664681987"><ele>185.0</ele><time>2026-03-29T10:20:25Z</time></trkpt><trkpt lat="45.66205397551348" lon="9.489267736104809"><ele>186.0</ele><time>2026-03-29T10:20:27Z</time></trkpt><trkpt lat="45.66206549935925" lon="9.488724288949612"><ele>183.5</ele><time>2026-03-29T10:20:28Z</time></trkpt><trkpt lat="45.66196066251492" lon="9.488718747018385"><ele>181.0</ele><time>2026-03-29T10:20:30Z</time></trkpt><trkpt lat="45.661875093011574" lon="9.488698240592287"><ele>178.5</ele><time>2026-03-29T10:20:31Z</time></trkpt><trkpt lat="45.661796593910786" lon="9.488680398677724"><ele>176.0</ele><time>2026-03-29T10:20:32Z</time></trkpt><trkpt lat="45.66169174126151" lon="9.488656075242142"><ele>173.5</ele><time>2026-03-29T10:20:33Z</time></trkpt><trkpt lat="45.66162369106622" lon="9.488656149372497"><ele>171.0</ele><time>2026-03-29T10:20:34Z</time></trkpt><trkpt lat="45.66155070346198" lon="9.488661836010293"><ele>170.8</ele><time>2026-03-29T10:20:35Z</time></trkpt><trkpt lat="45.661432809324346" lon="9.488658071358744"><ele>170.60000000000002</ele><time>2026-03-29T10:20:37Z</time></trkpt><trkpt lat="45.661319292188196" lon="9.488685755008238"><ele>170.4</ele><time>2026-03-29T10:20:39Z</time></trkpt><trkpt lat="45.661210440187986" lon="9.488679646398412"><ele>170.2</ele><time>2026-03-29T10:20:41Z</time></trkpt><trkpt lat="45.66111482768961" lon="9.48868612391232"><ele>170.0</ele><time>2026-03-29T10:20:43Z</time></trkpt><trkpt lat="45.661043801701645" lon="9.488731673799712"><ele>169.66666666666666</ele><time>2026-03-29T10:20:48Z</time></trkpt><trkpt lat="45.66095999421833" lon="9.488757636957779"><ele>169.33333333333331</ele><time>2026-03-29T10:20:51Z</time></trkpt><trkpt lat="45.66088672589819" lon="9.488732564761532"><ele>169.0</ele><time>2026-03-29T10:20:52Z</time></trkpt><trkpt lat="45.66082280472132" lon="9.488741311788237"><ele>168.66666666666666</ele><time>2026-03-29T10:20:55Z</time></trkpt><trkpt lat="45.66072625210211" lon="9.488723346867584"><ele>168.33333333333334</ele><time>2026-03-29T10:20:58Z</time></trkpt><trkpt lat="45.66063847629757" lon="9.48869251284323"><ele>168.0</ele><time>2026-03-29T10:21:01Z</time></trkpt><trkpt lat="45.66057113993034" lon="9.48871012195421"><ele>168.0</ele><time>2026-03-29T10:21:02Z</time></trkpt><trkpt lat="45.66047900928829" lon="9.488717405530005"><ele>168.0</ele><time>2026-03-29T10:21:03Z</time></trkpt><trkpt lat="45.66039134146297" lon="9.48872646874583"><ele>168.0</ele><time>2026-03-29T10:21:04Z</time></trkpt><trkpt lat="45.660327259184726" lon="9.48873274603164"><ele>168.0</ele><time>2026-03-29T10:21:05Z</time></trkpt><trkpt lat="45.66025770389021" lon="9.488757416462482"><ele>168.0</ele><time>2026-03-29T10:21:06Z</time></trkpt><trkpt lat="45.66018868392991" lon="9.488742434865323"><ele>168.0</ele><time>2026-03-29T10:21:07Z</time></trkpt><trkpt lat="45.660123128120425" lon="9.488721282605765"><ele>168.16666666666666</ele><time>2026-03-29T10:21:08Z</time></trkpt><trkpt lat="45.66003610344852" lon="9.488760009557604"><ele>168.33333333333334</ele><time>2026-03-29T10:21:10Z</time></trkpt><trkpt lat="45.65996969602469" lon="9.488722431061058"><ele>168.5</ele><time>2026-03-29T10:21:12Z</time></trkpt><trkpt lat="45.65990549672798" lon="9.48867900727992"><ele>168.66666666666669</ele><time>2026-03-29T10:21:13Z</time></trkpt><trkpt lat="45.65979251167421" lon="9.488676288248497"><ele>168.83333333333334</ele><time>2026-03-29T10:21:15Z</time></trkpt><trkpt lat="45.6597413255919" lon="9.488616207214369"><ele>169.0</ele><time>2026-03-29T10:21:18Z</time></trkpt><trkpt lat="45.65964428944544" lon="9.488617922223769"><ele>169.0</ele><time>2026-03-29T10:21:20Z</time></trkpt><trkpt lat="45.6595233633063" lon="9.488564374022427"><ele>169.0</ele><time>2026-03-29T10:21:22Z</time></trkpt><trkpt lat="45.659426582428694" lon="9.488538459046929"><ele>169.0</ele><time>2026-03-29T10:21:24Z</time></trkpt><trkpt lat="45.659370465803676" lon="9.488493135649323"><ele>169.0</ele><time>2026-03-29T10:21:25Z</time></trkpt><trkpt lat="45.6592678618449" lon="9.488445581895656"><ele>169.0</ele><time>2026-03-29T10:21:27Z</time></trkpt><trkpt lat="45.65916946714542" lon="9.488397946654684"><ele>169.5</ele><time>2026-03-29T10:21:29Z</time></trkpt><trkpt lat="45.659057361819784" lon="9.48837976479197"><ele>170.0</ele><time>2026-03-29T10:21:31Z</time></trkpt><trkpt lat="45.6589908671407" lon="9.488350999322249"><ele>170.5</ele><time>2026-03-29T10:21:32Z</time></trkpt><trkpt lat="45.65892667246034" lon="9.488361254733741"><ele>171.0</ele><time>2026-03-29T10:21:33Z</time></trkpt><trkpt lat="45.65882481016549" lon="9.488379804443722"><ele>171.5</ele><time>2026-03-29T10:21:35Z</time></trkpt><trkpt lat="45.65874566184837" lon="9.488398126026286"><ele>172.0</ele><time>2026-03-29T10:21:37Z</time></trkpt><trkpt lat="45.65865362159495" lon="9.488391894310078"><ele>170.75</ele><time>2026-03-29T10:21:39Z</time></trkpt><trkpt lat="45.6585453556858" lon="9.488317668483841"><ele>169.5</ele><time>2026-03-29T10:21:41Z</time></trkpt><trkpt lat="45.65843072190987" lon="9.488270681349368"><ele>168.25</ele><time>2026-03-29T10:21:43Z</time></trkpt><trkpt lat="45.65831617478123" lon="9.488273072025727"><ele>167.0</ele><time>2026-03-29T10:21:45Z</time></trkpt><trkpt lat="45.65822079077423" lon="9.488314022099024"><ele>167.0</ele><time>2026-03-29T10:21:47Z</time></trkpt><trkpt lat="45.65814816471247" lon="9.488352545546688"><ele>167.0</ele><time>2026-03-29T10:21:49Z</time></trkpt><trkpt lat="45.65807357401809" lon="9.488326238628225"><ele>167.0</ele><time>2026-03-29T10:21:51Z</time></trkpt><trkpt lat="45.657975541995356" lon="9.488296106093316"><ele>167.0</ele><time>2026-03-29T10:21:53Z</time></trkpt><trkpt lat="45.65790724611541" lon="9.488282223391952"><ele>167.0</ele><time>2026-03-29T10:21:54Z</time></trkpt><trkpt lat="45.65780087014424" lon="9.48832567531882"><ele>167.0</ele><time>2026-03-29T10:21:56Z</time></trkpt><trkpt lat="45.65769008397882" lon="9.488344957809586"><ele>165.0</ele><time>2026-03-29T10:21:58Z</time></trkpt><trkpt lat="45.65762552888231" lon="9.488350381407932"><ele>163.0</ele><time>2026-03-29T10:21:59Z</time></trkpt><trkpt lat="45.657517385395295" lon="9.488372295750125"><ele>161.0</ele><time>2026-03-29T10:22:01Z</time></trkpt><trkpt lat="45.65740259827107" lon="9.488353537670351"><ele>159.0</ele><time>2026-03-29T10:22:03Z</time></trkpt><trkpt lat="45.657281510223385" lon="9.488371228720277"><ele>157.0</ele><time>2026-03-29T10:22:07Z</time></trkpt><trkpt lat="45.65720099490798" lon="9.488352366859992"><ele>157.0</ele><time>2026-03-29T10:22:10Z</time></trkpt><trkpt lat="45.65713062589337" lon="9.488401854396901"><ele>157.0</ele><time>2026-03-29T10:22:12Z</time></trkpt><trkpt lat="45.65704209696895" lon="9.488445240588945"><ele>157.0</ele><time>2026-03-29T10:22:14Z</time></trkpt><trkpt lat="45.65696307041766" lon="9.488444249714881"><ele>157.0</ele><time>2026-03-29T10:22:16Z</time></trkpt><trkpt lat="45.65655185305611" lon="9.488386067343658"><ele>157.8</ele><time>2026-03-29T10:22:18Z</time></trkpt><trkpt lat="45.656436612460595" lon="9.488407965091831"><ele>158.6</ele><time>2026-03-29T10:22:20Z</time></trkpt><trkpt lat="45.656328911977496" lon="9.488360465633649"><ele>159.4</ele><time>2026-03-29T10:22:22Z</time></trkpt><trkpt lat="45.656245707520014" lon="9.488367854322036"><ele>160.20000000000002</ele><time>2026-03-29T10:22:24Z</time></trkpt><trkpt lat="45.65617913670294" lon="9.488368728315274"><ele>161.0</ele><time>2026-03-29T10:22:26Z</time></trkpt><trkpt lat="45.656107114447444" lon="9.488366120966832"><ele>161.5</ele><time>2026-03-29T10:22:28Z</time></trkpt><trkpt lat="45.65602305031373" lon="9.488347078150648"><ele>162.0</ele><time>2026-03-29T10:22:30Z</time></trkpt><trkpt lat="45.65594532887263" lon="9.488384361176212"><ele>162.5</ele><time>2026-03-29T10:22:33Z</time></trkpt><trkpt lat="45.65586229695331" lon="9.488372723586675"><ele>163.0</ele><time>2026-03-29T10:22:35Z</time></trkpt><trkpt lat="45.655795009241444" lon="9.488346926567294"><ele>163.5</ele><time>2026-03-29T10:22:39Z</time></trkpt><trkpt lat="45.65573504588017" lon="9.48830934614938"><ele>164.0</ele><time>2026-03-29T10:22:40Z</time></trkpt><trkpt lat="45.65567423580415" lon="9.48823477487443"><ele>164.0</ele><time>2026-03-29T10:22:43Z</time></trkpt><trkpt lat="45.65557398934301" lon="9.488225458049952"><ele>164.0</ele><time>2026-03-29T10:22:46Z</time></trkpt><trkpt lat="45.65549294282665" lon="9.488202184822669"><ele>164.0</ele><time>2026-03-29T10:22:48Z</time></trkpt><trkpt lat="45.655431886027095" lon="9.488089746170306"><ele>164.0</ele><time>2026-03-29T10:22:50Z</time></trkpt><trkpt lat="45.6553698922712" lon="9.488111965149216"><ele>164.0</ele><time>2026-03-29T10:22:53Z</time></trkpt><trkpt lat="45.65530535668391" lon="9.487995572224646"><ele>162.83333333333331</ele><time>2026-03-29T10:22:55Z</time></trkpt><trkpt lat="45.65524149017203" lon="9.48791351651202"><ele>161.66666666666666</ele><time>2026-03-29T10:22:58Z</time></trkpt><trkpt lat="45.65519540503913" lon="9.487830281228117"><ele>160.5</ele><time>2026-03-29T10:23:01Z</time></trkpt><trkpt lat="45.65513167471304" lon="9.487835071624957"><ele>159.33333333333334</ele><time>2026-03-29T10:23:03Z</time></trkpt><trkpt lat="45.655053071553425" lon="9.487762458380987"><ele>158.16666666666669</ele><time>2026-03-29T10:23:06Z</time></trkpt><trkpt lat="45.65499105230868" lon="9.48772095205148"><ele>157.0</ele><time>2026-03-29T10:23:08Z</time></trkpt><trkpt lat="45.65492500279616" lon="9.487690042381328"><ele>157.0</ele><time>2026-03-29T10:23:11Z</time></trkpt><trkpt lat="45.654841827409015" lon="9.48765617073722"><ele>157.0</ele><time>2026-03-29T10:23:14Z</time></trkpt><trkpt lat="45.654812569368225" lon="9.487553269481158"><ele>157.0</ele><time>2026-03-29T10:23:16Z</time></trkpt><trkpt lat="45.65478049038161" lon="9.487471282656916"><ele>157.0</ele><time>2026-03-29T10:23:18Z</time></trkpt><trkpt lat="45.65472844403711" lon="9.487418883936853"><ele>157.0</ele><time>2026-03-29T10:23:21Z</time></trkpt><trkpt lat="45.654665206008005" lon="9.48726813374144"><ele>157.0</ele><time>2026-03-29T10:23:24Z</time></trkpt><trkpt lat="45.65460169800718" lon="9.487218455971412"><ele>157.0</ele><time>2026-03-29T10:23:27Z</time></trkpt><trkpt lat="45.65452883473825" lon="9.487124954199318"><ele>157.0</ele><time>2026-03-29T10:23:30Z</time></trkpt><trkpt lat="45.65445433622342" lon="9.48711063376687"><ele>157.0</ele><time>2026-03-29T10:23:32Z</time></trkpt><trkpt lat="45.654372772257084" lon="9.487019246033965"><ele>157.0</ele><time>2026-03-29T10:23:36Z</time></trkpt><trkpt lat="45.65431408564385" lon="9.486964810651827"><ele>157.0</ele><time>2026-03-29T10:23:39Z</time></trkpt><trkpt lat="45.65421812183674" lon="9.486943667010198"><ele>157.0</ele><time>2026-03-29T10:23:42Z</time></trkpt><trkpt lat="45.654145265524335" lon="9.48695970987405"><ele>157.66666666666669</ele><time>2026-03-29T10:23:44Z</time></trkpt><trkpt lat="45.65407874125605" lon="9.486983376464371"><ele>158.33333333333334</ele><time>2026-03-29T10:23:47Z</time></trkpt><trkpt lat="45.65399260135591" lon="9.486987310288782"><ele>159.0</ele><time>2026-03-29T10:23:50Z</time></trkpt><trkpt lat="45.6539148975198" lon="9.486983788629866"><ele>159.66666666666666</ele><time>2026-03-29T10:23:53Z</time></trkpt><trkpt lat="45.65385729946866" lon="9.487085387707754"><ele>160.33333333333331</ele><time>2026-03-29T10:23:56Z</time></trkpt><trkpt lat="45.65380976952941" lon="9.48716815174405"><ele>161.0</ele><time>2026-03-29T10:23:58Z</time></trkpt><trkpt lat="45.65372048208683" lon="9.487144190453341"><ele>161.0</ele><time>2026-03-29T10:24:01Z</time></trkpt><trkpt lat="45.653652316972945" lon="9.487196649263803"><ele>161.0</ele><time>2026-03-29T10:24:06Z</time></trkpt><trkpt lat="45.65359548662309" lon="9.487251718388958"><ele>161.0</ele><time>2026-03-29T10:24:10Z</time></trkpt><trkpt lat="45.653581387606415" lon="9.487373456667841"><ele>161.0</ele><time>2026-03-29T10:24:12Z</time></trkpt><trkpt lat="45.653556057307505" lon="9.487468482012893"><ele>161.0</ele><time>2026-03-29T10:24:14Z</time></trkpt><trkpt lat="45.65354695812688" lon="9.487560095997953"><ele>161.0</ele><time>2026-03-29T10:24:15Z</time></trkpt><trkpt lat="45.653488312765575" lon="9.487524112887472"><ele>161.0</ele><time>2026-03-29T10:24:18Z</time></trkpt><trkpt lat="45.65342327144017" lon="9.487517116112462"><ele>161.5</ele><time>2026-03-29T10:24:21Z</time></trkpt><trkpt lat="45.65334742882972" lon="9.487500333544213"><ele>162.0</ele><time>2026-03-29T10:24:24Z</time></trkpt><trkpt lat="45.653285118572555" lon="9.487547683509764"><ele>162.5</ele><time>2026-03-29T10:24:29Z</time></trkpt><trkpt lat="45.65326956429304" lon="9.487659646633979"><ele>163.0</ele><time>2026-03-29T10:24:32Z</time></trkpt><trkpt lat="45.65321227273422" lon="9.487765883495845"><ele>163.5</ele><time>2026-03-29T10:24:37Z</time></trkpt><trkpt lat="45.653150432021285" lon="9.487856066538374"><ele>164.0</ele><time>2026-03-29T10:24:40Z</time></trkpt><trkpt lat="45.65312082624464" lon="9.487942371569549"><ele>164.33333333333331</ele><time>2026-03-29T10:24:44Z</time></trkpt><trkpt lat="45.65313053810449" lon="9.48803487501786"><ele>164.66666666666666</ele><time>2026-03-29T10:24:45Z</time></trkpt><trkpt lat="45.65303896455326" lon="9.488027736854093"><ele>165.0</ele><time>2026-03-29T10:24:47Z</time></trkpt><trkpt lat="45.652966998172836" lon="9.488035553753567"><ele>165.33333333333334</ele><time>2026-03-29T10:24:49Z</time></trkpt><trkpt lat="45.65291970047592" lon="9.488106659205297"><ele>165.66666666666669</ele><time>2026-03-29T10:24:51Z</time></trkpt><trkpt lat="45.652851853142636" lon="9.488157785833597"><ele>166.0</ele><time>2026-03-29T10:24:54Z</time></trkpt><trkpt lat="45.65284336567533" lon="9.488272187571775"><ele>166.0</ele><time>2026-03-29T10:24:57Z</time></trkpt><trkpt lat="45.6528509446861" lon="9.488438129995338"><ele>166.0</ele><time>2026-03-29T10:25:00Z</time></trkpt><trkpt lat="45.65020728789425" lon="9.489741056354749"><ele>162.75</ele><time>2026-03-29T10:25:02Z</time></trkpt><trkpt lat="45.65016902117779" lon="9.48988928911434"><ele>159.5</ele><time>2026-03-29T10:25:04Z</time></trkpt><trkpt lat="45.65013963296425" lon="9.490054376178007"><ele>156.25</ele><time>2026-03-29T10:25:06Z</time></trkpt><trkpt lat="45.650139686781735" lon="9.49021985810277"><ele>153.0</ele><time>2026-03-29T10:25:08Z</time></trkpt><trkpt lat="45.65009758271409" lon="9.490366106903261"><ele>153.20000000000002</ele><time>2026-03-29T10:25:10Z</time></trkpt><trkpt lat="45.650050590770334" lon="9.490499076794887"><ele>153.4</ele><time>2026-03-29T10:25:12Z</time></trkpt><trkpt lat="45.650043699949855" lon="9.490631223449327"><ele>153.60000000000002</ele><time>2026-03-29T10:25:14Z</time></trkpt><trkpt lat="45.65004241988389" lon="9.490777625064847"><ele>153.8</ele><time>2026-03-29T10:25:16Z</time></trkpt><trkpt lat="45.65003343034394" lon="9.490933102269391"><ele>154.0</ele><time>2026-03-29T10:25:18Z</time></trkpt><trkpt lat="45.650031209114154" lon="9.491075908043454"><ele>154.0</ele><time>2026-03-29T10:25:20Z</time></trkpt><trkpt lat="45.64998746355413" lon="9.491208588446227"><ele>154.0</ele><time>2026-03-29T10:25:22Z</time></trkpt><trkpt lat="45.65002598771121" lon="9.49130115016809"><ele>154.0</ele><time>2026-03-29T10:25:25Z</time></trkpt><trkpt lat="45.64997487029266" lon="9.491368097765225"><ele>154.0</ele><time>2026-03-29T10:25:28Z</time></trkpt><trkpt lat="45.64997076880832" lon="9.49153998319134"><ele>154.0</ele><time>2026-03-29T10:25:30Z</time></trkpt><trkpt lat="45.649913926837755" lon="9.491670341479455"><ele>154.0</ele><time>2026-03-29T10:25:33Z</time></trkpt><trkpt lat="45.64976242520733" lon="9.492183106918331"><ele>154.0</ele><time>2026-03-29T10:25:34Z</time></trkpt><trkpt lat="45.64977841428054" lon="9.49229213489494"><ele>154.0</ele><time>2026-03-29T10:25:35Z</time></trkpt><trkpt lat="45.64976666897041" lon="9.492400137512067"><ele>154.0</ele><time>2026-03-29T10:25:36Z</time></trkpt><trkpt lat="45.649742664218664" lon="9.492499621265354"><ele>154.0</ele><time>2026-03-29T10:25:37Z</time></trkpt><trkpt lat="45.649733303712026" lon="9.492589241992821"><ele>154.0</ele><time>2026-03-29T10:25:38Z</time></trkpt><trkpt lat="45.64969830111574" lon="9.492702137030356"><ele>154.0</ele><time>2026-03-29T10:25:40Z</time></trkpt><trkpt lat="45.64963882932342" lon="9.492783919301806"><ele>154.0</ele><time>2026-03-29T10:25:42Z</time></trkpt><trkpt lat="45.64960501225734" lon="9.49291170611208"><ele>154.2</ele><time>2026-03-29T10:25:45Z</time></trkpt><trkpt lat="45.6495980818975" lon="9.49304259233358"><ele>154.4</ele><time>2026-03-29T10:25:47Z</time></trkpt><trkpt lat="45.64950314888812" lon="9.493125494967842"><ele>154.6</ele><time>2026-03-29T10:25:49Z</time></trkpt><trkpt lat="45.649430331496625" lon="9.493231326562922"><ele>154.8</ele><time>2026-03-29T10:25:51Z</time></trkpt><trkpt lat="45.64940971423717" lon="9.493356660985565"><ele>155.0</ele><time>2026-03-29T10:25:54Z</time></trkpt><trkpt lat="45.64933995175012" lon="9.493420492252188"><ele>154.6</ele><time>2026-03-29T10:25:58Z</time></trkpt><trkpt lat="45.649267634246115" lon="9.4935615214515"><ele>154.2</ele><time>2026-03-29T10:26:00Z</time></trkpt><trkpt lat="45.64919806395836" lon="9.493597988175981"><ele>153.8</ele><time>2026-03-29T10:26:03Z</time></trkpt><trkpt lat="45.64915413167229" lon="9.493663595859426"><ele>153.4</ele><time>2026-03-29T10:26:05Z</time></trkpt><trkpt lat="45.64904481270772" lon="9.493828634804732"><ele>153.0</ele><time>2026-03-29T10:26:07Z</time></trkpt><trkpt lat="45.64899056886669" lon="9.493901921582578"><ele>155.4</ele><time>2026-03-29T10:26:08Z</time></trkpt><trkpt lat="45.6488983866422" lon="9.494026267909518"><ele>157.8</ele><time>2026-03-29T10:26:10Z</time></trkpt><trkpt lat="45.6488856832488" lon="9.494164491391945"><ele>160.2</ele><time>2026-03-29T10:26:12Z</time></trkpt><trkpt lat="45.6488788794937" lon="9.494256432016488"><ele>162.6</ele><time>2026-03-29T10:26:15Z</time></trkpt><trkpt lat="45.648843997345445" lon="9.494332336833002"><ele>165.0</ele><time>2026-03-29T10:26:17Z</time></trkpt><trkpt lat="45.648785178395634" lon="9.494492842843375"><ele>165.0</ele><time>2026-03-29T10:26:19Z</time></trkpt><trkpt lat="45.648734990137044" lon="9.494584089176053"><ele>165.0</ele><time>2026-03-29T10:26:20Z</time></trkpt><trkpt lat="45.64866178759522" lon="9.49470435410399"><ele>165.0</ele><time>2026-03-29T10:26:21Z</time></trkpt><trkpt lat="45.64859995214044" lon="9.494833955506854"><ele>165.0</ele><time>2026-03-29T10:26:23Z</time></trkpt><trkpt lat="45.64847281887266" lon="9.494870478943064"><ele>165.0</ele><time>2026-03-29T10:26:25Z</time></trkpt><trkpt lat="45.648401821742965" lon="9.494883484772389"><ele>166.33333333333334</ele><time>2026-03-29T10:26:29Z</time></trkpt><trkpt lat="45.648329859530044" lon="9.494912922729801"><ele>167.66666666666666</ele><time>2026-03-29T10:26:32Z</time></trkpt><trkpt lat="45.648256021880286" lon="9.494914385693539"><ele>169.0</ele><time>2026-03-29T10:26:34Z</time></trkpt><trkpt lat="45.64818963146715" lon="9.49491042203728"><ele>170.33333333333331</ele><time>2026-03-29T10:26:35Z</time></trkpt><trkpt lat="45.64810157426568" lon="9.49496504327996"><ele>171.66666666666666</ele><time>2026-03-29T10:26:37Z</time></trkpt><trkpt lat="45.64801558071929" lon="9.494974091418962"><ele>173.0</ele><time>2026-03-29T10:26:39Z</time></trkpt><trkpt lat="45.64794999413152" lon="9.494964457107308"><ele>173.0</ele><time>2026-03-29T10:26:41Z</time></trkpt><trkpt lat="45.64786737612846" lon="9.494973711293808"><ele>173.0</ele><time>2026-03-29T10:26:44Z</time></trkpt><trkpt lat="45.64779744690398" lon="9.494984518588415"><ele>173.0</ele><time>2026-03-29T10:26:46Z</time></trkpt><trkpt lat="45.647712472510385" lon="9.495013242065438"><ele>173.0</ele><time>2026-03-29T10:26:49Z</time></trkpt><trkpt lat="45.64765025946373" lon="9.49505335773048"><ele>173.0</ele><time>2026-03-29T10:26:51Z</time></trkpt><trkpt lat="45.647583023662044" lon="9.49510730520022"><ele>173.0</ele><time>2026-03-29T10:26:53Z</time></trkpt><trkpt lat="45.64750789903992" lon="9.495073393045452"><ele>173.16666666666666</ele><time>2026-03-29T10:26:55Z</time></trkpt><trkpt lat="45.64742240122281" lon="9.49514722545922"><ele>173.33333333333331</ele><time>2026-03-29T10:26:57Z</time></trkpt><trkpt lat="45.64733575241891" lon="9.49510734807124"><ele>173.5</ele><time>2026-03-29T10:26:59Z</time></trkpt><trkpt lat="45.64726057533333" lon="9.495049164504508"><ele>173.66666666666666</ele><time>2026-03-29T10:27:01Z</time></trkpt><trkpt lat="45.64717401586763" lon="9.495072259761745"><ele>173.83333333333334</ele><time>2026-03-29T10:27:03Z</time></trkpt><trkpt lat="45.647116434821854" lon="9.495127031223486"><ele>174.0</ele><time>2026-03-29T10:27:05Z</time></trkpt><trkpt lat="45.647023300381484" lon="9.49514248456861"><ele>174.0</ele><time>2026-03-29T10:27:07Z</time></trkpt><trkpt lat="45.64695947752337" lon="9.495174161264844"><ele>174.0</ele><time>2026-03-29T10:27:10Z</time></trkpt><trkpt lat="45.64693875535242" lon="9.495281033744277"><ele>174.0</ele><time>2026-03-29T10:27:24Z</time></trkpt><trkpt lat="45.646844683580255" lon="9.495244155472282"><ele>174.0</ele><time>2026-03-29T10:27:27Z</time></trkpt><trkpt lat="45.64677501224306" lon="9.495202694076132"><ele>174.0</ele><time>2026-03-29T10:27:29Z</time></trkpt><trkpt lat="45.64671194380987" lon="9.495192227135536"><ele>174.0</ele><time>2026-03-29T10:27:43Z</time></trkpt><trkpt lat="45.64663997435244" lon="9.495169222757998"><ele>174.0</ele><time>2026-03-29T10:27:46Z</time></trkpt><trkpt lat="45.64655399161322" lon="9.49514213713444"><ele>174.0</ele><time>2026-03-29T10:27:49Z</time></trkpt><trkpt lat="45.64648285614527" lon="9.495184079487299"><ele>174.0</ele><time>2026-03-29T10:27:51Z</time></trkpt><trkpt lat="45.64639787163754" lon="9.49522468493268"><ele>174.0</ele><time>2026-03-29T10:27:53Z</time></trkpt><trkpt lat="45.646329022818044" lon="9.495305494569145"><ele>174.0</ele><time>2026-03-29T10:27:55Z</time></trkpt><trkpt lat="45.64627223851976" lon="9.495367889445758"><ele>174.0</ele><time>2026-03-29T10:27:56Z</time></trkpt><trkpt lat="45.646169647384674" lon="9.495410358636045"><ele>172.5</ele><time>2026-03-29T10:27:59Z</time></trkpt><trkpt lat="45.646068897739994" lon="9.49537090627588"><ele>171.0</ele><time>2026-03-29T10:28:01Z</time></trkpt><trkpt lat="45.64603437100388" lon="9.4954474244892"><ele>169.5</ele><time>2026-03-29T10:28:03Z</time></trkpt><trkpt lat="45.645947636418576" lon="9.495452096808148"><ele>168.0</ele><time>2026-03-29T10:28:06Z</time></trkpt><trkpt lat="45.645889561110494" lon="9.495500458759956"><ele>166.5</ele><time>2026-03-29T10:28:08Z</time></trkpt><trkpt lat="45.64580165092102" lon="9.495517607808749"><ele>165.0</ele><time>2026-03-29T10:28:11Z</time></trkpt><trkpt lat="45.64573773689455" lon="9.495522735938815"><ele>169.66666666666666</ele><time>2026-03-29T10:28:13Z</time></trkpt><trkpt lat="45.64566434651166" lon="9.495515330134378"><ele>174.33333333333331</ele><time>2026-03-29T10:28:15Z</time></trkpt><trkpt lat="45.64560254433562" lon="9.49545684900139"><ele>179.0</ele><time>2026-03-29T10:28:17Z</time></trkpt><trkpt lat="45.64553043350036" lon="9.495490921342432"><ele>183.66666666666666</ele><time>2026-03-29T10:28:19Z</time></trkpt><trkpt lat="45.64545683947321" lon="9.495508961244193"><ele>188.33333333333331</ele><time>2026-03-29T10:28:21Z</time></trkpt><trkpt lat="45.645388895088914" lon="9.495574967370564"><ele>193.0</ele><time>2026-03-29T10:28:23Z</time></trkpt><trkpt lat="45.645311214605485" lon="9.49561634281854"><ele>191.83333333333331</ele><time>2026-03-29T10:28:27Z</time></trkpt><trkpt lat="45.64524377255505" lon="9.495632992207252"><ele>190.66666666666666</ele><time>2026-03-29T10:28:29Z</time></trkpt><trkpt lat="45.64514331199761" lon="9.495615380332179"><ele>189.5</ele><time>2026-03-29T10:28:32Z</time></trkpt><trkpt lat="45.645073901751516" lon="9.495624640579745"><ele>188.33333333333331</ele><time>2026-03-29T10:28:34Z</time></trkpt><trkpt lat="45.64501174749029" lon="9.495666459414752"><ele>187.16666666666666</ele><time>2026-03-29T10:28:36Z</time></trkpt><trkpt lat="45.64492858199612" lon="9.495695041966625"><ele>186.0</ele><time>2026-03-29T10:28:39Z</time></trkpt><trkpt lat="45.64484552421982" lon="9.49569654746423"><ele>186.0</ele><time>2026-03-29T10:28:42Z</time></trkpt><trkpt lat="45.6447696406436" lon="9.495729735860172"><ele>186.0</ele><time>2026-03-29T10:28:45Z</time></trkpt><trkpt lat="45.644708090316925" lon="9.495686687595613"><ele>186.0</ele><time>2026-03-29T10:28:47Z</time></trkpt><trkpt lat="45.64463788989188" lon="9.495631665356635"><ele>186.0</ele><time>2026-03-29T10:28:49Z</time></trkpt><trkpt lat="45.6445821711202" lon="9.495677155019816"><ele>186.0</ele><time>2026-03-29T10:28:51Z</time></trkpt><trkpt lat="45.6445013269835" lon="9.495690920422042"><ele>186.0</ele><time>2026-03-29T10:28:54Z</time></trkpt><trkpt lat="45.64441794429854" lon="9.495793661968806"><ele>184.66666666666666</ele><time>2026-03-29T10:28:57Z</time></trkpt><trkpt lat="45.64435861216955" lon="9.495829190218686"><ele>183.33333333333334</ele><time>2026-03-29T10:28:59Z</time></trkpt><trkpt lat="45.64426077189531" lon="9.495816731737365"><ele>182.0</ele><time>2026-03-29T10:29:02Z</time></trkpt><trkpt lat="45.64417634232862" lon="9.495808693316413"><ele>180.66666666666669</ele><time>2026-03-29T10:29:05Z</time></trkpt><trkpt lat="45.644095229507116" lon="9.49587552995262"><ele>179.33333333333334</ele><time>2026-03-29T10:29:08Z</time></trkpt><trkpt lat="45.64402913874476" lon="9.495860004045912"><ele>178.0</ele><time>2026-03-29T10:29:10Z</time></trkpt><trkpt lat="45.64397591544035" lon="9.495811650842699"><ele>178.0</ele><time>2026-03-29T10:29:12Z</time></trkpt><trkpt lat="45.643888678980055" lon="9.495806291627748"><ele>178.0</ele><time>2026-03-29T10:29:15Z</time></trkpt><trkpt lat="45.64380835771842" lon="9.495780716445665"><ele>178.0</ele><time>2026-03-29T10:29:18Z</time></trkpt><trkpt lat="45.64374528856896" lon="9.495806339706842"><ele>178.0</ele><time>2026-03-29T10:29:21Z</time></trkpt><trkpt lat="45.64366645999064" lon="9.495792949716625"><ele>178.0</ele><time>2026-03-29T10:29:24Z</time></trkpt><trkpt lat="45.64360436554119" lon="9.495827078933294"><ele>178.0</ele><time>2026-03-29T10:29:26Z</time></trkpt><trkpt lat="45.64352583427039" lon="9.495830018683714"><ele>177.16666666666669</ele><time>2026-03-29T10:29:29Z</time></trkpt><trkpt lat="45.6434521552795" lon="9.495840677039196"><ele>176.33333333333334</ele><time>2026-03-29T10:29:33Z</time></trkpt><trkpt lat="45.643349030230645" lon="9.49589371710369"><ele>175.5</ele><time>2026-03-29T10:29:37Z</time></trkpt><trkpt lat="45.64330051629018" lon="9.495957327065367"><ele>174.66666666666666</ele><time>2026-03-29T10:29:38Z</time></trkpt><trkpt lat="45.64323288580293" lon="9.496020918736717"><ele>173.83333333333331</ele><time>2026-03-29T10:29:39Z</time></trkpt><trkpt lat="45.64315150986116" lon="9.496109812275547"><ele>173.0</ele><time>2026-03-29T10:29:40Z</time></trkpt><trkpt lat="45.643027874883614" lon="9.49597618826336"><ele>173.0</ele><time>2026-03-29T10:29:41Z</time></trkpt><trkpt lat="45.64280660265891" lon="9.495992445068048"><ele>173.0</ele><time>2026-03-29T10:29:43Z</time></trkpt><trkpt lat="45.64269088376563" lon="9.496068584185979"><ele>173.0</ele><time>2026-03-29T10:29:44Z</time></trkpt><trkpt lat="45.6425760127107" lon="9.49614574511124"><ele>172.0</ele><time>2026-03-29T10:29:45Z</time></trkpt><trkpt lat="45.642474611028256" lon="9.496146946844071"><ele>171.0</ele><time>2026-03-29T10:29:46Z</time></trkpt><trkpt lat="45.64234923822035" lon="9.49617366071174"><ele>170.0</ele><time>2026-03-29T10:29:47Z</time></trkpt><trkpt lat="45.642109000781204" lon="9.49620889385504"><ele>168.5</ele><time>2026-03-29T10:29:48Z</time></trkpt><trkpt lat="45.641856127220976" lon="9.496240563517512"><ele>167.0</ele><time>2026-03-29T10:29:49Z</time></trkpt><trkpt lat="45.64149408203202" lon="9.49622185892148"><ele>167.0</ele><time>2026-03-29T10:29:50Z</time></trkpt><trkpt lat="45.64118392576889" lon="9.496237174722046"><ele>167.0</ele><time>2026-03-29T10:29:51Z</time></trkpt><trkpt lat="45.640870095557204" lon="9.496086319592047"><ele>167.66666666666666</ele><time>2026-03-29T10:29:52Z</time></trkpt><trkpt lat="45.640729359711806" lon="9.496000622298222"><ele>168.33333333333331</ele><time>2026-03-29T10:29:53Z</time></trkpt><trkpt lat="45.64066301587334" lon="9.495969711522141"><ele>169.0</ele><time>2026-03-29T10:29:54Z</time></trkpt><trkpt lat="45.640603882136524" lon="9.495937728728519"><ele>169.66666666666666</ele><time>2026-03-29T10:29:55Z</time></trkpt><trkpt lat="45.64053444024869" lon="9.495950428400336"><ele>170.33333333333334</ele><time>2026-03-29T10:29:56Z</time></trkpt><trkpt lat="45.64046350542841" lon="9.495978367289766"><ele>171.0</ele><time>2026-03-29T10:29:57Z</time></trkpt><trkpt lat="45.64039396190916" lon="9.49599568349021"><ele>171.0</ele><time>2026-03-29T10:29:58Z</time></trkpt><trkpt lat="45.640333539007585" lon="9.49603760523959"><ele>171.0</ele><time>2026-03-29T10:29:59Z</time></trkpt><trkpt lat="45.6402664674156" lon="9.496064932240085"><ele>171.0</ele><time>2026-03-29T10:30:03Z</time></trkpt><trkpt lat="45.640208451770945" lon="9.496134459244312"><ele>171.0</ele><time>2026-03-29T10:30:05Z</time></trkpt><trkpt lat="45.64014990388996" lon="9.496195741830983"><ele>171.0</ele><time>2026-03-29T10:30:07Z</time></trkpt><trkpt lat="45.64006743058092" lon="9.496222431119671"><ele>171.0</ele><time>2026-03-29T10:30:09Z</time></trkpt><trkpt lat="45.639953556327676" lon="9.496293290611597"><ele>174.16666666666666</ele><time>2026-03-29T10:30:12Z</time></trkpt><trkpt lat="45.6398749384391" lon="9.496253719916586"><ele>177.33333333333334</ele><time>2026-03-29T10:30:14Z</time></trkpt><trkpt lat="45.63980762660988" lon="9.49626914285313"><ele>180.5</ele><time>2026-03-29T10:30:16Z</time></trkpt><trkpt lat="45.63973072823574" lon="9.49632270304477"><ele>183.66666666666669</ele><time>2026-03-29T10:30:18Z</time></trkpt><trkpt lat="45.639652663547096" lon="9.496289764851806"><ele>186.83333333333334</ele><time>2026-03-29T10:30:20Z</time></trkpt><trkpt lat="45.639586528923715" lon="9.49626024237632"><ele>190.0</ele><time>2026-03-29T10:30:22Z</time></trkpt><trkpt lat="45.63949583697659" lon="9.496279720578313"><ele>188.5</ele><time>2026-03-29T10:30:24Z</time></trkpt><trkpt lat="45.639416041324395" lon="9.49630251565278"><ele>187.0</ele><time>2026-03-29T10:30:25Z</time></trkpt><trkpt lat="45.63935368328427" lon="9.496281379920413"><ele>185.5</ele><time>2026-03-29T10:30:26Z</time></trkpt><trkpt lat="45.639281020216266" lon="9.496294158786966"><ele>184.0</ele><time>2026-03-29T10:30:27Z</time></trkpt><trkpt lat="45.63920606466852" lon="9.496304445918849"><ele>182.5</ele><time>2026-03-29T10:30:28Z</time></trkpt><trkpt lat="45.63913478417204" lon="9.496361764578271"><ele>181.0</ele><time>2026-03-29T10:30:29Z</time></trkpt><trkpt lat="45.63904386270566" lon="9.496413862169959"><ele>181.0</ele><time>2026-03-29T10:30:30Z</time></trkpt><trkpt lat="45.63895321958562" lon="9.496406258200343"><ele>181.0</ele><time>2026-03-29T10:30:31Z</time></trkpt><trkpt lat="45.63881289939692" lon="9.496406615389898"><ele>181.0</ele><time>2026-03-29T10:30:33Z</time></trkpt><trkpt lat="45.638729051413954" lon="9.496388825591952"><ele>181.0</ele><time>2026-03-29T10:30:34Z</time></trkpt><trkpt lat="45.63864906991277" lon="9.4963830888699"><ele>181.0</ele><time>2026-03-29T10:30:35Z</time></trkpt><trkpt lat="45.63858603920743" lon="9.496368919801528"><ele>179.83333333333334</ele><time>2026-03-29T10:30:36Z</time></trkpt><trkpt lat="45.638521348914786" lon="9.49636794297785"><ele>178.66666666666669</ele><time>2026-03-29T10:30:37Z</time></trkpt><trkpt lat="45.63844493041588" lon="9.496403544306064"><ele>177.5</ele><time>2026-03-29T10:30:38Z</time></trkpt><trkpt lat="45.63837687456866" lon="9.496373452192872"><ele>176.33333333333334</ele><time>2026-03-29T10:30:39Z</time></trkpt><trkpt lat="45.63828227815698" lon="9.496406799846717"><ele>175.16666666666666</ele><time>2026-03-29T10:30:41Z</time></trkpt><trkpt lat="45.638172381923376" lon="9.496394263343886"><ele>174.0</ele><time>2026-03-29T10:30:43Z</time></trkpt><trkpt lat="45.638056794985665" lon="9.496399434741361"><ele>174.0</ele><time>2026-03-29T10:30:45Z</time></trkpt><trkpt lat="45.63799452795326" lon="9.496420435746915"><ele>174.0</ele><time>2026-03-29T10:30:46Z</time></trkpt><trkpt lat="45.63787058471077" lon="9.496434986646745"><ele>174.0</ele><time>2026-03-29T10:30:48Z</time></trkpt><trkpt lat="45.63775527890004" lon="9.49644620202704"><ele>174.0</ele><time>2026-03-29T10:30:50Z</time></trkpt><trkpt lat="45.63769213609791" lon="9.496430928231291"><ele>174.0</ele><time>2026-03-29T10:30:53Z</time></trkpt><trkpt lat="45.63763029403372" lon="9.496460534300677"><ele>174.0</ele><time>2026-03-29T10:30:55Z</time></trkpt><trkpt lat="45.63751592453102" lon="9.496528046108917"><ele>173.66666666666666</ele><time>2026-03-29T10:30:58Z</time></trkpt><trkpt lat="45.63743523970109" lon="9.49655169659351"><ele>173.33333333333331</ele><time>2026-03-29T10:31:00Z</time></trkpt><trkpt lat="45.63736406253987" lon="9.496580814322794"><ele>173.0</ele><time>2026-03-29T10:31:02Z</time></trkpt><trkpt lat="45.636982407093505" lon="9.49679375198052"><ele>172.8</ele><time>2026-03-29T10:31:05Z</time></trkpt><trkpt lat="45.63688252641305" lon="9.496806661416764"><ele>172.60000000000002</ele><time>2026-03-29T10:31:07Z</time></trkpt><trkpt lat="45.6368302968456" lon="9.496930007478708"><ele>172.39999999999998</ele><time>2026-03-29T10:31:09Z</time></trkpt><trkpt lat="45.63681118726743" lon="9.49705515204476"><ele>172.2</ele><time>2026-03-29T10:31:11Z</time></trkpt><trkpt lat="45.63683942725229" lon="9.497169552355498"><ele>172.0</ele><time>2026-03-29T10:31:13Z</time></trkpt><trkpt lat="45.6368190851861" lon="9.497275875989128"><ele>173.33333333333334</ele><time>2026-03-29T10:31:15Z</time></trkpt><trkpt lat="45.63674970717699" lon="9.497307179613125"><ele>174.66666666666669</ele><time>2026-03-29T10:31:17Z</time></trkpt><trkpt lat="45.636650021119394" lon="9.497267488486674"><ele>176.0</ele><time>2026-03-29T10:31:19Z</time></trkpt><trkpt lat="45.63656368350028" lon="9.497229841228128"><ele>177.33333333333334</ele><time>2026-03-29T10:31:21Z</time></trkpt><trkpt lat="45.636498510408906" lon="9.497306572805163"><ele>178.66666666666666</ele><time>2026-03-29T10:31:23Z</time></trkpt><trkpt lat="45.63652387122836" lon="9.49742231970315"><ele>180.0</ele><time>2026-03-29T10:31:26Z</time></trkpt><trkpt lat="45.63647807582238" lon="9.497561363294205"><ele>180.0</ele><time>2026-03-29T10:31:29Z</time></trkpt><trkpt lat="45.636395229914314" lon="9.497671128899208"><ele>180.0</ele><time>2026-03-29T10:31:31Z</time></trkpt><trkpt lat="45.636321919624166" lon="9.497763632274474"><ele>180.0</ele><time>2026-03-29T10:31:33Z</time></trkpt><trkpt lat="45.63624716498786" lon="9.497830740863133"><ele>180.0</ele><time>2026-03-29T10:31:35Z</time></trkpt><trkpt lat="45.63618014678223" lon="9.49791210467796"><ele>180.0</ele><time>2026-03-29T10:31:37Z</time></trkpt><trkpt lat="45.63611520186547" lon="9.497969530216707"><ele>180.66666666666666</ele><time>2026-03-29T10:31:39Z</time></trkpt><trkpt lat="45.63607148395417" lon="9.498036266461177"><ele>181.33333333333334</ele><time>2026-03-29T10:31:42Z</time></trkpt><trkpt lat="45.63600417193775" lon="9.498095645270439"><ele>182.0</ele><time>2026-03-29T10:31:45Z</time></trkpt><trkpt lat="45.63595858831179" lon="9.498198037217783"><ele>182.66666666666669</ele><time>2026-03-29T10:31:48Z</time></trkpt><trkpt lat="45.635947921056754" lon="9.49829367083116"><ele>183.33333333333334</ele><time>2026-03-29T10:31:50Z</time></trkpt><trkpt lat="45.635904333775734" lon="9.49842568078373"><ele>184.0</ele><time>2026-03-29T10:31:53Z</time></trkpt><trkpt lat="45.63586321261243" lon="9.498509938488235"><ele>184.0</ele><time>2026-03-29T10:31:56Z</time></trkpt><trkpt lat="45.6358286271177" lon="9.498607468531866"><ele>184.0</ele><time>2026-03-29T10:31:59Z</time></trkpt><trkpt lat="45.63577240374894" lon="9.498681176031802"><ele>184.0</ele><time>2026-03-29T10:32:02Z</time></trkpt><trkpt lat="45.63571505839031" lon="9.498732444196444"><ele>184.0</ele><time>2026-03-29T10:32:04Z</time></trkpt><trkpt lat="45.63563749667377" lon="9.498781434581886"><ele>184.0</ele><time>2026-03-29T10:32:07Z</time></trkpt><trkpt lat="45.635561149897555" lon="9.49884246559366"><ele>184.0</ele><time>2026-03-29T10:32:10Z</time></trkpt><trkpt lat="45.63551607164156" lon="9.49894407587494"><ele>184.16666666666669</ele><time>2026-03-29T10:32:13Z</time></trkpt><trkpt lat="45.63546899178016" lon="9.49905435489179"><ele>184.33333333333334</ele><time>2026-03-29T10:32:16Z</time></trkpt><trkpt lat="45.63540096361651" lon="9.499130302868963"><ele>184.5</ele><time>2026-03-29T10:32:19Z</time></trkpt><trkpt lat="45.635343742921" lon="9.499212232546641"><ele>184.66666666666666</ele><time>2026-03-29T10:32:22Z</time></trkpt><trkpt lat="45.635255307590505" lon="9.499251030626263"><ele>184.83333333333331</ele><time>2026-03-29T10:32:25Z</time></trkpt><trkpt lat="45.635204600346384" lon="9.49931630068473"><ele>185.0</ele><time>2026-03-29T10:32:27Z</time></trkpt><trkpt lat="45.635130691260684" lon="9.49938387185148"><ele>185.0</ele><time>2026-03-29T10:32:28Z</time></trkpt><trkpt lat="45.63506924801001" lon="9.49945182056933"><ele>185.0</ele><time>2026-03-29T10:32:29Z</time></trkpt><trkpt lat="45.63501707510686" lon="9.499523070789975"><ele>185.0</ele><time>2026-03-29T10:32:30Z</time></trkpt><trkpt lat="45.63495415173385" lon="9.499577979056848"><ele>185.0</ele><time>2026-03-29T10:32:31Z</time></trkpt><trkpt lat="45.63490088266285" lon="9.499648479233876"><ele>185.0</ele><time>2026-03-29T10:32:32Z</time></trkpt><trkpt lat="45.634852807553735" lon="9.499766543259232"><ele>185.0</ele><time>2026-03-29T10:32:33Z</time></trkpt><trkpt lat="45.63479536763212" lon="9.499856751165987"><ele>186.8</ele><time>2026-03-29T10:32:34Z</time></trkpt><trkpt lat="45.634731066643965" lon="9.499927361697505"><ele>188.6</ele><time>2026-03-29T10:32:35Z</time></trkpt><trkpt lat="45.63467650240097" lon="9.50002063721829"><ele>190.39999999999998</ele><time>2026-03-29T10:32:36Z</time></trkpt><trkpt lat="45.634601810045226" lon="9.500146768227419"><ele>192.2</ele><time>2026-03-29T10:32:37Z</time></trkpt><trkpt lat="45.63454913189784" lon="9.500250292605337"><ele>194.0</ele><time>2026-03-29T10:32:38Z</time></trkpt><trkpt lat="45.6344970086456" lon="9.500379650463355"><ele>192.6</ele><time>2026-03-29T10:32:39Z</time></trkpt><trkpt lat="45.634447984298056" lon="9.500541819959302"><ele>191.2</ele><time>2026-03-29T10:32:41Z</time></trkpt><trkpt lat="45.634416890097754" lon="9.500634442988888"><ele>189.79999999999998</ele><time>2026-03-29T10:32:42Z</time></trkpt><trkpt lat="45.6343584448646" lon="9.500777863893958"><ele>188.39999999999998</ele><time>2026-03-29T10:32:44Z</time></trkpt><trkpt lat="45.634299625422535" lon="9.50094046611135"><ele>187.0</ele><time>2026-03-29T10:32:46Z</time></trkpt><trkpt lat="45.63424234503907" lon="9.501096567376575"><ele>187.0</ele><time>2026-03-29T10:32:48Z</time></trkpt><trkpt lat="45.63419287609862" lon="9.501238492905415"><ele>187.0</ele><time>2026-03-29T10:32:50Z</time></trkpt><trkpt lat="45.634134948691624" lon="9.50137655712749"><ele>187.0</ele><time>2026-03-29T10:32:52Z</time></trkpt><trkpt lat="45.63409179082872" lon="9.501530409981406"><ele>187.0</ele><time>2026-03-29T10:32:54Z</time></trkpt><trkpt lat="45.63404863086639" lon="9.501652354707518"><ele>187.0</ele><time>2026-03-29T10:32:56Z</time></trkpt><trkpt lat="45.634042627081" lon="9.501751613975538"><ele>187.5</ele><time>2026-03-29T10:32:59Z</time></trkpt><trkpt lat="45.63401872542424" lon="9.501846115210785"><ele>188.0</ele><time>2026-03-29T10:33:01Z</time></trkpt><trkpt lat="45.63400404225643" lon="9.50196039244524"><ele>188.5</ele><time>2026-03-29T10:33:05Z</time></trkpt><trkpt lat="45.63394743985032" lon="9.502036515107108"><ele>189.0</ele><time>2026-03-29T10:33:08Z</time></trkpt><trkpt lat="45.63389252175826" lon="9.50212733271948"><ele>189.5</ele><time>2026-03-29T10:33:09Z</time></trkpt><trkpt lat="45.63385599642625" lon="9.502239192125426"><ele>190.0</ele><time>2026-03-29T10:33:12Z</time></trkpt><trkpt lat="45.633813706194665" lon="9.502321151333849"><ele>190.5</ele><time>2026-03-29T10:33:14Z</time></trkpt><trkpt lat="45.63376597307401" lon="9.502404499420319"><ele>191.0</ele><time>2026-03-29T10:33:15Z</time></trkpt><trkpt lat="45.633704543362526" lon="9.502434236363966"><ele>191.5</ele><time>2026-03-29T10:33:17Z</time></trkpt><trkpt lat="45.633597551863666" lon="9.502647421497889"><ele>192.0</ele><time>2026-03-29T10:33:20Z</time></trkpt><trkpt lat="45.63348202008807" lon="9.502851109628594"><ele>191.0</ele><time>2026-03-29T10:33:21Z</time></trkpt><trkpt lat="45.63342175980955" lon="9.502957171601617"><ele>190.0</ele><time>2026-03-29T10:33:22Z</time></trkpt><trkpt lat="45.63334302754958" lon="9.503029004307537"><ele>189.0</ele><time>2026-03-29T10:33:23Z</time></trkpt><trkpt lat="45.63329719047823" lon="9.503105795616282"><ele>188.0</ele><time>2026-03-29T10:33:24Z</time></trkpt><trkpt lat="45.633243920410386" lon="9.503189839588442"><ele>187.0</ele><time>2026-03-29T10:33:25Z</time></trkpt><trkpt lat="45.63318767001034" lon="9.50325214410148"><ele>186.0</ele><time>2026-03-29T10:33:26Z</time></trkpt><trkpt lat="45.63313849730978" lon="9.503323261115016"><ele>186.0</ele><time>2026-03-29T10:33:27Z</time></trkpt><trkpt lat="45.63305865855125" lon="9.503457092748075"><ele>186.0</ele><time>2026-03-29T10:33:29Z</time></trkpt><trkpt lat="45.63298139416324" lon="9.503590594361672"><ele>186.0</ele><time>2026-03-29T10:33:31Z</time></trkpt><trkpt lat="45.63293674658887" lon="9.5036838526691"><ele>186.0</ele><time>2026-03-29T10:33:34Z</time></trkpt><trkpt lat="45.63285820455613" lon="9.503756858045985"><ele>186.0</ele><time>2026-03-29T10:33:36Z</time></trkpt><trkpt lat="45.632752888212906" lon="9.503772137129472"><ele>186.0</ele><time>2026-03-29T10:33:37Z</time></trkpt><trkpt lat="45.632683088486985" lon="9.503799993307396"><ele>186.0</ele><time>2026-03-29T10:33:38Z</time></trkpt><trkpt lat="45.63256595366279" lon="9.503790521691895"><ele>186.0</ele><time>2026-03-29T10:33:40Z</time></trkpt><trkpt lat="45.632478341563285" lon="9.50377570059494"><ele>186.0</ele><time>2026-03-29T10:33:42Z</time></trkpt><trkpt lat="45.632416911447535" lon="9.5037290408796"><ele>186.0</ele><time>2026-03-29T10:33:43Z</time></trkpt><trkpt lat="45.632355015380874" lon="9.503682648582128"><ele>186.0</ele><time>2026-03-29T10:33:44Z</time></trkpt><trkpt lat="45.63229045019189" lon="9.503652094228391"><ele>186.0</ele><time>2026-03-29T10:33:45Z</time></trkpt><trkpt lat="45.63221193055563" lon="9.503548503490627"><ele>186.0</ele><time>2026-03-29T10:33:47Z</time></trkpt><trkpt lat="45.63211054737461" lon="9.50355429198472"><ele>186.0</ele><time>2026-03-29T10:33:48Z</time></trkpt><trkpt lat="45.63206401453815" lon="9.50363868737102"><ele>186.0</ele><time>2026-03-29T10:33:49Z</time></trkpt><trkpt lat="45.63202419516718" lon="9.503772661234384"><ele>186.0</ele><time>2026-03-29T10:33:51Z</time></trkpt><trkpt lat="45.63195869207412" lon="9.503874263506669"><ele>183.0</ele><time>2026-03-29T10:33:53Z</time></trkpt><trkpt lat="45.631898313091256" lon="9.503996902725282"><ele>180.0</ele><time>2026-03-29T10:33:55Z</time></trkpt><trkpt lat="45.631853938511554" lon="9.504061065298679"><ele>177.0</ele><time>2026-03-29T10:33:56Z</time></trkpt><trkpt lat="45.631777819173806" lon="9.504176359569316"><ele>174.0</ele><time>2026-03-29T10:33:58Z</time></trkpt><trkpt lat="45.63171219876543" lon="9.504295690744932"><ele>171.0</ele><time>2026-03-29T10:34:00Z</time></trkpt><trkpt lat="45.63164048117879" lon="9.504412657323405"><ele>171.0</ele><time>2026-03-29T10:34:02Z</time></trkpt><trkpt lat="45.63155171264732" lon="9.504490656560424"><ele>171.0</ele><time>2026-03-29T10:34:04Z</time></trkpt><trkpt lat="45.6314918340709" lon="9.504598612304006"><ele>171.0</ele><time>2026-03-29T10:34:06Z</time></trkpt><trkpt lat="45.63129776575041" lon="9.504612568684088"><ele>171.0</ele><time>2026-03-29T10:34:08Z</time></trkpt><trkpt lat="45.63124870848339" lon="9.504749331791016"><ele>169.4</ele><time>2026-03-29T10:34:10Z</time></trkpt><trkpt lat="45.63121256027691" lon="9.504860726547754"><ele>167.8</ele><time>2026-03-29T10:34:15Z</time></trkpt><trkpt lat="45.63117997102906" lon="9.504973064417937"><ele>166.20000000000002</ele><time>2026-03-29T10:34:17Z</time></trkpt><trkpt lat="45.63115008497055" lon="9.505079945380775"><ele>164.60000000000002</ele><time>2026-03-29T10:34:19Z</time></trkpt><trkpt lat="45.63107062473964" lon="9.505177770853942"><ele>163.0</ele><time>2026-03-29T10:34:21Z</time></trkpt><trkpt lat="45.63102527540943" lon="9.505303678786921"><ele>165.25</ele><time>2026-03-29T10:34:23Z</time></trkpt><trkpt lat="45.63097484382212" lon="9.50544735583419"><ele>167.5</ele><time>2026-03-29T10:34:25Z</time></trkpt><trkpt lat="45.63092729610374" lon="9.505591417216735"><ele>169.75</ele><time>2026-03-29T10:34:27Z</time></trkpt><trkpt lat="45.630857845225606" lon="9.505745516718012"><ele>172.0</ele><time>2026-03-29T10:34:29Z</time></trkpt><trkpt lat="45.63078932283665" lon="9.50588457153286"><ele>172.0</ele><time>2026-03-29T10:34:31Z</time></trkpt><trkpt lat="45.63073020807008" lon="9.506012809410425"><ele>172.0</ele><time>2026-03-29T10:34:33Z</time></trkpt><trkpt lat="45.630641273063624" lon="9.506120768081031"><ele>172.0</ele><time>2026-03-29T10:34:35Z</time></trkpt><trkpt lat="45.630550133184435" lon="9.506216220977668"><ele>172.0</ele><time>2026-03-29T10:34:37Z</time></trkpt><trkpt lat="45.63045684454825" lon="9.506309650973538"><ele>171.16666666666669</ele><time>2026-03-29T10:34:39Z</time></trkpt><trkpt lat="45.630365048431564" lon="9.506391304241594"><ele>170.33333333333334</ele><time>2026-03-29T10:34:41Z</time></trkpt><trkpt lat="45.630273641284" lon="9.506458119804982"><ele>169.5</ele><time>2026-03-29T10:34:43Z</time></trkpt><trkpt lat="45.63021627119722" lon="9.506499519750154"><ele>168.66666666666666</ele><time>2026-03-29T10:34:44Z</time></trkpt><trkpt lat="45.63013291041022" lon="9.50656229210176"><ele>167.83333333333331</ele><time>2026-03-29T10:34:46Z</time></trkpt><trkpt lat="45.63008871934684" lon="9.506630063030636"><ele>167.0</ele><time>2026-03-29T10:34:48Z</time></trkpt><trkpt lat="45.63017601838231" lon="9.50706215082612"><ele>168.0</ele><time>2026-03-29T10:34:50Z</time></trkpt><trkpt lat="45.630180712921835" lon="9.507227492269937"><ele>169.0</ele><time>2026-03-29T10:34:52Z</time></trkpt><trkpt lat="45.630172582142315" lon="9.507379989891325"><ele>170.0</ele><time>2026-03-29T10:34:54Z</time></trkpt><trkpt lat="45.630173530517645" lon="9.5074734751785"><ele>171.0</ele><time>2026-03-29T10:34:57Z</time></trkpt><trkpt lat="45.63015578187352" lon="9.507563558191494"><ele>172.0</ele><time>2026-03-29T10:34:59Z</time></trkpt><trkpt lat="45.63014268903928" lon="9.507671742384158"><ele>173.0</ele><time>2026-03-29T10:35:01Z</time></trkpt><trkpt lat="45.63014592152226" lon="9.507764270800322"><ele>173.0</ele><time>2026-03-29T10:35:03Z</time></trkpt><trkpt lat="45.63010189095053" lon="9.507850846394707"><ele>173.0</ele><time>2026-03-29T10:35:05Z</time></trkpt><trkpt lat="45.63007984350349" lon="9.507958958578472"><ele>173.0</ele><time>2026-03-29T10:35:07Z</time></trkpt><trkpt lat="45.63005169508264" lon="9.50806668970388"><ele>173.0</ele><time>2026-03-29T10:35:09Z</time></trkpt><trkpt lat="45.630011876702625" lon="9.508136940782952"><ele>173.0</ele><time>2026-03-29T10:35:10Z</time></trkpt><trkpt lat="45.629972989989106" lon="9.508258845294076"><ele>173.0</ele><time>2026-03-29T10:35:12Z</time></trkpt><trkpt lat="45.62995000965328" lon="9.508348618785282"><ele>174.66666666666666</ele><time>2026-03-29T10:35:14Z</time></trkpt><trkpt lat="45.62993999667449" lon="9.508445510946412"><ele>176.33333333333334</ele><time>2026-03-29T10:35:16Z</time></trkpt><trkpt lat="45.62991537850908" lon="9.508537292739014"><ele>178.0</ele><time>2026-03-29T10:35:18Z</time></trkpt><trkpt lat="45.6297283240801" lon="9.509334064935164"><ele>178.5</ele><time>2026-03-29T10:35:20Z</time></trkpt><trkpt lat="45.629629627153676" lon="9.509589705416058"><ele>179.0</ele><time>2026-03-29T10:35:24Z</time></trkpt><trkpt lat="45.62956525626944" lon="9.509711514062893"><ele>179.5</ele><time>2026-03-29T10:35:26Z</time></trkpt><trkpt lat="45.62951584107993" lon="9.50980227236658"><ele>180.0</ele><time>2026-03-29T10:35:28Z</time></trkpt><trkpt lat="45.62952436338845" lon="9.50989200451725"><ele>180.0</ele><time>2026-03-29T10:35:29Z</time></trkpt><trkpt lat="45.62948243629995" lon="9.509994360206758"><ele>180.0</ele><time>2026-03-29T10:35:31Z</time></trkpt><trkpt lat="45.62939594334783" lon="9.510061009305659"><ele>180.0</ele><time>2026-03-29T10:35:33Z</time></trkpt><trkpt lat="45.6293569538013" lon="9.510145051155494"><ele>180.0</ele><time>2026-03-29T10:35:34Z</time></trkpt><trkpt lat="45.62931663313002" lon="9.51022044565747"><ele>180.0</ele><time>2026-03-29T10:35:35Z</time></trkpt><trkpt lat="45.62928016811811" lon="9.510308800862882"><ele>180.0</ele><time>2026-03-29T10:35:36Z</time></trkpt><trkpt lat="45.62924217780432" lon="9.510384334422689"><ele>178.83333333333334</ele><time>2026-03-29T10:35:37Z</time></trkpt><trkpt lat="45.62916532957569" lon="9.510529912637995"><ele>177.66666666666666</ele><time>2026-03-29T10:35:39Z</time></trkpt><trkpt lat="45.62912418554037" lon="9.510602800285685"><ele>176.5</ele><time>2026-03-29T10:35:40Z</time></trkpt><trkpt lat="45.62907940328426" lon="9.510670703327763"><ele>175.33333333333331</ele><time>2026-03-29T10:35:41Z</time></trkpt><trkpt lat="45.62901934928302" lon="9.510793004487617"><ele>174.16666666666666</ele><time>2026-03-29T10:35:43Z</time></trkpt><trkpt lat="45.62897865527125" lon="9.510870843188812"><ele>173.0</ele><time>2026-03-29T10:35:44Z</time></trkpt><trkpt lat="45.62894360494094" lon="9.510945751614825"><ele>173.0</ele><time>2026-03-29T10:35:45Z</time></trkpt><trkpt lat="45.628900106283304" lon="9.511027125605489"><ele>173.0</ele><time>2026-03-29T10:35:46Z</time></trkpt><trkpt lat="45.62881757006872" lon="9.511172284181821"><ele>173.0</ele><time>2026-03-29T10:35:48Z</time></trkpt><trkpt lat="45.62877648929003" lon="9.51124063212571"><ele>173.0</ele><time>2026-03-29T10:35:49Z</time></trkpt><trkpt lat="45.62871189187239" lon="9.511267479054142"><ele>173.0</ele><time>2026-03-29T10:35:50Z</time></trkpt><trkpt lat="45.62859611489388" lon="9.511220839774195"><ele>172.0</ele><time>2026-03-29T10:35:52Z</time></trkpt><trkpt lat="45.62847689747134" lon="9.511168282721071"><ele>171.0</ele><time>2026-03-29T10:35:54Z</time></trkpt><trkpt lat="45.62840746829868" lon="9.511152118901736"><ele>170.0</ele><time>2026-03-29T10:35:55Z</time></trkpt><trkpt lat="45.62829101313513" lon="9.511210979273699"><ele>169.0</ele><time>2026-03-29T10:35:57Z</time></trkpt><trkpt lat="45.62823410007638" lon="9.511260440536212"><ele>168.0</ele><time>2026-03-29T10:35:58Z</time></trkpt><trkpt lat="45.62811668188176" lon="9.511348067293234"><ele>167.66666666666666</ele><time>2026-03-29T10:36:00Z</time></trkpt><trkpt lat="45.62805504049192" lon="9.511381815670935"><ele>167.33333333333334</ele><time>2026-03-29T10:36:01Z</time></trkpt><trkpt lat="45.62794932420006" lon="9.511451978258892"><ele>167.0</ele><time>2026-03-29T10:36:03Z</time></trkpt><trkpt lat="45.627893302524825" lon="9.5115130612625"><ele>166.66666666666669</ele><time>2026-03-29T10:36:04Z</time></trkpt><trkpt lat="45.627834246023944" lon="9.511547181253801"><ele>166.33333333333334</ele><time>2026-03-29T10:36:05Z</time></trkpt><trkpt lat="45.62771963641602" lon="9.51152453777625"><ele>166.0</ele><time>2026-03-29T10:36:07Z</time></trkpt><trkpt lat="45.62760168968043" lon="9.51154373332908"><ele>165.8</ele><time>2026-03-29T10:36:09Z</time></trkpt><trkpt lat="45.62748322697998" lon="9.511558630855257"><ele>165.60000000000002</ele><time>2026-03-29T10:36:11Z</time></trkpt><trkpt lat="45.62737884434511" lon="9.511547450250013"><ele>165.4</ele><time>2026-03-29T10:36:13Z</time></trkpt><trkpt lat="45.62731437973369" lon="9.511426788859705"><ele>165.2</ele><time>2026-03-29T10:36:15Z</time></trkpt><trkpt lat="45.62734820262298" lon="9.51129884830867"><ele>165.0</ele><time>2026-03-29T10:36:18Z</time></trkpt><trkpt lat="45.62731738506816" lon="9.511114966977308"><ele>165.0</ele><time>2026-03-29T10:36:21Z</time></trkpt><trkpt lat="45.62730874009637" lon="9.510985336447376"><ele>165.0</ele><time>2026-03-29T10:36:22Z</time></trkpt><trkpt lat="45.62730537111006" lon="9.510891694644858"><ele>165.0</ele><time>2026-03-29T10:36:23Z</time></trkpt><trkpt lat="45.62729547774618" lon="9.510798013464626"><ele>165.0</ele><time>2026-03-29T10:36:24Z</time></trkpt><trkpt lat="45.62725595846485" lon="9.510643028986665"><ele>165.0</ele><time>2026-03-29T10:36:26Z</time></trkpt><trkpt lat="45.62723774688079" lon="9.510477107066192"><ele>164.33333333333334</ele><time>2026-03-29T10:36:28Z</time></trkpt><trkpt lat="45.62722872019398" lon="9.510386399474474"><ele>163.66666666666666</ele><time>2026-03-29T10:36:29Z</time></trkpt><trkpt lat="45.62722233348715" lon="9.510232624537638"><ele>163.0</ele><time>2026-03-29T10:36:31Z</time></trkpt><trkpt lat="45.627213927740065" lon="9.510116792836927"><ele>162.33333333333331</ele><time>2026-03-29T10:36:33Z</time></trkpt><trkpt lat="45.627139483455245" lon="9.510101748452092"><ele>161.66666666666666</ele><time>2026-03-29T10:36:37Z</time></trkpt><trkpt lat="45.62705896268836" lon="9.510086419538332"><ele>161.0</ele><time>2026-03-29T10:36:40Z</time></trkpt><trkpt lat="45.62707601458738" lon="9.510179049241756"><ele>161.0</ele><time>2026-03-29T10:36:45Z</time></trkpt><trkpt lat="45.62707728754354" lon="9.51030104147115"><ele>161.0</ele><time>2026-03-29T10:36:55Z</time></trkpt><trkpt lat="45.627101892020384" lon="9.510420444852226"><ele>161.0</ele><time>2026-03-29T10:36:58Z</time></trkpt><trkpt lat="45.62710636069082" lon="9.510543035405504"><ele>161.0</ele><time>2026-03-29T10:37:00Z</time></trkpt><trkpt lat="45.62706240381979" lon="9.510617312162056"><ele>161.0</ele><time>2026-03-29T10:37:02Z</time></trkpt><trkpt lat="45.627042560619515" lon="9.510704607785275"><ele>161.0</ele><time>2026-03-29T10:37:04Z</time></trkpt><trkpt lat="45.62704941459243" lon="9.510867161526638"><ele>161.8</ele><time>2026-03-29T10:37:06Z</time></trkpt><trkpt lat="45.62704210212775" lon="9.510994550879378"><ele>162.60000000000002</ele><time>2026-03-29T10:37:08Z</time></trkpt><trkpt lat="45.6269775361227" lon="9.511058716402639"><ele>163.4</ele><time>2026-03-29T10:37:11Z</time></trkpt><trkpt lat="45.62687322268026" lon="9.51106240017293"><ele>164.2</ele><time>2026-03-29T10:37:13Z</time></trkpt><trkpt lat="45.62677625870292" lon="9.511018199945594"><ele>165.0</ele><time>2026-03-29T10:37:15Z</time></trkpt><trkpt lat="45.62669464729771" lon="9.51106403753739"><ele>164.16666666666666</ele><time>2026-03-29T10:37:17Z</time></trkpt><trkpt lat="45.62672773111268" lon="9.51121750126304"><ele>163.33333333333334</ele><time>2026-03-29T10:37:20Z</time></trkpt><trkpt lat="45.62669282717687" lon="9.51134346726605"><ele>162.5</ele><time>2026-03-29T10:37:22Z</time></trkpt><trkpt lat="45.62664242187674" lon="9.511406883095608"><ele>161.66666666666669</ele><time>2026-03-29T10:37:25Z</time></trkpt><trkpt lat="45.62658838506639" lon="9.511470982975828"><ele>160.83333333333334</ele><time>2026-03-29T10:37:27Z</time></trkpt><trkpt lat="45.626502635039635" lon="9.511539811033588"><ele>160.0</ele><time>2026-03-29T10:37:29Z</time></trkpt><trkpt lat="45.62638145980946" lon="9.511561164784279"><ele>160.0</ele><time>2026-03-29T10:37:31Z</time></trkpt><trkpt lat="45.626300626530885" lon="9.511664952247076"><ele>160.0</ele><time>2026-03-29T10:37:33Z</time></trkpt><trkpt lat="45.626283469567554" lon="9.511833210195512"><ele>160.0</ele><time>2026-03-29T10:37:35Z</time></trkpt><trkpt lat="45.62629409812436" lon="9.511933038483521"><ele>160.0</ele><time>2026-03-29T10:37:36Z</time></trkpt><trkpt lat="45.626287137588726" lon="9.51202685958854"><ele>160.0</ele><time>2026-03-29T10:37:37Z</time></trkpt><trkpt lat="45.62626631161374" lon="9.512196245424661"><ele>159.66666666666669</ele><time>2026-03-29T10:37:39Z</time></trkpt><trkpt lat="45.62624612676832" lon="9.512298944544009"><ele>159.33333333333334</ele><time>2026-03-29T10:37:40Z</time></trkpt><trkpt lat="45.62622652859683" lon="9.512444094151913"><ele>159.0</ele><time>2026-03-29T10:37:42Z</time></trkpt><trkpt lat="45.626234314598776" lon="9.51258403475682"><ele>158.66666666666666</ele><time>2026-03-29T10:37:44Z</time></trkpt><trkpt lat="45.626210374708876" lon="9.512681378596165"><ele>158.33333333333331</ele><time>2026-03-29T10:37:47Z</time></trkpt><trkpt lat="45.62622224842256" lon="9.512818355860194"><ele>158.0</ele><time>2026-03-29T10:37:50Z</time></trkpt><trkpt lat="45.626217988207124" lon="9.512925499426995"><ele>158.0</ele><time>2026-03-29T10:37:54Z</time></trkpt><trkpt lat="45.62621486716734" lon="9.513021717078763"><ele>158.0</ele><time>2026-03-29T10:37:58Z</time></trkpt><trkpt lat="45.626248379804984" lon="9.513131964372347"><ele>158.0</ele><time>2026-03-29T10:38:01Z</time></trkpt><trkpt lat="45.62629839276347" lon="9.513214296428645"><ele>158.0</ele><time>2026-03-29T10:38:04Z</time></trkpt><trkpt lat="45.62637271337373" lon="9.513276834536528"><ele>158.0</ele><time>2026-03-29T10:38:06Z</time></trkpt><trkpt lat="45.62638167477554" lon="9.513403057493163"><ele>158.0</ele><time>2026-03-29T10:38:10Z</time></trkpt><trkpt lat="45.62642245947124" lon="9.513505080126638"><ele>158.0</ele><time>2026-03-29T10:38:13Z</time></trkpt><trkpt lat="45.62645334604691" lon="9.51360892981717"><ele>158.0</ele><time>2026-03-29T10:38:15Z</time></trkpt><trkpt lat="45.626448450349805" lon="9.51370128603312"><ele>158.0</ele><time>2026-03-29T10:38:17Z</time></trkpt><trkpt lat="45.62639252642762" lon="9.51380857651185"><ele>158.0</ele><time>2026-03-29T10:38:19Z</time></trkpt><trkpt lat="45.62632406342234" lon="9.513891778360374"><ele>158.0</ele><time>2026-03-29T10:38:21Z</time></trkpt><trkpt lat="45.6262727922863" lon="9.513969294485134"><ele>158.0</ele><time>2026-03-29T10:38:23Z</time></trkpt><trkpt lat="45.62628522226465" lon="9.514117879588259"><ele>157.83333333333331</ele><time>2026-03-29T10:38:25Z</time></trkpt><trkpt lat="45.62624804530796" lon="9.514240840275187"><ele>157.66666666666666</ele><time>2026-03-29T10:38:27Z</time></trkpt><trkpt lat="45.626206790085874" lon="9.514350213731676"><ele>157.5</ele><time>2026-03-29T10:38:29Z</time></trkpt><trkpt lat="45.62619173829325" lon="9.514486191265373"><ele>157.33333333333334</ele><time>2026-03-29T10:38:31Z</time></trkpt><trkpt lat="45.62619140500053" lon="9.514598810286605"><ele>157.16666666666669</ele><time>2026-03-29T10:38:33Z</time></trkpt><trkpt lat="45.626154643673075" lon="9.51467305898235"><ele>157.0</ele><time>2026-03-29T10:38:35Z</time></trkpt><trkpt lat="45.626083539396" lon="9.51469545792765"><ele>157.0</ele><time>2026-03-29T10:38:37Z</time></trkpt><trkpt lat="45.62599719567713" lon="9.514758254260036"><ele>157.0</ele><time>2026-03-29T10:38:39Z</time></trkpt><trkpt lat="45.62593034511532" lon="9.514887443262207"><ele>157.0</ele><time>2026-03-29T10:38:40Z</time></trkpt><trkpt lat="45.62586735270294" lon="9.514978284696456"><ele>157.0</ele><time>2026-03-29T10:38:41Z</time></trkpt><trkpt lat="45.62581709723206" lon="9.515097267517177"><ele>157.0</ele><time>2026-03-29T10:38:42Z</time></trkpt><trkpt lat="45.6257668532052" lon="9.515167645307804"><ele>157.0</ele><time>2026-03-29T10:38:43Z</time></trkpt><trkpt lat="45.62573302651857" lon="9.515285898450909"><ele>157.0</ele><time>2026-03-29T10:38:44Z</time></trkpt><trkpt lat="45.625643175593545" lon="9.51539166177817"><ele>157.0</ele><time>2026-03-29T10:38:46Z</time></trkpt><trkpt lat="45.62557390719003" lon="9.51544266255522"><ele>157.0</ele><time>2026-03-29T10:38:48Z</time></trkpt><trkpt lat="45.62552742744267" lon="9.515562972476268"><ele>157.0</ele><time>2026-03-29T10:38:50Z</time></trkpt><trkpt lat="45.62553695558458" lon="9.515675001574056"><ele>157.83333333333334</ele><time>2026-03-29T10:38:52Z</time></trkpt><trkpt lat="45.62546576619379" lon="9.515763215178383"><ele>158.66666666666669</ele><time>2026-03-29T10:38:57Z</time></trkpt><trkpt lat="45.62538349906934" lon="9.515825115761743"><ele>159.5</ele><time>2026-03-29T10:38:59Z</time></trkpt><trkpt lat="45.62537734229739" lon="9.515919438504874"><ele>160.33333333333334</ele><time>2026-03-29T10:39:02Z</time></trkpt><trkpt lat="45.625339499181045" lon="9.516014010171164"><ele>161.16666666666666</ele><time>2026-03-29T10:39:04Z</time></trkpt><trkpt lat="45.625288410846935" lon="9.516079479137057"><ele>162.0</ele><time>2026-03-29T10:39:06Z</time></trkpt><trkpt lat="45.62524801618026" lon="9.516164248797995"><ele>162.0</ele><time>2026-03-29T10:39:08Z</time></trkpt><trkpt lat="45.62519872870663" lon="9.516231253498981"><ele>162.0</ele><time>2026-03-29T10:39:10Z</time></trkpt><trkpt lat="45.62514137553959" lon="9.51629302019228"><ele>162.0</ele><time>2026-03-29T10:39:13Z</time></trkpt><trkpt lat="45.62510051189715" lon="9.516396404507274"><ele>162.0</ele><time>2026-03-29T10:39:15Z</time></trkpt><trkpt lat="45.625039558330364" lon="9.51646451080282"><ele>162.0</ele><time>2026-03-29T10:39:17Z</time></trkpt><trkpt lat="45.624966077796145" lon="9.516524836114469"><ele>162.0</ele><time>2026-03-29T10:39:19Z</time></trkpt><trkpt lat="45.624898427235465" lon="9.51659682231226"><ele>163.16666666666666</ele><time>2026-03-29T10:39:22Z</time></trkpt><trkpt lat="45.6248477162815" lon="9.516667202165378"><ele>164.33333333333334</ele><time>2026-03-29T10:39:24Z</time></trkpt><trkpt lat="45.62477976998355" lon="9.516780673039058"><ele>165.5</ele><time>2026-03-29T10:39:26Z</time></trkpt><trkpt lat="45.62471599131824" lon="9.516849488320307"><ele>166.66666666666669</ele><time>2026-03-29T10:39:28Z</time></trkpt><trkpt lat="45.624652945253885" lon="9.516913723958545"><ele>167.83333333333334</ele><time>2026-03-29T10:39:30Z</time></trkpt><trkpt lat="45.62455930704504" lon="9.516947438567032"><ele>169.0</ele><time>2026-03-29T10:39:33Z</time></trkpt><trkpt lat="45.624503380641976" lon="9.516989894266185"><ele>169.0</ele><time>2026-03-29T10:39:35Z</time></trkpt><trkpt lat="45.62443710923985" lon="9.51707260540596"><ele>169.0</ele><time>2026-03-29T10:39:38Z</time></trkpt><trkpt lat="45.62435548417127" lon="9.517136874968577"><ele>169.0</ele><time>2026-03-29T10:39:40Z</time></trkpt><trkpt lat="45.62431427529649" lon="9.517208373393265"><ele>169.0</ele><time>2026-03-29T10:39:41Z</time></trkpt><trkpt lat="45.62425686744076" lon="9.51729947376252"><ele>169.0</ele><time>2026-03-29T10:39:43Z</time></trkpt><trkpt lat="45.62421237681144" lon="9.517411604130977"><ele>169.0</ele><time>2026-03-29T10:39:46Z</time></trkpt><trkpt lat="45.624104939485655" lon="9.517419903012204"><ele>169.0</ele><time>2026-03-29T10:39:48Z</time></trkpt><trkpt lat="45.62404645390481" lon="9.517476455589977"><ele>169.0</ele><time>2026-03-29T10:39:50Z</time></trkpt><trkpt lat="45.62396948182397" lon="9.517502754472092"><ele>169.0</ele><time>2026-03-29T10:39:52Z</time></trkpt><trkpt lat="45.623934701423615" lon="9.517587148963427"><ele>169.0</ele><time>2026-03-29T10:39:55Z</time></trkpt><trkpt lat="45.62384660738961" lon="9.517644541872249"><ele>169.0</ele><time>2026-03-29T10:39:58Z</time></trkpt><trkpt lat="45.62377148497293" lon="9.517709998587119"><ele>169.0</ele><time>2026-03-29T10:40:00Z</time></trkpt><trkpt lat="45.62368860583429" lon="9.51771572309889"><ele>168.33333333333334</ele><time>2026-03-29T10:40:02Z</time></trkpt><trkpt lat="45.62363147396733" lon="9.517808470161157"><ele>167.66666666666669</ele><time>2026-03-29T10:40:05Z</time></trkpt><trkpt lat="45.6235665836616" lon="9.517829671742206"><ele>167.0</ele><time>2026-03-29T10:40:10Z</time></trkpt><trkpt lat="45.623484269904324" lon="9.517841870988246"><ele>166.33333333333334</ele><time>2026-03-29T10:40:12Z</time></trkpt><trkpt lat="45.62342495741337" lon="9.517932068296584"><ele>165.66666666666666</ele><time>2026-03-29T10:40:13Z</time></trkpt><trkpt lat="45.62334927373285" lon="9.518015768444934"><ele>165.0</ele><time>2026-03-29T10:40:15Z</time></trkpt><trkpt lat="45.62327129868868" lon="9.518061716492666"><ele>165.0</ele><time>2026-03-29T10:40:17Z</time></trkpt><trkpt lat="45.62320684486084" lon="9.518079870107929"><ele>165.0</ele><time>2026-03-29T10:40:19Z</time></trkpt><trkpt lat="45.62315971532013" lon="9.51819707269436"><ele>165.0</ele><time>2026-03-29T10:40:21Z</time></trkpt><trkpt lat="45.62313507352954" lon="9.518309689117386"><ele>165.0</ele><time>2026-03-29T10:40:24Z</time></trkpt><trkpt lat="45.62306671414458" lon="9.518387183759735"><ele>165.0</ele><time>2026-03-29T10:40:28Z</time></trkpt><trkpt lat="45.62299108703596" lon="9.518393155409266"><ele>165.0</ele><time>2026-03-29T10:40:30Z</time></trkpt><trkpt lat="45.622956654085854" lon="9.518489456747146"><ele>165.0</ele><time>2026-03-29T10:40:32Z</time></trkpt><trkpt lat="45.62292573135616" lon="9.518636189760922"><ele>165.0</ele><time>2026-03-29T10:40:34Z</time></trkpt><trkpt lat="45.62287739939022" lon="9.518702288578734"><ele>165.0</ele><time>2026-03-29T10:40:37Z</time></trkpt><trkpt lat="45.62281924492957" lon="9.5187853528627"><ele>165.0</ele><time>2026-03-29T10:40:39Z</time></trkpt><trkpt lat="45.62273317261681" lon="9.518773043319579"><ele>165.0</ele><time>2026-03-29T10:40:41Z</time></trkpt><trkpt lat="45.6226553503231" lon="9.518826706631614"><ele>165.0</ele><time>2026-03-29T10:40:44Z</time></trkpt><trkpt lat="45.62257072891928" lon="9.51887441784847"><ele>165.0</ele><time>2026-03-29T10:40:47Z</time></trkpt><trkpt lat="45.62248610007961" lon="9.518960284155055"><ele>165.0</ele><time>2026-03-29T10:40:50Z</time></trkpt><trkpt lat="45.62236476682854" lon="9.519042194765303"><ele>165.0</ele><time>2026-03-29T10:40:52Z</time></trkpt><trkpt lat="45.622302715115474" lon="9.519103561714878"><ele>165.0</ele><time>2026-03-29T10:40:53Z</time></trkpt><trkpt lat="45.622251555640915" lon="9.519197155769502"><ele>165.0</ele><time>2026-03-29T10:40:54Z</time></trkpt><trkpt lat="45.62218645286691" lon="9.519242337624759"><ele>165.0</ele><time>2026-03-29T10:40:56Z</time></trkpt><trkpt lat="45.62209753871522" lon="9.51931368648538"><ele>165.0</ele><time>2026-03-29T10:40:58Z</time></trkpt><trkpt lat="45.62204658327187" lon="9.519387219204742"><ele>165.0</ele><time>2026-03-29T10:40:59Z</time></trkpt><trkpt lat="45.62198553725431" lon="9.519416358502227"><ele>165.0</ele><time>2026-03-29T10:41:00Z</time></trkpt><trkpt lat="45.62187892980089" lon="9.519468126071027"><ele>165.0</ele><time>2026-03-29T10:41:02Z</time></trkpt><trkpt lat="45.62181558352664" lon="9.519522534302931"><ele>165.0</ele><time>2026-03-29T10:41:03Z</time></trkpt><trkpt lat="45.62175266068591" lon="9.519554215407732"><ele>165.5</ele><time>2026-03-29T10:41:04Z</time></trkpt><trkpt lat="45.62167211579551" lon="9.519607996057823"><ele>166.0</ele><time>2026-03-29T10:41:07Z</time></trkpt><trkpt lat="45.62162698384722" lon="9.519672095539743"><ele>166.5</ele><time>2026-03-29T10:41:09Z</time></trkpt><trkpt lat="45.62155758432969" lon="9.51963794295291"><ele>167.0</ele><time>2026-03-29T10:41:11Z</time></trkpt><trkpt lat="45.62145830933079" lon="9.519688246405035"><ele>167.5</ele><time>2026-03-29T10:41:13Z</time></trkpt><trkpt lat="45.62138437686507" lon="9.51975299016425"><ele>168.0</ele><time>2026-03-29T10:41:15Z</time></trkpt><trkpt lat="45.621299284877956" lon="9.519800129094458"><ele>168.0</ele><time>2026-03-29T10:41:17Z</time></trkpt><trkpt lat="45.62119206606096" lon="9.519863623461037"><ele>168.0</ele><time>2026-03-29T10:41:19Z</time></trkpt><trkpt lat="45.621123753819674" lon="9.519924249085818"><ele>168.0</ele><time>2026-03-29T10:41:21Z</time></trkpt><trkpt lat="45.62107033791032" lon="9.519989361114956"><ele>168.0</ele><time>2026-03-29T10:41:23Z</time></trkpt><trkpt lat="45.62099983549028" lon="9.51999435559653"><ele>168.0</ele><time>2026-03-29T10:41:24Z</time></trkpt><trkpt lat="45.62090881545057" lon="9.520014704573871"><ele>168.0</ele><time>2026-03-29T10:41:25Z</time></trkpt><trkpt lat="45.62081664573243" lon="9.520050422814647"><ele>167.0</ele><time>2026-03-29T10:41:27Z</time></trkpt><trkpt lat="45.62071833481064" lon="9.520057387183561"><ele>166.0</ele><time>2026-03-29T10:41:29Z</time></trkpt><trkpt lat="45.6206281131491" lon="9.52006225775821"><ele>165.0</ele><time>2026-03-29T10:41:31Z</time></trkpt><trkpt lat="45.620510692395726" lon="9.520089960609564"><ele>164.0</ele><time>2026-03-29T10:41:33Z</time></trkpt><trkpt lat="45.620434182429655" lon="9.520103271187281"><ele>163.0</ele><time>2026-03-29T10:41:34Z</time></trkpt><trkpt lat="45.62029974840612" lon="9.520086797942234"><ele>160.8</ele><time>2026-03-29T10:41:36Z</time></trkpt><trkpt lat="45.62020828712676" lon="9.520107990568448"><ele>158.60000000000002</ele><time>2026-03-29T10:41:38Z</time></trkpt><trkpt lat="45.6201039453212" lon="9.520114142704918"><ele>156.39999999999998</ele><time>2026-03-29T10:41:40Z</time></trkpt><trkpt lat="45.620002938682205" lon="9.520180354263447"><ele>154.2</ele><time>2026-03-29T10:41:42Z</time></trkpt><trkpt lat="45.619940367804745" lon="9.520256781467435"><ele>152.0</ele><time>2026-03-29T10:41:44Z</time></trkpt><trkpt lat="45.619854907194764" lon="9.520254799536858"><ele>152.0</ele><time>2026-03-29T10:41:46Z</time></trkpt><trkpt lat="45.6197369648925" lon="9.52027691845992"><ele>152.0</ele><time>2026-03-29T10:41:48Z</time></trkpt><trkpt lat="45.61966975988487" lon="9.520313841669294"><ele>152.0</ele><time>2026-03-29T10:41:49Z</time></trkpt><trkpt lat="45.6195691184324" lon="9.520322713390113"><ele>152.0</ele><time>2026-03-29T10:41:51Z</time></trkpt><trkpt lat="45.619493067540006" lon="9.520302813489206"><ele>152.0</ele><time>2026-03-29T10:41:52Z</time></trkpt><trkpt lat="45.61938107345102" lon="9.52032924992113"><ele>152.6</ele><time>2026-03-29T10:41:54Z</time></trkpt><trkpt lat="45.619318732124526" lon="9.520348192831431"><ele>153.2</ele><time>2026-03-29T10:41:55Z</time></trkpt><trkpt lat="45.61922873199168" lon="9.520354603785348"><ele>153.8</ele><time>2026-03-29T10:41:57Z</time></trkpt><trkpt lat="45.61911995489565" lon="9.52035654075705"><ele>154.4</ele><time>2026-03-29T10:41:59Z</time></trkpt><trkpt lat="45.619014466651784" lon="9.520410381078525"><ele>155.0</ele><time>2026-03-29T10:42:01Z</time></trkpt><trkpt lat="45.61888951336344" lon="9.52043805681176"><ele>155.8</ele><time>2026-03-29T10:42:03Z</time></trkpt><trkpt lat="45.61876873714621" lon="9.520422593962072"><ele>156.6</ele><time>2026-03-29T10:42:05Z</time></trkpt><trkpt lat="45.61865801867409" lon="9.520443080749905"><ele>157.4</ele><time>2026-03-29T10:42:07Z</time></trkpt><trkpt lat="45.61856910305723" lon="9.520498531411214"><ele>158.2</ele><time>2026-03-29T10:42:09Z</time></trkpt><trkpt lat="45.61849306819312" lon="9.520561319986166"><ele>159.0</ele><time>2026-03-29T10:42:11Z</time></trkpt><trkpt lat="45.61840390940675" lon="9.52065268517259"><ele>159.0</ele><time>2026-03-29T10:42:13Z</time></trkpt><trkpt lat="45.618307199305484" lon="9.520686137465903"><ele>159.0</ele><time>2026-03-29T10:42:15Z</time></trkpt><trkpt lat="45.618225001989025" lon="9.52074292425086"><ele>159.0</ele><time>2026-03-29T10:42:17Z</time></trkpt><trkpt lat="45.618160999025996" lon="9.520786837494208"><ele>159.0</ele><time>2026-03-29T10:42:19Z</time></trkpt><trkpt lat="45.618100835069555" lon="9.520841306830471"><ele>159.0</ele><time>2026-03-29T10:42:23Z</time></trkpt><trkpt lat="45.61803434620201" lon="9.520870339275785"><ele>159.0</ele><time>2026-03-29T10:42:25Z</time></trkpt><trkpt lat="45.61796307149286" lon="9.520913832824636"><ele>159.0</ele><time>2026-03-29T10:42:28Z</time></trkpt><trkpt lat="45.61794641944391" lon="9.521024045057533"><ele>159.0</ele><time>2026-03-29T10:42:30Z</time></trkpt><trkpt lat="45.61798074342507" lon="9.521148102142186"><ele>159.0</ele><time>2026-03-29T10:42:33Z</time></trkpt><trkpt lat="45.61799266290752" lon="9.521252855970197"><ele>159.0</ele><time>2026-03-29T10:42:36Z</time></trkpt><trkpt lat="45.61801088677121" lon="9.521357454315039"><ele>159.0</ele><time>2026-03-29T10:42:38Z</time></trkpt><trkpt lat="45.6180030797976" lon="9.521462072464"><ele>159.0</ele><time>2026-03-29T10:42:40Z</time></trkpt><trkpt lat="45.618007983804326" lon="9.521557051911634"><ele>158.7142857142857</ele><time>2026-03-29T10:42:42Z</time></trkpt><trkpt lat="45.61800287668848" lon="9.521648002442406"><ele>158.42857142857144</ele><time>2026-03-29T10:42:52Z</time></trkpt><trkpt lat="45.61798178400638" lon="9.521740085082827"><ele>158.14285714285714</ele><time>2026-03-29T10:43:01Z</time></trkpt><trkpt lat="45.61793604207554" lon="9.521807621385669"><ele>157.85714285714283</ele><time>2026-03-29T10:43:04Z</time></trkpt><trkpt lat="45.617875856363824" lon="9.521880826575646"><ele>157.57142857142856</ele><time>2026-03-29T10:43:07Z</time></trkpt><trkpt lat="45.61780933871959" lon="9.521964156320484"><ele>157.28571428571428</ele><time>2026-03-29T10:43:10Z</time></trkpt><trkpt lat="45.617762487231985" lon="9.522031495759382"><ele>157.0</ele><time>2026-03-29T10:43:12Z</time></trkpt><trkpt lat="45.61768479669324" lon="9.522107950417"><ele>159.16666666666669</ele><time>2026-03-29T10:43:15Z</time></trkpt><trkpt lat="45.61760541955979" lon="9.52218082091319"><ele>161.33333333333334</ele><time>2026-03-29T10:43:18Z</time></trkpt><trkpt lat="45.61755070248328" lon="9.522238018699609"><ele>163.5</ele><time>2026-03-29T10:43:20Z</time></trkpt><trkpt lat="45.61748883134394" lon="9.522310305648249"><ele>165.66666666666666</ele><time>2026-03-29T10:43:23Z</time></trkpt><trkpt lat="45.61744690052182" lon="9.52238042916149"><ele>167.83333333333331</ele><time>2026-03-29T10:43:25Z</time></trkpt><trkpt lat="45.61737232773439" lon="9.52244535224209"><ele>170.0</ele><time>2026-03-29T10:43:28Z</time></trkpt><trkpt lat="45.617293778804274" lon="9.522515066558341"><ele>170.0</ele><time>2026-03-29T10:43:31Z</time></trkpt><trkpt lat="45.617222566892124" lon="9.522570284088417"><ele>170.0</ele><time>2026-03-29T10:43:34Z</time></trkpt><trkpt lat="45.617142261877824" lon="9.5226313054201"><ele>170.0</ele><time>2026-03-29T10:43:37Z</time></trkpt><trkpt lat="45.61707922577296" lon="9.522693288412912"><ele>170.0</ele><time>2026-03-29T10:43:40Z</time></trkpt><trkpt lat="45.61702591382387" lon="9.52274808581581"><ele>170.0</ele><time>2026-03-29T10:43:42Z</time></trkpt><trkpt lat="45.616969224509035" lon="9.522811390121477"><ele>170.0</ele><time>2026-03-29T10:43:44Z</time></trkpt><trkpt lat="45.616923164144175" lon="9.52288555666469"><ele>171.16666666666666</ele><time>2026-03-29T10:43:46Z</time></trkpt><trkpt lat="45.616862676529834" lon="9.522972548336003"><ele>172.33333333333331</ele><time>2026-03-29T10:43:49Z</time></trkpt><trkpt lat="45.61681810912371" lon="9.523046536516942"><ele>173.5</ele><time>2026-03-29T10:43:51Z</time></trkpt><trkpt lat="45.616773053518216" lon="9.52312977298379"><ele>174.66666666666666</ele><time>2026-03-29T10:43:53Z</time></trkpt><trkpt lat="45.61672389139716" lon="9.523209231034274"><ele>175.83333333333334</ele><time>2026-03-29T10:43:55Z</time></trkpt><trkpt lat="45.61664292246031" lon="9.523260886807961"><ele>177.0</ele><time>2026-03-29T10:43:58Z</time></trkpt><trkpt lat="45.61660134264101" lon="9.523331750911355"><ele>177.0</ele><time>2026-03-29T10:44:00Z</time></trkpt><trkpt lat="45.61654149455556" lon="9.523392990997731"><ele>177.0</ele><time>2026-03-29T10:44:03Z</time></trkpt><trkpt lat="45.61646525665283" lon="9.523463305087631"><ele>177.0</ele><time>2026-03-29T10:44:06Z</time></trkpt><trkpt lat="45.61640029938612" lon="9.523550918428457"><ele>177.0</ele><time>2026-03-29T10:44:08Z</time></trkpt><trkpt lat="45.61637410544738" lon="9.523684647618325"><ele>177.0</ele><time>2026-03-29T10:44:10Z</time></trkpt><trkpt lat="45.61635007687277" lon="9.523778009562008"><ele>177.0</ele><time>2026-03-29T10:44:12Z</time></trkpt><trkpt lat="45.61633790240083" lon="9.52386727620759"><ele>179.16666666666666</ele><time>2026-03-29T10:44:14Z</time></trkpt><trkpt lat="45.616382677899935" lon="9.523936362960116"><ele>181.33333333333334</ele><time>2026-03-29T10:44:17Z</time></trkpt><trkpt lat="45.61645782868839" lon="9.524021703675151"><ele>183.5</ele><time>2026-03-29T10:44:20Z</time></trkpt><trkpt lat="45.61652917809148" lon="9.524080257425307"><ele>185.66666666666669</ele><time>2026-03-29T10:44:23Z</time></trkpt><trkpt lat="45.6165836976021" lon="9.524136647254045"><ele>187.83333333333334</ele><time>2026-03-29T10:44:25Z</time></trkpt><trkpt lat="45.616632555280894" lon="9.52420670903793"><ele>190.0</ele><time>2026-03-29T10:44:28Z</time></trkpt><trkpt lat="45.61670605720488" lon="9.524168518414843"><ele>190.0</ele><time>2026-03-29T10:44:30Z</time></trkpt><trkpt lat="45.616829019489494" lon="9.524277655019658"><ele>190.0</ele><time>2026-03-29T10:44:37Z</time></trkpt><trkpt lat="45.61677374991337" lon="9.524339584941567"><ele>190.0</ele><time>2026-03-29T10:44:39Z</time></trkpt><trkpt lat="45.61670854296726" lon="9.524344150813658"><ele>190.0</ele><time>2026-03-29T10:44:41Z</time></trkpt><trkpt lat="45.61658311704285" lon="9.52445231710947"><ele>190.0</ele><time>2026-03-29T10:44:45Z</time></trkpt><trkpt lat="45.61652488359588" lon="9.52453934907479"><ele>190.0</ele><time>2026-03-29T10:44:47Z</time></trkpt><trkpt lat="45.61644035572466" lon="9.52466270788448"><ele>190.0</ele><time>2026-03-29T10:44:49Z</time></trkpt><trkpt lat="45.6163593193176" lon="9.524754738926568"><ele>190.0</ele><time>2026-03-29T10:44:51Z</time></trkpt><trkpt lat="45.61626097544392" lon="9.524805477843747"><ele>190.0</ele><time>2026-03-29T10:44:53Z</time></trkpt><trkpt lat="45.616184225177285" lon="9.524773672804114"><ele>190.0</ele><time>2026-03-29T10:44:54Z</time></trkpt><trkpt lat="45.61607413246794" lon="9.524839936978013"><ele>190.0</ele><time>2026-03-29T10:44:56Z</time></trkpt><trkpt lat="45.61596377328136" lon="9.524831227316033"><ele>190.0</ele><time>2026-03-29T10:44:58Z</time></trkpt><trkpt lat="45.615851424080326" lon="9.52485359351388"><ele>190.0</ele><time>2026-03-29T10:45:00Z</time></trkpt><trkpt lat="45.61564659873665" lon="9.524917959886928"><ele>190.0</ele><time>2026-03-29T10:45:06Z</time></trkpt><trkpt lat="45.615568292759185" lon="9.52492409955222"><ele>190.0</ele><time>2026-03-29T10:45:07Z</time></trkpt><trkpt lat="45.61551107285179" lon="9.524963282867697"><ele>190.0</ele><time>2026-03-29T10:45:08Z</time></trkpt><trkpt lat="45.61544347398903" lon="9.525086911685746"><ele>190.0</ele><time>2026-03-29T10:45:10Z</time></trkpt><trkpt lat="45.615368070380505" lon="9.525152135435249"><ele>190.0</ele><time>2026-03-29T10:45:12Z</time></trkpt><trkpt lat="45.61526406761172" lon="9.525165251225701"><ele>190.0</ele><time>2026-03-29T10:45:14Z</time></trkpt><trkpt lat="45.61519666186069" lon="9.525307958110474"><ele>190.0</ele><time>2026-03-29T10:45:16Z</time></trkpt><trkpt lat="45.615189141487235" lon="9.525403427387486"><ele>190.0</ele><time>2026-03-29T10:45:17Z</time></trkpt><trkpt lat="45.61514479103483" lon="9.525537641119566"><ele>190.0</ele><time>2026-03-29T10:45:19Z</time></trkpt><trkpt lat="45.615032386273285" lon="9.525624380453548"><ele>190.0</ele><time>2026-03-29T10:45:21Z</time></trkpt><trkpt lat="45.61491547431441" lon="9.525677398686422"><ele>190.0</ele><time>2026-03-29T10:45:23Z</time></trkpt><trkpt lat="45.614832274680886" lon="9.525676854637847"><ele>190.0</ele><time>2026-03-29T10:45:24Z</time></trkpt><trkpt lat="45.614780595165215" lon="9.52573345800089"><ele>190.0</ele><time>2026-03-29T10:45:25Z</time></trkpt><trkpt lat="45.61467862817287" lon="9.525821671235281"><ele>190.0</ele><time>2026-03-29T10:45:27Z</time></trkpt><trkpt lat="45.61459361980157" lon="9.525919636510642"><ele>190.0</ele><time>2026-03-29T10:45:29Z</time></trkpt><trkpt lat="45.61452551826427" lon="9.526022013868548"><ele>190.0</ele><time>2026-03-29T10:45:31Z</time></trkpt><trkpt lat="45.61445801204404" lon="9.526123497147688"><ele>189.8</ele><time>2026-03-29T10:45:33Z</time></trkpt><trkpt lat="45.61438008671327" lon="9.52622011071103"><ele>189.6</ele><time>2026-03-29T10:45:35Z</time></trkpt><trkpt lat="45.614304292466485" lon="9.526325473340577"><ele>189.39999999999998</ele><time>2026-03-29T10:45:37Z</time></trkpt><trkpt lat="45.61423265098718" lon="9.526405754549048"><ele>189.2</ele><time>2026-03-29T10:45:39Z</time></trkpt><trkpt lat="45.61415259537298" lon="9.526500487094067"><ele>189.0</ele><time>2026-03-29T10:45:41Z</time></trkpt><trkpt lat="45.6141011435017" lon="9.526600126201059"><ele>189.0</ele><time>2026-03-29T10:45:43Z</time></trkpt><trkpt lat="45.61402053866679" lon="9.526695953249359"><ele>189.0</ele><time>2026-03-29T10:45:45Z</time></trkpt><trkpt lat="45.613930976897805" lon="9.526806961268303"><ele>189.0</ele><time>2026-03-29T10:45:47Z</time></trkpt><trkpt lat="45.6138585274295" lon="9.52693426929928"><ele>189.0</ele><time>2026-03-29T10:45:49Z</time></trkpt><trkpt lat="45.6137436963332" lon="9.527024196395127"><ele>189.0</ele><time>2026-03-29T10:45:51Z</time></trkpt><trkpt lat="45.61368768340248" lon="9.52707333942032"><ele>189.0</ele><time>2026-03-29T10:45:52Z</time></trkpt><trkpt lat="45.61364536941153" lon="9.527242216694342"><ele>189.0</ele><time>2026-03-29T10:45:54Z</time></trkpt><trkpt lat="45.6135627630725" lon="9.527356747660987"><ele>189.0</ele><time>2026-03-29T10:45:56Z</time></trkpt><trkpt lat="45.61347330738831" lon="9.527465940005811"><ele>189.0</ele><time>2026-03-29T10:45:58Z</time></trkpt><trkpt lat="45.6133850469115" lon="9.52756174020226"><ele>189.0</ele><time>2026-03-29T10:46:00Z</time></trkpt><trkpt lat="45.61332234375317" lon="9.527676306146576"><ele>189.0</ele><time>2026-03-29T10:46:02Z</time></trkpt><trkpt lat="45.61328310487064" lon="9.52780593158577"><ele>189.0</ele><time>2026-03-29T10:46:04Z</time></trkpt><trkpt lat="45.61322443603494" lon="9.527938527651685"><ele>189.0</ele><time>2026-03-29T10:46:06Z</time></trkpt><trkpt lat="45.613158717188014" lon="9.527978737718708"><ele>189.0</ele><time>2026-03-29T10:46:07Z</time></trkpt><trkpt lat="45.61307190840799" lon="9.528084463929778"><ele>189.0</ele><time>2026-03-29T10:46:09Z</time></trkpt><trkpt lat="45.61298565250618" lon="9.52820189370986"><ele>189.0</ele><time>2026-03-29T10:46:11Z</time></trkpt><trkpt lat="45.612930890122186" lon="9.528252899106379"><ele>189.0</ele><time>2026-03-29T10:46:12Z</time></trkpt><trkpt lat="45.612853807049646" lon="9.52837981085707"><ele>189.0</ele><time>2026-03-29T10:46:14Z</time></trkpt><trkpt lat="45.61277945312499" lon="9.528514552234284"><ele>189.0</ele><time>2026-03-29T10:46:16Z</time></trkpt><trkpt lat="45.61269958361177" lon="9.528632141242094"><ele>188.75</ele><time>2026-03-29T10:46:18Z</time></trkpt><trkpt lat="45.612625238017536" lon="9.528761625996797"><ele>188.5</ele><time>2026-03-29T10:46:20Z</time></trkpt><trkpt lat="45.612534283435565" lon="9.528872155323931"><ele>188.25</ele><time>2026-03-29T10:46:22Z</time></trkpt><trkpt lat="45.61245008256977" lon="9.528997263989709"><ele>188.0</ele><time>2026-03-29T10:46:24Z</time></trkpt><trkpt lat="45.61236503280336" lon="9.52911288219663"><ele>188.0</ele><time>2026-03-29T10:46:26Z</time></trkpt><trkpt lat="45.61228257340187" lon="9.529240667598033"><ele>188.0</ele><time>2026-03-29T10:46:28Z</time></trkpt><trkpt lat="45.612203013981336" lon="9.529361024235852"><ele>188.0</ele><time>2026-03-29T10:46:30Z</time></trkpt><trkpt lat="45.61212385912585" lon="9.529483543807883"><ele>188.0</ele><time>2026-03-29T10:46:32Z</time></trkpt><trkpt lat="45.61204950521742" lon="9.52959201579173"><ele>187.5</ele><time>2026-03-29T10:46:34Z</time></trkpt><trkpt lat="45.611941401673285" lon="9.529697156054924"><ele>187.0</ele><time>2026-03-29T10:46:36Z</time></trkpt><trkpt lat="45.61185503727635" lon="9.529799341579158"><ele>186.5</ele><time>2026-03-29T10:46:38Z</time></trkpt><trkpt lat="45.61178457759608" lon="9.529923480848346"><ele>186.0</ele><time>2026-03-29T10:46:40Z</time></trkpt><trkpt lat="45.611701074155626" lon="9.530037904757396"><ele>186.0</ele><time>2026-03-29T10:46:42Z</time></trkpt><trkpt lat="45.61160712165161" lon="9.530138247326544"><ele>186.0</ele><time>2026-03-29T10:46:44Z</time></trkpt><trkpt lat="45.61153265436246" lon="9.53027108132714"><ele>186.0</ele><time>2026-03-29T10:46:46Z</time></trkpt><trkpt lat="45.61144929321878" lon="9.530399765654138"><ele>186.0</ele><time>2026-03-29T10:46:48Z</time></trkpt><trkpt lat="45.611355983135006" lon="9.530516723923489"><ele>186.0</ele><time>2026-03-29T10:46:50Z</time></trkpt><trkpt lat="45.61126894741417" lon="9.530633158187907"><ele>186.0</ele><time>2026-03-29T10:46:52Z</time></trkpt><trkpt lat="45.61123373658883" lon="9.530714885555426"><ele>186.0</ele><time>2026-03-29T10:46:53Z</time></trkpt><trkpt lat="45.61115320957393" lon="9.530832472226907"><ele>186.0</ele><time>2026-03-29T10:46:55Z</time></trkpt><trkpt lat="45.6110776728868" lon="9.530942771960245"><ele>186.0</ele><time>2026-03-29T10:46:57Z</time></trkpt><trkpt lat="45.61099714301124" lon="9.531058922106906"><ele>186.0</ele><time>2026-03-29T10:46:59Z</time></trkpt><trkpt lat="45.61091687919615" lon="9.531172981205142"><ele>186.0</ele><time>2026-03-29T10:47:01Z</time></trkpt><trkpt lat="45.610837454062114" lon="9.5312901172748"><ele>186.0</ele><time>2026-03-29T10:47:03Z</time></trkpt><trkpt lat="45.61077236478718" lon="9.531384015964932"><ele>186.0</ele><time>2026-03-29T10:47:05Z</time></trkpt><trkpt lat="45.610710629313964" lon="9.53147043093772"><ele>186.0</ele><time>2026-03-29T10:47:07Z</time></trkpt><trkpt lat="45.61064372975742" lon="9.531583230210787"><ele>186.33333333333334</ele><time>2026-03-29T10:47:09Z</time></trkpt><trkpt lat="45.610641796120206" lon="9.531702307078836"><ele>186.66666666666666</ele><time>2026-03-29T10:47:11Z</time></trkpt><trkpt lat="45.61068743155444" lon="9.531833303327552"><ele>187.0</ele><time>2026-03-29T10:47:13Z</time></trkpt><trkpt lat="45.61070899379921" lon="9.53192752223783"><ele>187.33333333333331</ele><time>2026-03-29T10:47:14Z</time></trkpt><trkpt lat="45.610726202787994" lon="9.53201480876551"><ele>187.66666666666666</ele><time>2026-03-29T10:47:15Z</time></trkpt><trkpt lat="45.61074237792082" lon="9.53218045495255"><ele>188.0</ele><time>2026-03-29T10:47:17Z</time></trkpt><trkpt lat="45.610766640473535" lon="9.532346682409596"><ele>188.0</ele><time>2026-03-29T10:47:19Z</time></trkpt><trkpt lat="45.61078730115928" lon="9.53250042926674"><ele>188.0</ele><time>2026-03-29T10:47:21Z</time></trkpt><trkpt lat="45.61081102755196" lon="9.532589904539"><ele>188.0</ele><time>2026-03-29T10:47:22Z</time></trkpt><trkpt lat="45.61083419140125" lon="9.532749350756248"><ele>188.0</ele><time>2026-03-29T10:47:24Z</time></trkpt><trkpt lat="45.61085321812369" lon="9.532914748425348"><ele>188.0</ele><time>2026-03-29T10:47:26Z</time></trkpt><trkpt lat="45.61087401615076" lon="9.533072685613265"><ele>187.8</ele><time>2026-03-29T10:47:28Z</time></trkpt><trkpt lat="45.61090363033319" lon="9.533216862815744"><ele>187.60000000000002</ele><time>2026-03-29T10:47:30Z</time></trkpt><trkpt lat="45.610934321478396" lon="9.533364562783127"><ele>187.39999999999998</ele><time>2026-03-29T10:47:32Z</time></trkpt><trkpt lat="45.610966341059346" lon="9.533519844077233"><ele>187.2</ele><time>2026-03-29T10:47:34Z</time></trkpt><trkpt lat="45.61101222000485" lon="9.533669025358966"><ele>187.0</ele><time>2026-03-29T10:47:36Z</time></trkpt><trkpt lat="45.61107481081917" lon="9.53381022800993"><ele>187.0</ele><time>2026-03-29T10:47:38Z</time></trkpt><trkpt lat="45.61114036176549" lon="9.533944946110005"><ele>187.0</ele><time>2026-03-29T10:47:40Z</time></trkpt><trkpt lat="45.61120580247065" lon="9.534084251664561"><ele>187.0</ele><time>2026-03-29T10:47:42Z</time></trkpt><trkpt lat="45.61126053842208" lon="9.534217207643016"><ele>187.0</ele><time>2026-03-29T10:47:44Z</time></trkpt><trkpt lat="45.61126595199093" lon="9.53435550165262"><ele>187.0</ele><time>2026-03-29T10:47:46Z</time></trkpt><trkpt lat="45.611311247675815" lon="9.534725685269413"><ele>186.83333333333334</ele><time>2026-03-29T10:47:52Z</time></trkpt><trkpt lat="45.61132770628085" lon="9.53482639945242"><ele>186.66666666666669</ele><time>2026-03-29T10:47:53Z</time></trkpt><trkpt lat="45.61134783200185" lon="9.53491525807148"><ele>186.5</ele><time>2026-03-29T10:47:54Z</time></trkpt><trkpt lat="45.61136188950289" lon="9.535004061907344"><ele>186.33333333333334</ele><time>2026-03-29T10:47:55Z</time></trkpt><trkpt lat="45.61138396482989" lon="9.535172257537214"><ele>186.16666666666666</ele><time>2026-03-29T10:47:57Z</time></trkpt><trkpt lat="45.611408062176835" lon="9.535260946195265"><ele>186.0</ele><time>2026-03-29T10:47:58Z</time></trkpt><trkpt lat="45.611456732388156" lon="9.535423880938751"><ele>186.0</ele><time>2026-03-29T10:48:00Z</time></trkpt><trkpt lat="45.61149637913108" lon="9.535567855422205"><ele>186.0</ele><time>2026-03-29T10:48:02Z</time></trkpt><trkpt lat="45.611545442606804" lon="9.535727486906051"><ele>186.0</ele><time>2026-03-29T10:48:04Z</time></trkpt><trkpt lat="45.611568681812024" lon="9.535815408386979"><ele>186.0</ele><time>2026-03-29T10:48:07Z</time></trkpt><trkpt lat="45.61160865839797" lon="9.535927817707124"><ele>186.0</ele><time>2026-03-29T10:48:10Z</time></trkpt><trkpt lat="45.61166845106551" lon="9.536045742413666"><ele>186.0</ele><time>2026-03-29T10:48:12Z</time></trkpt><trkpt lat="45.611733287487354" lon="9.536135347301151"><ele>186.0</ele><time>2026-03-29T10:48:15Z</time></trkpt><trkpt lat="45.61180233240142" lon="9.536228820818414"><ele>186.0</ele><time>2026-03-29T10:48:17Z</time></trkpt><trkpt lat="45.611861850500624" lon="9.536309576341678"><ele>186.0</ele><time>2026-03-29T10:48:21Z</time></trkpt><trkpt lat="45.61194177111718" lon="9.53634058911339"><ele>186.0</ele><time>2026-03-29T10:48:24Z</time></trkpt><trkpt lat="45.61196304241255" lon="9.536450437431302"><ele>186.0</ele><time>2026-03-29T10:48:27Z</time></trkpt><trkpt lat="45.61199256459254" lon="9.536582297763161"><ele>185.8</ele><time>2026-03-29T10:48:31Z</time></trkpt><trkpt lat="45.61194535959466" lon="9.536740288337272"><ele>185.60000000000002</ele><time>2026-03-29T10:48:33Z</time></trkpt><trkpt lat="45.61190970979144" lon="9.536950230742503"><ele>185.4</ele><time>2026-03-29T10:48:35Z</time></trkpt><trkpt lat="45.61185848165186" lon="9.537010146303155"><ele>185.2</ele><time>2026-03-29T10:48:36Z</time></trkpt><trkpt lat="45.61178745769607" lon="9.537067851029015"><ele>185.0</ele><time>2026-03-29T10:48:38Z</time></trkpt><trkpt lat="45.61174452987" lon="9.537213782591762"><ele>184.8</ele><time>2026-03-29T10:48:40Z</time></trkpt><trkpt lat="45.61170392489" lon="9.537297533021952"><ele>184.6</ele><time>2026-03-29T10:48:41Z</time></trkpt><trkpt lat="45.61166844390392" lon="9.53745118648998"><ele>184.39999999999998</ele><time>2026-03-29T10:48:43Z</time></trkpt><trkpt lat="45.61159094202738" lon="9.537567110702199"><ele>184.2</ele><time>2026-03-29T10:48:45Z</time></trkpt><trkpt lat="45.61152985702876" lon="9.537674912794381"><ele>184.0</ele><time>2026-03-29T10:48:47Z</time></trkpt><trkpt lat="45.61154869907322" lon="9.537822295859637"><ele>184.33333333333334</ele><time>2026-03-29T10:48:49Z</time></trkpt><trkpt lat="45.611565800874935" lon="9.53797659643307"><ele>184.66666666666666</ele><time>2026-03-29T10:48:50Z</time></trkpt><trkpt lat="45.61159560303264" lon="9.538286923168775"><ele>185.0</ele><time>2026-03-29T10:48:52Z</time></trkpt><trkpt lat="45.61147647769001" lon="9.538217595749511"><ele>185.0</ele><time>2026-03-29T10:48:54Z</time></trkpt><trkpt lat="45.611408015579194" lon="9.538300478498085"><ele>185.0</ele><time>2026-03-29T10:48:56Z</time></trkpt><trkpt lat="45.61133173787819" lon="9.538378599869192"><ele>185.0</ele><time>2026-03-29T10:48:58Z</time></trkpt><trkpt lat="45.61122987323618" lon="9.538446608324078"><ele>185.0</ele><time>2026-03-29T10:49:00Z</time></trkpt><trkpt lat="45.61112145309213" lon="9.538516675519686"><ele>185.0</ele><time>2026-03-29T10:49:02Z</time></trkpt><trkpt lat="45.61101106421881" lon="9.5385808181442"><ele>184.75</ele><time>2026-03-29T10:49:04Z</time></trkpt><trkpt lat="45.61090177336752" lon="9.538620998848561"><ele>184.5</ele><time>2026-03-29T10:49:06Z</time></trkpt><trkpt lat="45.610785389414524" lon="9.538664149118148"><ele>184.25</ele><time>2026-03-29T10:49:08Z</time></trkpt><trkpt lat="45.61067425926817" lon="9.538682690444993"><ele>184.0</ele><time>2026-03-29T10:49:10Z</time></trkpt><trkpt lat="45.610556373139204" lon="9.538698534706638"><ele>184.0</ele><time>2026-03-29T10:49:12Z</time></trkpt><trkpt lat="45.61044585035824" lon="9.538684846659807"><ele>184.0</ele><time>2026-03-29T10:49:14Z</time></trkpt><trkpt lat="45.61038774413896" lon="9.53864294446599"><ele>184.0</ele><time>2026-03-29T10:49:15Z</time></trkpt><trkpt lat="45.610278195529354" lon="9.53861165137225"><ele>184.0</ele><time>2026-03-29T10:49:17Z</time></trkpt><trkpt lat="45.6101622793961" lon="9.538596173168122"><ele>184.0</ele><time>2026-03-29T10:49:19Z</time></trkpt><trkpt lat="45.61004219585443" lon="9.538571286656232"><ele>184.0</ele><time>2026-03-29T10:49:21Z</time></trkpt><trkpt lat="45.60993495883115" lon="9.538561522820066"><ele>184.0</ele><time>2026-03-29T10:49:23Z</time></trkpt><trkpt lat="45.60982586487012" lon="9.53852326287904"><ele>184.0</ele><time>2026-03-29T10:49:25Z</time></trkpt><trkpt lat="45.60972977727596" lon="9.538466535774992"><ele>184.0</ele><time>2026-03-29T10:49:27Z</time></trkpt><trkpt lat="45.609624697632135" lon="9.53840038159076"><ele>184.0</ele><time>2026-03-29T10:49:29Z</time></trkpt><trkpt lat="45.60951767086468" lon="9.538345289127546"><ele>184.2</ele><time>2026-03-29T10:49:31Z</time></trkpt><trkpt lat="45.60940801718806" lon="9.53826833596249"><ele>184.39999999999998</ele><time>2026-03-29T10:49:33Z</time></trkpt><trkpt lat="45.609314340798115" lon="9.538217426900077"><ele>184.6</ele><time>2026-03-29T10:49:35Z</time></trkpt><trkpt lat="45.6092123000764" lon="9.538194374187913"><ele>184.8</ele><time>2026-03-29T10:49:37Z</time></trkpt><trkpt lat="45.609172939706546" lon="9.53808585573377"><ele>185.0</ele><time>2026-03-29T10:49:38Z</time></trkpt><trkpt lat="45.60909361979402" lon="9.537964480760193"><ele>185.0</ele><time>2026-03-29T10:49:40Z</time></trkpt><trkpt lat="45.60897964465556" lon="9.537903951775577"><ele>185.0</ele><time>2026-03-29T10:49:42Z</time></trkpt><trkpt lat="45.60891516332868" lon="9.537909268589527"><ele>185.0</ele><time>2026-03-29T10:49:43Z</time></trkpt><trkpt lat="45.608849617001134" lon="9.537911374586374"><ele>185.0</ele><time>2026-03-29T10:49:44Z</time></trkpt><trkpt lat="45.60878696162554" lon="9.537975400231893"><ele>185.0</ele><time>2026-03-29T10:49:45Z</time></trkpt><trkpt lat="45.60873740999241" lon="9.538062634825222"><ele>185.0</ele><time>2026-03-29T10:49:46Z</time></trkpt><trkpt lat="45.60870062238083" lon="9.538178439680841"><ele>185.0</ele><time>2026-03-29T10:49:47Z</time></trkpt><trkpt lat="45.608677683751026" lon="9.538285789798694"><ele>185.0</ele><time>2026-03-29T10:49:48Z</time></trkpt><trkpt lat="45.608664254073794" lon="9.538391115746137"><ele>185.0</ele><time>2026-03-29T10:49:49Z</time></trkpt><trkpt lat="45.60856060533435" lon="9.538507165142825"><ele>185.0</ele><time>2026-03-29T10:49:51Z</time></trkpt><trkpt lat="45.60852419228701" lon="9.538582219263196"><ele>185.0</ele><time>2026-03-29T10:49:52Z</time></trkpt><trkpt lat="45.608472883561994" lon="9.53864458314109"><ele>185.0</ele><time>2026-03-29T10:49:53Z</time></trkpt><trkpt lat="45.608423827520305" lon="9.53870211815834"><ele>184.4</ele><time>2026-03-29T10:49:54Z</time></trkpt><trkpt lat="45.60837353852869" lon="9.538761363150707"><ele>183.8</ele><time>2026-03-29T10:49:55Z</time></trkpt><trkpt lat="45.60827805614363" lon="9.538877064505636"><ele>183.2</ele><time>2026-03-29T10:49:57Z</time></trkpt><trkpt lat="45.60822725422557" lon="9.538938295358125"><ele>182.6</ele><time>2026-03-29T10:49:58Z</time></trkpt><trkpt lat="45.60813680788996" lon="9.53904452220438"><ele>182.0</ele><time>2026-03-29T10:50:00Z</time></trkpt><trkpt lat="45.608042681704305" lon="9.539140115018572"><ele>182.0</ele><time>2026-03-29T10:50:02Z</time></trkpt><trkpt lat="45.60796785550264" lon="9.539263825500168"><ele>182.0</ele><time>2026-03-29T10:50:04Z</time></trkpt><trkpt lat="45.607900874966994" lon="9.539401538991209"><ele>182.0</ele><time>2026-03-29T10:50:06Z</time></trkpt><trkpt lat="45.607851528424625" lon="9.539559698142227"><ele>182.0</ele><time>2026-03-29T10:50:08Z</time></trkpt><trkpt lat="45.60781529239088" lon="9.53971788412972"><ele>182.0</ele><time>2026-03-29T10:50:10Z</time></trkpt><trkpt lat="45.60779373060467" lon="9.539806131098013"><ele>182.0</ele><time>2026-03-29T10:50:11Z</time></trkpt><trkpt lat="45.60778421348214" lon="9.53990522889058"><ele>182.0</ele><time>2026-03-29T10:50:12Z</time></trkpt><trkpt lat="45.60777804009832" lon="9.540003957090628"><ele>182.0</ele><time>2026-03-29T10:50:13Z</time></trkpt><trkpt lat="45.60777626923443" lon="9.540099341038497"><ele>182.0</ele><time>2026-03-29T10:50:14Z</time></trkpt><trkpt lat="45.60777567262539" lon="9.540208624955289"><ele>182.0</ele><time>2026-03-29T10:50:15Z</time></trkpt><trkpt lat="45.60778301463848" lon="9.540316612133775"><ele>182.0</ele><time>2026-03-29T10:50:16Z</time></trkpt><trkpt lat="45.60780077146354" lon="9.540432092950027"><ele>181.5</ele><time>2026-03-29T10:50:17Z</time></trkpt><trkpt lat="45.60782270592587" lon="9.540547104681"><ele>181.0</ele><time>2026-03-29T10:50:18Z</time></trkpt><trkpt lat="45.60785070329095" lon="9.540653090562644"><ele>180.5</ele><time>2026-03-29T10:50:19Z</time></trkpt><trkpt lat="45.60788445383307" lon="9.540760676225245"><ele>180.0</ele><time>2026-03-29T10:50:20Z</time></trkpt><trkpt lat="45.60792181907298" lon="9.54086866379081"><ele>179.5</ele><time>2026-03-29T10:50:21Z</time></trkpt><trkpt lat="45.6079739320756" lon="9.540972949004873"><ele>179.0</ele><time>2026-03-29T10:50:22Z</time></trkpt><trkpt lat="45.60801856012379" lon="9.541080234630833"><ele>179.0</ele><time>2026-03-29T10:50:23Z</time></trkpt><trkpt lat="45.60803592093744" lon="9.541185621424342"><ele>179.0</ele><time>2026-03-29T10:50:24Z</time></trkpt><trkpt lat="45.607994638254425" lon="9.541312623474719"><ele>179.0</ele><time>2026-03-29T10:50:25Z</time></trkpt><trkpt lat="45.607950725101546" lon="9.541404286024912"><ele>179.0</ele><time>2026-03-29T10:50:26Z</time></trkpt><trkpt lat="45.60788662452536" lon="9.541480519292087"><ele>179.0</ele><time>2026-03-29T10:50:27Z</time></trkpt><trkpt lat="45.607844419758884" lon="9.541557119393353"><ele>179.0</ele><time>2026-03-29T10:50:28Z</time></trkpt><trkpt lat="45.607794246249185" lon="9.541720656280622"><ele>179.33333333333331</ele><time>2026-03-29T10:50:30Z</time></trkpt><trkpt lat="45.6078156700784" lon="9.541805847424346"><ele>179.66666666666666</ele><time>2026-03-29T10:50:31Z</time></trkpt><trkpt lat="45.60768856847453" lon="9.541930697609859"><ele>180.0</ele><time>2026-03-29T10:50:33Z</time></trkpt><trkpt lat="45.60761675403082" lon="9.541926312472187"><ele>180.33333333333334</ele><time>2026-03-29T10:50:34Z</time></trkpt><trkpt lat="45.60755564744876" lon="9.54195127753139"><ele>180.66666666666669</ele><time>2026-03-29T10:50:35Z</time></trkpt><trkpt lat="45.607492784422455" lon="9.541976967870234"><ele>181.0</ele><time>2026-03-29T10:50:36Z</time></trkpt><trkpt lat="45.60743487982878" lon="9.542016041783514"><ele>180.5</ele><time>2026-03-29T10:50:37Z</time></trkpt><trkpt lat="45.607383624485344" lon="9.542073380420584"><ele>180.0</ele><time>2026-03-29T10:50:38Z</time></trkpt><trkpt lat="45.6072998740308" lon="9.54217947851593"><ele>179.5</ele><time>2026-03-29T10:50:40Z</time></trkpt><trkpt lat="45.60723737674671" lon="9.542207029222997"><ele>179.0</ele><time>2026-03-29T10:50:41Z</time></trkpt><trkpt lat="45.60716566381504" lon="9.5423510815339"><ele>178.5</ele><time>2026-03-29T10:50:43Z</time></trkpt><trkpt lat="45.607165663249454" lon="9.542450198931606"><ele>178.0</ele><time>2026-03-29T10:50:44Z</time></trkpt><trkpt lat="45.607125326152534" lon="9.542601166510613"><ele>178.0</ele><time>2026-03-29T10:50:46Z</time></trkpt><trkpt lat="45.6070561476905" lon="9.542751715307054"><ele>178.0</ele><time>2026-03-29T10:50:48Z</time></trkpt><trkpt lat="45.60704851314444" lon="9.542933254228956"><ele>178.0</ele><time>2026-03-29T10:50:50Z</time></trkpt><trkpt lat="45.60702081056887" lon="9.543099854641357"><ele>178.0</ele><time>2026-03-29T10:50:52Z</time></trkpt><trkpt lat="45.60698676812278" lon="9.543252768648271"><ele>178.2</ele><time>2026-03-29T10:50:54Z</time></trkpt><trkpt lat="45.606958668788394" lon="9.543411883264158"><ele>178.4</ele><time>2026-03-29T10:50:56Z</time></trkpt><trkpt lat="45.60691197436898" lon="9.543565191392641"><ele>178.6</ele><time>2026-03-29T10:50:58Z</time></trkpt><trkpt lat="45.60685699731482" lon="9.543719359238994"><ele>178.79999999999998</ele><time>2026-03-29T10:51:00Z</time></trkpt><trkpt lat="45.60683878396896" lon="9.543808650666099"><ele>179.0</ele><time>2026-03-29T10:51:01Z</time></trkpt><trkpt lat="45.60681173367021" lon="9.543941605827248"><ele>179.0</ele><time>2026-03-29T10:51:03Z</time></trkpt><trkpt lat="45.60679958189474" lon="9.544031647760209"><ele>179.0</ele><time>2026-03-29T10:51:04Z</time></trkpt><trkpt lat="45.606777296019615" lon="9.544124074601365"><ele>179.0</ele><time>2026-03-29T10:51:07Z</time></trkpt><trkpt lat="45.60671305309828" lon="9.544327080954604"><ele>179.0</ele><time>2026-03-29T10:51:10Z</time></trkpt><trkpt lat="45.60666811429785" lon="9.544438468776383"><ele>179.0</ele><time>2026-03-29T10:51:12Z</time></trkpt><trkpt lat="45.606630522694644" lon="9.544557475391011"><ele>178.5</ele><time>2026-03-29T10:51:15Z</time></trkpt><trkpt lat="45.606606826896915" lon="9.544673304098056"><ele>178.0</ele><time>2026-03-29T10:51:18Z</time></trkpt><trkpt lat="45.60648520794947" lon="9.545299431508363"><ele>178.2</ele><time>2026-03-29T10:51:20Z</time></trkpt><trkpt lat="45.60645156631347" lon="9.545434778542605"><ele>178.4</ele><time>2026-03-29T10:51:22Z</time></trkpt><trkpt lat="45.60641320821506" lon="9.545588901982166"><ele>178.6</ele><time>2026-03-29T10:51:24Z</time></trkpt><trkpt lat="45.60639056892901" lon="9.54567959935088"><ele>178.79999999999998</ele><time>2026-03-29T10:51:25Z</time></trkpt><trkpt lat="45.60634995089585" lon="9.545842323182544"><ele>179.0</ele><time>2026-03-29T10:51:27Z</time></trkpt><trkpt lat="45.60632807333444" lon="9.54592881350298"><ele>179.0</ele><time>2026-03-29T10:51:28Z</time></trkpt><trkpt lat="45.60628671349781" lon="9.54609378576584"><ele>179.0</ele><time>2026-03-29T10:51:30Z</time></trkpt><trkpt lat="45.6062451376195" lon="9.546262033851074"><ele>179.0</ele><time>2026-03-29T10:51:32Z</time></trkpt><trkpt lat="45.60620624732252" lon="9.546428662540755"><ele>179.0</ele><time>2026-03-29T10:51:34Z</time></trkpt><trkpt lat="45.60616821566334" lon="9.546588059939698"><ele>178.5</ele><time>2026-03-29T10:51:36Z</time></trkpt><trkpt lat="45.606133416529424" lon="9.546733911176297"><ele>178.0</ele><time>2026-03-29T10:51:38Z</time></trkpt><trkpt lat="45.60608840884994" lon="9.54687605160527"><ele>177.5</ele><time>2026-03-29T10:51:40Z</time></trkpt><trkpt lat="45.60600032394958" lon="9.546997831103857"><ele>177.0</ele><time>2026-03-29T10:51:42Z</time></trkpt><trkpt lat="45.60589215595413" lon="9.547088387166271"><ele>177.0</ele><time>2026-03-29T10:51:44Z</time></trkpt><trkpt lat="45.60587458303555" lon="9.547187717933749"><ele>177.0</ele><time>2026-03-29T10:51:45Z</time></trkpt><trkpt lat="45.605897982376106" lon="9.547278688173394"><ele>177.0</ele><time>2026-03-29T10:51:46Z</time></trkpt><trkpt lat="45.605961692181936" lon="9.547398810957759"><ele>177.0</ele><time>2026-03-29T10:51:48Z</time></trkpt><trkpt lat="45.60593098597819" lon="9.547508546672617"><ele>177.0</ele><time>2026-03-29T10:51:49Z</time></trkpt><trkpt lat="45.605911379589045" lon="9.547610894238689"><ele>177.0</ele><time>2026-03-29T10:51:50Z</time></trkpt><trkpt lat="45.605886851674704" lon="9.547712243077774"><ele>177.0</ele><time>2026-03-29T10:51:51Z</time></trkpt><trkpt lat="45.60586372019668" lon="9.547801444031464"><ele>177.0</ele><time>2026-03-29T10:51:52Z</time></trkpt><trkpt lat="45.60583020453729" lon="9.547930689045874"><ele>177.0</ele><time>2026-03-29T10:51:54Z</time></trkpt><trkpt lat="45.605796151063736" lon="9.548059712854032"><ele>177.0</ele><time>2026-03-29T10:51:56Z</time></trkpt><trkpt lat="45.605760481602054" lon="9.54819314075888"><ele>177.0</ele><time>2026-03-29T10:51:58Z</time></trkpt><trkpt lat="45.605735227031914" lon="9.54827634177985"><ele>177.0</ele><time>2026-03-29T10:51:59Z</time></trkpt><trkpt lat="45.6057011162597" lon="9.548364894874931"><ele>177.0</ele><time>2026-03-29T10:52:00Z</time></trkpt><trkpt lat="45.605649144983865" lon="9.548510594598762"><ele>177.0</ele><time>2026-03-29T10:52:02Z</time></trkpt><trkpt lat="45.6056271972494" lon="9.548603284936725"><ele>177.0</ele><time>2026-03-29T10:52:03Z</time></trkpt><trkpt lat="45.605585607619595" lon="9.54878332752625"><ele>177.0</ele><time>2026-03-29T10:52:05Z</time></trkpt><trkpt lat="45.605561099249" lon="9.5489300497598"><ele>177.0</ele><time>2026-03-29T10:52:07Z</time></trkpt><trkpt lat="45.60553269762138" lon="9.549013734136638"><ele>177.2</ele><time>2026-03-29T10:52:08Z</time></trkpt><trkpt lat="45.60550995151419" lon="9.549101437663259"><ele>177.39999999999998</ele><time>2026-03-29T10:52:09Z</time></trkpt><trkpt lat="45.60549806924189" lon="9.54925380484877"><ele>177.60000000000002</ele><time>2026-03-29T10:52:11Z</time></trkpt><trkpt lat="45.605449513795314" lon="9.54937645685814"><ele>177.8</ele><time>2026-03-29T10:52:13Z</time></trkpt><trkpt lat="45.605412250736045" lon="9.54950316567763"><ele>178.0</ele><time>2026-03-29T10:52:15Z</time></trkpt><trkpt lat="45.605368219956254" lon="9.549656336195929"><ele>177.8</ele><time>2026-03-29T10:52:17Z</time></trkpt><trkpt lat="45.6053227964171" lon="9.549831410776934"><ele>177.60000000000002</ele><time>2026-03-29T10:52:19Z</time></trkpt><trkpt lat="45.60527426012803" lon="9.549995368629377"><ele>177.39999999999998</ele><time>2026-03-29T10:52:21Z</time></trkpt><trkpt lat="45.6052432935376" lon="9.550091439992997"><ele>177.2</ele><time>2026-03-29T10:52:22Z</time></trkpt><trkpt lat="45.605221798034826" lon="9.550182438425052"><ele>177.0</ele><time>2026-03-29T10:52:23Z</time></trkpt><trkpt lat="45.60520405950467" lon="9.55027007041343"><ele>177.0</ele><time>2026-03-29T10:52:24Z</time></trkpt><trkpt lat="45.60519431730994" lon="9.550359198961928"><ele>177.0</ele><time>2026-03-29T10:52:25Z</time></trkpt><trkpt lat="45.605162301797435" lon="9.550438858218579"><ele>177.0</ele><time>2026-03-29T10:52:26Z</time></trkpt><trkpt lat="45.60512708823829" lon="9.55059265733243"><ele>177.0</ele><time>2026-03-29T10:52:28Z</time></trkpt><trkpt lat="45.6050981497988" lon="9.55075013433112"><ele>177.0</ele><time>2026-03-29T10:52:30Z</time></trkpt><trkpt lat="45.60506671162584" lon="9.550834947667559"><ele>177.0</ele><time>2026-03-29T10:52:31Z</time></trkpt><trkpt lat="45.60503776682255" lon="9.551012233606325"><ele>176.85714285714286</ele><time>2026-03-29T10:52:33Z</time></trkpt><trkpt lat="45.60501670460188" lon="9.551099094174235"><ele>176.7142857142857</ele><time>2026-03-29T10:52:34Z</time></trkpt><trkpt lat="45.60499420216825" lon="9.551184419271452"><ele>176.57142857142856</ele><time>2026-03-29T10:52:35Z</time></trkpt><trkpt lat="45.60497398870065" lon="9.5512716060661"><ele>176.42857142857144</ele><time>2026-03-29T10:52:36Z</time></trkpt><trkpt lat="45.60495454110917" lon="9.551359131647407"><ele>176.28571428571428</ele><time>2026-03-29T10:52:37Z</time></trkpt><trkpt lat="45.604940383941155" lon="9.551450320044852"><ele>176.14285714285714</ele><time>2026-03-29T10:52:38Z</time></trkpt><trkpt lat="45.60490187526497" lon="9.551612285697049"><ele>176.0</ele><time>2026-03-29T10:52:40Z</time></trkpt><trkpt lat="45.6048441044983" lon="9.551755127353953"><ele>176.0</ele><time>2026-03-29T10:52:42Z</time></trkpt><trkpt lat="45.60480672717353" lon="9.551906398375454"><ele>176.0</ele><time>2026-03-29T10:52:44Z</time></trkpt><trkpt lat="45.60477408056874" lon="9.552069864485098"><ele>176.0</ele><time>2026-03-29T10:52:46Z</time></trkpt><trkpt lat="45.60474378864915" lon="9.552250515373219"><ele>176.0</ele><time>2026-03-29T10:52:48Z</time></trkpt><trkpt lat="45.60471807338994" lon="9.552342918206648"><ele>176.0</ele><time>2026-03-29T10:52:49Z</time></trkpt><trkpt lat="45.6046962008134" lon="9.552427836533822"><ele>176.0</ele><time>2026-03-29T10:52:50Z</time></trkpt><trkpt lat="45.60466218770174" lon="9.552587622728705"><ele>176.0</ele><time>2026-03-29T10:52:52Z</time></trkpt><trkpt lat="45.604635416344834" lon="9.552678760693102"><ele>176.0</ele><time>2026-03-29T10:52:53Z</time></trkpt><trkpt lat="45.60459580546693" lon="9.552837073299422"><ele>176.0</ele><time>2026-03-29T10:52:55Z</time></trkpt><trkpt lat="45.60457455901769" lon="9.55292530076518"><ele>176.0</ele><time>2026-03-29T10:52:56Z</time></trkpt><trkpt lat="45.604522528042345" lon="9.553047223256998"><ele>175.71428571428572</ele><time>2026-03-29T10:52:58Z</time></trkpt><trkpt lat="45.60450334709662" lon="9.553136416702788"><ele>175.42857142857142</ele><time>2026-03-29T10:52:59Z</time></trkpt><trkpt lat="45.604492516181494" lon="9.553285982073755"><ele>175.14285714285714</ele><time>2026-03-29T10:53:01Z</time></trkpt><trkpt lat="45.604466000805395" lon="9.553379948980336"><ele>174.85714285714286</ele><time>2026-03-29T10:53:02Z</time></trkpt><trkpt lat="45.60443202454804" lon="9.553463202283856"><ele>174.57142857142858</ele><time>2026-03-29T10:53:03Z</time></trkpt><trkpt lat="45.60440457588004" lon="9.553554352312942"><ele>174.28571428571428</ele><time>2026-03-29T10:53:04Z</time></trkpt><trkpt lat="45.60438660232574" lon="9.553643222319034"><ele>174.0</ele><time>2026-03-29T10:53:05Z</time></trkpt><trkpt lat="45.6043672327631" lon="9.553735172149773"><ele>173.79999999999998</ele><time>2026-03-29T10:53:06Z</time></trkpt><trkpt lat="45.604348727276694" lon="9.553825686968903"><ele>173.6</ele><time>2026-03-29T10:53:07Z</time></trkpt><trkpt lat="45.6043237492845" lon="9.55392240081579"><ele>173.4</ele><time>2026-03-29T10:53:08Z</time></trkpt><trkpt lat="45.60430511474986" lon="9.554015221481094"><ele>173.2</ele><time>2026-03-29T10:53:09Z</time></trkpt><trkpt lat="45.604268296830746" lon="9.554185218543969"><ele>173.0</ele><time>2026-03-29T10:53:11Z</time></trkpt><trkpt lat="45.60423254722471" lon="9.554361736553401"><ele>173.0</ele><time>2026-03-29T10:53:13Z</time></trkpt><trkpt lat="45.60420214947843" lon="9.554505262237583"><ele>173.0</ele><time>2026-03-29T10:53:15Z</time></trkpt><trkpt lat="45.60417157762902" lon="9.554660652273263"><ele>173.0</ele><time>2026-03-29T10:53:17Z</time></trkpt><trkpt lat="45.60414889271871" lon="9.554812625846415"><ele>173.0</ele><time>2026-03-29T10:53:19Z</time></trkpt><trkpt lat="45.60413130243791" lon="9.554966121857726"><ele>173.0</ele><time>2026-03-29T10:53:21Z</time></trkpt><trkpt lat="45.60409633134925" lon="9.555089850637419"><ele>172.83333333333331</ele><time>2026-03-29T10:53:23Z</time></trkpt><trkpt lat="45.604078752231565" lon="9.555190931750378"><ele>172.66666666666666</ele><time>2026-03-29T10:53:24Z</time></trkpt><trkpt lat="45.60406468039989" lon="9.555322519830714"><ele>172.5</ele><time>2026-03-29T10:53:25Z</time></trkpt><trkpt lat="45.60404388402824" lon="9.555413476473092"><ele>172.33333333333334</ele><time>2026-03-29T10:53:26Z</time></trkpt><trkpt lat="45.60400372234253" lon="9.55556363524501"><ele>172.16666666666669</ele><time>2026-03-29T10:53:28Z</time></trkpt><trkpt lat="45.60398487294049" lon="9.555682959787529"><ele>172.0</ele><time>2026-03-29T10:53:30Z</time></trkpt><trkpt lat="45.603966104843096" lon="9.55577095769041"><ele>172.0</ele><time>2026-03-29T10:53:31Z</time></trkpt><trkpt lat="45.60398579921316" lon="9.555862947989553"><ele>172.0</ele><time>2026-03-29T10:53:32Z</time></trkpt><trkpt lat="45.60402720529296" lon="9.556016568777482"><ele>172.0</ele><time>2026-03-29T10:53:34Z</time></trkpt><trkpt lat="45.604067234729555" lon="9.556134394283603"><ele>172.0</ele><time>2026-03-29T10:53:36Z</time></trkpt><trkpt lat="45.60410178417558" lon="9.556295035553477"><ele>172.0</ele><time>2026-03-29T10:53:38Z</time></trkpt><trkpt lat="45.604168227538835" lon="9.556434558025332"><ele>171.5</ele><time>2026-03-29T10:53:40Z</time></trkpt><trkpt lat="45.60421065558265" lon="9.556523618940533"><ele>171.0</ele><time>2026-03-29T10:53:41Z</time></trkpt><trkpt lat="45.60425020991892" lon="9.556607673440304"><ele>170.5</ele><time>2026-03-29T10:53:42Z</time></trkpt><trkpt lat="45.60430491696117" lon="9.556669033536128"><ele>170.0</ele><time>2026-03-29T10:53:43Z</time></trkpt><trkpt lat="45.60433924928248" lon="9.556750100548543"><ele>169.5</ele><time>2026-03-29T10:53:44Z</time></trkpt><trkpt lat="45.60440607860971" lon="9.556911556118363"><ele>169.0</ele><time>2026-03-29T10:53:46Z</time></trkpt><trkpt lat="45.60444554747722" lon="9.55698628049891"><ele>168.71428571428572</ele><time>2026-03-29T10:53:47Z</time></trkpt><trkpt lat="45.60448359793608" lon="9.557059348901927"><ele>168.42857142857142</ele><time>2026-03-29T10:53:48Z</time></trkpt><trkpt lat="45.604521287744134" lon="9.557152430032387"><ele>168.14285714285714</ele><time>2026-03-29T10:53:49Z</time></trkpt><trkpt lat="45.604565625093755" lon="9.557227971781526"><ele>167.85714285714286</ele><time>2026-03-29T10:53:50Z</time></trkpt><trkpt lat="45.60459367819466" lon="9.55732319600678"><ele>167.57142857142858</ele><time>2026-03-29T10:53:51Z</time></trkpt><trkpt lat="45.604632314132715" lon="9.557402674850803"><ele>167.28571428571428</ele><time>2026-03-29T10:53:52Z</time></trkpt><trkpt lat="45.60467105666322" lon="9.557482373170242"><ele>167.0</ele><time>2026-03-29T10:53:53Z</time></trkpt><trkpt lat="45.6047084046774" lon="9.557558463745252"><ele>167.0</ele><time>2026-03-29T10:53:54Z</time></trkpt><trkpt lat="45.60475041497394" lon="9.557643962105644"><ele>167.0</ele><time>2026-03-29T10:53:55Z</time></trkpt><trkpt lat="45.604790356681086" lon="9.557727968834895"><ele>167.0</ele><time>2026-03-29T10:53:56Z</time></trkpt><trkpt lat="45.604828882274546" lon="9.557802920779755"><ele>167.0</ele><time>2026-03-29T10:53:57Z</time></trkpt><trkpt lat="45.60483173184338" lon="9.557907442858495"><ele>167.0</ele><time>2026-03-29T10:53:58Z</time></trkpt><trkpt lat="45.604781076834286" lon="9.558062043863552"><ele>167.0</ele><time>2026-03-29T10:54:00Z</time></trkpt><trkpt lat="45.604737611297736" lon="9.558145484650435"><ele>165.66666666666666</ele><time>2026-03-29T10:54:01Z</time></trkpt><trkpt lat="45.60470294037363" lon="9.558238083820708"><ele>164.33333333333331</ele><time>2026-03-29T10:54:02Z</time></trkpt><trkpt lat="45.60464779670298" lon="9.558395485772394"><ele>163.0</ele><time>2026-03-29T10:54:04Z</time></trkpt><trkpt lat="45.60462269963791" lon="9.558478371224915"><ele>161.66666666666666</ele><time>2026-03-29T10:54:05Z</time></trkpt><trkpt lat="45.60459680104022" lon="9.558561171750041"><ele>160.33333333333334</ele><time>2026-03-29T10:54:06Z</time></trkpt><trkpt lat="45.60454415702425" lon="9.55871971694116"><ele>159.0</ele><time>2026-03-29T10:54:08Z</time></trkpt><trkpt lat="45.60451514318246" lon="9.55880269529449"><ele>159.2</ele><time>2026-03-29T10:54:09Z</time></trkpt><trkpt lat="45.604486396617965" lon="9.558887327381976"><ele>159.4</ele><time>2026-03-29T10:54:10Z</time></trkpt><trkpt lat="45.60443101027395" lon="9.559049669369271"><ele>159.6</ele><time>2026-03-29T10:54:12Z</time></trkpt><trkpt lat="45.604376653162845" lon="9.55921131208264"><ele>159.8</ele><time>2026-03-29T10:54:14Z</time></trkpt><trkpt lat="45.60433231048173" lon="9.55936262984789"><ele>160.0</ele><time>2026-03-29T10:54:16Z</time></trkpt><trkpt lat="45.604295074504876" lon="9.559527479213475"><ele>161.0</ele><time>2026-03-29T10:54:18Z</time></trkpt><trkpt lat="45.604276129866854" lon="9.559698989914763"><ele>162.0</ele><time>2026-03-29T10:54:20Z</time></trkpt><trkpt lat="45.60427277818158" lon="9.559875798182661"><ele>163.0</ele><time>2026-03-29T10:54:22Z</time></trkpt><trkpt lat="45.60429059814161" lon="9.560050354605941"><ele>164.0</ele><time>2026-03-29T10:54:24Z</time></trkpt><trkpt lat="45.60431296802927" lon="9.560227472251741"><ele>164.0</ele><time>2026-03-29T10:54:26Z</time></trkpt><trkpt lat="45.60433740972978" lon="9.560402852691455"><ele>164.0</ele><time>2026-03-29T10:54:28Z</time></trkpt><trkpt lat="45.60435255659623" lon="9.5605761736683"><ele>164.0</ele><time>2026-03-29T10:54:30Z</time></trkpt><trkpt lat="45.6043638628624" lon="9.560669200250134"><ele>164.0</ele><time>2026-03-29T10:54:31Z</time></trkpt><trkpt lat="45.60439210658588" lon="9.560840574037115"><ele>164.0</ele><time>2026-03-29T10:54:33Z</time></trkpt><trkpt lat="45.60440460378386" lon="9.561002075846567"><ele>164.0</ele><time>2026-03-29T10:54:35Z</time></trkpt><trkpt lat="45.60443226209183" lon="9.561170602918278"><ele>164.0</ele><time>2026-03-29T10:54:37Z</time></trkpt><trkpt lat="45.60445506835702" lon="9.561339685787694"><ele>164.0</ele><time>2026-03-29T10:54:39Z</time></trkpt><trkpt lat="45.60447266921002" lon="9.561500964466978"><ele>164.0</ele><time>2026-03-29T10:54:41Z</time></trkpt><trkpt lat="45.60448614607644" lon="9.561591994780079"><ele>164.0</ele><time>2026-03-29T10:54:42Z</time></trkpt><trkpt lat="45.60450634725714" lon="9.561681670117492"><ele>164.0</ele><time>2026-03-29T10:54:43Z</time></trkpt><trkpt lat="45.60451589545446" lon="9.561776797742915"><ele>164.0</ele><time>2026-03-29T10:54:44Z</time></trkpt><trkpt lat="45.604538272021415" lon="9.561868253417542"><ele>164.0</ele><time>2026-03-29T10:54:48Z</time></trkpt><trkpt lat="45.60453659159923" lon="9.562004673730822"><ele>164.0</ele><time>2026-03-29T10:54:50Z</time></trkpt><trkpt lat="45.60455024043106" lon="9.562130794550601"><ele>164.0</ele><time>2026-03-29T10:54:51Z</time></trkpt><trkpt lat="45.60456461238337" lon="9.562281431804173"><ele>164.0</ele><time>2026-03-29T10:54:52Z</time></trkpt><trkpt lat="45.60459505834139" lon="9.562394740238028"><ele>164.0</ele><time>2026-03-29T10:54:53Z</time></trkpt><trkpt lat="45.60461910172569" lon="9.562507944873138"><ele>164.0</ele><time>2026-03-29T10:54:54Z</time></trkpt><trkpt lat="45.60462976289532" lon="9.562603940012014"><ele>164.0</ele><time>2026-03-29T10:54:55Z</time></trkpt><trkpt lat="45.6046573388165" lon="9.562774698601933"><ele>164.0</ele><time>2026-03-29T10:54:57Z</time></trkpt><trkpt lat="45.604669411919076" lon="9.562867634490779"><ele>164.0</ele><time>2026-03-29T10:54:58Z</time></trkpt><trkpt lat="45.60468503882072" lon="9.562960745422775"><ele>164.0</ele><time>2026-03-29T10:54:59Z</time></trkpt><trkpt lat="45.60469713347456" lon="9.563049963824177"><ele>164.16666666666666</ele><time>2026-03-29T10:55:00Z</time></trkpt><trkpt lat="45.60471200837839" lon="9.563138799026563"><ele>164.33333333333331</ele><time>2026-03-29T10:55:01Z</time></trkpt><trkpt lat="45.60473384501539" lon="9.563226885069454"><ele>164.5</ele><time>2026-03-29T10:55:02Z</time></trkpt><trkpt lat="45.60474609621631" lon="9.563319127501208"><ele>164.66666666666666</ele><time>2026-03-29T10:55:03Z</time></trkpt><trkpt lat="45.60476708388885" lon="9.563489592604151"><ele>164.83333333333334</ele><time>2026-03-29T10:55:05Z</time></trkpt><trkpt lat="45.60478744086128" lon="9.563632396470071"><ele>165.0</ele><time>2026-03-29T10:55:07Z</time></trkpt><trkpt lat="45.604803481256354" lon="9.56374938523821"><ele>165.2</ele><time>2026-03-29T10:55:09Z</time></trkpt><trkpt lat="45.60483722995662" lon="9.563863962568817"><ele>165.4</ele><time>2026-03-29T10:55:11Z</time></trkpt><trkpt lat="45.604843926924154" lon="9.563955033649858"><ele>165.60000000000002</ele><time>2026-03-29T10:55:12Z</time></trkpt><trkpt lat="45.604863075265314" lon="9.564086048343798"><ele>165.8</ele><time>2026-03-29T10:55:14Z</time></trkpt><trkpt lat="45.60505899543476" lon="9.564040292684284"><ele>166.0</ele><time>2026-03-29T10:55:15Z</time></trkpt><trkpt lat="45.605283435086136" lon="9.56406039605769"><ele>165.83333333333334</ele><time>2026-03-29T10:55:19Z</time></trkpt><trkpt lat="45.6054098553728" lon="9.564046541023911"><ele>165.66666666666669</ele><time>2026-03-29T10:55:21Z</time></trkpt><trkpt lat="45.60547423079076" lon="9.564069006870163"><ele>165.5</ele><time>2026-03-29T10:55:22Z</time></trkpt><trkpt lat="45.60553718201654" lon="9.564074192212582"><ele>165.33333333333334</ele><time>2026-03-29T10:55:23Z</time></trkpt><trkpt lat="45.60560543735909" lon="9.564087805500659"><ele>165.16666666666666</ele><time>2026-03-29T10:55:24Z</time></trkpt><trkpt lat="45.6056658495201" lon="9.56412961920652"><ele>165.0</ele><time>2026-03-29T10:55:25Z</time></trkpt><trkpt lat="45.60572754784581" lon="9.564163138979016"><ele>165.0</ele><time>2026-03-29T10:55:26Z</time></trkpt><trkpt lat="45.60584979212124" lon="9.564179695907983"><ele>165.0</ele><time>2026-03-29T10:55:28Z</time></trkpt><trkpt lat="45.60596907147626" lon="9.564160233773537"><ele>165.0</ele><time>2026-03-29T10:55:30Z</time></trkpt><trkpt lat="45.606084164062004" lon="9.564169103134244"><ele>165.0</ele><time>2026-03-29T10:55:32Z</time></trkpt><trkpt lat="45.60620111329401" lon="9.564176556068007"><ele>165.0</ele><time>2026-03-29T10:55:34Z</time></trkpt><trkpt lat="45.60631784142889" lon="9.564183837437408"><ele>165.0</ele><time>2026-03-29T10:55:36Z</time></trkpt><trkpt lat="45.606428474952736" lon="9.564191868180027"><ele>165.0</ele><time>2026-03-29T10:55:38Z</time></trkpt><trkpt lat="45.60653958169076" lon="9.564200407859495"><ele>165.0</ele><time>2026-03-29T10:55:40Z</time></trkpt><trkpt lat="45.606662193111795" lon="9.564209831789713"><ele>165.0</ele><time>2026-03-29T10:55:42Z</time></trkpt><trkpt lat="45.606770914596595" lon="9.56421797458303"><ele>165.0</ele><time>2026-03-29T10:55:44Z</time></trkpt><trkpt lat="45.606884275112826" lon="9.564226236353988"><ele>165.0</ele><time>2026-03-29T10:55:46Z</time></trkpt><trkpt lat="45.606992938081696" lon="9.56423483901749"><ele>165.0</ele><time>2026-03-29T10:55:48Z</time></trkpt><trkpt lat="45.60710304928821" lon="9.564243419683468"><ele>165.0</ele><time>2026-03-29T10:55:50Z</time></trkpt><trkpt lat="45.607166989681204" lon="9.564248382928707"><ele>165.16666666666666</ele><time>2026-03-29T10:55:52Z</time></trkpt><trkpt lat="45.607132972617215" lon="9.564408588980017"><ele>165.33333333333334</ele><time>2026-03-29T10:55:53Z</time></trkpt><trkpt lat="45.60714988378831" lon="9.564543393114848"><ele>165.5</ele><time>2026-03-29T10:55:57Z</time></trkpt><trkpt lat="45.607181987972794" lon="9.564650319488356"><ele>165.66666666666669</ele><time>2026-03-29T10:55:59Z</time></trkpt><trkpt lat="45.60717109274186" lon="9.564765438363226"><ele>165.83333333333334</ele><time>2026-03-29T10:56:01Z</time></trkpt><trkpt lat="45.607163773392095" lon="9.564858725477139"><ele>166.0</ele><time>2026-03-29T10:56:03Z</time></trkpt><trkpt lat="45.607171773525785" lon="9.564948678335469"><ele>166.33333333333334</ele><time>2026-03-29T10:56:05Z</time></trkpt><trkpt lat="45.60718000020678" lon="9.56507214594497"><ele>166.66666666666666</ele><time>2026-03-29T10:56:08Z</time></trkpt><trkpt lat="45.60720866945171" lon="9.565167486432895"><ele>167.0</ele><time>2026-03-29T10:56:11Z</time></trkpt><trkpt lat="45.6073623401057" lon="9.566027915407112"><ele>166.83333333333331</ele><time>2026-03-29T10:56:14Z</time></trkpt><trkpt lat="45.607341140890156" lon="9.566166756688277"><ele>166.66666666666666</ele><time>2026-03-29T10:56:16Z</time></trkpt><trkpt lat="45.60736566410632" lon="9.566328713417954"><ele>166.5</ele><time>2026-03-29T10:56:18Z</time></trkpt><trkpt lat="45.607380250447726" lon="9.566425042801567"><ele>166.33333333333334</ele><time>2026-03-29T10:56:19Z</time></trkpt><trkpt lat="45.60739772103536" lon="9.566516961707888"><ele>166.16666666666669</ele><time>2026-03-29T10:56:20Z</time></trkpt><trkpt lat="45.60742346798173" lon="9.566613047969394"><ele>166.0</ele><time>2026-03-29T10:56:21Z</time></trkpt><trkpt lat="45.60745758088532" lon="9.566704070169063"><ele>166.0</ele><time>2026-03-29T10:56:22Z</time></trkpt><trkpt lat="45.60752416374081" lon="9.566854327327185"><ele>166.0</ele><time>2026-03-29T10:56:24Z</time></trkpt><trkpt lat="45.60759919921964" lon="9.567010668527683"><ele>166.0</ele><time>2026-03-29T10:56:27Z</time></trkpt><trkpt lat="45.607636653184414" lon="9.567091843814149"><ele>166.0</ele><time>2026-03-29T10:56:28Z</time></trkpt><trkpt lat="45.60767213123283" lon="9.567177660847692"><ele>166.0</ele><time>2026-03-29T10:56:29Z</time></trkpt><trkpt lat="45.60772523493503" lon="9.567338445524456"><ele>166.0</ele><time>2026-03-29T10:56:31Z</time></trkpt><trkpt lat="45.607760222818065" lon="9.567487820681759"><ele>166.0</ele><time>2026-03-29T10:56:33Z</time></trkpt><trkpt lat="45.607786746862764" lon="9.56764425150959"><ele>166.0</ele><time>2026-03-29T10:56:36Z</time></trkpt><trkpt lat="45.60778763974919" lon="9.567779600349589"><ele>166.0</ele><time>2026-03-29T10:56:38Z</time></trkpt><trkpt lat="45.607796266135736" lon="9.56787969954894"><ele>166.0</ele><time>2026-03-29T10:56:40Z</time></trkpt><trkpt lat="45.6078057528744" lon="9.5680163891944"><ele>166.16666666666669</ele><time>2026-03-29T10:56:42Z</time></trkpt><trkpt lat="45.607831635574804" lon="9.568129936652172"><ele>166.33333333333334</ele><time>2026-03-29T10:56:45Z</time></trkpt><trkpt lat="45.60785798737869" lon="9.568225544750561"><ele>166.5</ele><time>2026-03-29T10:56:47Z</time></trkpt><trkpt lat="45.607849717620255" lon="9.568351915156205"><ele>166.66666666666666</ele><time>2026-03-29T10:56:49Z</time></trkpt><trkpt lat="45.607856035702596" lon="9.568455871786984"><ele>166.83333333333331</ele><time>2026-03-29T10:56:51Z</time></trkpt><trkpt lat="45.60787675246149" lon="9.568564068671025"><ele>167.0</ele><time>2026-03-29T10:56:53Z</time></trkpt><trkpt lat="45.60791530176217" lon="9.568646498634221"><ele>167.16666666666666</ele><time>2026-03-29T10:56:55Z</time></trkpt><trkpt lat="45.60795623760615" lon="9.568788675503185"><ele>167.33333333333331</ele><time>2026-03-29T10:56:58Z</time></trkpt><trkpt lat="45.60798647455545" lon="9.568869370173179"><ele>167.5</ele><time>2026-03-29T10:57:00Z</time></trkpt><trkpt lat="45.60798586154689" lon="9.568981654453847"><ele>167.66666666666666</ele><time>2026-03-29T10:57:02Z</time></trkpt><trkpt lat="45.60802963137104" lon="9.569091685949525"><ele>167.83333333333334</ele><time>2026-03-29T10:57:04Z</time></trkpt><trkpt lat="45.608044894422996" lon="9.569200912182298"><ele>168.0</ele><time>2026-03-29T10:57:07Z</time></trkpt><trkpt lat="45.60806966954772" lon="9.569305239065576"><ele>168.0</ele><time>2026-03-29T10:57:08Z</time></trkpt><trkpt lat="45.608089690152724" lon="9.569413067058642"><ele>168.0</ele><time>2026-03-29T10:57:11Z</time></trkpt><trkpt lat="45.608085592462835" lon="9.569508498082126"><ele>168.0</ele><time>2026-03-29T10:57:13Z</time></trkpt><trkpt lat="45.60813087334144" lon="9.569619519124254"><ele>168.0</ele><time>2026-03-29T10:57:16Z</time></trkpt><trkpt lat="45.608548483779664" lon="9.570793006106946"><ele>168.16666666666666</ele><time>2026-03-29T10:57:18Z</time></trkpt><trkpt lat="45.608583720539336" lon="9.570905395352051"><ele>168.33333333333334</ele><time>2026-03-29T10:57:20Z</time></trkpt><trkpt lat="45.608555964146056" lon="9.571022422737673"><ele>168.5</ele><time>2026-03-29T10:57:21Z</time></trkpt><trkpt lat="45.60859031518534" lon="9.571101655171613"><ele>168.66666666666669</ele><time>2026-03-29T10:57:22Z</time></trkpt><trkpt lat="45.608656198772145" lon="9.571261376803866"><ele>168.83333333333334</ele><time>2026-03-29T10:57:24Z</time></trkpt><trkpt lat="45.60865990322354" lon="9.571366571095487"><ele>169.0</ele><time>2026-03-29T10:57:25Z</time></trkpt><trkpt lat="45.60868652624144" lon="9.57146188556688"><ele>169.16666666666669</ele><time>2026-03-29T10:57:26Z</time></trkpt><trkpt lat="45.60867676659626" lon="9.571590526241506"><ele>169.33333333333334</ele><time>2026-03-29T10:57:27Z</time></trkpt><trkpt lat="45.60872706126763" lon="9.571683215083056"><ele>169.5</ele><time>2026-03-29T10:57:28Z</time></trkpt><trkpt lat="45.6087623503932" lon="9.571796044813919"><ele>169.66666666666666</ele><time>2026-03-29T10:57:29Z</time></trkpt><trkpt lat="45.60884279630884" lon="9.571860212475878"><ele>169.83333333333331</ele><time>2026-03-29T10:57:30Z</time></trkpt><trkpt lat="45.60891627089424" lon="9.571921721968078"><ele>170.0</ele><time>2026-03-29T10:57:31Z</time></trkpt><trkpt lat="45.60899178255607" lon="9.57197418879609"><ele>170.0</ele><time>2026-03-29T10:57:32Z</time></trkpt><trkpt lat="45.60906645390582" lon="9.572022759066119"><ele>170.0</ele><time>2026-03-29T10:57:33Z</time></trkpt><trkpt lat="45.60915265562934" lon="9.572056854932425"><ele>170.0</ele><time>2026-03-29T10:57:34Z</time></trkpt><trkpt lat="45.609211441647695" lon="9.572116557845586"><ele>170.0</ele><time>2026-03-29T10:57:35Z</time></trkpt><trkpt lat="45.60926540162537" lon="9.572178167726465"><ele>170.0</ele><time>2026-03-29T10:57:36Z</time></trkpt><trkpt lat="45.609108094259085" lon="9.572049898856978"><ele>170.2</ele><time>2026-03-29T10:57:37Z</time></trkpt><trkpt lat="45.60920955363201" lon="9.572115340263354"><ele>170.4</ele><time>2026-03-29T10:57:38Z</time></trkpt><trkpt lat="45.60931302497628" lon="9.57218207679428"><ele>170.60000000000002</ele><time>2026-03-29T10:57:39Z</time></trkpt><trkpt lat="45.609403232013776" lon="9.572240475483964"><ele>170.8</ele><time>2026-03-29T10:57:40Z</time></trkpt><trkpt lat="45.60950241497112" lon="9.572306515874242"><ele>171.0</ele><time>2026-03-29T10:57:43Z</time></trkpt><trkpt lat="45.609598642871575" lon="9.572368389213805"><ele>171.25</ele><time>2026-03-29T10:57:44Z</time></trkpt><trkpt lat="45.60973403151822" lon="9.572452570843257"><ele>171.5</ele><time>2026-03-29T10:57:46Z</time></trkpt><trkpt lat="45.60976958414201" lon="9.572550622146403"><ele>171.75</ele><time>2026-03-29T10:57:48Z</time></trkpt><trkpt lat="45.609715546546724" lon="9.572739783895274"><ele>172.0</ele><time>2026-03-29T10:57:49Z</time></trkpt><trkpt lat="45.60968471939351" lon="9.572908549017656"><ele>172.0</ele><time>2026-03-29T10:57:51Z</time></trkpt><trkpt lat="45.60967129057651" lon="9.573008990051408"><ele>172.0</ele><time>2026-03-29T10:57:54Z</time></trkpt><trkpt lat="45.609674618869406" lon="9.573128327969203"><ele>172.0</ele><time>2026-03-29T10:57:56Z</time></trkpt><trkpt lat="45.6096768039083" lon="9.57328440377485"><ele>172.0</ele><time>2026-03-29T10:57:57Z</time></trkpt><trkpt lat="45.609706829593414" lon="9.573396821877887"><ele>172.0</ele><time>2026-03-29T10:57:59Z</time></trkpt><trkpt lat="45.60973414316843" lon="9.573509364454672"><ele>172.0</ele><time>2026-03-29T10:58:01Z</time></trkpt><trkpt lat="45.60978635503809" lon="9.573609758665288"><ele>172.0</ele><time>2026-03-29T10:58:03Z</time></trkpt><trkpt lat="45.60984698409177" lon="9.573687608959048"><ele>172.0</ele><time>2026-03-29T10:58:05Z</time></trkpt><trkpt lat="45.60986669262944" lon="9.573781036175083"><ele>172.0</ele><time>2026-03-29T10:58:07Z</time></trkpt><trkpt lat="45.61006644839206" lon="9.574265386916375"><ele>172.75</ele><time>2026-03-29T10:58:09Z</time></trkpt><trkpt lat="45.610143781806165" lon="9.574387927726862"><ele>173.5</ele><time>2026-03-29T10:58:11Z</time></trkpt><trkpt lat="45.61021399593623" lon="9.574512629996452"><ele>174.25</ele><time>2026-03-29T10:58:13Z</time></trkpt><trkpt lat="45.61029311772152" lon="9.574648249348444"><ele>175.0</ele><time>2026-03-29T10:58:15Z</time></trkpt><trkpt lat="45.61037272695774" lon="9.574766749993673"><ele>175.0</ele><time>2026-03-29T10:58:17Z</time></trkpt><trkpt lat="45.610414597010994" lon="9.574834121400908"><ele>175.0</ele><time>2026-03-29T10:58:18Z</time></trkpt><trkpt lat="45.61047640400534" lon="9.574935174420055"><ele>175.0</ele><time>2026-03-29T10:58:20Z</time></trkpt><trkpt lat="45.61051244518611" lon="9.575015061505985"><ele>175.0</ele><time>2026-03-29T10:58:21Z</time></trkpt><trkpt lat="45.61058762006699" lon="9.57513921063065"><ele>175.0</ele><time>2026-03-29T10:58:23Z</time></trkpt><trkpt lat="45.610633668408795" lon="9.57528780596153"><ele>174.6</ele><time>2026-03-29T10:58:26Z</time></trkpt><trkpt lat="45.61068740853072" lon="9.575372242301183"><ele>174.2</ele><time>2026-03-29T10:58:30Z</time></trkpt><trkpt lat="45.61072348418557" lon="9.575446831759841"><ele>173.8</ele><time>2026-03-29T10:58:33Z</time></trkpt><trkpt lat="45.61078173812343" lon="9.575535390475045"><ele>173.4</ele><time>2026-03-29T10:58:35Z</time></trkpt><trkpt lat="45.61089139298594" lon="9.575793484729683"><ele>173.0</ele><time>2026-03-29T10:58:38Z</time></trkpt><trkpt lat="45.61114267349743" lon="9.576087852748207"><ele>173.0</ele><time>2026-03-29T10:58:39Z</time></trkpt><trkpt lat="45.61123608717269" lon="9.576183590193148"><ele>173.0</ele><time>2026-03-29T10:58:41Z</time></trkpt><trkpt lat="45.61131078969743" lon="9.57631460389207"><ele>173.0</ele><time>2026-03-29T10:58:43Z</time></trkpt><trkpt lat="45.6113931966383" lon="9.576426746321376"><ele>173.0</ele><time>2026-03-29T10:58:45Z</time></trkpt><trkpt lat="45.611478151278256" lon="9.57653211446383"><ele>173.0</ele><time>2026-03-29T10:58:47Z</time></trkpt><trkpt lat="45.6115614044361" lon="9.576652633865672"><ele>173.0</ele><time>2026-03-29T10:58:49Z</time></trkpt><trkpt lat="45.611642281153905" lon="9.57674286902642"><ele>173.0</ele><time>2026-03-29T10:58:51Z</time></trkpt><trkpt lat="45.61167975339721" lon="9.576899299857144"><ele>173.0</ele><time>2026-03-29T10:58:53Z</time></trkpt><trkpt lat="45.61175285336587" lon="9.577024596803058"><ele>173.8</ele><time>2026-03-29T10:58:55Z</time></trkpt><trkpt lat="45.61183444805708" lon="9.577142329453059"><ele>174.60000000000002</ele><time>2026-03-29T10:58:57Z</time></trkpt><trkpt lat="45.61188639398793" lon="9.57721102675424"><ele>175.39999999999998</ele><time>2026-03-29T10:58:58Z</time></trkpt><trkpt lat="45.611978190740636" lon="9.577311328709424"><ele>176.2</ele><time>2026-03-29T10:59:00Z</time></trkpt><trkpt lat="45.612073576464226" lon="9.577399362239758"><ele>177.0</ele><time>2026-03-29T10:59:02Z</time></trkpt><trkpt lat="45.612176081604936" lon="9.5774641960692"><ele>177.2</ele><time>2026-03-29T10:59:04Z</time></trkpt><trkpt lat="45.612277877473964" lon="9.577528528757437"><ele>177.39999999999998</ele><time>2026-03-29T10:59:06Z</time></trkpt><trkpt lat="45.61237310875336" lon="9.57759317284244"><ele>177.60000000000002</ele><time>2026-03-29T10:59:08Z</time></trkpt><trkpt lat="45.612457604683115" lon="9.577665744457143"><ele>177.8</ele><time>2026-03-29T10:59:10Z</time></trkpt><trkpt lat="45.61251637763582" lon="9.577702297892982"><ele>178.0</ele><time>2026-03-29T10:59:11Z</time></trkpt><trkpt lat="45.612621388517056" lon="9.57774711332837"><ele>178.0</ele><time>2026-03-29T10:59:13Z</time></trkpt><trkpt lat="45.612720890519974" lon="9.577806426995258"><ele>178.0</ele><time>2026-03-29T10:59:15Z</time></trkpt><trkpt lat="45.612811568192186" lon="9.577882879717212"><ele>178.0</ele><time>2026-03-29T10:59:17Z</time></trkpt><trkpt lat="45.61289259635227" lon="9.577937249248949"><ele>178.0</ele><time>2026-03-29T10:59:19Z</time></trkpt><trkpt lat="45.61299417484333" lon="9.577951428727927"><ele>178.0</ele><time>2026-03-29T10:59:21Z</time></trkpt><trkpt lat="45.613040305297034" lon="9.578026559115525"><ele>178.0</ele><time>2026-03-29T10:59:22Z</time></trkpt><trkpt lat="45.613164176066036" lon="9.578198144306446"><ele>178.0</ele><time>2026-03-29T10:59:27Z</time></trkpt><trkpt lat="45.61322735579184" lon="9.578307901702987"><ele>178.0</ele><time>2026-03-29T10:59:30Z</time></trkpt><trkpt lat="45.613265660287645" lon="9.57838961786242"><ele>178.0</ele><time>2026-03-29T10:59:31Z</time></trkpt><trkpt lat="45.613304169068" lon="9.57847645763925"><ele>178.0</ele><time>2026-03-29T10:59:33Z</time></trkpt><trkpt lat="45.61347497571584" lon="9.578901964943089"><ele>178.2</ele><time>2026-03-29T10:59:36Z</time></trkpt><trkpt lat="45.61351108974807" lon="9.579017628914576"><ele>178.4</ele><time>2026-03-29T10:59:38Z</time></trkpt><trkpt lat="45.6135602339288" lon="9.579175028079506"><ele>178.6</ele><time>2026-03-29T10:59:40Z</time></trkpt><trkpt lat="45.613605168744904" lon="9.579323942463807"><ele>178.79999999999998</ele><time>2026-03-29T10:59:42Z</time></trkpt><trkpt lat="45.613646664427264" lon="9.579469085741474"><ele>179.0</ele><time>2026-03-29T10:59:44Z</time></trkpt><trkpt lat="45.61368526333928" lon="9.579614764467689"><ele>179.0</ele><time>2026-03-29T10:59:46Z</time></trkpt><trkpt lat="45.61372397529827" lon="9.57977254655402"><ele>179.0</ele><time>2026-03-29T10:59:48Z</time></trkpt><trkpt lat="45.613745728933615" lon="9.579861878823257"><ele>179.0</ele><time>2026-03-29T10:59:49Z</time></trkpt><trkpt lat="45.61378249803241" lon="9.580012872385574"><ele>179.0</ele><time>2026-03-29T10:59:51Z</time></trkpt><trkpt lat="45.613821041908125" lon="9.580168680723501"><ele>179.0</ele><time>2026-03-29T10:59:53Z</time></trkpt><trkpt lat="45.613842508607824" lon="9.580254274560616"><ele>178.5</ele><time>2026-03-29T10:59:54Z</time></trkpt><trkpt lat="45.61388269834354" lon="9.580408221930941"><ele>178.0</ele><time>2026-03-29T10:59:56Z</time></trkpt><trkpt lat="45.61392258324774" lon="9.580554297448389"><ele>177.5</ele><time>2026-03-29T10:59:58Z</time></trkpt><trkpt lat="45.61396384388245" lon="9.580700177021486"><ele>177.0</ele><time>2026-03-29T11:00:00Z</time></trkpt><trkpt lat="45.61400530022611" lon="9.580854637382878"><ele>177.0</ele><time>2026-03-29T11:00:02Z</time></trkpt><trkpt lat="45.61404593115892" lon="9.581002913842628"><ele>177.0</ele><time>2026-03-29T11:00:04Z</time></trkpt><trkpt lat="45.614089252965634" lon="9.58114868119714"><ele>177.0</ele><time>2026-03-29T11:00:06Z</time></trkpt><trkpt lat="45.61412739218604" lon="9.581307331150033"><ele>177.0</ele><time>2026-03-29T11:00:08Z</time></trkpt><trkpt lat="45.61416209556714" lon="9.581469433401994"><ele>177.5</ele><time>2026-03-29T11:00:10Z</time></trkpt><trkpt lat="45.61419887871248" lon="9.581620985806666"><ele>178.0</ele><time>2026-03-29T11:00:12Z</time></trkpt><trkpt lat="45.61423912163904" lon="9.581768552099096"><ele>178.5</ele><time>2026-03-29T11:00:14Z</time></trkpt><trkpt lat="45.61425068327031" lon="9.581922738711969"><ele>179.0</ele><time>2026-03-29T11:00:16Z</time></trkpt><trkpt lat="45.61429076054625" lon="9.58209166389838"><ele>179.0</ele><time>2026-03-29T11:00:18Z</time></trkpt><trkpt lat="45.61434209154601" lon="9.582229591693729"><ele>179.0</ele><time>2026-03-29T11:00:20Z</time></trkpt><trkpt lat="45.61442710494395" lon="9.58225901366475"><ele>179.0</ele><time>2026-03-29T11:00:21Z</time></trkpt><trkpt lat="45.61449155879636" lon="9.582276038815898"><ele>179.0</ele><time>2026-03-29T11:00:22Z</time></trkpt><trkpt lat="45.61460760169439" lon="9.58233688457903"><ele>179.0</ele><time>2026-03-29T11:00:24Z</time></trkpt><trkpt lat="45.6147172219252" lon="9.582400566275709"><ele>179.39999999999998</ele><time>2026-03-29T11:00:26Z</time></trkpt><trkpt lat="45.61483213753262" lon="9.582452623079522"><ele>179.8</ele><time>2026-03-29T11:00:28Z</time></trkpt><trkpt lat="45.61493846304782" lon="9.582525295654012"><ele>180.2</ele><time>2026-03-29T11:00:30Z</time></trkpt><trkpt lat="45.61500441301313" lon="9.582547361855125"><ele>180.60000000000002</ele><time>2026-03-29T11:00:31Z</time></trkpt><trkpt lat="45.6151092229251" lon="9.582615993327396"><ele>181.0</ele><time>2026-03-29T11:00:33Z</time></trkpt><trkpt lat="45.61521643982751" lon="9.582677944338968"><ele>181.0</ele><time>2026-03-29T11:00:35Z</time></trkpt><trkpt lat="45.615321422235084" lon="9.582739993572128"><ele>181.0</ele><time>2026-03-29T11:00:37Z</time></trkpt><trkpt lat="45.61542151206735" lon="9.582786057829459"><ele>181.0</ele><time>2026-03-29T11:00:39Z</time></trkpt><trkpt lat="45.615517027414796" lon="9.582842100990392"><ele>181.0</ele><time>2026-03-29T11:00:41Z</time></trkpt><trkpt lat="45.615579965484734" lon="9.582889454400394"><ele>181.0</ele><time>2026-03-29T11:00:44Z</time></trkpt><trkpt lat="45.61563273852872" lon="9.582950682562956"><ele>181.0</ele><time>2026-03-29T11:00:47Z</time></trkpt><trkpt lat="45.61555274750745" lon="9.583290097843244"><ele>181.0</ele><time>2026-03-29T11:00:48Z</time></trkpt><trkpt lat="45.615548886127826" lon="9.583440150058928"><ele>181.0</ele><time>2026-03-29T11:00:50Z</time></trkpt><trkpt lat="45.61554324036981" lon="9.583581502639808"><ele>181.20000000000002</ele><time>2026-03-29T11:00:52Z</time></trkpt><trkpt lat="45.61553465113155" lon="9.583737074531834"><ele>181.4</ele><time>2026-03-29T11:00:54Z</time></trkpt><trkpt lat="45.61553320301369" lon="9.58390343518438"><ele>181.6</ele><time>2026-03-29T11:00:56Z</time></trkpt><trkpt lat="45.61552641197793" lon="9.58404306071284"><ele>181.8</ele><time>2026-03-29T11:00:58Z</time></trkpt><trkpt lat="45.615519258850725" lon="9.584182332611269"><ele>182.0</ele><time>2026-03-29T11:01:00Z</time></trkpt><trkpt lat="45.61550373348026" lon="9.584313619060891"><ele>182.0</ele><time>2026-03-29T11:01:02Z</time></trkpt><trkpt lat="45.61554396455837" lon="9.584416713348226"><ele>182.0</ele><time>2026-03-29T11:01:04Z</time></trkpt><trkpt lat="45.615616875388724" lon="9.584435875374666"><ele>182.0</ele><time>2026-03-29T11:01:06Z</time></trkpt><trkpt lat="45.61572036274572" lon="9.58449143894739"><ele>182.0</ele><time>2026-03-29T11:01:08Z</time></trkpt><trkpt lat="45.61580991200333" lon="9.584516916709521"><ele>182.0</ele><time>2026-03-29T11:01:10Z</time></trkpt><trkpt lat="45.61588495362747" lon="9.584544436586137"><ele>182.0</ele><time>2026-03-29T11:01:13Z</time></trkpt><trkpt lat="45.61597468552482" lon="9.584567973965878"><ele>181.66666666666666</ele><time>2026-03-29T11:01:15Z</time></trkpt><trkpt lat="45.61604860330723" lon="9.584605178963844"><ele>181.33333333333331</ele><time>2026-03-29T11:01:17Z</time></trkpt><trkpt lat="45.61610353891895" lon="9.584655705797083"><ele>181.0</ele><time>2026-03-29T11:01:20Z</time></trkpt><trkpt lat="45.61606695239992" lon="9.584752819539615"><ele>180.66666666666666</ele><time>2026-03-29T11:01:46Z</time></trkpt><trkpt lat="45.6160587422393" lon="9.584849796545061"><ele>180.33333333333334</ele><time>2026-03-29T11:01:56.024Z</time></trkpt><trkpt lat="45.61603936192035" lon="9.584942736244303"><ele>180.0</ele><time>2026-03-29T11:02:03Z</time></trkpt><trkpt lat="45.616134381895804" lon="9.584729075440752"><ele>180.0</ele><time>2026-03-29T11:02:09Z</time></trkpt><trkpt lat="45.615991947521735" lon="9.58450916014653"><ele>182.0</ele><time>2026-03-29T11:03:13.013Z</time></trkpt></trkseg></trk></gpx>